GFSNW_prec_sndepth_000.txt.gz
Snowfall_Accumulation
nan nan nan nan nan nan nan 0.0 0.2 0.0 0.0 0.1 0.0 0.0 0.0 nan 0.0 0.0 0.0 0.0 0.0 0.0 0.0 0.0 0.0 0.0 0.0 0.0 0.0 0.0 0.0 0.1 1.1 0.0 0.0 0.0 0.0 0.0 0.0 2.0 0.3 1.1 2.4 2.0
nan nan nan nan nan nan 0.0 0.0 0.0 0.0 0.0 2.1 1.9 0.1 0.0 0.0 0.0 0.0 0.0 0.0 0.0 0.0 0.0 0.0 0.0 0.0 0.0 0.0 0.0 0.0 0.0 0.4 0.8 0.3 0.1 0.0 0.0 0.0 0.0 0.1 0.6 0.3 14.5 2.2
nan nan nan nan nan nan 0.0 0.0 1.9 0.2 0.0 0.0 0.0 0.0 0.0 0.0 0.0 0.0 0.0 0.0 0.0 0.0 0.0 0.0 0.0 0.0 0.0 0.0 0.0 nan nan 0.0 0.1 0.7 0.1 0.0 0.1 0.0 0.0 0.1 5.1 0.8 0.6 0.1
nan nan nan nan nan nan 0.0 0.0 0.4 0.1 1.0 0.7 0.0 0.0 0.0 0.0 0.0 0.0 0.0 0.0 0.0 0.0 0.9 0.1 0.1 0.0 0.0 0.0 nan 0.0 0.0 0.2 0.0 0.0 0.0 0.0 0.0 0.0 0.0 0.0 0.0 1.5 0.1 0.0
nan nan nan nan nan nan 0.0 0.1 0.2 0.0 0.0 0.0 0.0 0.1 0.0 0.0 0.0 0.0 0.0 0.0 0.0 0.0 0.2 0.0 0.1 0.0 0.0 0.0 0.0 0.0 0.0 0.8 0.3 0.2 0.0 0.0 0.2 0.0 0.0 0.0 0.0 0.0 0.0 0.0
nan nan nan nan nan nan 0.0 0.0 0.0 0.0 nan 0.1 0.9 0.7 0.0 0.0 0.0 0.0 0.0 0.0 0.1 0.8 0.0 0.0 0.0 0.0 0.0 0.0 0.0 0.1 0.1 1.1 1.9 3.1 0.0 0.4 5.4 0.2 0.0 0.0 0.0 0.0 0.6 0.0
nan nan nan nan nan nan 0.0 0.0 0.0 1.0 1.8 0.9 0.3 0.0 0.0 0.0 0.0 0.0 0.0 0.0 0.6 0.0 0.0 0.0 0.0 0.0 0.0 0.0 0.0 0.0 0.5 0.9 1.6 7.1 3.8 11.1 0.1 0.0 0.0 0.0 0.0 0.0 0.0 0.0
nan nan nan nan nan nan 0.0 0.0 0.0 0.6 19.7 0.7 0.3 0.0 0.0 0.0 0.0 0.0 0.0 0.0 0.0 0.0 0.0 1.8 2.6 2.9 3.4 2.0 0.0 0.0 0.0 0.7 6.2 12.0 2.7 0.2 0.0 0.0 0.1 0.1 0.1 0.0 0.0 0.0
nan nan nan nan nan nan 0.0 0.0 0.0 0.0 11.6 1.5 0.0 0.2 0.0 0.5 0.4 0.7 0.1 0.0 0.0 0.0 1.8 3.3 5.6 5.9 0.6 0.5 0.1 0.0 0.0 0.5 4.9 6.1 8.7 12.7 0.2 0.0 0.0 0.0 1.0 0.0 0.0 0.0
nan nan nan nan nan nan 0.0 0.0 0.0 0.0 2.2 0.0 0.0 0.4 0.5 0.0 0.3 0.6 0.2 0.1 1.4 0.0 6.1 14.2 9.4 5.5 0.1 1.8 2.6 4.5 5.1 6.1 9.6 6.5 10.2 3.2 0.0 0.0 0.0 3.5 0.5 0.2 0.0 0.0
nan nan nan nan nan nan 0.0 0.0 0.0 0.0 0.0 0.0 0.0 0.0 0.0 0.0 0.1 2.3 0.0 1.5 1.5 3.3 7.2 8.0 4.7 11.3 2.7 1.1 0.1 0.7 2.2 7.3 12.3 6.3 9.2 9.7 0.0 0.0 1.8 0.8 0.0 0.0 0.0 0.0
nan nan nan nan nan nan nan 0.0 0.0 0.0 0.5 0.0 0.0 0.0 0.0 0.0 0.0 0.0 0.0 0.2 0.1 0.6 2.2 7.4 8.2 12.2 14.2 3.2 7.3 0.0 3.7 1.4 2.3 0.4 3.1 0.0 0.0 0.0 0.0 0.0 0.0 0.0 0.0 0.0
nan nan nan nan nan nan nan 0.0 0.0 0.0 3.8 0.1 0.0 0.0 0.0 0.0 0.0 0.0 0.9 1.0 0.0 0.1 0.0 1.3 5.2 8.6 1.9 11.8 2.9 3.3 0.0 0.0 1.1 0.9 0.0 0.0 0.0 0.0 0.0 0.0 0.0 0.0 0.0 0.0
nan nan nan nan nan nan nan 0.0 0.0 0.0 0.7 17.8 1.6 0.0 0.0 0.0 0.0 0.0 0.0 0.0 0.0 0.0 0.4 6.4 9.2 12.6 0.0 5.9 3.4 2.2 0.1 0.1 0.2 0.2 0.0 0.0 0.0 0.0 0.0 0.0 0.0 0.0 0.0 0.0
nan nan nan nan nan nan nan 0.0 0.0 0.0 0.2 6.8 1.9 0.0 0.0 0.0 0.0 0.0 0.0 0.0 0.0 0.6 3.7 14.7 10.6 1.1 3.8 2.2 1.8 2.7 0.0 0.1 2.5 1.9 0.0 0.0 0.0 0.0 0.0 0.0 0.0 0.0 0.0 0.0
nan nan nan nan nan nan 0.0 0.0 0.0 0.0 0.0 4.7 9.2 0.1 0.0 0.0 0.0 0.0 0.0 0.0 0.0 0.0 0.7 9.3 1.3 0.0 1.5 15.3 2.4 0.1 0.0 0.0 0.0 0.0 0.0 0.0 0.0 0.0 0.0 0.0 0.0 0.0 0.0 0.0
nan nan nan nan nan 0.0 0.0 0.0 0.0 nan 0.0 6.0 9.3 3.4 0.5 0.0 0.0 0.0 0.0 0.0 0.0 0.0 1.1 3.5 1.3 1.1 0.1 8.3 4.4 0.0 0.0 0.0 0.0 0.0 0.0 0.0 0.0 0.0 0.0 0.0 0.0 0.0 0.0 0.0
nan nan nan nan nan nan 0.3 0.0 nan nan 0.0 2.3 7.5 6.5 4.2 0.0 1.7 5.4 0.0 1.1 1.3 0.2 0.0 2.7 2.8 1.2 3.4 4.2 0.0 0.0 0.0 0.0 0.0 0.0 0.0 0.0 0.0 0.0 0.0 0.0 0.0 0.0 0.0 0.0
nan nan nan 0.0 0.0 0.9 0.0 nan nan 0.0 0.4 3.5 15.0 10.3 13.6 0.0 0.5 2.4 1.5 0.2 7.8 0.2 5.9 2.7 1.2 2.9 4.3 0.0 0.0 0.0 0.0 0.0 0.0 0.0 0.0 0.0 0.0 0.0 0.0 0.0 0.0 0.0 0.0 0.0
nan 0.0 0.1 2.3 1.7 nan nan 0.1 1.8 2.1 2.1 1.7 8.1 1.1 6.5 0.1 2.7 4.5 3.6 3.9 7.2 7.1 6.1 0.1 5.6 1.2 0.0 0.0 0.0 0.0 0.0 0.0 0.0 0.2 0.2 0.0 0.0 0.0 0.0 0.0 0.0 0.0 0.0 0.0
0.2 2.0 1.7 0.0 nan 0.0 0.6 2.8 2.8 1.1 5.8 0.8 1.5 1.6 1.4 0.7 5.8 7.3 3.2 7.8 7.3 9.8 2.6 6.8 4.6 2.5 0.0 0.0 0.0 0.0 0.0 0.0 0.0 0.0 0.0 0.0 0.0 0.0 0.0 0.2 0.3 0.6 0.6 0.4
0.0 0.5 0.0 0.1 0.0 1.7 6.1 8.0 4.9 3.7 2.9 1.7 4.4 2.2 0.5 2.7 0.0 2.5 3.7 5.5 5.3 8.6 1.4 14.2 6.5 0.9 0.0 0.0 0.0 0.0 0.0 0.0 0.0 0.0 0.0 0.0 0.0 0.1 0.2 0.3 0.4 1.1 1.3 4.3
0.0 1.1 2.8 0.1 2.8 34.4 10.3 8.9 7.8 15.2 4.7 7.3 7.6 15.9 2.8 2.7 1.4 5.8 5.3 13.1 11.8 2.4 13.1 2.7 1.6 0.0 0.0 0.0 0.0 0.0 0.0 0.1 0.2 0.0 0.0 0.0 0.0 0.0 0.6 1.8 1.4 2.9 1.9 1.1
1.7 5.8 38.3 10.9 11.6 3.6 3.5 3.9 7.1 6.8 6.9 6.2 4.4 6.3 5.7 7.1 8.4 6.9 12.7 3.6 3.8 10.2 8.9 7.6 0.8 0.0 0.0 0.0 0.0 0.0 0.0 1.9 1.0 0.2 0.2 1.3 1.7 1.8 3.2 4.5 5.2 4.0 1.7 2.0
2.3 5.0 27.2 7.8 3.5 4.6 6.8 7.3 5.9 2.8 2.9 3.9 5.4 4.9 1.7 9.2 13.3 7.1 5.5 12.9 11.9 6.1 6.6 2.9 1.8 0.2 0.1 0.1 0.0 0.0 1.0 3.3 2.0 0.2 1.8 4.0 3.0 2.1 1.6 2.2 2.0 1.8 4.7 4.8
2.8 4.4 8.5 6.4 12.8 19.3 21.0 15.0 11.8 1.9 3.2 3.9 4.3 5.4 10.2 9.2 8.5 8.7 9.6 5.8 5.1 6.1 5.6 3.3 0.7 0.2 0.2 0.3 0.5 0.4 0.3 0.5 0.4 0.4 0.5 1.5 2.9 3.2 1.0 1.8 2.8 6.2 6.7 10.1
7.2 15.3 6.8 10.2 11.4 13.9 12.6 9.3 3.6 0.1 7.2 18.2 7.0 10.4 5.5 2.7 6.6 4.9 2.3 12.1 7.3 5.1 1.8 0.9 0.2 0.3 0.3 0.3 0.4 3.8 0.8 0.3 0.8 0.4 0.9 0.7 1.6 2.4 2.2 2.9 0.9 1.3 2.6 8.8

GFSNW_prec_sndepth_003.txt.gz
Snowfall_Accumulation
nan nan nan nan nan nan nan 0.0 0.2 0.0 0.0 0.1 0.0 0.0 0.0 nan 0.0 0.0 0.0 0.0 0.0 0.0 0.0 0.0 0.0 0.0 0.0 0.0 0.0 0.0 0.0 0.1 1.1 0.0 0.0 0.0 0.0 0.0 0.0 2.0 0.3 1.1 2.5 2.0
nan nan nan nan nan nan 0.0 0.0 0.0 0.0 0.0 1.9 1.9 0.0 0.0 0.0 0.0 0.0 0.0 0.0 0.0 0.0 0.0 0.1 0.0 0.0 0.0 0.0 0.0 0.0 0.0 0.4 0.8 0.3 0.1 0.0 0.0 0.0 0.0 0.1 0.6 0.3 14.4 2.2
nan nan nan nan nan nan 0.0 0.0 1.7 0.1 0.0 0.0 0.0 0.0 0.0 0.0 0.0 0.0 0.0 0.0 0.0 0.0 0.0 0.0 0.0 0.0 0.0 0.0 0.0 nan nan 0.0 0.1 0.7 0.1 0.0 0.1 0.0 0.0 0.1 5.1 0.9 0.6 0.1
nan nan nan nan nan nan 0.0 0.0 0.4 0.1 0.9 0.6 0.0 0.0 0.0 0.0 0.0 0.0 0.0 0.0 0.0 0.0 0.9 0.1 0.1 0.0 0.0 0.0 nan 0.0 0.0 0.2 0.0 0.0 0.0 0.0 0.0 0.0 0.0 0.0 0.0 1.5 0.1 0.0
nan nan nan nan nan nan 0.0 0.1 0.2 0.0 0.0 0.0 0.0 0.1 0.0 0.0 0.0 0.0 0.0 0.0 0.0 0.0 0.2 0.0 0.1 0.0 0.0 0.0 0.0 0.0 0.0 0.8 0.3 0.2 0.0 0.0 0.2 0.0 0.0 0.0 0.0 0.0 0.0 0.0
nan nan nan nan nan nan 0.0 0.0 0.0 0.0 nan 0.1 0.8 0.7 0.0 0.0 0.0 0.0 0.0 0.0 0.1 0.8 0.0 0.0 0.0 0.0 0.0 0.0 0.0 0.1 0.1 1.2 1.9 3.1 0.0 0.4 5.4 0.2 0.0 0.0 0.0 0.0 0.6 0.0
nan nan nan nan nan nan 0.0 0.0 0.0 0.8 1.7 0.9 0.3 0.0 0.0 0.0 0.0 0.0 0.0 0.0 0.6 0.0 0.0 0.0 0.0 0.0 0.0 0.0 0.0 0.0 0.5 0.9 1.6 7.1 3.8 11.2 0.1 0.0 0.0 0.0 0.0 0.0 0.0 0.0
nan nan nan nan nan nan 0.0 0.0 0.0 0.6 19.3 0.6 0.2 0.0 0.0 0.0 0.0 0.0 0.0 0.0 0.0 0.0 0.0 1.7 2.6 2.9 3.4 2.0 0.0 0.0 0.0 0.7 6.2 11.9 2.7 0.3 0.0 0.0 0.1 0.1 0.1 0.0 0.0 0.0
nan nan nan nan nan nan 0.0 0.0 0.0 0.0 10.1 1.4 0.0 0.2 0.0 0.5 0.4 0.6 0.1 0.0 0.0 0.0 1.7 3.3 5.6 5.9 0.6 0.5 0.1 0.0 0.0 0.5 4.9 6.1 8.7 12.8 0.2 0.0 0.0 0.0 1.1 0.0 0.0 0.0
nan nan nan nan nan nan 0.0 0.0 0.0 0.0 1.9 0.0 0.0 0.4 0.5 0.0 0.3 0.6 0.2 0.1 1.4 0.0 5.6 13.7 9.5 5.5 0.1 1.8 2.6 4.5 5.1 6.1 9.6 6.5 10.1 3.3 0.0 0.0 0.0 3.6 0.5 0.2 0.0 0.0
nan nan nan nan nan nan 0.0 0.0 0.0 0.0 0.0 0.0 0.0 0.0 0.0 0.0 0.1 2.2 0.0 1.4 1.5 2.9 6.7 7.9 4.7 11.2 2.7 1.1 0.1 0.7 2.2 7.3 12.3 6.3 9.2 9.8 0.0 0.0 1.8 0.7 0.0 0.0 0.0 0.0
nan nan nan nan nan nan nan 0.0 0.0 0.0 0.4 0.0 0.0 0.0 0.0 0.0 0.0 0.0 0.0 0.2 0.1 0.5 2.0 6.8 8.2 11.6 13.1 3.2 7.2 0.0 3.7 1.4 2.3 0.4 3.1 0.0 0.0 0.0 0.0 0.0 0.0 0.0 0.0 0.0
nan nan nan nan nan nan nan 0.0 0.0 0.0 3.3 0.1 0.0 0.0 0.0 0.0 0.0 0.0 0.8 0.9 0.0 0.1 0.0 1.2 4.7 7.9 1.7 10.8 2.6 3.0 0.0 0.0 1.1 0.8 0.0 0.0 0.0 0.0 0.0 0.0 0.0 0.0 0.0 0.0
nan nan nan nan nan nan nan 0.0 0.0 0.0 0.6 16.0 1.3 0.0 0.0 0.0 0.0 0.0 0.0 0.0 0.0 0.0 0.4 5.7 8.3 11.5 0.0 5.3 3.0 1.9 0.1 0.1 0.2 0.2 0.0 0.0 0.0 0.0 0.0 0.0 0.0 0.0 0.0 0.0
nan nan nan nan nan nan nan 0.0 0.0 0.0 0.2 6.1 1.7 0.0 0.0 0.0 0.0 0.0 0.0 0.0 0.0 0.6 3.3 13.4 9.5 1.0 3.5 2.0 1.6 2.5 0.0 0.1 2.3 1.7 0.0 0.0 0.0 0.0 0.0 0.0 0.0 0.0 0.0 0.0
nan nan nan nan nan nan 0.0 0.0 0.0 0.0 0.0 4.1 8.2 0.1 0.0 0.0 0.0 0.0 0.0 0.0 0.0 0.0 0.6 8.4 1.1 0.0 1.3 14.0 2.2 0.1 0.0 0.0 0.0 0.0 0.0 0.0 0.0 0.0 0.0 0.0 0.0 0.0 0.0 0.0
nan nan nan nan nan 0.0 0.0 0.0 0.0 nan 0.0 5.2 8.4 3.0 0.5 0.0 0.0 0.0 0.0 0.0 0.0 0.0 1.0 3.1 1.2 1.0 0.1 7.6 3.9 0.0 0.0 0.0 0.0 0.0 0.0 0.0 0.0 0.0 0.0 0.0 0.0 0.0 0.0 0.0
nan nan nan nan nan nan 0.3 0.0 nan nan 0.0 2.0 6.8 5.9 3.8 0.0 1.6 5.0 0.0 1.0 1.2 0.2 0.0 2.5 2.5 1.1 3.1 3.8 0.0 0.0 0.0 0.0 0.0 0.0 0.0 0.0 0.0 0.0 0.0 0.0 0.0 0.0 0.0 0.0
nan nan nan 0.0 0.0 0.8 0.0 nan nan 0.0 0.3 3.1 13.9 9.4 12.5 0.0 0.5 2.2 1.4 0.2 7.2 0.2 5.4 2.5 1.1 2.7 4.0 0.0 0.0 0.0 0.0 0.0 0.0 0.0 0.0 0.0 0.0 0.0 0.0 0.0 0.0 0.0 0.0 0.0
nan 0.0 0.1 2.1 1.5 nan nan 0.1 1.6 1.9 1.8 1.6 7.5 1.0 5.9 0.1 2.5 4.1 3.3 3.6 7.0 7.2 5.6 0.1 5.2 1.1 0.0 0.0 0.0 0.0 0.0 0.0 0.0 0.2 0.2 0.0 0.0 0.0 0.0 0.0 0.0 0.0 0.0 0.0
0.1 1.8 1.5 0.0 nan 0.0 0.5 2.6 2.6 1.0 5.4 0.7 1.4 1.4 1.3 0.6 5.3 6.7 3.0 7.9 7.4 9.9 2.6 6.8 4.6 2.5 0.0 0.0 0.0 0.0 0.0 0.0 0.0 0.0 0.0 0.0 0.0 0.0 0.0 0.2 0.3 0.6 0.6 0.4
0.0 0.4 0.0 0.0 0.0 1.6 5.7 8.0 4.9 3.7 2.9 1.7 4.3 2.0 0.5 2.5 0.0 2.4 4.1 5.6 5.5 8.6 1.4 14.3 6.6 0.9 0.0 0.0 0.0 0.0 0.0 0.0 0.0 0.0 0.0 0.0 0.0 0.1 0.2 0.3 0.4 1.2 1.3 4.4
0.0 1.0 2.5 0.1 2.8 34.0 10.3 8.9 7.9 15.2 4.4 6.7 7.0 14.8 2.6 2.5 1.2 6.0 5.4 13.2 11.8 2.4 13.2 2.8 1.6 0.0 0.0 0.0 0.0 0.0 0.0 0.1 0.2 0.0 0.0 0.0 0.0 0.0 0.6 1.8 1.4 3.0 1.9 1.1
1.7 5.8 37.8 10.8 11.6 3.6 3.5 3.9 7.1 6.3 6.4 5.7 4.0 5.9 5.7 7.1 8.4 6.9 12.7 3.6 3.8 10.2 8.9 7.6 0.8 0.0 0.0 0.0 0.0 0.0 0.0 1.9 1.0 0.2 0.2 1.3 1.7 1.8 3.2 4.5 5.2 4.0 1.7 2.0
2.3 5.0 27.0 7.8 3.5 4.6 6.7 6.7 5.4 2.6 2.7 3.6 5.4 4.9 1.7 9.2 13.2 7.1 5.5 12.9 11.9 6.1 6.6 2.9 1.8 0.2 0.1 0.1 0.0 0.0 1.0 3.3 2.0 0.2 1.8 4.0 3.0 2.1 1.6 2.2 2.0 1.8 4.7 4.8
2.8 4.4 8.5 6.4 12.7 19.2 20.9 14.7 11.4 1.8 3.0 3.8 4.3 5.4 10.2 9.2 8.5 8.7 9.6 5.9 5.1 6.1 5.6 3.3 0.7 0.2 0.2 0.3 0.5 0.4 0.3 0.5 0.4 0.4 0.5 1.5 2.9 3.2 1.0 1.8 2.8 6.0 6.7 10.0
7.2 15.3 6.7 10.2 11.4 13.8 12.5 9.3 3.4 0.1 7.1 18.1 7.0 10.4 5.5 2.7 6.6 4.9 2.3 12.1 7.3 5.1 1.9 0.9 0.2 0.3 0.3 0.3 0.4 3.8 0.8 0.3 0.8 0.4 0.9 0.7 1.6 2.4 2.3 2.9 0.9 1.3 2.6 8.8

GFSNW_prec_sndepth_006.txt.gz
Snowfall_Accumulation
nan nan nan nan nan nan nan 0.0 0.1 0.0 0.0 0.1 0.0 0.0 0.0 nan 0.0 0.0 0.0 0.0 0.0 0.0 0.0 0.0 0.0 0.0 0.0 0.0 0.0 0.0 0.0 0.1 1.1 0.0 0.0 0.0 0.0 0.0 0.0 2.0 0.3 1.1 2.5 2.0
nan nan nan nan nan nan 0.0 0.0 0.0 0.0 0.0 1.8 1.9 0.0 0.0 0.0 0.0 0.0 0.0 0.0 0.0 0.0 0.0 0.1 0.0 0.0 0.0 0.0 0.0 0.0 0.0 0.4 0.8 0.3 0.1 0.0 0.0 0.0 0.0 0.1 0.6 0.3 14.4 2.2
nan nan nan nan nan nan 0.0 0.0 1.5 0.1 0.0 0.0 0.0 0.0 0.0 0.0 0.0 0.0 0.0 0.0 0.0 0.0 0.0 0.0 0.0 0.0 0.0 0.0 0.0 nan nan 0.0 0.1 0.7 0.1 0.0 0.1 0.0 0.0 0.1 5.1 0.9 0.6 0.1
nan nan nan nan nan nan 0.0 0.0 0.3 0.0 0.9 0.5 0.0 0.0 0.0 0.0 0.0 0.0 0.0 0.0 0.0 0.0 0.9 0.1 0.1 0.0 0.0 0.0 nan 0.0 0.0 0.2 0.0 0.0 0.0 0.0 0.0 0.0 0.0 0.0 0.0 1.5 0.1 0.0
nan nan nan nan nan nan 0.0 0.0 0.1 0.0 0.0 0.0 0.0 0.1 0.0 0.0 0.0 0.0 0.0 0.0 0.0 0.0 0.2 0.0 0.1 0.0 0.0 0.0 0.0 0.0 0.0 0.9 0.3 0.2 0.0 0.0 0.2 0.0 0.0 0.0 0.0 0.0 0.0 0.0
nan nan nan nan nan nan 0.0 0.0 0.0 0.0 nan 0.1 0.7 0.7 0.0 0.0 0.0 0.0 0.0 0.0 0.1 0.8 0.0 0.0 0.0 0.0 0.0 0.0 0.0 0.1 0.1 1.2 1.9 3.1 0.0 0.4 5.4 0.2 0.0 0.0 0.0 0.0 0.6 0.0
nan nan nan nan nan nan 0.0 0.0 0.0 0.7 1.7 0.9 0.3 0.0 0.0 0.0 0.0 0.0 0.0 0.0 0.6 0.0 0.0 0.0 0.0 0.0 0.0 0.0 0.0 0.0 0.5 1.0 1.6 7.1 3.8 11.3 0.1 0.0 0.0 0.0 0.0 0.0 0.0 0.0
nan nan nan nan nan nan 0.0 0.0 0.0 0.5 19.0 0.6 0.2 0.0 0.0 0.0 0.0 0.0 0.0 0.0 0.0 0.0 0.0 1.7 2.6 2.9 3.4 2.0 0.0 0.0 0.0 0.7 6.2 11.9 2.7 0.3 0.0 0.0 0.1 0.2 0.1 0.0 0.0 0.0
nan nan nan nan nan nan 0.0 0.0 0.0 0.0 8.9 1.2 0.0 0.2 0.0 0.5 0.4 0.6 0.1 0.0 0.0 0.0 1.7 3.3 5.6 5.9 0.6 0.5 0.1 0.0 0.0 0.5 4.9 6.1 8.7 12.8 0.2 0.0 0.0 0.0 1.1 0.0 0.0 0.0
nan nan nan nan nan nan 0.0 0.0 0.0 0.0 1.7 0.0 0.0 0.3 0.4 0.0 0.3 0.5 0.2 0.1 1.3 0.0 5.3 13.7 9.5 5.5 0.1 1.8 2.6 4.5 5.1 6.1 9.6 6.5 10.2 3.3 0.0 0.0 0.0 3.6 0.5 0.1 0.0 0.0
nan nan nan nan nan nan 0.0 0.0 0.0 0.0 0.0 0.0 0.0 0.0 0.0 0.0 0.1 2.1 0.0 1.3 1.4 2.7 6.2 7.8 4.7 11.2 2.7 1.2 0.1 0.7 2.2 7.3 12.3 6.4 9.3 9.8 0.0 0.0 1.7 0.7 0.0 0.0 0.0 0.0
nan nan nan nan nan nan nan 0.0 0.0 0.0 0.4 0.0 0.0 0.0 0.0 0.0 0.0 0.0 0.0 0.2 0.1 0.5 1.8 6.3 8.2 11.6 13.1 3.2 7.3 0.0 3.7 1.3 2.3 0.4 3.1 0.0 0.0 0.0 0.0 0.0 0.0 0.0 0.0 0.0
nan nan nan nan nan nan nan 0.0 0.0 0.0 2.8 0.1 0.0 0.0 0.0 0.0 0.0 0.0 0.7 0.8 0.0 0.1 0.0 1.2 4.3 7.8 1.7 10.0 2.5 2.8 0.0 0.0 1.0 0.8 0.0 0.0 0.0 0.0 0.0 0.0 0.0 0.0 0.0 0.0
nan nan nan nan nan nan nan 0.0 0.0 0.0 0.5 14.6 1.2 0.0 0.0 0.0 0.0 0.0 0.0 0.0 0.0 0.0 0.3 5.2 7.6 10.6 0.0 4.9 2.6 1.7 0.1 0.1 0.1 0.2 0.0 0.0 0.0 0.0 0.0 0.0 0.0 0.0 0.0 0.0
nan nan nan nan nan nan nan 0.0 0.0 0.0 0.2 5.5 1.5 0.0 0.0 0.0 0.0 0.0 0.0 0.0 0.0 0.6 3.0 12.3 8.6 0.9 3.1 1.9 1.5 2.3 0.0 0.1 2.1 1.5 0.0 0.0 0.0 0.0 0.0 0.0 0.0 0.0 0.0 0.0
nan nan nan nan nan nan 0.0 0.0 0.0 0.0 0.0 3.5 7.3 0.0 0.0 0.0 0.0 0.0 0.0 0.0 0.0 0.0 0.6 7.6 1.0 0.0 1.2 12.9 2.1 0.1 0.0 0.0 0.0 0.0 0.0 0.0 0.0 0.0 0.0 0.0 0.0 0.0 0.0 0.0
nan nan nan nan nan 0.0 0.0 0.0 0.0 nan 0.0 4.4 7.7 2.8 0.5 0.0 0.0 0.0 0.0 0.0 0.0 0.0 0.9 2.8 1.1 0.9 0.1 7.0 3.5 0.0 0.0 0.0 0.0 0.0 0.0 0.0 0.0 0.0 0.0 0.0 0.0 0.0 0.0 0.0
nan nan nan nan nan nan 0.3 0.0 nan nan 0.0 1.7 6.2 5.4 3.6 0.0 1.4 4.6 0.0 0.9 1.1 0.2 0.0 2.3 2.3 1.0 2.9 3.5 0.0 0.0 0.0 0.0 0.0 0.0 0.0 0.0 0.0 0.0 0.0 0.0 0.0 0.0 0.0 0.0
nan nan nan 0.0 0.0 0.7 0.0 nan nan 0.0 0.3 2.8 12.8 8.7 11.6 0.0 0.4 2.0 1.4 0.2 6.7 0.2 5.0 2.3 1.0 2.5 3.7 0.0 0.0 0.0 0.0 0.0 0.0 0.0 0.0 0.0 0.0 0.0 0.0 0.0 0.0 0.0 0.0 0.0
nan 0.0 0.0 1.9 1.3 nan nan 0.1 1.4 1.7 1.7 1.4 6.9 1.0 5.5 0.1 2.3 3.8 3.1 3.3 6.5 7.2 5.2 0.1 4.9 1.0 0.0 0.0 0.0 0.0 0.0 0.0 0.0 0.2 0.2 0.0 0.0 0.0 0.0 0.0 0.0 0.0 0.0 0.0
0.1 1.6 1.4 0.0 nan 0.0 0.5 2.4 2.4 0.9 5.0 0.7 1.3 1.3 1.2 0.6 5.0 6.2 2.7 7.9 7.5 10.0 2.6 6.8 4.6 2.5 0.0 0.0 0.0 0.0 0.0 0.0 0.0 0.0 0.0 0.0 0.0 0.0 0.0 0.2 0.3 0.6 0.6 0.4
0.0 0.4 0.0 0.0 0.0 1.5 5.2 7.8 4.9 3.7 2.9 1.6 4.1 1.9 0.4 2.3 0.0 2.2 4.5 5.9 5.8 8.8 1.4 14.4 6.7 0.9 0.0 0.0 0.0 0.0 0.0 0.0 0.0 0.0 0.0 0.0 0.0 0.1 0.2 0.3 0.4 1.2 1.3 4.4
0.0 0.9 2.3 0.0 2.8 33.5 10.3 8.9 8.0 15.2 4.2 6.3 6.4 13.8 2.4 2.3 1.1 6.5 5.5 13.3 11.9 2.4 13.3 2.8 1.6 0.0 0.0 0.0 0.0 0.0 0.0 0.1 0.2 0.0 0.0 0.0 0.0 0.0 0.6 1.8 1.4 3.0 1.9 1.1
1.6 5.8 37.3 10.8 11.6 3.6 3.5 3.9 7.1 6.3 5.9 5.3 3.7 6.0 5.7 7.2 8.6 7.0 12.7 3.6 3.8 10.2 9.0 7.6 0.8 0.0 0.0 0.0 0.0 0.0 0.0 1.9 1.0 0.2 0.2 1.3 1.7 1.8 3.2 4.5 5.2 4.0 1.7 2.0
2.3 5.0 26.7 7.8 3.5 4.6 6.3 6.2 5.0 2.4 2.5 3.3 5.6 5.2 1.7 9.2 13.3 7.1 5.5 12.9 11.9 6.1 6.6 2.9 1.8 0.2 0.1 0.1 0.0 0.0 1.0 3.3 2.0 0.2 1.8 4.1 3.1 2.1 1.6 2.3 2.0 1.8 4.7 4.8
2.8 4.4 8.5 6.3 12.7 19.1 20.8 13.4 10.8 1.6 2.8 3.8 4.3 5.4 10.2 9.2 8.5 8.7 9.6 5.9 5.1 6.0 5.6 3.3 0.7 0.2 0.2 0.3 0.5 0.4 0.3 0.5 0.4 0.4 0.5 1.5 3.0 3.2 1.0 1.8 2.8 6.0 6.7 10.0
7.2 15.3 6.7 10.2 11.3 13.8 12.5 9.3 3.4 0.1 7.1 18.0 6.9 10.3 5.5 2.7 6.6 4.9 2.3 12.0 7.3 5.1 1.8 0.9 0.2 0.3 0.3 0.3 0.4 3.9 0.8 0.3 0.8 0.4 0.9 0.7 1.6 2.4 2.3 3.0 0.9 1.3 2.6 8.8

GFSNW_prec_sndepth_009.txt.gz
Snowfall_Accumulation
nan nan nan nan nan nan nan 0.0 0.1 0.0 0.0 0.1 0.0 0.0 0.0 nan 0.0 0.0 0.0 0.0 0.0 0.0 0.0 0.0 0.0 0.0 0.0 0.0 0.0 0.0 0.0 0.1 1.1 0.0 0.0 0.0 0.0 0.0 0.0 1.9 0.2 1.0 2.4 2.0
nan nan nan nan nan nan 0.0 0.0 0.0 0.0 0.0 1.8 1.9 0.0 0.0 0.0 0.0 0.0 0.0 0.0 0.0 0.0 0.0 0.1 0.0 0.0 0.0 0.0 0.0 0.0 0.0 0.3 0.8 0.3 0.1 0.0 0.0 0.0 0.0 0.1 0.6 0.3 14.2 2.2
nan nan nan nan nan nan 0.0 0.0 1.4 0.1 0.0 0.0 0.0 0.0 0.0 0.0 0.0 0.0 0.0 0.0 0.0 0.0 0.0 0.0 0.0 0.0 0.0 0.0 0.0 nan nan 0.0 0.1 0.7 0.0 0.0 0.1 0.0 0.0 0.1 4.8 0.8 0.6 0.0
nan nan nan nan nan nan 0.0 0.0 0.3 0.0 0.8 0.5 0.0 0.0 0.0 0.0 0.0 0.0 0.0 0.0 0.0 0.0 0.9 0.1 0.1 0.0 0.0 0.0 nan 0.0 0.0 0.2 0.0 0.0 0.0 0.0 0.0 0.0 0.0 0.0 0.0 1.4 0.1 0.0
nan nan nan nan nan nan 0.0 0.0 0.1 0.0 0.0 0.0 0.0 0.1 0.0 0.0 0.0 0.0 0.0 0.0 0.0 0.0 0.2 0.0 0.1 0.0 0.0 0.0 0.0 0.0 0.0 0.8 0.3 0.2 0.0 0.0 0.2 0.0 0.0 0.0 0.0 0.0 0.0 0.0
nan nan nan nan nan nan 0.0 0.0 0.0 0.0 nan 0.1 0.7 0.6 0.0 0.0 0.0 0.0 0.0 0.0 0.1 0.8 0.0 0.0 0.0 0.0 0.0 0.0 0.0 0.1 0.1 1.1 1.8 3.1 0.0 0.4 5.4 0.2 0.0 0.0 0.0 0.0 0.5 0.0
nan nan nan nan nan nan 0.0 0.0 0.0 0.6 1.7 0.9 0.2 0.0 0.0 0.0 0.0 0.0 0.0 0.0 0.5 0.0 0.0 0.0 0.0 0.0 0.0 0.0 0.0 0.0 0.4 0.9 1.6 7.0 3.7 11.3 0.1 0.0 0.0 0.0 0.0 0.0 0.0 0.0
nan nan nan nan nan nan 0.0 0.0 0.0 0.4 18.6 0.6 0.2 0.0 0.0 0.0 0.0 0.0 0.0 0.0 0.0 0.0 0.0 1.6 2.6 2.8 3.4 2.0 0.0 0.0 0.0 0.6 6.0 11.8 2.7 0.2 0.0 0.0 0.1 0.1 0.1 0.0 0.0 0.0
nan nan nan nan nan nan 0.0 0.0 0.0 0.0 7.8 1.1 0.0 0.2 0.0 0.5 0.4 0.6 0.1 0.0 0.0 0.0 1.6 3.2 5.7 5.9 0.6 0.5 0.1 0.0 0.0 0.5 4.7 5.9 9.0 13.0 0.2 0.0 0.0 0.0 1.0 0.0 0.0 0.0
nan nan nan nan nan nan 0.0 0.0 0.0 0.0 1.6 0.0 0.0 0.3 0.4 0.0 0.3 0.5 0.2 0.1 1.3 0.0 5.2 13.4 9.4 5.4 0.1 1.8 2.6 4.5 5.0 5.9 9.5 6.4 10.2 3.2 0.0 0.0 0.0 3.7 0.5 0.1 0.0 0.0
nan nan nan nan nan nan 0.0 0.0 0.0 0.0 0.0 0.0 0.0 0.0 0.0 0.0 0.1 2.0 0.0 1.2 1.4 2.4 5.7 7.5 4.6 11.1 2.6 1.1 0.1 0.7 2.2 7.1 12.3 6.4 9.2 9.8 0.0 0.0 1.6 0.7 0.0 0.0 0.0 0.0
nan nan nan nan nan nan nan 0.0 0.0 0.0 0.3 0.0 0.0 0.0 0.0 0.0 0.0 0.0 0.0 0.2 0.1 0.5 1.7 6.0 8.0 11.4 13.0 3.2 7.1 0.0 3.6 1.3 2.2 0.4 3.0 0.0 0.0 0.0 0.0 0.0 0.0 0.0 0.0 0.0
nan nan nan nan nan nan nan 0.0 0.0 0.0 2.4 0.1 0.0 0.0 0.0 0.0 0.0 0.0 0.6 0.8 0.0 0.1 0.0 1.1 4.0 7.6 1.6 9.9 2.4 2.8 0.0 0.0 0.9 0.7 0.0 0.0 0.0 0.0 0.0 0.0 0.0 0.0 0.0 0.0
nan nan nan nan nan nan nan 0.0 0.0 0.0 0.4 13.3 1.1 0.0 0.0 0.0 0.0 0.0 0.0 0.0 0.0 0.0 0.3 4.8 7.0 9.9 0.0 4.5 2.4 1.5 0.1 0.1 0.1 0.2 0.0 0.0 0.0 0.0 0.0 0.0 0.0 0.0 0.0 0.0
nan nan nan nan nan nan nan 0.0 0.0 0.0 0.1 5.1 1.4 0.0 0.0 0.0 0.0 0.0 0.0 0.0 0.0 0.5 2.7 11.4 7.9 0.9 2.9 1.7 1.4 2.1 0.0 0.1 1.9 1.3 0.0 0.0 0.0 0.0 0.0 0.0 0.0 0.0 0.0 0.0
nan nan nan nan nan nan 0.0 0.0 0.0 0.0 0.0 3.0 6.8 0.0 0.0 0.0 0.0 0.0 0.0 0.0 0.0 0.0 0.5 7.0 0.9 0.0 1.1 12.0 1.9 0.1 0.0 0.0 0.0 0.0 0.0 0.0 0.0 0.0 0.0 0.0 0.0 0.0 0.0 0.0
nan nan nan nan nan 0.0 0.0 0.0 0.0 nan 0.0 3.8 7.1 2.6 0.5 0.0 0.0 0.0 0.0 0.0 0.0 0.0 0.8 2.5 1.0 0.8 0.1 6.5 3.3 0.0 0.0 0.0 0.0 0.0 0.0 0.0 0.0 0.0 0.0 0.0 0.0 0.0 0.0 0.0
nan nan nan nan nan nan 0.2 0.0 nan nan 0.0 1.5 5.8 4.9 3.5 0.0 1.3 4.2 0.0 0.8 1.0 0.2 0.0 2.1 2.1 0.9 2.7 3.2 0.0 0.0 0.0 0.0 0.0 0.0 0.0 0.0 0.0 0.0 0.0 0.0 0.0 0.0 0.0 0.0
nan nan nan 0.0 0.0 0.6 0.0 nan nan 0.0 0.2 2.5 12.0 7.9 10.7 0.0 0.4 1.9 1.3 0.1 6.2 0.2 4.7 2.1 0.9 2.3 3.4 0.0 0.0 0.0 0.0 0.0 0.0 0.0 0.0 0.0 0.0 0.0 0.0 0.0 0.0 0.0 0.0 0.0
nan 0.0 0.0 1.8 1.2 nan nan 0.0 1.3 1.5 1.5 1.3 6.4 0.9 5.0 0.1 2.2 3.5 2.8 3.1 6.1 7.0 4.9 0.1 4.5 1.0 0.0 0.0 0.0 0.0 0.0 0.0 0.0 0.2 0.2 0.0 0.0 0.0 0.0 0.0 0.0 0.0 0.0 0.0
0.1 1.4 1.3 0.0 nan 0.0 0.5 2.2 2.3 0.9 4.6 0.6 1.2 1.2 1.1 0.5 4.6 5.7 2.6 8.0 7.3 10.0 2.6 6.7 4.6 2.5 0.0 0.0 0.0 0.0 0.0 0.0 0.0 0.0 0.0 0.0 0.0 0.0 0.0 0.2 0.3 0.6 0.6 0.4
0.0 0.3 0.0 0.0 0.0 1.4 5.1 8.6 5.4 3.5 2.9 1.6 3.8 1.8 0.4 2.2 0.0 2.0 4.9 6.3 5.9 8.9 1.4 14.5 6.8 0.9 0.0 0.0 0.0 0.0 0.0 0.0 0.0 0.0 0.0 0.0 0.0 0.1 0.2 0.2 0.3 1.2 1.3 4.4
0.0 0.8 2.1 0.1 3.1 33.4 10.3 9.0 8.1 15.1 3.9 5.9 6.0 13.5 2.2 2.2 1.0 6.6 5.5 13.4 12.1 2.4 13.4 2.8 1.6 0.0 0.0 0.0 0.0 0.0 0.0 0.1 0.2 0.0 0.0 0.0 0.0 0.0 0.6 1.8 1.4 3.0 1.9 1.1
1.5 5.6 37.2 10.9 11.7 3.6 3.5 3.9 7.1 6.3 5.6 4.9 3.4 6.0 5.7 7.3 8.9 7.3 12.7 3.8 3.8 10.4 9.0 7.6 0.8 0.0 0.0 0.0 0.0 0.0 0.0 1.9 1.0 0.2 0.2 1.3 1.7 1.8 3.2 4.5 5.2 4.0 1.7 2.0
2.3 5.0 26.5 7.8 3.5 4.6 6.0 5.8 4.7 2.3 2.3 3.1 5.5 5.2 1.7 9.2 13.5 7.1 5.6 12.9 11.8 6.1 6.6 2.9 1.8 0.2 0.1 0.1 0.0 0.0 1.0 3.3 2.0 0.2 1.8 4.1 3.1 2.1 1.6 2.3 2.0 1.8 4.7 4.8
2.8 4.4 8.5 6.3 12.6 19.0 20.6 12.4 10.0 1.5 2.6 3.9 4.4 5.4 10.3 9.3 8.5 8.7 9.5 5.9 5.1 6.0 5.6 3.3 0.7 0.2 0.2 0.3 0.5 0.4 0.3 0.5 0.4 0.3 0.5 1.5 3.0 3.2 1.0 1.8 2.8 6.0 6.7 10.0
7.2 15.2 6.7 10.2 11.3 13.8 12.5 9.1 3.3 0.1 7.1 18.0 6.9 10.3 5.5 2.7 6.6 4.9 2.3 12.0 7.2 5.1 1.8 0.9 0.2 0.3 0.2 0.3 0.4 3.9 0.8 0.3 0.8 0.4 0.9 0.7 1.6 2.4 2.3 3.0 0.9 1.3 2.6 8.8

GFSNW_prec_sndepth_012.txt.gz
Snowfall_Accumulation
nan nan nan nan nan nan nan 0.0 0.1 0.0 0.0 0.1 0.0 0.0 0.0 nan 0.0 0.0 0.0 0.0 0.0 0.0 0.0 0.0 0.0 0.0 0.0 0.0 0.0 0.0 0.0 0.1 0.9 0.0 0.0 0.0 0.0 0.0 0.0 1.4 0.1 0.8 1.8 1.7
nan nan nan nan nan nan 0.0 0.0 0.0 0.0 0.0 1.3 1.4 0.0 0.0 0.0 0.0 0.0 0.0 0.0 0.0 0.0 0.0 0.0 0.0 0.0 0.0 0.0 0.0 0.0 0.0 0.3 0.6 0.2 0.1 0.0 0.0 0.0 0.0 0.0 0.4 0.2 11.9 1.7
nan nan nan nan nan nan 0.0 0.0 1.1 0.1 0.0 0.0 0.0 0.0 0.0 0.0 0.0 0.0 0.0 0.0 0.0 0.0 0.0 0.0 0.0 0.0 0.0 0.0 0.0 nan nan 0.0 0.1 0.6 0.0 0.0 0.0 0.0 0.0 0.0 3.5 0.6 0.5 0.0
nan nan nan nan nan nan 0.0 0.0 0.3 0.0 0.6 0.4 0.0 0.0 0.0 0.0 0.0 0.0 0.0 0.0 0.0 0.0 0.6 0.0 0.0 0.0 0.0 0.0 nan 0.0 0.0 0.1 0.0 0.0 0.0 0.0 0.0 0.0 0.0 0.0 0.0 1.1 0.1 0.0
nan nan nan nan nan nan 0.0 0.0 0.1 0.0 0.0 0.0 0.0 0.0 0.0 0.0 0.0 0.0 0.0 0.0 0.0 0.0 0.1 0.0 0.0 0.0 0.0 0.0 0.0 0.0 0.0 0.6 0.2 0.2 0.0 0.0 0.1 0.0 0.0 0.0 0.0 0.0 0.0 0.0
nan nan nan nan nan nan 0.0 0.0 0.0 0.0 nan 0.1 0.5 0.5 0.0 0.0 0.0 0.0 0.0 0.0 0.1 0.6 0.0 0.0 0.0 0.0 0.0 0.0 0.0 0.0 0.1 0.8 1.3 2.1 0.0 0.4 4.5 0.1 0.0 0.0 0.0 0.0 0.4 0.0
nan nan nan nan nan nan 0.0 0.0 0.0 0.4 1.3 0.7 0.2 0.0 0.0 0.0 0.0 0.0 0.0 0.0 0.3 0.0 0.0 0.0 0.0 0.0 0.0 0.0 0.0 0.0 0.3 0.5 1.1 5.8 3.0 9.5 0.1 0.0 0.0 0.0 0.0 0.0 0.0 0.0
nan nan nan nan nan nan 0.0 0.0 0.0 0.3 16.0 0.5 0.2 0.0 0.0 0.0 0.0 0.0 0.0 0.0 0.0 0.0 0.0 1.2 1.7 2.3 2.8 1.6 0.0 0.0 0.0 0.4 4.8 10.3 2.2 0.1 0.0 0.0 0.1 0.1 0.1 0.0 0.0 0.0
nan nan nan nan nan nan 0.0 0.0 0.0 0.0 6.1 0.9 0.0 0.2 0.0 0.4 0.3 0.5 0.0 0.0 0.0 0.0 1.2 2.4 4.2 4.7 0.4 0.4 0.0 0.0 0.0 0.3 3.5 4.9 7.7 11.4 0.1 0.0 0.0 0.0 0.8 0.0 0.0 0.0
nan nan nan nan nan nan 0.0 0.0 0.0 0.0 1.1 0.0 0.0 0.3 0.3 0.0 0.2 0.4 0.2 0.0 0.8 0.0 4.1 11.6 7.6 4.2 0.1 1.4 2.0 3.8 4.0 4.9 8.1 5.4 9.1 2.6 0.0 0.0 0.0 3.1 0.4 0.1 0.0 0.0
nan nan nan nan nan nan 0.0 0.0 0.0 0.0 0.0 0.0 0.0 0.0 0.0 0.0 0.1 1.5 0.0 1.0 1.0 1.9 4.7 6.3 3.7 9.4 2.0 0.9 0.1 0.4 1.6 5.6 10.6 5.3 8.1 8.6 0.0 0.0 1.3 0.5 0.0 0.0 0.0 0.0
nan nan nan nan nan nan nan 0.0 0.0 0.0 0.2 0.0 0.0 0.0 0.0 0.0 0.0 0.0 0.0 0.1 0.0 0.4 1.3 5.2 6.7 9.9 11.6 2.2 5.6 0.0 2.8 1.0 1.7 0.3 2.3 0.0 0.0 0.0 0.0 0.0 0.0 0.0 0.0 0.0
nan nan nan nan nan nan nan 0.0 0.0 0.0 1.8 0.1 0.0 0.0 0.0 0.0 0.0 0.0 0.5 0.6 0.0 0.1 0.0 0.9 3.3 6.3 1.3 8.5 1.9 1.7 0.0 0.0 0.8 0.5 0.0 0.0 0.0 0.0 0.0 0.0 0.0 0.0 0.0 0.0
nan nan nan nan nan nan nan 0.0 0.0 0.0 0.3 11.4 0.9 0.0 0.0 0.0 0.0 0.0 0.0 0.0 0.0 0.0 0.3 4.0 6.0 8.7 0.0 3.7 1.8 1.2 0.1 0.1 0.1 0.1 0.0 0.0 0.0 0.0 0.0 0.0 0.0 0.0 0.0 0.0
nan nan nan nan nan nan nan 0.0 0.0 0.0 0.1 4.2 1.1 0.0 0.0 0.0 0.0 0.0 0.0 0.0 0.0 0.4 2.2 10.2 6.7 0.7 2.4 1.5 1.2 1.7 0.0 0.1 1.7 1.2 0.0 0.0 0.0 0.0 0.0 0.0 0.0 0.0 0.0 0.0
nan nan nan nan nan nan 0.0 0.0 0.0 0.0 0.0 2.3 5.6 0.0 0.0 0.0 0.0 0.0 0.0 0.0 0.0 0.0 0.4 6.0 0.8 0.0 0.9 11.0 1.8 0.0 0.0 0.0 0.0 0.0 0.0 0.0 0.0 0.0 0.0 0.0 0.0 0.0 0.0 0.0
nan nan nan nan nan 0.0 0.0 0.0 0.0 nan 0.0 2.9 6.1 2.1 0.4 0.0 0.0 0.0 0.0 0.0 0.0 0.0 0.6 2.2 0.8 0.7 0.1 5.9 3.0 0.0 0.0 0.0 0.0 0.0 0.0 0.0 0.0 0.0 0.0 0.0 0.0 0.0 0.0 0.0
nan nan nan nan nan nan 0.2 0.0 nan nan 0.0 1.2 5.0 4.3 2.9 0.0 1.1 3.6 0.0 0.7 0.9 0.2 0.0 1.9 1.8 0.8 2.3 2.8 0.0 0.0 0.0 0.0 0.0 0.0 0.0 0.0 0.0 0.0 0.0 0.0 0.0 0.0 0.0 0.0
nan nan nan 0.0 0.0 0.6 0.0 nan nan 0.0 0.2 2.0 10.9 6.9 9.6 0.0 0.4 1.7 1.1 0.1 5.5 0.1 4.2 1.9 0.8 2.1 3.0 0.0 0.0 0.0 0.0 0.0 0.0 0.0 0.0 0.0 0.0 0.0 0.0 0.0 0.0 0.0 0.0 0.0
nan 0.0 0.0 1.6 1.1 nan nan 0.0 1.2 1.3 1.3 1.1 5.8 0.8 4.3 0.0 1.9 3.1 2.4 2.6 5.4 6.1 4.3 0.0 4.2 0.9 0.0 0.0 0.0 0.0 0.0 0.0 0.0 0.1 0.1 0.0 0.0 0.0 0.0 0.0 0.0 0.0 0.0 0.0
0.1 1.3 1.2 0.0 nan 0.0 0.4 2.0 2.1 0.8 4.3 0.6 1.1 1.1 1.0 0.5 4.1 5.0 2.3 7.3 6.6 9.1 2.2 5.8 4.1 2.2 0.0 0.0 0.0 0.0 0.0 0.0 0.0 0.0 0.0 0.0 0.0 0.0 0.0 0.1 0.2 0.3 0.3 0.2
0.0 0.3 0.0 0.0 0.0 1.3 5.2 8.9 5.7 3.3 2.7 1.4 3.5 1.6 0.4 2.0 0.0 1.8 4.7 6.1 5.3 7.8 1.2 12.9 6.0 0.7 0.0 0.0 0.0 0.0 0.0 0.0 0.0 0.0 0.0 0.0 0.0 0.0 0.1 0.2 0.2 0.7 0.8 4.0
0.0 0.7 1.9 0.3 4.4 30.6 10.0 8.9 8.0 13.9 3.5 5.4 5.5 12.7 2.0 2.0 0.9 6.2 4.9 11.8 10.9 2.1 12.7 2.4 1.4 0.0 0.0 0.0 0.0 0.0 0.0 0.1 0.1 0.0 0.0 0.0 0.0 0.0 0.4 1.5 1.0 2.6 1.4 0.7
1.4 5.1 33.7 10.3 11.5 3.6 3.2 3.4 6.1 5.5 5.0 4.4 3.1 5.5 4.9 6.9 8.4 6.7 11.2 3.4 3.3 9.6 8.3 6.8 0.6 0.0 0.0 0.0 0.0 0.0 0.0 1.7 0.8 0.1 0.1 0.9 1.4 1.4 2.8 4.2 5.0 3.8 1.4 1.6
2.2 4.4 24.8 7.6 3.5 4.2 5.4 5.3 4.2 2.1 2.1 2.7 5.0 4.8 1.5 8.5 12.6 6.4 5.0 12.1 11.0 5.6 6.1 2.5 1.5 0.1 0.0 0.1 0.0 0.0 0.7 3.0 1.8 0.1 1.4 3.7 2.8 1.8 1.3 1.9 1.5 1.3 4.4 4.5
2.5 4.0 8.1 6.1 12.0 18.2 18.7 11.3 9.2 1.4 2.3 3.5 3.9 4.9 9.4 8.7 7.8 8.0 8.7 5.4 4.9 5.5 4.9 2.7 0.5 0.1 0.2 0.2 0.4 0.3 0.2 0.4 0.2 0.2 0.3 1.2 2.7 2.9 0.6 1.4 2.4 5.7 6.2 9.6
6.4 14.6 6.4 9.7 10.7 12.5 11.0 8.0 2.9 0.1 6.4 16.8 6.3 9.6 4.9 2.6 6.3 4.6 2.1 11.8 6.6 4.4 1.6 0.7 0.2 0.2 0.2 0.2 0.3 3.6 0.7 0.2 0.5 0.3 0.6 0.5 1.2 2.0 1.9 2.6 0.5 0.8 1.9 8.1

GFSNW_prec_sndepth_015.txt.gz
Snowfall_Accumulation
nan nan nan nan nan nan nan 0.0 0.0 0.0 0.0 0.0 0.0 0.0 0.0 nan 0.0 0.0 0.0 0.0 0.0 0.0 0.0 0.0 0.0 0.0 0.0 0.0 0.0 0.0 0.0 0.0 0.6 0.0 0.0 0.0 0.0 0.0 0.0 1.0 0.1 0.6 1.2 1.2
nan nan nan nan nan nan 0.0 0.0 0.0 0.0 0.0 0.8 0.9 0.0 0.0 0.0 0.0 0.0 0.0 0.0 0.0 0.0 0.0 0.0 0.0 0.0 0.0 0.0 0.0 0.0 0.0 0.2 0.4 0.1 0.1 0.0 0.0 0.0 0.0 0.0 0.3 0.1 9.2 1.3
nan nan nan nan nan nan 0.0 0.0 0.7 0.1 0.0 0.0 0.0 0.0 0.0 0.0 0.0 0.0 0.0 0.0 0.0 0.0 0.0 0.0 0.0 0.0 0.0 0.0 0.0 nan nan 0.0 0.0 0.4 0.0 0.0 0.0 0.0 0.0 0.0 2.3 0.4 0.3 0.0
nan nan nan nan nan nan 0.0 0.0 0.2 0.0 0.4 0.3 0.0 0.0 0.0 0.0 0.0 0.0 0.0 0.0 0.0 0.0 0.2 0.0 0.0 0.0 0.0 0.0 nan 0.0 0.0 0.1 0.0 0.0 0.0 0.0 0.0 0.0 0.0 0.0 0.0 0.8 0.0 0.0
nan nan nan nan nan nan 0.0 0.0 0.0 0.0 0.0 0.0 0.0 0.0 0.0 0.0 0.0 0.0 0.0 0.0 0.0 0.0 0.1 0.0 0.0 0.0 0.0 0.0 0.0 0.0 0.0 0.4 0.1 0.1 0.0 0.0 0.1 0.0 0.0 0.0 0.0 0.0 0.0 0.0
nan nan nan nan nan nan 0.0 0.0 0.0 0.0 nan 0.0 0.4 0.4 0.0 0.0 0.0 0.0 0.0 0.0 0.1 0.3 0.0 0.0 0.0 0.0 0.0 0.0 0.0 0.0 0.0 0.5 0.8 0.9 0.0 0.2 3.3 0.0 0.0 0.0 0.0 0.0 0.3 0.0
nan nan nan nan nan nan 0.0 0.0 0.0 0.2 0.9 0.5 0.1 0.0 0.0 0.0 0.0 0.0 0.0 0.0 0.1 0.0 0.0 0.0 0.0 0.0 0.0 0.0 0.0 0.0 0.1 0.2 0.6 4.2 2.0 7.3 0.1 0.0 0.0 0.0 0.0 0.0 0.0 0.0
nan nan nan nan nan nan 0.0 0.0 0.0 0.2 13.0 0.4 0.1 0.0 0.0 0.0 0.0 0.0 0.0 0.0 0.0 0.0 0.0 0.9 0.6 1.6 1.7 0.9 0.0 0.0 0.0 0.2 3.6 8.5 1.5 0.1 0.0 0.0 0.0 0.0 0.0 0.0 0.0 0.0
nan nan nan nan nan nan 0.0 0.0 0.0 0.0 4.1 0.6 0.0 0.1 0.0 0.3 0.2 0.4 0.0 0.0 0.0 0.0 0.9 1.6 2.3 3.3 0.2 0.3 0.0 0.0 0.0 0.1 2.2 3.7 5.6 9.2 0.0 0.0 0.0 0.0 0.6 0.0 0.0 0.0
nan nan nan nan nan nan 0.0 0.0 0.0 0.0 0.7 0.0 0.0 0.2 0.2 0.0 0.2 0.3 0.1 0.0 0.4 0.0 3.1 9.6 5.7 2.9 0.0 1.0 1.1 2.9 3.1 3.6 6.1 4.1 7.3 1.9 0.0 0.0 0.0 2.4 0.2 0.0 0.0 0.0
nan nan nan nan nan nan 0.0 0.0 0.0 0.0 0.0 0.0 0.0 0.0 0.0 0.0 0.1 1.0 0.0 0.7 0.7 1.3 3.5 5.0 2.7 7.8 1.4 0.6 0.0 0.2 1.0 4.0 8.9 4.1 6.9 7.4 0.0 0.0 1.0 0.4 0.0 0.0 0.0 0.0
nan nan nan nan nan nan nan 0.0 0.0 0.0 0.1 0.0 0.0 0.0 0.0 0.0 0.0 0.0 0.0 0.1 0.0 0.3 0.9 4.2 5.3 8.1 9.9 1.3 3.9 0.0 1.9 0.8 1.2 0.2 1.6 0.0 0.0 0.0 0.0 0.0 0.0 0.0 0.0 0.0
nan nan nan nan nan nan nan 0.0 0.0 0.0 1.1 0.1 0.0 0.0 0.0 0.0 0.0 0.0 0.4 0.5 0.0 0.0 0.0 0.6 2.5 4.9 0.9 7.1 1.3 0.7 0.0 0.0 0.6 0.3 0.0 0.0 0.0 0.0 0.0 0.0 0.0 0.0 0.0 0.0
nan nan nan nan nan nan nan 0.0 0.0 0.0 0.3 9.1 0.6 0.0 0.0 0.0 0.0 0.0 0.0 0.0 0.0 0.0 0.2 3.2 4.9 7.2 0.0 2.8 1.2 0.8 0.1 0.1 0.0 0.1 0.0 0.0 0.0 0.0 0.0 0.0 0.0 0.0 0.0 0.0
nan nan nan nan nan nan nan 0.0 0.0 0.0 0.1 3.3 0.8 0.0 0.0 0.0 0.0 0.0 0.0 0.0 0.0 0.3 1.7 8.8 5.4 0.5 1.6 1.1 0.9 1.1 0.0 0.0 1.3 0.9 0.0 0.0 0.0 0.0 0.0 0.0 0.0 0.0 0.0 0.0
nan nan nan nan nan nan 0.0 0.0 0.0 0.0 0.0 1.6 4.4 0.0 0.0 0.0 0.0 0.0 0.0 0.0 0.0 0.0 0.3 5.0 0.6 0.0 0.6 9.6 1.5 0.0 0.0 0.0 0.0 0.0 0.0 0.0 0.0 0.0 0.0 0.0 0.0 0.0 0.0 0.0
nan nan nan nan nan 0.0 0.0 0.0 0.0 nan 0.0 2.0 4.7 1.5 0.3 0.0 0.0 0.0 0.0 0.0 0.0 0.0 0.5 1.7 0.6 0.5 0.1 5.0 2.4 0.0 0.0 0.0 0.0 0.0 0.0 0.0 0.0 0.0 0.0 0.0 0.0 0.0 0.0 0.0
nan nan nan nan nan nan 0.2 0.0 nan nan 0.0 0.8 4.1 3.5 2.2 0.0 0.9 2.9 0.0 0.6 0.7 0.1 0.0 1.6 1.5 0.6 1.9 2.4 0.0 0.0 0.0 0.0 0.0 0.0 0.0 0.0 0.0 0.0 0.0 0.0 0.0 0.0 0.0 0.0
nan nan nan 0.0 0.0 0.5 0.0 nan nan 0.0 0.1 1.5 9.4 5.6 8.3 0.0 0.3 1.4 0.9 0.1 4.7 0.1 3.7 1.7 0.7 1.8 2.5 0.0 0.0 0.0 0.0 0.0 0.0 0.0 0.0 0.0 0.0 0.0 0.0 0.0 0.0 0.0 0.0 0.0
nan 0.0 0.0 1.5 0.9 nan nan 0.0 0.9 1.1 1.1 0.9 4.7 0.6 3.4 0.0 1.6 2.6 1.9 2.1 4.6 5.2 3.8 0.0 3.9 0.8 0.0 0.0 0.0 0.0 0.0 0.0 0.0 0.1 0.1 0.0 0.0 0.0 0.0 0.0 0.0 0.0 0.0 0.0
0.1 1.2 1.1 0.0 nan 0.0 0.4 1.8 1.8 0.7 3.8 0.5 1.0 0.9 0.9 0.4 3.5 4.3 1.9 6.5 5.8 7.9 1.8 4.9 3.5 1.8 0.0 0.0 0.0 0.0 0.0 0.0 0.0 0.0 0.0 0.0 0.0 0.0 0.0 0.0 0.1 0.2 0.2 0.1
0.0 0.3 0.0 0.0 0.0 1.2 4.8 8.2 5.6 3.0 2.4 1.3 3.1 1.5 0.3 1.8 0.0 1.6 4.5 5.5 4.6 6.5 0.9 11.3 5.2 0.6 0.0 0.0 0.0 0.0 0.0 0.0 0.0 0.0 0.0 0.0 0.0 0.0 0.1 0.1 0.1 0.3 0.4 3.3
0.0 0.7 1.7 0.9 5.6 29.1 10.4 8.9 7.5 12.7 3.2 5.0 5.1 11.9 1.8 1.8 0.8 5.5 4.3 10.4 9.5 1.6 11.3 1.9 1.0 0.0 0.0 0.0 0.0 0.0 0.0 0.0 0.1 0.0 0.0 0.0 0.0 0.0 0.2 0.9 0.5 1.9 0.7 0.3
1.3 5.9 31.9 10.5 12.1 4.1 3.2 3.1 5.2 4.7 4.4 3.8 2.7 5.1 4.3 6.3 7.4 5.9 9.7 3.1 2.6 8.4 7.5 5.2 0.5 0.0 0.0 0.0 0.0 0.0 0.0 1.3 0.5 0.1 0.1 0.4 0.8 0.7 2.1 3.5 4.2 3.1 0.8 0.9
2.1 3.8 22.9 7.8 3.8 3.9 4.9 4.7 3.8 1.9 1.8 2.3 4.2 3.9 1.1 7.2 10.9 5.3 4.0 10.5 9.5 4.7 4.8 1.8 1.0 0.1 0.0 0.0 0.0 0.0 0.4 2.2 1.3 0.1 0.7 2.9 2.1 1.2 0.7 1.2 0.8 0.7 3.5 3.5
2.0 3.3 7.5 5.7 10.7 16.6 17.1 10.2 8.4 1.2 2.0 2.9 3.2 4.1 8.3 7.5 7.0 6.8 7.4 4.5 4.0 4.4 3.6 2.0 0.4 0.1 0.1 0.1 0.2 0.1 0.1 0.2 0.1 0.1 0.2 0.8 2.0 2.2 0.3 0.8 1.6 4.7 5.1 8.3
4.6 12.5 5.4 8.4 9.2 11.0 9.9 7.0 2.6 0.1 5.6 15.1 5.3 8.3 4.0 2.3 5.6 3.6 1.8 10.2 5.2 3.2 1.2 0.6 0.1 0.1 0.1 0.1 0.2 2.8 0.4 0.1 0.2 0.2 0.3 0.2 0.6 1.2 1.2 1.7 0.2 0.4 1.0 6.8

GFSNW_prec_sndepth_018.txt.gz
Snowfall_Accumulation
nan nan nan nan nan nan nan 0.0 0.0 0.0 0.0 0.0 0.0 0.0 0.0 nan 0.0 0.0 0.0 0.0 0.0 0.0 0.0 0.0 0.0 0.0 0.0 0.0 0.0 0.0 0.0 0.0 0.5 0.0 0.0 0.0 0.0 0.0 0.0 0.8 0.0 0.5 1.0 1.0
nan nan nan nan nan nan 0.0 0.0 0.0 0.0 0.0 0.6 0.6 0.0 0.0 0.0 0.0 0.0 0.0 0.0 0.0 0.0 0.0 0.0 0.0 0.0 0.0 0.0 0.0 0.0 0.0 0.2 0.3 0.1 0.0 0.0 0.0 0.0 0.0 0.0 0.2 0.0 7.6 1.0
nan nan nan nan nan nan 0.0 0.0 0.4 0.0 0.0 0.0 0.0 0.0 0.0 0.0 0.0 0.0 0.0 0.0 0.0 0.0 0.0 0.0 0.0 0.0 0.0 0.0 0.0 nan nan 0.0 0.0 0.3 0.0 0.0 0.0 0.0 0.0 0.0 1.7 0.3 0.3 0.0
nan nan nan nan nan nan 0.0 0.0 0.1 0.0 0.3 0.2 0.0 0.0 0.0 0.0 0.0 0.0 0.0 0.0 0.0 0.0 0.1 0.0 0.0 0.0 0.0 0.0 nan 0.0 0.0 0.0 0.0 0.0 0.0 0.0 0.0 0.0 0.0 0.0 0.0 0.6 0.0 0.0
nan nan nan nan nan nan 0.0 0.0 0.0 0.0 0.0 0.0 0.0 0.0 0.0 0.0 0.0 0.0 0.0 0.0 0.0 0.0 0.0 0.0 0.0 0.0 0.0 0.0 0.0 0.0 0.0 0.3 0.1 0.0 0.0 0.0 0.0 0.0 0.0 0.0 0.0 0.0 0.0 0.0
nan nan nan nan nan nan 0.0 0.0 0.0 0.0 nan 0.0 0.3 0.3 0.0 0.0 0.0 0.0 0.0 0.0 0.0 0.1 0.0 0.0 0.0 0.0 0.0 0.0 0.0 0.0 0.0 0.4 0.6 0.4 0.0 0.1 2.6 0.0 0.0 0.0 0.0 0.0 0.2 0.0
nan nan nan nan nan nan 0.0 0.0 0.0 0.2 0.6 0.4 0.1 0.0 0.0 0.0 0.0 0.0 0.0 0.0 0.1 0.0 0.0 0.0 0.0 0.0 0.0 0.0 0.0 0.0 0.1 0.1 0.5 3.3 1.5 6.1 0.0 0.0 0.0 0.0 0.0 0.0 0.0 0.0
nan nan nan nan nan nan 0.0 0.0 0.0 0.1 10.8 0.2 0.1 0.0 0.0 0.0 0.0 0.0 0.0 0.0 0.0 0.0 0.0 0.7 0.3 1.2 1.0 0.5 0.0 0.0 0.0 0.1 2.7 7.2 1.2 0.0 0.0 0.0 0.0 0.0 0.0 0.0 0.0 0.0
nan nan nan nan nan nan 0.0 0.0 0.0 0.0 2.6 0.5 0.0 0.1 0.0 0.2 0.1 0.3 0.0 0.0 0.0 0.0 0.6 1.2 1.3 2.6 0.1 0.2 0.0 0.0 0.0 0.1 1.6 3.0 4.4 8.0 0.0 0.0 0.0 0.0 0.5 0.0 0.0 0.0
nan nan nan nan nan nan 0.0 0.0 0.0 0.0 0.5 0.0 0.0 0.1 0.2 0.0 0.1 0.2 0.1 0.0 0.2 0.0 2.4 8.2 4.4 2.2 0.0 0.8 0.7 2.3 2.4 2.8 4.9 3.3 5.9 1.5 0.0 0.0 0.0 2.0 0.2 0.0 0.0 0.0
nan nan nan nan nan nan 0.0 0.0 0.0 0.0 0.0 0.0 0.0 0.0 0.0 0.0 0.0 0.8 0.0 0.5 0.5 1.0 2.7 4.0 2.0 6.6 1.1 0.5 0.0 0.1 0.7 3.2 7.7 3.4 5.9 6.5 0.0 0.0 0.7 0.3 0.0 0.0 0.0 0.0
nan nan nan nan nan nan nan 0.0 0.0 0.0 0.1 0.0 0.0 0.0 0.0 0.0 0.0 0.0 0.0 0.1 0.0 0.2 0.7 3.3 4.2 6.9 8.8 0.8 3.0 0.0 1.5 0.6 1.0 0.2 1.2 0.0 0.0 0.0 0.0 0.0 0.0 0.0 0.0 0.0
nan nan nan nan nan nan nan 0.0 0.0 0.0 0.7 0.0 0.0 0.0 0.0 0.0 0.0 0.0 0.3 0.4 0.0 0.0 0.0 0.4 1.9 4.0 0.7 6.0 1.0 0.4 0.0 0.0 0.5 0.2 0.0 0.0 0.0 0.0 0.0 0.0 0.0 0.0 0.0 0.0
nan nan nan nan nan nan nan 0.0 0.0 0.0 0.2 7.4 0.5 0.0 0.0 0.0 0.0 0.0 0.0 0.0 0.0 0.0 0.1 2.6 4.1 6.2 0.0 2.2 0.9 0.7 0.1 0.1 0.0 0.0 0.0 0.0 0.0 0.0 0.0 0.0 0.0 0.0 0.0 0.0
nan nan nan nan nan nan nan 0.0 0.0 0.0 0.1 2.7 0.6 0.0 0.0 0.0 0.0 0.0 0.0 0.0 0.0 0.2 1.3 7.7 4.5 0.4 1.2 0.8 0.7 0.9 0.0 0.0 0.9 0.7 0.0 0.0 0.0 0.0 0.0 0.0 0.0 0.0 0.0 0.0
nan nan nan nan nan nan 0.0 0.0 0.0 0.0 0.0 1.2 3.5 0.0 0.0 0.0 0.0 0.0 0.0 0.0 0.0 0.0 0.2 4.2 0.4 0.0 0.5 8.5 1.3 0.0 0.0 0.0 0.0 0.0 0.0 0.0 0.0 0.0 0.0 0.0 0.0 0.0 0.0 0.0
nan nan nan nan nan 0.0 0.0 0.0 0.0 nan 0.0 1.4 3.8 1.1 0.3 0.0 0.0 0.0 0.0 0.0 0.0 0.0 0.4 1.3 0.5 0.4 0.0 4.3 1.9 0.0 0.0 0.0 0.0 0.0 0.0 0.0 0.0 0.0 0.0 0.0 0.0 0.0 0.0 0.0
nan nan nan nan nan nan 0.1 0.0 nan nan 0.0 0.5 3.3 2.9 1.7 0.0 0.7 2.4 0.0 0.5 0.5 0.1 0.0 1.3 1.2 0.5 1.6 2.0 0.0 0.0 0.0 0.0 0.0 0.0 0.0 0.0 0.0 0.0 0.0 0.0 0.0 0.0 0.0 0.0
nan nan nan 0.0 0.0 0.4 0.0 nan nan 0.0 0.1 1.1 8.3 4.6 7.2 0.0 0.2 1.2 0.7 0.1 3.9 0.1 3.3 1.5 0.5 1.5 2.1 0.0 0.0 0.0 0.0 0.0 0.0 0.0 0.0 0.0 0.0 0.0 0.0 0.0 0.0 0.0 0.0 0.0
nan 0.0 0.0 1.3 0.8 nan nan 0.0 0.7 0.9 0.8 0.7 4.0 0.5 2.8 0.0 1.4 2.3 1.6 1.8 4.0 4.6 3.3 0.0 3.6 0.8 0.0 0.0 0.0 0.0 0.0 0.0 0.0 0.0 0.0 0.0 0.0 0.0 0.0 0.0 0.0 0.0 0.0 0.0
0.1 1.1 1.0 0.0 nan 0.0 0.3 1.5 1.4 0.6 3.3 0.4 0.8 0.7 0.7 0.3 3.1 3.8 1.7 5.8 5.1 7.0 1.5 4.3 3.1 1.5 0.0 0.0 0.0 0.0 0.0 0.0 0.0 0.0 0.0 0.0 0.0 0.0 0.0 0.0 0.1 0.1 0.1 0.1
0.0 0.2 0.0 0.0 0.0 1.1 4.3 7.5 5.2 2.7 1.9 1.1 2.9 1.3 0.3 1.5 0.0 1.3 4.0 4.9 4.2 5.7 0.7 10.1 4.5 0.5 0.0 0.0 0.0 0.0 0.0 0.0 0.0 0.0 0.0 0.0 0.0 0.0 0.0 0.1 0.1 0.2 0.3 3.0
0.0 0.6 1.6 1.0 6.9 28.5 11.5 9.1 7.0 11.7 3.0 4.7 4.7 11.2 1.6 1.7 0.7 5.1 3.9 9.9 9.0 1.3 10.3 1.7 0.9 0.0 0.0 0.0 0.0 0.0 0.0 0.0 0.0 0.0 0.0 0.0 0.0 0.0 0.1 0.6 0.3 1.6 0.5 0.2
1.2 5.7 30.4 11.4 12.7 5.0 3.6 3.0 4.7 4.2 4.0 3.5 2.5 4.7 4.0 5.8 6.8 5.6 9.5 3.2 2.2 7.7 6.9 4.2 0.4 0.0 0.0 0.0 0.0 0.0 0.0 1.1 0.4 0.0 0.1 0.3 0.5 0.5 1.7 3.0 3.7 2.8 0.5 0.6
1.7 3.3 21.2 7.8 3.8 3.8 4.7 4.5 3.5 1.7 1.6 2.1 3.8 3.6 1.0 6.7 10.1 5.0 3.7 9.6 8.8 4.2 4.1 1.5 0.8 0.0 0.0 0.0 0.0 0.0 0.2 1.8 1.1 0.0 0.4 2.3 1.7 0.9 0.4 0.9 0.5 0.4 3.0 3.1
1.6 2.7 6.4 5.1 9.7 15.4 15.9 9.7 8.0 1.1 1.8 2.6 2.7 4.0 7.6 7.0 6.3 6.1 6.6 4.2 3.7 3.8 2.9 1.6 0.3 0.0 0.1 0.1 0.1 0.1 0.1 0.1 0.1 0.1 0.1 0.6 1.6 1.8 0.2 0.6 1.2 4.2 4.3 7.3
3.5 10.9 4.6 7.2 8.0 10.1 9.2 6.2 2.2 0.1 5.0 14.3 4.7 7.3 3.8 2.2 5.2 3.1 1.6 9.2 4.4 2.6 1.0 0.5 0.1 0.1 0.1 0.1 0.1 2.3 0.3 0.1 0.2 0.1 0.2 0.2 0.4 0.9 0.8 1.3 0.1 0.2 0.7 6.1

GFSNW_prec_sndepth_024.txt.gz
Snowfall_Accumulation
nan nan nan nan nan nan nan 0.0 0.0 0.0 0.0 0.0 0.0 0.0 0.0 nan 0.0 0.0 0.0 0.0 0.0 0.0 0.0 0.0 0.0 0.0 0.0 0.0 0.0 0.0 0.0 0.0 0.5 0.0 0.0 0.0 0.0 0.0 0.0 0.8 0.0 0.5 1.0 1.0
nan nan nan nan nan nan 0.0 0.0 0.0 0.0 0.0 0.5 0.6 0.0 0.0 0.0 0.0 0.0 0.0 0.0 0.0 0.0 0.0 0.0 0.0 0.0 0.0 0.0 0.0 0.0 0.0 0.1 0.3 0.1 0.0 0.0 0.0 0.0 0.0 0.0 0.2 0.0 7.5 1.0
nan nan nan nan nan nan 0.0 0.0 0.3 0.0 0.0 0.0 0.0 0.0 0.0 0.0 0.0 0.0 0.0 0.0 0.0 0.0 0.0 0.0 0.0 0.0 0.0 0.0 0.0 nan nan 0.0 0.0 0.3 0.0 0.0 0.0 0.0 0.0 0.0 1.7 0.3 0.3 0.0
nan nan nan nan nan nan 0.0 0.0 0.1 0.0 0.2 0.1 0.0 0.0 0.0 0.0 0.0 0.0 0.0 0.0 0.0 0.0 0.1 0.0 0.0 0.0 0.0 0.0 nan 0.0 0.0 0.0 0.0 0.0 0.0 0.0 0.0 0.0 0.0 0.0 0.0 0.6 0.0 0.0
nan nan nan nan nan nan 0.0 0.0 0.0 0.0 0.0 0.0 0.0 0.0 0.0 0.0 0.0 0.0 0.0 0.0 0.0 0.0 0.0 0.0 0.0 0.0 0.0 0.0 0.0 0.0 0.0 0.3 0.1 0.0 0.0 0.0 0.0 0.0 0.0 0.0 0.0 0.0 0.0 0.0
nan nan nan nan nan nan 0.0 0.0 0.0 0.0 nan 0.0 0.2 0.2 0.0 0.0 0.0 0.0 0.0 0.0 0.0 0.1 0.0 0.0 0.0 0.0 0.0 0.0 0.0 0.0 0.0 0.4 0.6 0.4 0.0 0.1 2.6 0.0 0.0 0.0 0.0 0.0 0.2 0.0
nan nan nan nan nan nan 0.0 0.0 0.0 0.1 0.5 0.3 0.1 0.0 0.0 0.0 0.0 0.0 0.0 0.0 0.0 0.0 0.0 0.0 0.0 0.0 0.0 0.0 0.0 0.0 0.1 0.1 0.5 3.2 1.4 6.1 0.0 0.0 0.0 0.0 0.0 0.0 0.0 0.0
nan nan nan nan nan nan 0.0 0.0 0.0 0.1 9.0 0.2 0.1 0.0 0.0 0.0 0.0 0.0 0.0 0.0 0.0 0.0 0.0 0.6 0.3 1.1 1.0 0.5 0.0 0.0 0.0 0.1 2.6 7.0 1.1 0.0 0.0 0.0 0.0 0.0 0.0 0.0 0.0 0.0
nan nan nan nan nan nan 0.0 0.0 0.0 0.0 1.6 0.4 0.0 0.0 0.0 0.2 0.1 0.2 0.0 0.0 0.0 0.0 0.6 1.1 1.3 2.4 0.1 0.2 0.0 0.0 0.0 0.1 1.5 2.9 4.4 8.0 0.0 0.0 0.0 0.0 0.5 0.0 0.0 0.0
nan nan nan nan nan nan 0.0 0.0 0.0 0.0 0.4 0.0 0.0 0.1 0.2 0.0 0.1 0.2 0.1 0.0 0.1 0.0 2.2 7.2 4.1 2.1 0.0 0.7 0.7 2.3 2.3 2.6 4.8 3.2 5.8 1.5 0.0 0.0 0.0 2.0 0.1 0.0 0.0 0.0
nan nan nan nan nan nan 0.0 0.0 0.0 0.0 0.0 0.0 0.0 0.0 0.0 0.0 0.0 0.6 0.0 0.4 0.5 0.8 2.3 3.5 1.8 6.3 1.1 0.4 0.0 0.1 0.7 3.1 7.5 3.2 5.7 6.5 0.0 0.0 0.7 0.3 0.0 0.0 0.0 0.0
nan nan nan nan nan nan nan 0.0 0.0 0.0 0.0 0.0 0.0 0.0 0.0 0.0 0.0 0.0 0.0 0.0 0.0 0.1 0.6 2.8 3.4 6.4 7.7 0.7 2.9 0.0 1.4 0.6 0.9 0.2 1.2 0.0 0.0 0.0 0.0 0.0 0.0 0.0 0.0 0.0
nan nan nan nan nan nan nan 0.0 0.0 0.0 0.6 0.0 0.0 0.0 0.0 0.0 0.0 0.0 0.2 0.3 0.0 0.0 0.0 0.4 1.6 3.7 0.6 5.8 0.9 0.4 0.0 0.0 0.4 0.2 0.0 0.0 0.0 0.0 0.0 0.0 0.0 0.0 0.0 0.0
nan nan nan nan nan nan nan 0.0 0.0 0.0 0.1 5.7 0.4 0.0 0.0 0.0 0.0 0.0 0.0 0.0 0.0 0.0 0.1 2.1 3.4 5.7 0.0 2.0 0.8 0.6 0.0 0.1 0.0 0.0 0.0 0.0 0.0 0.0 0.0 0.0 0.0 0.0 0.0 0.0
nan nan nan nan nan nan nan 0.0 0.0 0.0 0.0 2.2 0.6 0.0 0.0 0.0 0.0 0.0 0.0 0.0 0.0 0.2 1.1 6.7 3.9 0.4 1.1 0.8 0.6 0.9 0.0 0.0 0.8 0.7 0.0 0.0 0.0 0.0 0.0 0.0 0.0 0.0 0.0 0.0
nan nan nan nan nan nan 0.0 0.0 0.0 0.0 0.0 0.8 3.0 0.0 0.0 0.0 0.0 0.0 0.0 0.0 0.0 0.0 0.2 3.5 0.4 0.0 0.4 7.5 1.1 0.0 0.0 0.0 0.0 0.0 0.0 0.0 0.0 0.0 0.0 0.0 0.0 0.0 0.0 0.0
nan nan nan nan nan 0.0 0.0 0.0 0.0 nan 0.0 1.0 3.2 1.0 0.2 0.0 0.0 0.0 0.0 0.0 0.0 0.0 0.3 1.1 0.5 0.4 0.0 3.7 1.7 0.0 0.0 0.0 0.0 0.0 0.0 0.0 0.0 0.0 0.0 0.0 0.0 0.0 0.0 0.0
nan nan nan nan nan nan 0.1 0.0 nan nan 0.0 0.4 2.8 2.5 1.4 0.0 0.7 1.9 0.0 0.4 0.4 0.1 0.0 1.1 1.0 0.4 1.4 1.8 0.0 0.0 0.0 0.0 0.0 0.0 0.0 0.0 0.0 0.0 0.0 0.0 0.0 0.0 0.0 0.0
nan nan nan 0.0 0.0 0.3 0.0 nan nan 0.0 0.1 0.9 7.3 4.1 6.8 0.0 0.2 1.0 0.7 0.1 3.4 0.1 2.8 1.3 0.5 1.3 1.8 0.0 0.0 0.0 0.0 0.0 0.0 0.0 0.0 0.0 0.0 0.0 0.0 0.0 0.0 0.0 0.0 0.0
nan 0.0 0.0 1.1 0.7 nan nan 0.0 0.6 0.7 0.7 0.6 3.3 0.4 2.3 0.0 1.2 2.0 1.4 1.5 3.4 3.9 2.8 0.0 3.2 0.7 0.0 0.0 0.0 0.0 0.0 0.0 0.0 0.0 0.0 0.0 0.0 0.0 0.0 0.0 0.0 0.0 0.0 0.0
0.1 0.9 0.9 0.0 nan 0.0 0.3 1.3 1.2 0.6 2.8 0.4 0.7 0.6 0.6 0.3 2.7 3.3 1.4 5.0 4.5 6.5 1.5 3.9 2.8 1.5 0.0 0.0 0.0 0.0 0.0 0.0 0.0 0.0 0.0 0.0 0.0 0.0 0.0 0.0 0.1 0.1 0.1 0.1
0.0 0.2 0.0 0.0 0.0 1.0 3.7 6.5 4.5 2.3 1.6 1.0 2.5 1.1 0.2 1.3 0.0 1.2 3.5 4.4 3.8 5.5 0.6 9.0 4.4 0.4 0.0 0.0 0.0 0.0 0.0 0.0 0.0 0.0 0.0 0.0 0.0 0.0 0.0 0.1 0.1 0.2 0.3 3.0
0.0 0.5 1.3 0.8 7.8 35.6 12.2 9.5 6.8 10.6 2.7 4.2 4.1 10.1 1.4 1.5 0.6 4.5 3.5 9.9 9.0 1.1 10.0 1.7 0.8 0.0 0.0 0.0 0.0 0.0 0.0 0.0 0.0 0.0 0.0 0.0 0.0 0.0 0.1 0.6 0.3 1.6 0.5 0.2
1.0 4.9 36.5 11.4 13.6 5.5 4.3 3.0 4.2 3.8 3.6 3.1 2.2 4.2 3.4 5.1 5.9 5.6 10.8 4.0 2.3 8.9 7.5 4.2 0.3 0.0 0.0 0.0 0.0 0.0 0.0 1.0 0.4 0.0 0.1 0.3 0.5 0.5 1.7 3.0 3.7 2.8 0.5 0.6
1.5 3.0 25.0 7.8 3.8 3.7 4.3 4.1 3.2 1.6 1.4 1.9 3.7 3.7 0.9 7.0 10.9 5.7 5.0 10.8 10.1 5.1 5.6 2.9 0.9 0.0 0.0 0.0 0.0 0.0 0.2 1.8 1.1 0.0 0.4 2.3 1.7 0.9 0.4 0.9 0.5 0.4 3.0 3.1
1.3 2.4 5.9 4.5 8.8 14.3 13.9 8.9 7.5 0.9 1.6 2.2 2.4 4.7 8.0 7.9 7.0 6.8 7.6 5.3 5.1 6.3 3.0 1.4 0.3 0.0 0.1 0.1 0.1 0.1 0.1 0.1 0.1 0.1 0.1 0.6 1.6 1.8 0.2 0.6 1.2 4.3 4.3 7.1
3.0 10.2 3.8 6.2 7.0 9.4 8.3 5.3 2.0 0.1 4.3 13.6 4.4 7.4 4.3 2.3 5.8 4.0 2.1 10.5 4.7 2.4 0.9 0.4 0.1 0.1 0.1 0.1 0.1 2.3 0.3 0.1 0.2 0.1 0.2 0.2 0.4 0.9 0.8 1.3 0.1 0.2 0.7 6.1

GFSNW_prec_sndepth_027.txt.gz
Snowfall_Accumulation
nan nan nan nan nan nan nan 0.0 0.0 0.0 0.0 0.0 0.0 0.0 0.0 nan 0.0 0.0 0.0 0.0 0.0 0.0 0.0 0.0 0.0 0.0 0.0 0.0 0.0 0.0 0.0 0.0 0.5 0.0 0.0 0.0 0.0 0.0 0.0 0.8 0.0 0.5 1.0 1.0
nan nan nan nan nan nan 0.0 0.0 0.0 0.0 0.0 0.5 0.6 0.0 0.0 0.0 0.0 0.0 0.0 0.0 0.0 0.0 0.0 0.0 0.0 0.0 0.0 0.0 0.0 0.0 0.0 0.1 0.3 0.1 0.0 0.0 0.0 0.0 0.0 0.0 0.2 0.0 7.5 1.0
nan nan nan nan nan nan 0.0 0.0 0.3 0.0 0.0 0.0 0.0 0.0 0.0 0.0 0.0 0.0 0.0 0.0 0.0 0.0 0.0 0.0 0.0 0.0 0.0 0.0 0.0 nan nan 0.0 0.0 0.3 0.0 0.0 0.0 0.0 0.0 0.0 1.7 0.3 0.3 0.0
nan nan nan nan nan nan 0.0 0.0 0.1 0.0 0.2 0.1 0.0 0.0 0.0 0.0 0.0 0.0 0.0 0.0 0.0 0.0 0.1 0.0 0.0 0.0 0.0 0.0 nan 0.0 0.0 0.0 0.0 0.0 0.0 0.0 0.0 0.0 0.0 0.0 0.0 0.6 0.0 0.0
nan nan nan nan nan nan 0.0 0.0 0.0 0.0 0.0 0.0 0.0 0.0 0.0 0.0 0.0 0.0 0.0 0.0 0.0 0.0 0.0 0.0 0.0 0.0 0.0 0.0 0.0 0.0 0.0 0.3 0.1 0.0 0.0 0.0 0.0 0.0 0.0 0.0 0.0 0.0 0.0 0.0
nan nan nan nan nan nan 0.0 0.0 0.0 0.0 nan 0.0 0.2 0.2 0.0 0.0 0.0 0.0 0.0 0.0 0.0 0.1 0.0 0.0 0.0 0.0 0.0 0.0 0.0 0.0 0.0 0.4 0.6 0.4 0.0 0.1 2.6 0.0 0.0 0.0 0.0 0.0 0.2 0.0
nan nan nan nan nan nan 0.0 0.0 0.0 0.1 0.5 0.3 0.1 0.0 0.0 0.0 0.0 0.0 0.0 0.0 0.0 0.0 0.0 0.0 0.0 0.0 0.0 0.0 0.0 0.0 0.1 0.1 0.5 3.2 1.4 6.1 0.0 0.0 0.0 0.0 0.0 0.0 0.0 0.0
nan nan nan nan nan nan 0.0 0.0 0.0 0.1 8.5 0.2 0.1 0.0 0.0 0.0 0.0 0.0 0.0 0.0 0.0 0.0 0.0 0.5 0.3 1.1 1.0 0.5 0.0 0.0 0.0 0.1 2.7 7.0 1.1 0.0 0.0 0.0 0.0 0.0 0.0 0.0 0.0 0.0
nan nan nan nan nan nan 0.0 0.0 0.0 0.0 1.3 0.4 0.0 0.0 0.0 0.1 0.1 0.2 0.0 0.0 0.0 0.0 0.5 1.1 1.3 2.4 0.1 0.2 0.0 0.0 0.0 0.1 1.5 2.9 4.4 8.0 0.0 0.0 0.0 0.0 0.5 0.0 0.0 0.0
nan nan nan nan nan nan 0.0 0.0 0.0 0.0 0.4 0.0 0.0 0.1 0.1 0.0 0.1 0.2 0.1 0.0 0.2 0.0 2.2 7.2 4.1 2.1 0.0 0.7 0.7 2.3 2.3 2.6 4.8 3.2 5.8 1.5 0.0 0.0 0.0 2.0 0.1 0.0 0.0 0.0
nan nan nan nan nan nan 0.0 0.0 0.0 0.0 0.0 0.0 0.0 0.0 0.0 0.0 0.0 0.6 0.0 0.4 0.4 0.8 2.3 3.5 1.8 6.3 1.1 0.4 0.0 0.1 0.7 3.1 7.5 3.2 5.7 6.5 0.0 0.0 0.7 0.3 0.0 0.0 0.0 0.0
nan nan nan nan nan nan nan 0.0 0.0 0.0 0.0 0.0 0.0 0.0 0.0 0.0 0.0 0.0 0.0 0.0 0.0 0.1 0.5 2.7 3.2 6.4 7.3 0.7 2.9 0.0 1.4 0.6 0.9 0.2 1.2 0.0 0.0 0.0 0.0 0.0 0.0 0.0 0.0 0.0
nan nan nan nan nan nan nan 0.0 0.0 0.0 0.5 0.0 0.0 0.0 0.0 0.0 0.0 0.0 0.2 0.3 0.0 0.0 0.0 0.3 1.6 3.7 0.6 5.8 0.9 0.4 0.0 0.0 0.4 0.2 0.0 0.0 0.0 0.0 0.0 0.0 0.0 0.0 0.0 0.0
nan nan nan nan nan nan nan 0.0 0.0 0.0 0.1 5.1 0.4 0.0 0.0 0.0 0.0 0.0 0.0 0.0 0.0 0.0 0.1 1.9 3.2 5.7 0.0 2.0 0.8 0.6 0.0 0.0 0.0 0.0 0.0 0.0 0.0 0.0 0.0 0.0 0.0 0.0 0.0 0.0
nan nan nan nan nan nan nan 0.0 0.0 0.0 0.0 2.0 0.5 0.0 0.0 0.0 0.0 0.0 0.0 0.0 0.0 0.2 1.0 6.3 3.7 0.4 1.1 0.7 0.6 0.8 0.0 0.0 0.8 0.6 0.0 0.0 0.0 0.0 0.0 0.0 0.0 0.0 0.0 0.0
nan nan nan nan nan nan 0.0 0.0 0.0 0.0 0.0 0.7 2.8 0.0 0.0 0.0 0.0 0.0 0.0 0.0 0.0 0.0 0.2 3.3 0.4 0.0 0.4 7.1 1.0 0.0 0.0 0.0 0.0 0.0 0.0 0.0 0.0 0.0 0.0 0.0 0.0 0.0 0.0 0.0
nan nan nan nan nan 0.0 0.0 0.0 0.0 nan 0.0 0.9 2.9 1.0 0.2 0.0 0.0 0.0 0.0 0.0 0.0 0.0 0.3 1.0 0.5 0.4 0.0 3.4 1.6 0.0 0.0 0.0 0.0 0.0 0.0 0.0 0.0 0.0 0.0 0.0 0.0 0.0 0.0 0.0
nan nan nan nan nan nan 0.1 0.0 nan nan 0.0 0.3 2.8 2.5 1.4 0.0 0.6 1.8 0.0 0.4 0.4 0.1 0.0 1.0 1.0 0.4 1.3 1.7 0.0 0.0 0.0 0.0 0.0 0.0 0.0 0.0 0.0 0.0 0.0 0.0 0.0 0.0 0.0 0.0
nan nan nan 0.0 0.0 0.3 0.0 nan nan 0.0 0.1 0.9 7.0 4.1 6.8 0.0 0.2 1.0 0.6 0.1 3.2 0.1 2.6 1.2 0.5 1.3 1.8 0.0 0.0 0.0 0.0 0.0 0.0 0.0 0.0 0.0 0.0 0.0 0.0 0.0 0.0 0.0 0.0 0.0
nan 0.0 0.0 1.1 0.6 nan nan 0.0 0.6 0.7 0.6 0.6 3.1 0.4 2.2 0.0 1.1 1.9 1.3 1.4 3.3 3.8 2.7 0.0 3.0 0.6 0.0 0.0 0.0 0.0 0.0 0.0 0.0 0.0 0.0 0.0 0.0 0.0 0.0 0.0 0.0 0.0 0.0 0.0
0.1 0.8 0.8 0.0 nan 0.0 0.3 1.2 1.1 0.5 2.6 0.3 0.7 0.6 0.6 0.3 2.5 3.1 1.4 4.7 4.2 6.5 1.5 3.9 2.8 1.4 0.0 0.0 0.0 0.0 0.0 0.0 0.0 0.0 0.0 0.0 0.0 0.0 0.0 0.0 0.0 0.1 0.1 0.1
0.0 0.2 0.0 0.0 0.0 1.0 3.5 6.2 4.2 2.1 1.5 1.0 2.3 1.1 0.2 1.2 0.0 1.1 3.3 4.3 3.7 5.5 0.6 8.7 4.4 0.4 0.0 0.0 0.0 0.0 0.0 0.0 0.0 0.0 0.0 0.0 0.0 0.0 0.0 0.0 0.1 0.2 0.3 3.0
0.0 0.5 1.2 0.8 7.3 32.9 11.3 9.5 6.8 10.6 2.5 4.0 3.9 9.6 1.4 1.4 0.5 4.2 3.3 10.3 9.1 1.1 10.0 1.8 0.9 0.0 0.0 0.0 0.0 0.0 0.0 0.0 0.0 0.0 0.0 0.0 0.0 0.0 0.1 0.6 0.3 1.6 0.5 0.2
1.0 4.5 36.4 10.8 14.2 5.8 4.5 3.0 4.1 3.7 3.5 3.0 2.1 4.0 3.3 4.8 5.5 5.7 11.2 4.1 2.4 9.4 7.8 4.3 0.4 0.0 0.0 0.0 0.0 0.0 0.0 1.0 0.4 0.0 0.1 0.3 0.5 0.5 1.7 3.0 3.7 2.8 0.5 0.6
1.4 2.9 25.1 8.1 3.9 3.7 4.2 3.9 3.1 1.6 1.4 1.8 3.6 3.6 0.8 7.2 11.3 5.9 5.4 11.2 10.5 5.5 5.9 3.2 1.4 0.0 0.0 0.0 0.0 0.0 0.2 1.8 1.1 0.0 0.4 2.3 1.7 0.9 0.4 0.9 0.5 0.4 3.0 3.1
1.3 2.4 5.9 4.5 8.8 14.3 13.1 8.5 7.1 0.9 1.5 2.1 2.2 4.9 8.5 8.4 7.5 6.9 7.7 5.5 5.4 6.5 3.2 1.3 0.3 0.0 0.1 0.1 0.1 0.1 0.1 0.1 0.1 0.1 0.1 0.6 1.6 1.8 0.2 0.6 1.2 4.3 4.3 7.1
3.0 10.2 3.6 5.9 7.0 9.4 7.8 5.0 1.9 0.1 4.0 13.6 4.4 7.4 4.4 2.5 6.1 4.4 2.4 11.0 5.0 2.4 0.9 0.4 0.1 0.1 0.1 0.1 0.1 2.3 0.3 0.1 0.2 0.1 0.2 0.2 0.4 0.9 0.8 1.3 0.1 0.2 0.7 6.1

GFSNW_prec_sndepth_030.txt.gz
Snowfall_Accumulation
nan nan nan nan nan nan nan 0.0 0.0 0.0 0.0 0.0 0.0 0.0 0.0 nan 0.0 0.0 0.0 0.0 0.0 0.0 0.0 0.0 0.0 0.0 0.0 0.0 0.0 0.0 0.0 0.0 0.5 0.0 0.0 0.0 0.0 0.0 0.0 0.8 0.0 0.5 0.9 1.0
nan nan nan nan nan nan 0.0 0.0 0.0 0.0 0.0 0.5 0.6 0.0 0.0 0.0 0.0 0.0 0.0 0.0 0.0 0.0 0.0 0.0 0.0 0.0 0.0 0.0 0.0 0.0 0.0 0.1 0.3 0.1 0.0 0.0 0.0 0.0 0.0 0.0 0.2 0.0 7.5 1.0
nan nan nan nan nan nan 0.0 0.0 0.3 0.0 0.0 0.0 0.0 0.0 0.0 0.0 0.0 0.0 0.0 0.0 0.0 0.0 0.0 0.0 0.0 0.0 0.0 0.0 0.0 nan nan 0.0 0.0 0.3 0.0 0.0 0.0 0.0 0.0 0.0 1.7 0.3 0.3 0.0
nan nan nan nan nan nan 0.0 0.0 0.1 0.0 0.2 0.1 0.0 0.0 0.0 0.0 0.0 0.0 0.0 0.0 0.0 0.0 0.1 0.0 0.0 0.0 0.0 0.0 nan 0.0 0.0 0.0 0.0 0.0 0.0 0.0 0.0 0.0 0.0 0.0 0.0 0.6 0.0 0.0
nan nan nan nan nan nan 0.0 0.0 0.0 0.0 0.0 0.0 0.0 0.0 0.0 0.0 0.0 0.0 0.0 0.0 0.0 0.0 0.0 0.0 0.0 0.0 0.0 0.0 0.0 0.0 0.0 0.3 0.1 0.0 0.0 0.0 0.0 0.0 0.0 0.0 0.0 0.0 0.0 0.0
nan nan nan nan nan nan 0.0 0.0 0.0 0.0 nan 0.0 0.2 0.2 0.0 0.0 0.0 0.0 0.0 0.0 0.0 0.1 0.0 0.0 0.0 0.0 0.0 0.0 0.0 0.0 0.0 0.4 0.6 0.4 0.0 0.1 2.6 0.0 0.0 0.0 0.0 0.0 0.2 0.0
nan nan nan nan nan nan 0.0 0.0 0.0 0.1 0.5 0.3 0.1 0.0 0.0 0.0 0.0 0.0 0.0 0.0 0.0 0.0 0.0 0.0 0.0 0.0 0.0 0.0 0.0 0.0 0.1 0.2 0.5 3.2 1.4 6.1 0.0 0.0 0.0 0.0 0.0 0.0 0.0 0.0
nan nan nan nan nan nan 0.0 0.0 0.0 0.1 8.3 0.2 0.1 0.0 0.0 0.0 0.0 0.0 0.0 0.0 0.0 0.0 0.0 0.5 0.3 1.1 1.0 0.5 0.0 0.0 0.0 0.1 2.7 7.0 1.1 0.0 0.0 0.0 0.0 0.0 0.0 0.0 0.0 0.0
nan nan nan nan nan nan 0.0 0.0 0.0 0.0 1.0 0.3 0.0 0.0 0.0 0.1 0.1 0.2 0.0 0.0 0.0 0.0 0.5 1.1 1.3 2.4 0.1 0.2 0.0 0.0 0.0 0.1 1.5 2.9 4.4 8.0 0.0 0.0 0.0 0.0 0.5 0.0 0.0 0.0
nan nan nan nan nan nan 0.0 0.0 0.0 0.0 0.3 0.0 0.0 0.1 0.1 0.0 0.1 0.2 0.1 0.0 0.2 0.0 2.2 7.2 4.1 2.1 0.0 0.7 0.7 2.3 2.3 2.6 4.8 3.2 5.8 1.5 0.0 0.0 0.0 2.0 0.1 0.0 0.0 0.0
nan nan nan nan nan nan 0.0 0.0 0.0 0.0 0.0 0.0 0.0 0.0 0.0 0.0 0.0 0.6 0.0 0.4 0.4 0.8 2.3 3.5 1.8 6.3 1.1 0.4 0.0 0.1 0.7 3.1 7.5 3.2 5.7 6.5 0.0 0.0 0.7 0.3 0.0 0.0 0.0 0.0
nan nan nan nan nan nan nan 0.0 0.0 0.0 0.0 0.0 0.0 0.0 0.0 0.0 0.0 0.0 0.0 0.0 0.0 0.1 0.5 2.7 3.1 6.4 7.0 0.7 2.9 0.0 1.4 0.5 0.9 0.2 1.2 0.0 0.0 0.0 0.0 0.0 0.0 0.0 0.0 0.0
nan nan nan nan nan nan nan 0.0 0.0 0.0 0.4 0.0 0.0 0.0 0.0 0.0 0.0 0.0 0.2 0.3 0.0 0.0 0.0 0.3 1.5 3.7 0.6 5.8 0.9 0.4 0.0 0.0 0.4 0.2 0.0 0.0 0.0 0.0 0.0 0.0 0.0 0.0 0.0 0.0
nan nan nan nan nan nan nan 0.0 0.0 0.0 0.1 4.6 0.3 0.0 0.0 0.0 0.0 0.0 0.0 0.0 0.0 0.0 0.1 1.8 3.1 5.7 0.0 2.0 0.8 0.6 0.0 0.0 0.0 0.0 0.0 0.0 0.0 0.0 0.0 0.0 0.0 0.0 0.0 0.0
nan nan nan nan nan nan nan 0.0 0.0 0.0 0.0 1.9 0.5 0.0 0.0 0.0 0.0 0.0 0.0 0.0 0.0 0.2 1.0 6.0 3.6 0.4 1.1 0.7 0.7 0.8 0.0 0.0 0.8 0.6 0.0 0.0 0.0 0.0 0.0 0.0 0.0 0.0 0.0 0.0
nan nan nan nan nan nan 0.0 0.0 0.0 0.0 0.0 0.7 2.7 0.0 0.0 0.0 0.0 0.0 0.0 0.0 0.0 0.0 0.2 3.1 0.3 0.0 0.4 6.8 1.0 0.0 0.0 0.0 0.0 0.0 0.0 0.0 0.0 0.0 0.0 0.0 0.0 0.0 0.0 0.0
nan nan nan nan nan 0.0 0.0 0.0 0.0 nan 0.0 0.8 2.8 0.9 0.2 0.0 0.0 0.0 0.0 0.0 0.0 0.0 0.3 1.0 0.4 0.4 0.0 3.3 1.6 0.0 0.0 0.0 0.0 0.0 0.0 0.0 0.0 0.0 0.0 0.0 0.0 0.0 0.0 0.0
nan nan nan nan nan nan 0.1 0.0 nan nan 0.0 0.3 2.8 2.4 1.3 0.0 0.6 1.7 0.0 0.4 0.4 0.1 0.0 1.0 0.9 0.4 1.2 1.6 0.0 0.0 0.0 0.0 0.0 0.0 0.0 0.0 0.0 0.0 0.0 0.0 0.0 0.0 0.0 0.0
nan nan nan 0.0 0.0 0.2 0.0 nan nan 0.0 0.1 0.8 6.8 4.1 6.8 0.0 0.2 0.9 0.6 0.1 3.0 0.1 2.5 1.2 0.5 1.2 1.7 0.0 0.0 0.0 0.0 0.0 0.0 0.0 0.0 0.0 0.0 0.0 0.0 0.0 0.0 0.0 0.1 0.0
nan 0.0 0.0 1.0 0.6 nan nan 0.0 0.5 0.6 0.6 0.5 3.0 0.4 2.1 0.0 1.1 1.8 1.3 1.4 3.1 3.5 2.5 0.0 2.9 0.6 0.0 0.0 0.0 0.0 0.0 0.0 0.0 0.0 0.0 0.0 0.0 0.0 0.0 0.0 0.0 0.0 0.0 0.0
0.1 0.7 0.7 0.0 nan 0.0 0.2 1.1 1.1 0.5 2.5 0.3 0.6 0.6 0.6 0.3 2.4 3.0 1.3 4.4 4.0 6.5 1.5 3.8 2.8 1.4 0.0 0.0 0.0 0.0 0.0 0.0 0.0 0.0 0.0 0.0 0.0 0.0 0.1 0.1 0.0 0.1 0.1 0.1
0.0 0.2 0.0 0.0 0.0 0.9 3.4 6.1 4.0 2.0 1.5 0.9 2.2 1.0 0.2 1.2 0.0 1.0 3.1 4.3 3.7 5.5 0.6 8.4 4.4 0.4 0.0 0.0 0.0 0.0 0.0 0.0 0.0 0.0 0.0 0.0 0.0 0.0 0.0 0.0 0.1 0.2 0.3 3.0
0.0 0.4 1.1 0.7 7.0 30.0 10.7 9.5 6.6 10.2 2.4 3.8 3.7 9.1 1.3 1.3 0.5 4.0 3.1 10.4 9.1 1.1 10.1 1.9 1.3 0.0 0.0 0.0 0.0 0.0 0.0 0.0 0.0 0.0 0.0 0.0 0.0 0.0 0.1 0.6 0.3 1.6 0.5 0.2
0.9 4.2 34.3 10.2 14.2 5.9 4.6 3.0 3.9 3.7 3.3 2.8 2.0 3.8 3.1 4.5 5.2 5.6 11.4 4.2 2.4 9.7 8.0 4.4 0.7 0.2 0.0 0.0 0.0 0.0 0.0 1.0 0.4 0.0 0.1 0.3 0.5 0.5 1.7 3.0 3.7 2.8 0.5 0.6
1.4 2.8 25.5 8.5 3.9 3.7 4.2 3.8 3.0 1.5 1.3 1.7 3.4 3.4 0.8 7.3 11.3 6.0 5.8 11.4 10.7 5.6 6.0 3.4 1.7 0.3 0.0 0.0 0.0 0.0 0.2 1.8 1.1 0.0 0.4 2.3 1.7 0.9 0.4 0.9 0.5 0.4 3.0 3.1
1.3 2.4 6.0 4.6 8.8 14.3 12.5 8.2 7.0 0.9 1.4 1.9 2.1 4.9 8.6 8.6 7.9 7.1 7.9 5.6 5.5 6.6 3.3 1.4 0.3 0.0 0.1 0.1 0.1 0.1 0.1 0.1 0.1 0.1 0.1 0.6 1.6 1.8 0.2 0.6 1.2 4.3 4.3 7.1
3.0 10.1 3.4 5.9 7.0 9.4 7.4 4.7 1.8 0.1 3.8 13.6 4.4 7.5 4.4 2.6 6.3 4.5 2.6 11.1 5.0 2.5 0.9 0.4 0.1 0.1 0.1 0.1 0.1 2.3 0.3 0.1 0.2 0.1 0.2 0.2 0.4 0.9 0.8 1.3 0.1 0.2 0.7 6.1

GFSNW_prec_sndepth_033.txt.gz
Snowfall_Accumulation
nan nan nan nan nan nan nan 0.0 0.0 0.0 0.0 0.0 0.0 0.0 0.0 nan 0.0 0.0 0.0 0.0 0.0 0.0 0.0 0.0 0.0 0.0 0.0 0.0 0.0 0.0 0.0 0.0 0.5 0.0 0.0 0.0 0.0 0.0 0.0 0.7 0.0 0.5 0.9 1.0
nan nan nan nan nan nan 0.0 0.0 0.0 0.0 0.0 0.5 0.5 0.0 0.0 0.0 0.0 0.0 0.0 0.0 0.0 0.0 0.0 0.0 0.0 0.0 0.0 0.0 0.0 0.0 0.0 0.1 0.3 0.1 0.0 0.0 0.0 0.0 0.0 0.0 0.2 0.0 7.3 1.0
nan nan nan nan nan nan 0.0 0.0 0.2 0.0 0.0 0.0 0.0 0.0 0.0 0.0 0.0 0.0 0.0 0.0 0.0 0.0 0.0 0.0 0.0 0.0 0.0 0.0 0.0 nan nan 0.0 0.0 0.3 0.0 0.0 0.0 0.0 0.0 0.0 1.6 0.3 0.3 0.0
nan nan nan nan nan nan 0.0 0.0 0.1 0.0 0.2 0.1 0.0 0.0 0.0 0.0 0.0 0.0 0.0 0.0 0.0 0.0 0.1 0.0 0.0 0.0 0.0 0.0 nan 0.0 0.0 0.0 0.0 0.0 0.0 0.0 0.0 0.0 0.0 0.0 0.0 0.6 0.0 0.0
nan nan nan nan nan nan 0.0 0.0 0.0 0.0 0.0 0.0 0.0 0.0 0.0 0.0 0.0 0.0 0.0 0.0 0.0 0.0 0.0 0.0 0.0 0.0 0.0 0.0 0.0 0.0 0.0 0.3 0.1 0.0 0.0 0.0 0.0 0.0 0.0 0.0 0.0 0.0 0.0 0.0
nan nan nan nan nan nan 0.0 0.0 0.0 0.0 nan 0.0 0.2 0.2 0.0 0.0 0.0 0.0 0.0 0.0 0.0 0.1 0.0 0.0 0.0 0.0 0.0 0.0 0.0 0.0 0.0 0.3 0.6 0.4 0.0 0.1 2.6 0.0 0.0 0.0 0.0 0.0 0.2 0.0
nan nan nan nan nan nan 0.0 0.0 0.0 0.1 0.5 0.3 0.1 0.0 0.0 0.0 0.0 0.0 0.0 0.0 0.0 0.0 0.0 0.0 0.0 0.0 0.0 0.0 0.0 0.0 0.1 0.1 0.4 3.2 1.4 6.0 0.0 0.0 0.0 0.0 0.0 0.0 0.0 0.0
nan nan nan nan nan nan 0.0 0.0 0.0 0.1 8.3 0.2 0.1 0.0 0.0 0.0 0.0 0.0 0.0 0.0 0.0 0.0 0.0 0.5 0.3 1.1 0.9 0.4 0.0 0.0 0.0 0.1 2.6 7.0 1.1 0.0 0.0 0.0 0.0 0.0 0.0 0.0 0.0 0.0
nan nan nan nan nan nan 0.0 0.0 0.0 0.0 0.9 0.3 0.0 0.0 0.0 0.1 0.1 0.2 0.0 0.0 0.0 0.0 0.5 1.1 1.3 2.4 0.1 0.2 0.0 0.0 0.0 0.1 1.5 2.9 4.4 8.0 0.0 0.0 0.0 0.0 0.5 0.0 0.0 0.0
nan nan nan nan nan nan 0.0 0.0 0.0 0.0 0.3 0.0 0.0 0.1 0.1 0.0 0.1 0.2 0.1 0.0 0.1 0.0 2.1 7.1 4.1 2.0 0.0 0.7 0.7 2.2 2.3 2.5 4.8 3.2 5.7 1.4 0.0 0.0 0.0 1.9 0.1 0.0 0.0 0.0
nan nan nan nan nan nan 0.0 0.0 0.0 0.0 0.0 0.0 0.0 0.0 0.0 0.0 0.0 0.5 0.0 0.4 0.4 0.7 2.3 3.5 1.8 6.2 1.0 0.4 0.0 0.1 0.7 3.1 7.5 3.2 5.7 6.5 0.0 0.0 0.7 0.3 0.0 0.0 0.0 0.0
nan nan nan nan nan nan nan 0.0 0.0 0.0 0.0 0.0 0.0 0.0 0.0 0.0 0.0 0.0 0.0 0.0 0.0 0.1 0.5 2.7 3.1 6.3 7.0 0.7 2.8 0.0 1.4 0.5 0.9 0.2 1.1 0.0 0.0 0.0 0.0 0.0 0.0 0.0 0.0 0.0
nan nan nan nan nan nan nan 0.0 0.0 0.0 0.4 0.0 0.0 0.0 0.0 0.0 0.0 0.0 0.2 0.3 0.0 0.0 0.0 0.3 1.4 3.7 0.6 5.8 0.9 0.4 0.0 0.0 0.4 0.2 0.0 0.0 0.0 0.0 0.0 0.0 0.0 0.0 0.0 0.0
nan nan nan nan nan nan nan 0.0 0.0 0.0 0.1 4.1 0.3 0.0 0.0 0.0 0.0 0.0 0.0 0.0 0.0 0.0 0.1 1.7 3.1 5.7 0.0 1.9 0.8 0.6 0.0 0.0 0.0 0.0 0.0 0.0 0.0 0.0 0.0 0.0 0.0 0.0 0.0 0.0
nan nan nan nan nan nan nan 0.0 0.0 0.0 0.0 1.8 0.5 0.0 0.0 0.0 0.0 0.0 0.0 0.0 0.0 0.2 0.9 5.7 3.5 0.4 1.1 0.7 0.6 0.8 0.0 0.0 0.8 0.6 0.0 0.0 0.0 0.0 0.0 0.0 0.0 0.0 0.0 0.0
nan nan nan nan nan nan 0.0 0.0 0.0 0.0 0.0 0.6 2.6 0.0 0.0 0.0 0.0 0.0 0.0 0.0 0.0 0.0 0.1 3.0 0.3 0.0 0.4 6.5 1.0 0.0 0.0 0.0 0.0 0.0 0.0 0.0 0.0 0.0 0.0 0.0 0.0 0.0 0.0 0.0
nan nan nan nan nan 0.0 0.0 0.0 0.0 nan 0.0 0.7 2.6 0.9 0.2 0.0 0.0 0.0 0.0 0.0 0.0 0.0 0.3 0.9 0.4 0.4 0.0 3.2 1.6 0.0 0.0 0.0 0.0 0.0 0.0 0.0 0.0 0.0 0.0 0.0 0.0 0.0 0.0 0.0
nan nan nan nan nan nan 0.0 0.0 nan nan 0.0 0.3 2.7 2.3 1.3 0.0 0.6 1.5 0.0 0.3 0.3 0.1 0.0 0.9 0.9 0.4 1.2 1.5 0.0 0.0 0.0 0.0 0.0 0.0 0.0 0.0 0.0 0.0 0.0 0.0 0.0 0.0 0.0 0.0
nan nan nan 0.0 0.0 0.2 0.0 nan nan 0.0 0.1 0.8 6.8 4.1 6.8 0.0 0.2 0.9 0.6 0.1 2.8 0.1 2.3 1.1 0.5 1.2 1.6 0.0 0.0 0.0 0.0 0.0 0.0 0.0 0.0 0.0 0.0 0.0 0.0 0.0 0.0 0.0 0.3 0.2
nan 0.0 0.0 0.9 0.5 nan nan 0.0 0.5 0.6 0.5 0.5 2.8 0.4 2.0 0.0 1.0 1.7 1.2 1.3 3.0 3.3 2.4 0.0 2.7 0.6 0.0 0.0 0.0 0.0 0.0 0.0 0.0 0.0 0.0 0.0 0.0 0.0 0.0 0.0 0.1 0.2 0.1 0.0
0.1 0.7 0.7 0.0 nan 0.0 0.2 1.1 1.1 0.5 2.5 0.3 0.6 0.5 0.5 0.2 2.3 2.8 1.3 4.2 3.8 6.3 1.4 3.6 2.8 1.5 0.0 0.0 0.0 0.0 0.0 0.0 0.0 0.0 0.0 0.0 0.0 0.1 0.3 0.3 0.1 0.1 0.1 0.1
0.0 0.2 0.0 0.0 0.0 0.9 3.3 6.1 3.8 1.9 1.5 0.9 2.1 1.0 0.2 1.1 0.0 1.0 3.0 4.3 3.6 5.4 0.6 8.2 4.4 0.4 0.0 0.0 0.0 0.0 0.0 0.0 0.0 0.0 0.0 0.0 0.0 0.0 0.0 0.0 0.1 0.2 0.2 3.0
0.0 0.4 1.1 0.7 6.7 28.6 10.6 9.5 6.4 9.7 2.3 3.7 3.6 8.7 1.3 1.3 0.5 3.8 2.9 10.1 9.1 1.0 10.1 2.1 1.4 0.0 0.0 0.0 0.0 0.0 0.0 0.0 0.0 0.0 0.0 0.0 0.0 0.0 0.1 0.6 0.3 1.6 0.4 0.2
0.8 4.1 33.0 10.2 14.1 5.8 4.6 3.0 3.7 3.6 3.2 2.7 1.9 3.6 2.9 4.3 4.9 5.5 11.4 4.6 2.3 10.0 8.1 4.5 0.9 0.3 0.0 0.0 0.0 0.0 0.0 1.0 0.4 0.0 0.0 0.3 0.5 0.5 1.7 3.0 3.7 2.8 0.5 0.6
1.3 2.6 25.4 8.6 3.9 3.7 4.2 3.6 2.9 1.5 1.2 1.7 3.2 3.1 0.7 7.2 11.2 6.1 6.0 11.5 10.8 5.7 6.0 3.4 1.8 0.4 0.0 0.1 0.0 0.0 0.2 1.8 1.1 0.0 0.4 2.3 1.7 0.9 0.4 0.9 0.5 0.4 3.0 3.1
1.3 2.5 6.0 4.7 8.8 14.4 12.0 7.8 6.7 0.8 1.4 1.8 2.0 5.0 8.7 8.7 8.0 7.2 8.0 5.6 5.5 6.6 3.4 1.4 0.3 0.1 0.1 0.1 0.1 0.1 0.1 0.1 0.1 0.1 0.1 0.6 1.6 1.8 0.2 0.6 1.2 4.3 4.3 7.1
3.0 10.2 3.2 5.9 6.7 9.5 7.2 4.5 1.8 0.1 3.6 13.7 4.5 7.5 4.4 2.6 6.3 4.6 2.6 11.1 5.0 2.5 0.9 0.4 0.0 0.1 0.1 0.1 0.1 2.3 0.3 0.1 0.1 0.1 0.2 0.2 0.4 0.9 0.8 1.3 0.1 0.2 0.7 6.1

GFSNW_prec_sndepth_036.txt.gz
Snowfall_Accumulation
nan nan nan nan nan nan nan 0.0 0.0 0.0 0.0 0.0 0.0 0.0 0.0 nan 0.0 0.0 0.0 0.0 0.0 0.0 0.0 0.0 0.0 0.0 0.0 0.0 0.0 0.0 0.0 0.0 0.4 0.0 0.0 0.0 0.0 0.0 0.0 0.6 0.0 0.4 0.7 0.8
nan nan nan nan nan nan 0.0 0.0 0.0 0.0 0.0 0.3 0.4 0.0 0.0 0.0 0.0 0.0 0.0 0.0 0.0 0.0 0.0 0.0 0.0 0.0 0.0 0.0 0.0 0.0 0.0 0.1 0.2 0.1 0.0 0.0 0.0 0.0 0.0 0.0 0.1 0.0 5.8 0.7
nan nan nan nan nan nan 0.0 0.0 0.2 0.0 0.0 0.0 0.0 0.0 0.0 0.0 0.0 0.0 0.0 0.0 0.0 0.0 0.0 0.0 0.0 0.0 0.0 0.0 0.0 nan nan 0.0 0.0 0.2 0.0 0.0 0.0 0.0 0.0 0.0 1.2 0.2 0.2 0.0
nan nan nan nan nan nan 0.0 0.0 0.0 0.0 0.1 0.1 0.0 0.0 0.0 0.0 0.0 0.0 0.0 0.0 0.0 0.0 0.1 0.0 0.0 0.0 0.0 0.0 nan 0.0 0.0 0.0 0.0 0.0 0.0 0.0 0.0 0.0 0.0 0.0 0.0 0.4 0.0 0.0
nan nan nan nan nan nan 0.0 0.0 0.0 0.0 0.0 0.0 0.0 0.0 0.0 0.0 0.0 0.0 0.0 0.0 0.0 0.0 0.0 0.0 0.0 0.0 0.0 0.0 0.0 0.0 0.0 0.2 0.0 0.0 0.0 0.0 0.0 0.0 0.0 0.0 0.0 0.0 0.0 0.0
nan nan nan nan nan nan 0.0 0.0 0.0 0.0 nan 0.0 0.1 0.1 0.0 0.0 0.0 0.0 0.0 0.0 0.0 0.0 0.0 0.0 0.0 0.0 0.0 0.0 0.0 0.0 0.0 0.3 0.4 0.2 0.0 0.1 2.1 0.0 0.0 0.0 0.0 0.0 0.2 0.0
nan nan nan nan nan nan 0.0 0.0 0.0 0.1 0.4 0.2 0.0 0.0 0.0 0.0 0.0 0.0 0.0 0.0 0.0 0.0 0.0 0.0 0.0 0.0 0.0 0.0 0.0 0.0 0.0 0.1 0.3 2.5 1.2 5.0 0.0 0.0 0.0 0.0 0.0 0.0 0.0 0.0
nan nan nan nan nan nan 0.0 0.0 0.0 0.1 7.1 0.1 0.0 0.0 0.0 0.0 0.0 0.0 0.0 0.0 0.0 0.0 0.0 0.4 0.2 0.9 0.6 0.2 0.0 0.0 0.0 0.1 2.1 5.8 0.9 0.0 0.0 0.0 0.0 0.0 0.0 0.0 0.0 0.0
nan nan nan nan nan nan 0.0 0.0 0.0 0.0 0.6 0.3 0.0 0.0 0.0 0.1 0.1 0.2 0.0 0.0 0.0 0.0 0.4 0.9 0.7 1.9 0.1 0.2 0.0 0.0 0.0 0.0 1.1 2.3 3.3 6.7 0.0 0.0 0.0 0.0 0.4 0.0 0.0 0.0
nan nan nan nan nan nan 0.0 0.0 0.0 0.0 0.3 0.0 0.0 0.1 0.1 0.0 0.1 0.1 0.1 0.0 0.1 0.0 1.6 6.0 3.2 1.6 0.0 0.6 0.5 1.9 1.7 1.9 3.8 2.6 4.5 1.1 0.0 0.0 0.0 1.6 0.1 0.0 0.0 0.0
nan nan nan nan nan nan 0.0 0.0 0.0 0.0 0.0 0.0 0.0 0.0 0.0 0.0 0.0 0.4 0.0 0.3 0.3 0.6 1.6 2.7 1.4 5.1 0.8 0.3 0.0 0.1 0.4 2.4 6.2 2.6 4.6 5.5 0.0 0.0 0.5 0.2 0.0 0.0 0.0 0.0
nan nan nan nan nan nan nan 0.0 0.0 0.0 0.0 0.0 0.0 0.0 0.0 0.0 0.0 0.0 0.0 0.0 0.0 0.1 0.4 2.1 2.4 5.3 6.1 0.5 2.2 0.0 1.1 0.4 0.7 0.1 0.9 0.0 0.0 0.0 0.0 0.0 0.0 0.0 0.0 0.0
nan nan nan nan nan nan nan 0.0 0.0 0.0 0.3 0.0 0.0 0.0 0.0 0.0 0.0 0.0 0.1 0.2 0.0 0.0 0.0 0.3 1.1 2.7 0.5 4.8 0.7 0.3 0.0 0.0 0.4 0.1 0.0 0.0 0.0 0.0 0.0 0.0 0.0 0.0 0.0 0.0
nan nan nan nan nan nan nan 0.0 0.0 0.0 0.1 3.3 0.3 0.0 0.0 0.0 0.0 0.0 0.0 0.0 0.0 0.0 0.1 1.3 2.4 4.7 0.0 1.5 0.6 0.5 0.0 0.0 0.0 0.0 0.0 0.0 0.0 0.0 0.0 0.0 0.0 0.0 0.0 0.0
nan nan nan nan nan nan nan 0.0 0.0 0.0 0.0 1.6 0.4 0.0 0.0 0.0 0.0 0.0 0.0 0.0 0.0 0.1 0.7 4.9 2.7 0.3 0.9 0.6 0.5 0.7 0.0 0.0 0.7 0.5 0.0 0.0 0.0 0.0 0.0 0.0 0.0 0.0 0.0 0.0
nan nan nan nan nan nan 0.0 0.0 0.0 0.0 0.0 0.5 2.1 0.0 0.0 0.0 0.0 0.0 0.0 0.0 0.0 0.0 0.1 2.5 0.2 0.0 0.3 5.8 0.8 0.0 0.0 0.0 0.0 0.0 0.0 0.0 0.0 0.0 0.0 0.0 0.0 0.0 0.0 0.0
nan nan nan nan nan 0.0 0.0 0.0 0.0 nan 0.0 0.5 2.1 0.7 0.2 0.0 0.0 0.0 0.0 0.0 0.0 0.0 0.2 0.8 0.4 0.4 0.0 2.7 1.3 0.0 0.0 0.0 0.0 0.0 0.0 0.0 0.0 0.0 0.0 0.0 0.0 0.0 0.0 0.0
nan nan nan nan nan nan 0.0 0.0 nan nan 0.0 0.2 2.3 2.0 1.0 0.0 0.5 1.3 0.0 0.3 0.3 0.1 0.0 0.8 0.8 0.3 1.0 1.3 0.0 0.0 0.0 0.0 0.0 0.0 0.0 0.0 0.0 0.0 0.0 0.0 0.0 0.0 0.0 0.0
nan nan nan 0.0 0.0 0.2 0.0 nan nan 0.0 0.0 0.7 6.0 3.4 6.0 0.0 0.2 0.8 0.5 0.1 2.3 0.1 2.1 1.0 0.4 1.1 1.5 0.0 0.0 0.0 0.0 0.0 0.0 0.0 0.0 0.0 0.0 0.0 0.0 0.0 0.0 0.1 0.5 0.5
nan 0.0 0.0 0.8 0.4 nan nan 0.0 0.4 0.5 0.4 0.4 2.5 0.3 1.7 0.0 0.9 1.5 1.1 1.1 2.6 2.9 2.0 0.0 2.5 0.6 0.0 0.0 0.0 0.0 0.0 0.0 0.0 0.0 0.0 0.0 0.0 0.0 0.0 0.1 0.2 0.2 0.1 0.0
0.1 0.6 0.6 0.0 nan 0.0 0.2 0.9 0.9 0.4 2.0 0.3 0.6 0.5 0.5 0.2 2.0 2.5 1.1 3.7 3.3 5.5 1.2 3.2 2.5 1.4 0.0 0.0 0.0 0.0 0.0 0.0 0.0 0.0 0.0 0.0 0.0 0.1 0.2 0.3 0.1 0.1 0.1 0.1
0.0 0.1 0.0 0.0 0.0 0.8 2.8 5.5 3.4 1.6 1.2 0.8 1.9 0.9 0.2 1.0 0.0 0.8 2.6 3.7 3.2 4.8 0.5 7.5 4.1 0.4 0.0 0.0 0.0 0.0 0.0 0.0 0.0 0.0 0.0 0.0 0.0 0.0 0.0 0.0 0.0 0.1 0.2 2.6
0.0 0.4 0.8 0.6 6.0 26.1 9.7 8.5 5.8 8.9 2.2 3.4 3.3 8.2 1.1 1.1 0.4 3.4 2.6 9.0 8.1 0.9 9.2 1.8 1.3 0.0 0.0 0.0 0.0 0.0 0.0 0.0 0.0 0.0 0.0 0.0 0.0 0.0 0.1 0.4 0.2 1.3 0.3 0.1
0.7 3.7 30.6 9.3 12.7 5.2 4.1 2.6 3.4 3.4 3.0 2.5 1.8 3.3 2.6 3.9 4.3 5.0 10.4 4.3 2.1 9.1 7.3 4.2 0.9 0.2 0.0 0.0 0.0 0.0 0.0 0.9 0.3 0.0 0.0 0.2 0.3 0.3 1.4 2.8 3.5 2.6 0.3 0.4
1.1 2.3 23.1 8.0 3.7 3.5 4.0 3.5 2.7 1.4 1.2 1.6 2.9 2.9 0.6 6.6 10.3 5.6 5.3 10.5 9.8 5.1 5.4 3.1 1.6 0.4 0.0 0.1 0.0 0.0 0.1 1.6 0.9 0.0 0.3 2.1 1.5 0.7 0.3 0.7 0.3 0.3 2.9 2.9
1.2 2.2 5.6 4.4 8.3 13.6 11.4 7.5 6.4 0.8 1.3 1.7 1.8 4.5 7.7 8.0 7.2 6.4 7.2 5.1 5.0 6.0 3.0 1.3 0.3 0.1 0.1 0.1 0.1 0.1 0.1 0.1 0.1 0.0 0.1 0.5 1.4 1.7 0.1 0.4 1.0 4.2 4.2 7.0
2.7 9.8 3.1 5.5 6.2 8.9 6.9 4.3 1.8 0.1 3.4 12.7 4.1 6.9 4.0 2.3 5.7 4.0 2.2 10.1 4.4 2.2 0.8 0.4 0.0 0.1 0.1 0.1 0.1 1.9 0.2 0.1 0.1 0.1 0.1 0.1 0.3 0.7 0.7 1.2 0.1 0.2 0.5 6.1

GFSNW_prec_sndepth_039.txt.gz
Snowfall_Accumulation
nan nan nan nan nan nan nan 0.0 0.0 0.0 0.0 0.0 0.0 0.0 0.0 nan 0.0 0.0 0.0 0.0 0.0 0.0 0.0 0.0 0.0 0.0 0.0 0.0 0.0 0.0 0.0 0.0 0.3 0.0 0.0 0.0 0.0 0.0 0.0 0.4 0.0 0.3 0.5 0.6
nan nan nan nan nan nan 0.0 0.0 0.0 0.0 0.0 0.2 0.3 0.0 0.0 0.0 0.0 0.0 0.0 0.0 0.0 0.0 0.0 0.0 0.0 0.0 0.0 0.0 0.0 0.0 0.0 0.1 0.1 0.1 0.0 0.0 0.0 0.0 0.0 0.0 0.1 0.0 4.5 0.5
nan nan nan nan nan nan 0.0 0.0 0.1 0.0 0.0 0.0 0.0 0.0 0.0 0.0 0.0 0.0 0.0 0.0 0.0 0.0 0.0 0.0 0.0 0.0 0.0 0.0 0.0 nan nan 0.0 0.0 0.2 0.0 0.0 0.0 0.0 0.0 0.0 0.8 0.2 0.2 0.0
nan nan nan nan nan nan 0.0 0.0 0.0 0.0 0.1 0.0 0.0 0.0 0.0 0.0 0.0 0.0 0.0 0.0 0.0 0.0 0.0 0.0 0.0 0.0 0.0 0.0 nan 0.0 0.0 0.0 0.0 0.0 0.0 0.0 0.0 0.0 0.0 0.0 0.0 0.3 0.0 0.0
nan nan nan nan nan nan 0.0 0.0 0.0 0.0 0.0 0.0 0.0 0.0 0.0 0.0 0.0 0.0 0.0 0.0 0.0 0.0 0.0 0.0 0.0 0.0 0.0 0.0 0.0 0.0 0.0 0.2 0.0 0.0 0.0 0.0 0.0 0.0 0.0 0.0 0.0 0.0 0.0 0.0
nan nan nan nan nan nan 0.0 0.0 0.0 0.0 nan 0.0 0.1 0.1 0.0 0.0 0.0 0.0 0.0 0.0 0.0 0.0 0.0 0.0 0.0 0.0 0.0 0.0 0.0 0.0 0.0 0.2 0.3 0.1 0.0 0.0 1.3 0.0 0.0 0.0 0.0 0.0 0.1 0.0
nan nan nan nan nan nan 0.0 0.0 0.0 0.0 0.3 0.1 0.0 0.0 0.0 0.0 0.0 0.0 0.0 0.0 0.0 0.0 0.0 0.0 0.0 0.0 0.0 0.0 0.0 0.0 0.0 0.0 0.3 1.8 0.9 3.5 0.0 0.0 0.0 0.0 0.0 0.0 0.0 0.0
nan nan nan nan nan nan 0.0 0.0 0.0 0.0 5.4 0.0 0.0 0.0 0.0 0.0 0.0 0.0 0.0 0.0 0.0 0.0 0.0 0.3 0.1 0.6 0.2 0.1 0.0 0.0 0.0 0.0 1.4 4.4 0.7 0.0 0.0 0.0 0.0 0.0 0.0 0.0 0.0 0.0
nan nan nan nan nan nan 0.0 0.0 0.0 0.0 0.4 0.2 0.0 0.0 0.0 0.0 0.0 0.1 0.0 0.0 0.0 0.0 0.3 0.6 0.2 1.3 0.0 0.1 0.0 0.0 0.0 0.0 0.8 1.5 1.8 5.1 0.0 0.0 0.0 0.0 0.3 0.0 0.0 0.0
nan nan nan nan nan nan 0.0 0.0 0.0 0.0 0.2 0.0 0.0 0.0 0.1 0.0 0.0 0.1 0.0 0.0 0.0 0.0 1.1 4.7 2.1 1.1 0.0 0.4 0.2 1.2 1.1 1.1 2.6 1.8 3.1 0.8 0.0 0.0 0.0 1.2 0.1 0.0 0.0 0.0
nan nan nan nan nan nan 0.0 0.0 0.0 0.0 0.0 0.0 0.0 0.0 0.0 0.0 0.0 0.3 0.0 0.2 0.2 0.4 1.1 1.8 1.0 3.9 0.6 0.3 0.0 0.0 0.2 1.7 4.8 1.9 3.2 4.0 0.0 0.0 0.2 0.2 0.0 0.0 0.0 0.0
nan nan nan nan nan nan nan 0.0 0.0 0.0 0.0 0.0 0.0 0.0 0.0 0.0 0.0 0.0 0.0 0.0 0.0 0.0 0.3 1.5 1.6 4.2 5.1 0.2 1.5 0.0 0.8 0.3 0.5 0.1 0.7 0.0 0.0 0.0 0.0 0.0 0.0 0.0 0.0 0.0
nan nan nan nan nan nan nan 0.0 0.0 0.0 0.2 0.0 0.0 0.0 0.0 0.0 0.0 0.0 0.1 0.2 0.0 0.0 0.0 0.2 0.8 1.6 0.4 3.8 0.5 0.2 0.0 0.0 0.3 0.1 0.0 0.0 0.0 0.0 0.0 0.0 0.0 0.0 0.0 0.0
nan nan nan nan nan nan nan 0.0 0.0 0.0 0.0 2.4 0.2 0.0 0.0 0.0 0.0 0.0 0.0 0.0 0.0 0.0 0.0 0.8 1.8 3.6 0.0 1.0 0.4 0.4 0.0 0.0 0.0 0.0 0.0 0.0 0.0 0.0 0.0 0.0 0.0 0.0 0.0 0.0
nan nan nan nan nan nan nan 0.0 0.0 0.0 0.0 1.2 0.3 0.0 0.0 0.0 0.0 0.0 0.0 0.0 0.0 0.1 0.5 4.0 1.9 0.2 0.6 0.5 0.4 0.5 0.0 0.0 0.5 0.4 0.0 0.0 0.0 0.0 0.0 0.0 0.0 0.0 0.0 0.0
nan nan nan nan nan nan 0.0 0.0 0.0 0.0 0.0 0.3 1.5 0.0 0.0 0.0 0.0 0.0 0.0 0.0 0.0 0.0 0.1 2.0 0.2 0.0 0.2 5.0 0.6 0.0 0.0 0.0 0.0 0.0 0.0 0.0 0.0 0.0 0.0 0.0 0.0 0.0 0.0 0.0
nan nan nan nan nan 0.0 0.0 0.0 0.0 nan 0.0 0.4 1.5 0.6 0.1 0.0 0.0 0.0 0.0 0.0 0.0 0.0 0.2 0.6 0.3 0.3 0.0 2.2 0.9 0.0 0.0 0.0 0.0 0.0 0.0 0.0 0.0 0.0 0.0 0.0 0.0 0.0 0.0 0.0
nan nan nan nan nan nan 0.0 0.0 nan nan 0.0 0.2 1.8 1.6 0.8 0.0 0.4 1.0 0.0 0.2 0.2 0.0 0.0 0.6 0.6 0.3 0.8 0.9 0.0 0.0 0.0 0.0 0.0 0.0 0.0 0.0 0.0 0.0 0.0 0.0 0.0 0.0 0.0 0.0
nan nan nan 0.0 0.0 0.1 0.0 nan nan 0.0 0.0 0.5 5.2 2.7 5.2 0.0 0.1 0.6 0.4 0.0 1.8 0.1 1.7 0.8 0.3 0.9 1.2 0.0 0.0 0.0 0.0 0.0 0.0 0.0 0.0 0.0 0.0 0.0 0.0 0.0 0.0 0.0 0.3 0.3
nan 0.0 0.0 0.6 0.3 nan nan 0.0 0.3 0.3 0.3 0.3 1.9 0.3 1.3 0.0 0.7 1.2 0.9 0.9 2.0 2.3 1.6 0.0 2.2 0.5 0.0 0.0 0.0 0.0 0.0 0.0 0.0 0.0 0.0 0.0 0.0 0.0 0.0 0.1 0.1 0.1 0.0 0.0
0.0 0.4 0.5 0.0 nan 0.0 0.2 0.6 0.6 0.3 1.4 0.2 0.5 0.4 0.4 0.2 1.7 2.2 0.9 3.1 2.7 4.5 1.0 2.6 2.1 1.3 0.0 0.0 0.0 0.0 0.0 0.0 0.0 0.0 0.0 0.0 0.0 0.0 0.1 0.1 0.1 0.0 0.0 0.0
0.0 0.1 0.0 0.0 0.0 0.6 2.2 4.9 2.8 1.1 0.9 0.7 1.7 0.8 0.2 0.8 0.0 0.7 2.1 2.9 2.6 3.8 0.4 6.5 3.5 0.4 0.0 0.0 0.0 0.0 0.0 0.0 0.0 0.0 0.0 0.0 0.0 0.0 0.0 0.0 0.0 0.1 0.1 2.1
0.0 0.3 0.4 0.5 5.2 23.5 8.3 7.0 4.9 8.1 2.0 3.2 2.9 7.6 0.9 0.9 0.3 2.8 2.0 7.7 6.7 0.7 8.2 1.6 1.2 0.0 0.0 0.0 0.0 0.0 0.0 0.0 0.0 0.0 0.0 0.0 0.0 0.0 0.1 0.2 0.1 0.8 0.1 0.1
0.6 2.9 27.3 8.1 11.0 4.4 3.6 2.3 3.0 3.2 2.8 2.3 1.4 2.8 2.1 3.3 3.6 4.4 9.1 3.8 1.7 8.2 6.5 3.6 0.8 0.2 0.0 0.0 0.0 0.0 0.0 0.6 0.1 0.0 0.0 0.1 0.2 0.2 0.9 2.3 2.9 2.0 0.2 0.2
1.0 1.8 20.6 7.1 3.3 3.2 3.7 3.2 2.5 1.3 1.1 1.3 2.4 2.4 0.5 5.8 9.1 4.8 4.4 9.3 8.6 4.3 4.7 2.5 1.4 0.2 0.0 0.0 0.0 0.0 0.1 1.1 0.6 0.0 0.1 1.6 1.0 0.3 0.2 0.4 0.2 0.2 2.6 2.6
1.0 1.7 5.0 4.0 7.7 12.7 10.8 7.1 6.1 0.7 1.2 1.5 1.5 3.7 6.5 6.8 6.1 5.2 5.8 4.1 4.0 5.2 2.6 1.1 0.3 0.1 0.1 0.1 0.0 0.0 0.0 0.0 0.0 0.0 0.0 0.3 1.1 1.3 0.1 0.2 0.7 4.0 3.8 7.0
2.0 8.9 2.9 5.0 5.7 8.3 6.5 4.0 1.7 0.1 3.1 11.6 3.5 5.5 3.1 1.9 4.9 3.1 1.9 8.8 3.7 1.9 0.8 0.4 0.0 0.1 0.1 0.1 0.1 1.3 0.1 0.0 0.1 0.0 0.1 0.1 0.2 0.4 0.4 0.7 0.1 0.1 0.3 6.0

GFSNW_prec_sndepth_045.txt.gz
Snowfall_Accumulation
nan nan nan nan nan nan nan 0.0 0.0 0.0 0.0 0.0 0.0 0.0 0.0 nan 0.0 0.0 0.0 0.0 0.0 0.0 0.0 0.0 0.0 0.0 0.0 0.0 0.0 0.0 0.0 0.0 0.2 0.0 0.0 0.0 0.0 0.0 0.0 0.3 0.0 0.2 0.4 0.4
nan nan nan nan nan nan 0.0 0.0 0.0 0.0 0.0 0.1 0.2 0.0 0.0 0.0 0.0 0.0 0.0 0.0 0.0 0.0 0.0 0.0 0.0 0.0 0.0 0.0 0.0 0.0 0.0 0.0 0.1 0.1 0.0 0.0 0.0 0.0 0.0 0.0 0.1 0.0 3.6 0.4
nan nan nan nan nan nan 0.0 0.0 0.1 0.0 0.0 0.0 0.0 0.0 0.0 0.0 0.0 0.0 0.0 0.0 0.0 0.0 0.0 0.0 0.0 0.0 0.0 0.0 0.0 nan nan 0.0 0.0 0.1 0.0 0.0 0.0 0.0 0.0 0.0 0.6 0.1 0.1 0.0
nan nan nan nan nan nan 0.0 0.0 0.0 0.0 0.0 0.0 0.0 0.0 0.0 0.0 0.0 0.0 0.0 0.0 0.0 0.0 0.0 0.0 0.0 0.0 0.0 0.0 nan 0.0 0.0 0.0 0.0 0.0 0.0 0.0 0.0 0.0 0.0 0.0 0.0 0.2 0.0 0.0
nan nan nan nan nan nan 0.0 0.0 0.0 0.0 0.0 0.0 0.0 0.0 0.0 0.0 0.0 0.0 0.0 0.0 0.0 0.0 0.0 0.0 0.0 0.0 0.0 0.0 0.0 0.0 0.0 0.1 0.0 0.0 0.0 0.0 0.0 0.0 0.0 0.0 0.0 0.0 0.0 0.0
nan nan nan nan nan nan 0.0 0.0 0.0 0.0 nan 0.0 0.0 0.0 0.0 0.0 0.0 0.0 0.0 0.0 0.0 0.0 0.0 0.0 0.0 0.0 0.0 0.0 0.0 0.0 0.0 0.1 0.2 0.1 0.0 0.0 0.9 0.0 0.0 0.0 0.0 0.0 0.1 0.0
nan nan nan nan nan nan 0.0 0.0 0.0 0.0 0.1 0.0 0.0 0.0 0.0 0.0 0.0 0.0 0.0 0.0 0.0 0.0 0.0 0.0 0.0 0.0 0.0 0.0 0.0 0.0 0.0 0.0 0.2 1.3 0.7 2.7 0.0 0.0 0.0 0.0 0.0 0.0 0.0 0.0
nan nan nan nan nan nan 0.0 0.0 0.0 0.0 3.3 0.0 0.0 0.0 0.0 0.0 0.0 0.0 0.0 0.0 0.0 0.0 0.0 0.2 0.0 0.4 0.1 0.1 0.0 0.0 0.0 0.0 1.1 3.4 0.5 0.0 0.0 0.0 0.0 0.0 0.0 0.0 0.0 0.0
nan nan nan nan nan nan 0.0 0.0 0.0 0.0 0.2 0.1 0.0 0.0 0.0 0.0 0.0 0.1 0.0 0.0 0.0 0.0 0.2 0.5 0.1 1.0 0.0 0.1 0.0 0.0 0.0 0.0 0.6 1.1 1.1 4.2 0.0 0.0 0.0 0.0 0.2 0.0 0.0 0.0
nan nan nan nan nan nan 0.0 0.0 0.0 0.0 0.1 0.0 0.0 0.0 0.0 0.0 0.0 0.1 0.0 0.0 0.0 0.0 0.8 3.5 1.5 0.8 0.0 0.3 0.1 0.8 0.8 0.8 1.9 1.3 2.3 0.6 0.0 0.0 0.0 0.9 0.1 0.0 0.0 0.0
nan nan nan nan nan nan 0.0 0.0 0.0 0.0 0.0 0.0 0.0 0.0 0.0 0.0 0.0 0.2 0.0 0.2 0.2 0.3 0.7 1.2 0.7 2.9 0.5 0.2 0.0 0.0 0.2 1.2 3.8 1.3 2.4 3.2 0.0 0.0 0.1 0.1 0.0 0.0 0.0 0.0
nan nan nan nan nan nan nan 0.0 0.0 0.0 0.0 0.0 0.0 0.0 0.0 0.0 0.0 0.0 0.0 0.0 0.0 0.0 0.2 1.0 1.0 3.2 4.1 0.1 1.1 0.0 0.6 0.2 0.4 0.1 0.5 0.0 0.0 0.0 0.0 0.0 0.0 0.0 0.0 0.0
nan nan nan nan nan nan nan 0.0 0.0 0.0 0.1 0.0 0.0 0.0 0.0 0.0 0.0 0.0 0.0 0.1 0.0 0.0 0.0 0.1 0.5 0.8 0.3 2.9 0.4 0.1 0.0 0.0 0.2 0.0 0.0 0.0 0.0 0.0 0.0 0.0 0.0 0.0 0.0 0.0
nan nan nan nan nan nan nan 0.0 0.0 0.0 0.0 1.5 0.1 0.0 0.0 0.0 0.0 0.0 0.0 0.0 0.0 0.0 0.0 0.5 1.2 2.6 0.0 0.7 0.3 0.3 0.0 0.0 0.0 0.0 0.0 0.0 0.0 0.0 0.0 0.0 0.0 0.0 0.0 0.0
nan nan nan nan nan nan nan 0.0 0.0 0.0 0.0 0.8 0.2 0.0 0.0 0.0 0.0 0.0 0.0 0.0 0.0 0.0 0.4 3.1 1.3 0.2 0.4 0.4 0.3 0.4 0.0 0.0 0.4 0.3 0.0 0.0 0.0 0.0 0.0 0.0 0.0 0.0 0.0 0.0
nan nan nan nan nan nan 0.0 0.0 0.0 0.0 0.0 0.2 1.1 0.0 0.0 0.0 0.0 0.0 0.0 0.0 0.0 0.0 0.1 1.4 0.1 0.0 0.2 4.0 0.5 0.0 0.0 0.0 0.0 0.0 0.0 0.0 0.0 0.0 0.0 0.0 0.0 0.0 0.0 0.0
nan nan nan nan nan 0.0 0.0 0.0 0.0 nan 0.0 0.2 1.0 0.5 0.1 0.0 0.0 0.0 0.0 0.0 0.0 0.0 0.1 0.5 0.2 0.2 0.0 1.6 0.7 0.0 0.0 0.0 0.0 0.0 0.0 0.0 0.0 0.0 0.0 0.0 0.0 0.0 0.0 0.0
nan nan nan nan nan nan 0.0 0.0 nan nan 0.0 0.1 1.3 1.4 0.6 0.0 0.3 0.7 0.0 0.2 0.1 0.0 0.0 0.5 0.5 0.2 0.6 0.7 0.0 0.0 0.0 0.0 0.0 0.0 0.0 0.0 0.0 0.0 0.0 0.0 0.0 0.0 0.0 0.0
nan nan nan 0.0 0.0 0.1 0.0 nan nan 0.0 0.0 0.4 4.3 2.1 4.3 0.0 0.1 0.5 0.3 0.0 1.3 0.0 1.3 0.6 0.2 0.8 0.9 0.0 0.0 0.0 0.0 0.0 0.0 0.0 0.0 0.0 0.0 0.0 0.0 0.0 0.0 0.0 0.2 0.1
nan 0.0 0.0 0.5 0.2 nan nan 0.0 0.2 0.3 0.3 0.2 1.4 0.2 0.9 0.0 0.6 1.0 0.7 0.7 1.4 1.7 1.2 0.0 1.7 0.4 0.0 0.0 0.0 0.0 0.0 0.0 0.0 0.0 0.0 0.0 0.0 0.0 0.0 0.0 0.0 0.0 0.0 0.0
0.0 0.3 0.3 0.0 nan 0.0 0.1 0.5 0.5 0.3 0.9 0.2 0.4 0.3 0.3 0.1 1.4 1.7 0.7 2.5 2.1 3.7 0.8 2.1 1.7 1.0 0.0 0.0 0.0 0.0 0.0 0.0 0.0 0.0 0.0 0.0 0.0 0.0 0.1 0.1 0.0 0.0 0.0 0.0
0.0 0.1 0.0 0.0 0.0 0.5 1.6 4.0 2.2 0.7 0.6 0.6 1.4 0.6 0.1 0.6 0.0 0.5 1.6 2.1 2.1 3.0 0.3 5.3 2.9 0.3 0.0 0.0 0.0 0.0 0.0 0.0 0.0 0.0 0.0 0.0 0.0 0.0 0.0 0.0 0.0 0.1 0.1 1.9
0.0 0.2 0.2 0.3 4.2 31.4 7.0 5.8 3.9 7.0 1.7 2.8 2.4 6.7 0.7 0.7 0.2 2.2 1.6 6.3 5.4 0.5 6.8 1.2 1.0 0.0 0.0 0.0 0.0 0.0 0.0 0.0 0.0 0.0 0.0 0.0 0.0 0.0 0.0 0.1 0.1 0.6 0.1 0.1
0.4 2.2 34.4 6.6 9.3 3.7 3.0 1.9 2.5 2.8 2.5 1.9 1.1 2.4 1.7 2.7 2.9 3.6 7.5 3.2 1.4 7.1 5.6 3.0 0.7 0.1 0.0 0.0 0.0 0.0 0.0 0.4 0.1 0.0 0.0 0.1 0.1 0.1 0.6 1.9 2.6 1.8 0.1 0.1
0.7 1.3 24.7 6.3 3.0 2.8 3.3 2.9 2.3 1.2 0.9 1.1 1.9 1.8 0.3 4.7 7.6 3.8 3.6 8.3 7.7 3.6 4.0 2.1 1.2 0.2 0.0 0.0 0.0 0.0 0.1 0.9 0.4 0.0 0.1 1.2 0.8 0.2 0.1 0.3 0.1 0.1 2.6 2.5
1.0 1.6 4.4 3.5 6.8 11.4 9.8 6.4 5.5 0.6 1.0 1.1 1.1 2.8 5.1 5.7 5.1 4.2 4.8 3.4 3.3 4.5 2.2 1.0 0.2 0.1 0.1 0.0 0.0 0.0 0.0 0.0 0.0 0.0 0.0 0.2 0.9 1.1 0.1 0.2 0.5 3.9 3.7 7.0
1.7 8.9 3.2 4.5 5.1 7.8 6.0 3.7 1.6 0.0 2.6 9.8 2.7 4.4 2.5 1.5 4.2 2.4 1.6 8.0 3.2 1.6 0.7 0.3 0.0 0.1 0.1 0.1 0.0 0.8 0.1 0.0 0.0 0.0 0.1 0.0 0.1 0.3 0.3 0.5 0.0 0.1 0.2 6.0

GFSNW_prec_sndepth_048.txt.gz
Snowfall_Accumulation
nan nan nan nan nan nan nan 0.0 0.0 0.0 0.0 0.0 0.0 0.0 0.0 nan 0.0 0.0 0.0 0.0 0.0 0.0 0.0 0.0 0.0 0.0 0.0 0.0 0.0 0.0 0.0 0.0 0.2 0.0 0.0 0.0 0.0 0.0 0.0 0.3 0.0 0.2 0.4 0.4
nan nan nan nan nan nan 0.0 0.0 0.0 0.0 0.0 0.1 0.1 0.0 0.0 0.0 0.0 0.0 0.0 0.0 0.0 0.0 0.0 0.0 0.0 0.0 0.0 0.0 0.0 0.0 0.0 0.0 0.1 0.1 0.0 0.0 0.0 0.0 0.0 0.0 0.1 0.0 3.6 0.4
nan nan nan nan nan nan 0.0 0.0 0.1 0.0 0.0 0.0 0.0 0.0 0.0 0.0 0.0 0.0 0.0 0.0 0.0 0.0 0.0 0.0 0.0 0.0 0.0 0.0 0.0 nan nan 0.0 0.0 0.1 0.0 0.0 0.0 0.0 0.0 0.0 0.6 0.1 0.1 0.0
nan nan nan nan nan nan 0.0 0.0 0.0 0.0 0.0 0.0 0.0 0.0 0.0 0.0 0.0 0.0 0.0 0.0 0.0 0.0 0.0 0.0 0.0 0.0 0.0 0.0 nan 0.0 0.0 0.0 0.0 0.0 0.0 0.0 0.0 0.0 0.0 0.0 0.0 0.2 0.0 0.0
nan nan nan nan nan nan 0.0 0.0 0.0 0.0 0.0 0.0 0.0 0.0 0.0 0.0 0.0 0.0 0.0 0.0 0.0 0.0 0.0 0.0 0.0 0.0 0.0 0.0 0.0 0.0 0.0 0.1 0.0 0.0 0.0 0.0 0.0 0.0 0.0 0.0 0.0 0.0 0.0 0.0
nan nan nan nan nan nan 0.0 0.0 0.0 0.0 nan 0.0 0.0 0.0 0.0 0.0 0.0 0.0 0.0 0.0 0.0 0.0 0.0 0.0 0.0 0.0 0.0 0.0 0.0 0.0 0.0 0.1 0.2 0.1 0.0 0.0 0.9 0.0 0.0 0.0 0.0 0.0 0.1 0.0
nan nan nan nan nan nan 0.0 0.0 0.0 0.0 0.1 0.0 0.0 0.0 0.0 0.0 0.0 0.0 0.0 0.0 0.0 0.0 0.0 0.0 0.0 0.0 0.0 0.0 0.0 0.0 0.0 0.0 0.2 1.3 0.7 2.7 0.0 0.0 0.0 0.0 0.0 0.0 0.0 0.0
nan nan nan nan nan nan 0.0 0.0 0.0 0.0 2.9 0.0 0.0 0.0 0.0 0.0 0.0 0.0 0.0 0.0 0.0 0.0 0.0 0.2 0.0 0.4 0.1 0.1 0.0 0.0 0.0 0.0 1.1 3.4 0.5 0.0 0.0 0.0 0.0 0.0 0.0 0.0 0.0 0.0
nan nan nan nan nan nan 0.0 0.0 0.0 0.0 0.2 0.1 0.0 0.0 0.0 0.0 0.0 0.1 0.0 0.0 0.0 0.0 0.2 0.4 0.2 1.0 0.0 0.1 0.0 0.0 0.0 0.0 0.6 1.1 1.1 4.2 0.0 0.0 0.0 0.0 0.2 0.0 0.0 0.0
nan nan nan nan nan nan 0.0 0.0 0.0 0.0 0.1 0.0 0.0 0.0 0.0 0.0 0.0 0.1 0.0 0.0 0.0 0.0 0.8 3.4 1.5 0.9 0.0 0.3 0.1 0.8 0.8 0.8 1.9 1.3 2.3 0.6 0.0 0.0 0.0 0.9 0.1 0.0 0.0 0.0
nan nan nan nan nan nan 0.0 0.0 0.0 0.0 0.0 0.0 0.0 0.0 0.0 0.0 0.0 0.2 0.0 0.2 0.2 0.3 0.7 1.1 0.7 2.9 0.5 0.2 0.0 0.0 0.2 1.2 3.8 1.3 2.4 3.2 0.0 0.0 0.1 0.1 0.0 0.0 0.0 0.0
nan nan nan nan nan nan nan 0.0 0.0 0.0 0.0 0.0 0.0 0.0 0.0 0.0 0.0 0.0 0.0 0.0 0.0 0.0 0.2 0.9 0.9 3.0 4.1 0.1 1.1 0.0 0.6 0.2 0.4 0.1 0.5 0.0 0.0 0.0 0.0 0.0 0.0 0.0 0.0 0.0
nan nan nan nan nan nan nan 0.0 0.0 0.0 0.1 0.0 0.0 0.0 0.0 0.0 0.0 0.0 0.0 0.1 0.0 0.0 0.0 0.1 0.5 0.8 0.3 2.9 0.4 0.1 0.0 0.0 0.2 0.0 0.0 0.0 0.0 0.0 0.0 0.0 0.0 0.0 0.0 0.0
nan nan nan nan nan nan nan 0.0 0.0 0.0 0.0 1.5 0.1 0.0 0.0 0.0 0.0 0.0 0.0 0.0 0.0 0.0 0.0 0.5 1.1 2.5 0.0 0.7 0.3 0.3 0.0 0.0 0.0 0.0 0.0 0.0 0.0 0.0 0.0 0.0 0.0 0.0 0.0 0.0
nan nan nan nan nan nan nan 0.0 0.0 0.0 0.0 0.8 0.2 0.0 0.0 0.0 0.0 0.0 0.0 0.0 0.0 0.0 0.3 2.9 1.2 0.2 0.4 0.3 0.3 0.4 0.0 0.0 0.4 0.3 0.0 0.0 0.0 0.0 0.0 0.0 0.0 0.0 0.0 0.0
nan nan nan nan nan nan 0.0 0.0 0.0 0.0 0.0 0.2 1.0 0.0 0.0 0.0 0.0 0.0 0.0 0.0 0.0 0.0 0.1 1.3 0.1 0.0 0.2 3.9 0.5 0.0 0.0 0.0 0.0 0.0 0.0 0.0 0.0 0.0 0.0 0.0 0.0 0.0 0.0 0.0
nan nan nan nan nan 0.0 0.0 0.0 0.0 nan 0.0 0.2 1.0 0.5 0.1 0.0 0.0 0.0 0.0 0.0 0.0 0.0 0.1 0.5 0.2 0.2 0.0 1.6 0.7 0.0 0.0 0.0 0.0 0.0 0.0 0.0 0.0 0.0 0.0 0.0 0.0 0.0 0.0 0.0
nan nan nan nan nan nan 0.0 0.0 nan nan 0.0 0.1 1.2 1.3 0.5 0.0 0.3 0.7 0.0 0.2 0.1 0.0 0.0 0.4 0.5 0.2 0.6 0.7 0.0 0.0 0.0 0.0 0.0 0.0 0.0 0.0 0.0 0.0 0.0 0.0 0.0 0.0 0.0 0.0
nan nan nan 0.0 0.0 0.1 0.0 nan nan 0.0 0.0 0.3 4.0 1.9 4.0 0.0 0.1 0.5 0.3 0.0 1.2 0.0 1.2 0.6 0.2 0.7 1.0 0.0 0.0 0.0 0.0 0.0 0.0 0.0 0.0 0.0 0.0 0.0 0.0 0.0 0.0 0.0 0.2 0.1
nan 0.0 0.0 0.4 0.2 nan nan 0.0 0.2 0.2 0.2 0.2 1.3 0.2 0.9 0.0 0.6 0.9 0.6 0.7 1.4 1.6 1.1 0.0 1.7 0.4 0.0 0.0 0.0 0.0 0.0 0.0 0.0 0.0 0.0 0.0 0.0 0.0 0.0 0.0 0.0 0.0 0.0 0.0
0.0 0.3 0.3 0.0 nan 0.0 0.1 0.5 0.5 0.3 0.9 0.2 0.4 0.3 0.3 0.1 1.3 1.6 0.7 2.4 2.0 3.7 0.7 2.0 1.6 1.0 0.0 0.0 0.0 0.0 0.0 0.0 0.0 0.0 0.0 0.0 0.0 0.0 0.0 0.1 0.0 0.0 0.0 0.0
0.0 0.1 0.0 0.0 0.0 0.4 1.6 3.9 2.1 0.7 0.6 0.6 1.3 0.6 0.1 0.6 0.0 0.5 1.5 2.1 2.2 3.0 0.3 5.1 2.9 0.3 0.0 0.0 0.0 0.0 0.0 0.0 0.0 0.0 0.0 0.0 0.0 0.0 0.0 0.0 0.0 0.1 0.1 1.9
0.0 0.2 0.2 0.3 4.0 31.2 7.0 5.8 3.8 7.0 1.7 2.7 2.2 6.4 0.7 0.6 0.2 2.1 1.6 6.4 5.4 0.5 6.6 1.2 1.0 0.0 0.0 0.0 0.0 0.0 0.0 0.0 0.0 0.0 0.0 0.0 0.0 0.0 0.0 0.1 0.1 0.6 0.1 0.1
0.4 2.1 34.2 6.4 9.1 3.7 3.0 1.9 2.4 2.7 2.4 1.8 1.1 2.3 1.6 2.6 2.7 3.4 7.6 3.0 1.3 7.2 5.6 3.0 0.6 0.1 0.0 0.0 0.0 0.0 0.0 0.3 0.1 0.0 0.0 0.1 0.1 0.1 0.6 1.9 2.6 1.8 0.1 0.1
0.7 1.3 24.5 6.3 3.0 2.7 3.3 2.8 2.2 1.2 0.9 1.1 1.8 1.7 0.3 4.5 7.3 3.6 3.5 8.3 7.7 3.7 4.0 2.1 1.1 0.1 0.0 0.0 0.0 0.0 0.1 0.9 0.4 0.0 0.1 1.2 0.8 0.2 0.1 0.3 0.1 0.1 2.6 2.5
1.0 1.6 4.3 3.3 6.6 11.4 9.7 6.2 5.3 0.6 0.9 1.1 1.1 2.7 5.1 5.7 5.1 4.2 4.8 3.4 3.3 4.5 2.2 0.9 0.2 0.1 0.1 0.0 0.0 0.0 0.0 0.0 0.0 0.0 0.0 0.2 0.9 1.1 0.1 0.2 0.5 3.9 3.7 7.0
1.7 9.1 3.1 4.4 5.1 7.8 6.0 3.5 1.5 0.0 2.5 9.3 2.7 4.4 2.5 1.5 4.2 2.4 1.6 8.1 3.3 1.6 0.6 0.3 0.0 0.1 0.1 0.1 0.1 0.8 0.2 0.0 0.0 0.0 0.0 0.0 0.1 0.3 0.3 0.5 0.0 0.1 0.2 6.0

GFSNW_prec_sndepth_051.txt.gz
Snowfall_Accumulation
nan nan nan nan nan nan nan 0.0 0.0 0.0 0.0 0.0 0.0 0.0 0.0 nan 0.0 0.0 0.0 0.0 0.0 0.0 0.0 0.0 0.0 0.0 0.0 0.0 0.0 0.0 0.0 0.0 0.2 0.0 0.0 0.0 0.0 0.0 0.0 0.3 0.0 0.2 0.4 0.4
nan nan nan nan nan nan 0.0 0.0 0.0 0.0 0.0 0.1 0.1 0.0 0.0 0.0 0.0 0.0 0.0 0.0 0.0 0.0 0.0 0.0 0.0 0.0 0.0 0.0 0.0 0.0 0.0 0.0 0.1 0.1 0.0 0.0 0.0 0.0 0.0 0.0 0.1 0.0 3.6 0.4
nan nan nan nan nan nan 0.0 0.0 0.1 0.0 0.0 0.0 0.0 0.0 0.0 0.0 0.0 0.0 0.0 0.0 0.0 0.0 0.0 0.0 0.0 0.0 0.0 0.0 0.0 nan nan 0.0 0.0 0.1 0.0 0.0 0.0 0.0 0.0 0.0 0.6 0.1 0.1 0.0
nan nan nan nan nan nan 0.0 0.0 0.0 0.0 0.0 0.0 0.0 0.0 0.0 0.0 0.0 0.0 0.0 0.0 0.0 0.0 0.0 0.0 0.0 0.0 0.0 0.0 nan 0.0 0.0 0.0 0.0 0.0 0.0 0.0 0.0 0.0 0.0 0.0 0.0 0.2 0.0 0.0
nan nan nan nan nan nan 0.0 0.0 0.0 0.0 0.0 0.0 0.0 0.0 0.0 0.0 0.0 0.0 0.0 0.0 0.0 0.0 0.0 0.0 0.0 0.0 0.0 0.0 0.0 0.0 0.0 0.1 0.0 0.0 0.0 0.0 0.0 0.0 0.0 0.0 0.0 0.0 0.0 0.0
nan nan nan nan nan nan 0.0 0.0 0.0 0.0 nan 0.0 0.0 0.0 0.0 0.0 0.0 0.0 0.0 0.0 0.0 0.0 0.0 0.0 0.0 0.0 0.0 0.0 0.0 0.0 0.0 0.1 0.2 0.1 0.0 0.0 0.9 0.0 0.0 0.0 0.0 0.0 0.1 0.0
nan nan nan nan nan nan 0.0 0.0 0.0 0.0 0.1 0.0 0.0 0.0 0.0 0.0 0.0 0.0 0.0 0.0 0.0 0.0 0.0 0.0 0.0 0.0 0.0 0.0 0.0 0.0 0.0 0.0 0.2 1.3 0.7 2.7 0.0 0.0 0.0 0.0 0.0 0.0 0.0 0.0
nan nan nan nan nan nan 0.0 0.0 0.0 0.0 2.8 0.0 0.0 0.0 0.0 0.0 0.0 0.0 0.0 0.0 0.0 0.0 0.0 0.2 0.0 0.4 0.1 0.1 0.0 0.0 0.0 0.0 1.1 3.4 0.5 0.0 0.0 0.0 0.0 0.0 0.0 0.0 0.0 0.0
nan nan nan nan nan nan 0.0 0.0 0.0 0.0 0.2 0.1 0.0 0.0 0.0 0.0 0.0 0.1 0.0 0.0 0.0 0.0 0.2 0.4 0.2 1.0 0.0 0.1 0.0 0.0 0.0 0.0 0.5 1.2 1.1 4.2 0.0 0.0 0.0 0.0 0.2 0.0 0.0 0.0
nan nan nan nan nan nan 0.0 0.0 0.0 0.0 0.0 0.0 0.0 0.0 0.0 0.0 0.0 0.1 0.0 0.0 0.0 0.0 0.8 3.6 1.6 0.9 0.0 0.3 0.1 0.9 0.9 0.8 2.0 1.4 2.3 0.6 0.0 0.0 0.0 0.9 0.1 0.0 0.0 0.0
nan nan nan nan nan nan 0.0 0.0 0.0 0.0 0.0 0.0 0.0 0.0 0.0 0.0 0.0 0.2 0.0 0.2 0.2 0.3 0.7 1.1 0.7 2.9 0.4 0.2 0.0 0.0 0.1 1.3 3.8 1.3 2.4 3.2 0.0 0.0 0.1 0.1 0.0 0.0 0.0 0.0
nan nan nan nan nan nan nan 0.0 0.0 0.0 0.0 0.0 0.0 0.0 0.0 0.0 0.0 0.0 0.0 0.0 0.0 0.0 0.2 0.9 0.8 3.0 4.1 0.1 1.1 0.0 0.6 0.2 0.4 0.1 0.5 0.0 0.0 0.0 0.0 0.0 0.0 0.0 0.0 0.0
nan nan nan nan nan nan nan 0.0 0.0 0.0 0.1 0.0 0.0 0.0 0.0 0.0 0.0 0.0 0.0 0.1 0.0 0.0 0.0 0.1 0.4 0.9 0.3 2.8 0.4 0.1 0.0 0.0 0.2 0.0 0.0 0.0 0.0 0.0 0.0 0.0 0.0 0.0 0.0 0.0
nan nan nan nan nan nan nan 0.0 0.0 0.0 0.0 1.4 0.1 0.0 0.0 0.0 0.0 0.0 0.0 0.0 0.0 0.0 0.0 0.5 1.1 2.3 0.0 0.7 0.3 0.3 0.0 0.0 0.0 0.0 0.0 0.0 0.0 0.0 0.0 0.0 0.0 0.0 0.0 0.0
nan nan nan nan nan nan nan 0.0 0.0 0.0 0.0 0.7 0.2 0.0 0.0 0.0 0.0 0.0 0.0 0.0 0.0 0.0 0.3 2.7 1.1 0.2 0.4 0.3 0.3 0.4 0.0 0.0 0.4 0.3 0.0 0.0 0.0 0.0 0.0 0.0 0.0 0.0 0.0 0.0
nan nan nan nan nan nan 0.0 0.0 0.0 0.0 0.0 0.2 0.9 0.0 0.0 0.0 0.0 0.0 0.0 0.0 0.0 0.0 0.1 1.3 0.1 0.0 0.2 3.8 0.5 0.0 0.0 0.0 0.0 0.0 0.0 0.0 0.0 0.0 0.0 0.0 0.0 0.0 0.0 0.0
nan nan nan nan nan 0.0 0.0 0.0 0.0 nan 0.0 0.2 0.9 0.4 0.1 0.0 0.0 0.0 0.0 0.0 0.0 0.0 0.1 0.4 0.2 0.2 0.0 1.6 0.7 0.0 0.0 0.0 0.0 0.0 0.0 0.0 0.0 0.0 0.0 0.0 0.0 0.0 0.0 0.0
nan nan nan nan nan nan 0.0 0.0 nan nan 0.0 0.1 1.2 1.2 0.5 0.0 0.3 0.6 0.0 0.2 0.1 0.0 0.0 0.4 0.5 0.2 0.6 0.7 0.0 0.0 0.0 0.0 0.0 0.0 0.0 0.0 0.0 0.0 0.0 0.0 0.0 0.0 0.0 0.0
nan nan nan 0.0 0.0 0.1 0.0 nan nan 0.0 0.0 0.3 3.8 1.8 3.8 0.0 0.1 0.4 0.3 0.0 1.1 0.0 1.2 0.6 0.2 0.7 1.0 0.0 0.0 0.0 0.0 0.0 0.0 0.0 0.0 0.0 0.0 0.0 0.0 0.0 0.0 0.0 0.2 0.1
nan 0.0 0.0 0.4 0.2 nan nan 0.0 0.2 0.2 0.2 0.2 1.3 0.2 0.8 0.0 0.5 0.9 0.6 0.6 1.3 1.6 1.1 0.0 1.6 0.4 0.0 0.0 0.0 0.0 0.0 0.0 0.0 0.0 0.0 0.0 0.0 0.0 0.0 0.0 0.0 0.0 0.0 0.0
0.0 0.3 0.3 0.0 nan 0.0 0.1 0.4 0.4 0.2 0.9 0.2 0.3 0.3 0.3 0.1 1.2 1.6 0.7 2.3 1.9 3.6 0.7 1.9 1.6 1.0 0.0 0.0 0.0 0.0 0.0 0.0 0.0 0.0 0.0 0.0 0.0 0.0 0.0 0.1 0.0 0.0 0.0 0.0
0.0 0.1 0.0 0.0 0.0 0.4 1.6 4.4 2.4 0.7 0.6 0.6 1.2 0.6 0.1 0.6 0.0 0.5 1.5 2.1 2.2 3.0 0.3 4.9 2.9 0.3 0.0 0.0 0.0 0.0 0.0 0.0 0.0 0.0 0.0 0.0 0.0 0.0 0.0 0.0 0.0 0.1 0.1 1.9
0.0 0.2 0.2 0.3 3.9 31.5 7.4 6.0 3.8 7.0 1.6 2.6 2.1 6.2 0.7 0.6 0.2 2.0 1.6 6.4 5.4 0.5 6.6 1.3 1.0 0.0 0.0 0.0 0.0 0.0 0.0 0.0 0.0 0.0 0.0 0.0 0.0 0.0 0.0 0.1 0.1 0.6 0.1 0.1
0.4 2.0 34.2 6.6 9.1 3.7 3.1 1.9 2.4 2.6 2.4 1.7 1.0 2.1 1.5 2.5 2.6 3.3 7.6 2.9 1.3 7.2 5.6 3.0 0.6 0.1 0.0 0.0 0.0 0.0 0.0 0.3 0.1 0.0 0.0 0.1 0.1 0.1 0.6 1.9 2.6 1.8 0.1 0.1
0.7 1.2 24.3 6.3 3.0 2.7 3.2 2.8 2.1 1.1 0.9 1.0 1.7 1.6 0.3 4.2 7.3 3.6 3.5 8.2 7.7 3.7 4.0 2.1 1.0 0.1 0.0 0.0 0.0 0.0 0.1 0.9 0.4 0.1 0.2 1.4 0.7 0.2 0.1 0.3 0.1 0.1 2.5 2.5
1.0 1.6 4.3 3.2 6.4 11.4 9.7 6.1 5.2 0.5 0.9 1.0 1.0 2.7 5.1 5.7 5.1 4.2 4.8 3.4 3.3 4.5 2.2 0.9 0.2 0.1 0.1 0.0 0.0 0.0 0.1 0.1 0.1 0.1 0.0 0.2 0.9 1.1 0.1 0.2 0.5 3.9 3.7 7.0
1.7 9.3 3.2 4.6 5.2 7.9 6.1 3.5 1.5 0.0 2.4 8.9 2.7 4.4 2.6 1.5 4.2 2.4 1.7 8.1 3.3 1.7 0.6 0.3 0.0 0.1 0.1 0.1 0.2 1.0 0.2 0.1 0.0 0.0 0.0 0.0 0.1 0.3 0.3 0.5 0.0 0.1 0.2 6.0

GFSNW_prec_sndepth_057.txt.gz
Snowfall_Accumulation
nan nan nan nan nan nan nan 0.0 0.0 0.0 0.0 0.0 0.0 0.0 0.0 nan 0.0 0.0 0.0 0.0 0.0 0.0 0.0 0.0 0.0 0.0 0.0 0.0 0.0 0.0 0.0 0.0 0.2 0.0 0.0 0.0 0.0 0.0 0.0 0.3 0.0 0.2 0.4 0.4
nan nan nan nan nan nan 0.0 0.0 0.0 0.0 0.0 0.1 0.1 0.0 0.0 0.0 0.0 0.0 0.0 0.0 0.0 0.0 0.0 0.0 0.0 0.0 0.0 0.0 0.0 0.0 0.0 0.0 0.1 0.1 0.0 0.0 0.0 0.0 0.0 0.0 0.1 0.0 3.5 0.3
nan nan nan nan nan nan 0.0 0.0 0.4 0.0 0.0 0.0 0.0 0.0 0.0 0.0 0.0 0.0 0.0 0.0 0.0 0.0 0.0 0.0 0.0 0.0 0.0 0.0 0.0 nan nan 0.0 0.0 0.1 0.0 0.0 0.0 0.0 0.0 0.0 0.6 0.1 0.1 0.0
nan nan nan nan nan nan 0.0 0.0 0.3 0.0 0.0 0.0 0.0 0.0 0.0 0.0 0.0 0.0 0.0 0.0 0.0 0.0 0.0 0.0 0.0 0.0 0.0 0.0 nan 0.0 0.0 0.0 0.0 0.0 0.0 0.0 0.0 0.0 0.0 0.0 0.0 0.2 0.0 0.0
nan nan nan nan nan nan 0.0 0.2 0.0 0.0 0.0 0.0 0.0 0.0 0.0 0.0 0.0 0.0 0.0 0.0 0.0 0.0 0.0 0.0 0.0 0.0 0.0 0.0 0.0 0.0 0.0 0.1 0.0 0.0 0.0 0.0 0.0 0.0 0.0 0.0 0.0 0.0 0.0 0.0
nan nan nan nan nan nan 0.0 0.0 0.0 0.0 nan 0.0 0.0 0.0 0.0 0.0 0.0 0.0 0.0 0.0 0.0 0.0 0.0 0.0 0.0 0.0 0.0 0.0 0.0 0.0 0.0 0.1 0.2 0.1 0.0 0.0 0.9 0.0 0.0 0.0 0.0 0.0 0.1 0.0
nan nan nan nan nan nan 0.0 0.0 0.0 0.0 0.1 0.0 0.0 0.0 0.0 0.0 0.0 0.0 0.0 0.0 0.0 0.0 0.0 0.0 0.0 0.0 0.0 0.0 0.0 0.0 0.0 0.0 0.2 1.3 0.7 2.7 0.0 0.0 0.0 0.0 0.0 0.0 0.0 0.0
nan nan nan nan nan nan 0.0 0.0 0.0 0.0 2.9 0.0 0.0 0.0 0.0 0.0 0.0 0.0 0.0 0.0 0.0 0.0 0.0 0.2 0.0 0.4 0.1 0.1 0.0 0.0 0.0 0.0 1.0 3.4 0.5 0.0 0.0 0.0 0.0 0.0 0.0 0.0 0.0 0.0
nan nan nan nan nan nan 0.0 0.0 0.0 0.0 0.2 0.0 0.0 0.0 0.0 0.0 0.0 0.1 0.0 0.0 0.0 0.0 0.2 0.4 0.2 1.0 0.0 0.1 0.0 0.0 0.0 0.0 0.5 1.1 1.1 4.2 0.0 0.0 0.0 0.0 0.2 0.0 0.0 0.0
nan nan nan nan nan nan 0.0 0.0 0.0 0.0 0.0 0.0 0.0 0.0 0.0 0.0 0.0 0.0 0.0 0.0 0.0 0.0 0.8 3.6 1.6 0.9 0.0 0.3 0.1 0.9 0.9 0.8 2.0 1.4 2.2 0.6 0.0 0.0 0.0 0.9 0.0 0.0 0.0 0.0
nan nan nan nan nan nan 0.0 0.0 0.0 0.0 0.0 0.0 0.0 0.0 0.0 0.0 0.0 0.2 0.0 0.2 0.2 0.3 0.6 1.0 0.8 2.9 0.4 0.2 0.0 0.0 0.1 1.2 3.8 1.3 2.3 3.2 0.0 0.0 0.1 0.1 0.0 0.0 0.0 0.0
nan nan nan nan nan nan nan 0.0 0.0 0.0 0.0 0.0 0.0 0.0 0.0 0.0 0.0 0.0 0.0 0.0 0.0 0.0 0.1 0.8 0.8 2.9 4.0 0.1 1.1 0.0 0.5 0.2 0.4 0.1 0.5 0.0 0.0 0.0 0.0 0.0 0.0 0.0 0.0 0.0
nan nan nan nan nan nan nan 0.0 0.0 0.0 0.1 0.0 0.0 0.0 0.0 0.0 0.0 0.0 0.0 0.1 0.0 0.0 0.0 0.1 0.4 0.8 0.3 2.8 0.4 0.1 0.0 0.0 0.2 0.0 0.0 0.0 0.0 0.0 0.0 0.0 0.0 0.0 0.0 0.0
nan nan nan nan nan nan nan 0.0 0.0 0.0 0.0 1.3 0.1 0.0 0.0 0.0 0.0 0.0 0.0 0.0 0.0 0.0 0.0 0.4 0.9 2.3 0.0 0.7 0.3 0.3 0.0 0.0 0.0 0.0 0.0 0.0 0.0 0.0 0.0 0.0 0.0 0.0 0.0 0.0
nan nan nan nan nan nan nan 0.0 0.0 0.0 0.0 0.7 0.2 0.0 0.0 0.0 0.0 0.0 0.0 0.0 0.0 0.0 0.3 2.5 1.0 0.1 0.4 0.3 0.3 0.4 0.0 0.0 0.3 0.3 0.0 0.0 0.0 0.0 0.0 0.0 0.0 0.0 0.0 0.0
nan nan nan nan nan nan 0.0 0.0 0.0 0.0 0.0 0.2 0.9 0.0 0.0 0.0 0.0 0.0 0.0 0.0 0.0 0.0 0.1 1.1 0.1 0.0 0.1 3.6 0.5 0.0 0.0 0.0 0.0 0.0 0.0 0.0 0.0 0.0 0.0 0.0 0.0 0.0 0.0 0.0
nan nan nan nan nan 0.0 0.0 0.0 0.0 nan 0.0 0.2 0.9 0.4 0.1 0.0 0.0 0.0 0.0 0.0 0.0 0.0 0.1 0.4 0.2 0.2 0.0 1.6 0.7 0.0 0.0 0.0 0.0 0.0 0.0 0.0 0.0 0.0 0.0 0.0 0.0 0.0 0.0 0.0
nan nan nan nan nan nan 0.0 0.0 nan nan 0.0 0.1 1.1 1.1 0.5 0.0 0.3 0.5 0.0 0.2 0.1 0.0 0.0 0.4 0.5 0.2 0.6 0.7 0.0 0.0 0.0 0.0 0.0 0.0 0.0 0.0 0.0 0.0 0.0 0.0 0.0 0.0 0.0 0.0
nan nan nan 0.0 0.0 0.3 0.0 nan nan 0.0 0.0 0.3 3.6 1.7 3.6 0.0 0.1 0.4 0.3 0.0 1.0 0.0 1.1 0.5 0.2 0.7 0.9 0.0 0.0 0.0 0.0 0.0 0.0 0.0 0.0 0.0 0.0 0.0 0.0 0.0 0.0 0.0 0.2 0.1
nan 0.0 0.0 0.4 0.2 nan nan 0.0 0.2 0.2 0.2 0.2 1.1 0.2 0.8 0.0 0.5 0.8 0.6 0.6 1.2 1.4 1.0 0.0 1.5 0.4 0.0 0.0 0.0 0.0 0.0 0.0 0.0 0.0 0.0 0.0 0.0 0.0 0.0 0.0 0.0 0.0 0.0 0.0
0.0 0.2 0.3 0.0 nan 0.0 0.1 0.4 0.4 0.2 0.8 0.2 0.3 0.2 0.3 0.1 1.1 1.4 0.6 2.1 1.8 3.6 0.7 1.7 1.5 0.9 0.0 0.0 0.0 0.0 0.0 0.0 0.0 0.0 0.0 0.0 0.0 0.0 0.0 0.1 0.0 0.0 0.0 0.0
0.0 0.1 0.0 0.0 0.0 0.5 3.2 4.6 2.6 0.7 0.6 0.5 1.1 0.5 0.1 0.5 0.0 0.4 1.4 2.0 2.9 4.3 0.3 4.5 3.1 0.3 0.0 0.0 0.0 0.0 0.0 0.0 0.0 0.0 0.0 0.0 0.0 0.0 0.0 0.0 0.0 0.1 0.1 2.2
0.0 0.2 0.2 0.3 4.4 31.9 8.3 6.3 4.2 7.3 1.5 2.4 2.0 5.7 0.6 0.6 0.2 1.9 2.1 7.7 6.4 0.5 6.8 1.6 1.2 0.0 0.0 0.0 0.0 0.0 0.0 0.0 0.0 0.0 0.0 0.1 0.2 0.4 0.5 1.2 1.6 2.0 1.2 1.0
0.4 1.9 35.1 9.4 10.1 4.1 3.8 2.2 2.4 2.6 2.2 1.6 1.0 2.0 1.4 2.3 2.5 3.8 9.7 2.8 1.5 7.5 5.8 3.1 0.7 0.2 0.0 0.0 0.0 0.0 0.0 0.3 0.1 0.1 0.5 0.8 1.1 1.7 2.2 3.4 3.7 2.5 0.3 0.1
3.7 2.7 25.4 7.1 3.8 3.4 3.7 2.8 2.1 1.2 0.8 0.9 1.6 1.5 0.3 4.6 7.5 3.9 3.5 8.3 7.8 3.8 4.1 2.1 1.0 0.1 0.0 0.0 0.0 0.0 0.1 1.1 1.1 1.1 1.4 2.7 1.9 1.1 0.7 0.5 0.1 0.1 2.5 2.5
2.0 2.3 5.4 4.1 7.1 12.3 10.4 6.7 5.6 0.7 0.8 1.0 1.0 3.4 6.6 6.9 5.3 4.3 4.9 3.4 3.4 4.7 2.3 0.9 0.3 0.1 0.2 0.1 0.3 0.6 0.8 1.1 1.2 0.9 0.5 0.7 1.2 1.1 0.0 0.1 0.5 3.9 3.7 6.9
1.8 10.2 3.9 5.6 5.7 8.4 6.5 3.8 1.7 0.1 2.2 8.9 2.7 4.6 3.4 2.0 5.1 3.1 2.3 8.6 3.9 2.1 0.9 0.5 0.3 0.3 0.5 0.7 1.0 2.0 1.4 1.2 0.7 0.5 0.3 0.3 0.1 0.3 0.3 0.5 0.0 0.1 0.2 6.0

GFSNW_prec_sndepth_060.txt.gz
Snowfall_Accumulation
nan nan nan nan nan nan nan 0.0 0.3 0.0 0.0 0.0 0.0 0.0 0.0 nan 0.0 0.0 0.0 0.0 0.0 0.0 0.0 0.0 0.0 0.0 0.0 0.0 0.0 0.0 0.0 0.0 0.2 0.0 0.0 0.0 0.0 0.0 0.0 0.3 0.0 0.2 0.3 0.4
nan nan nan nan nan nan 0.0 0.0 0.0 0.0 0.0 0.1 0.1 0.0 0.0 0.0 0.0 0.0 0.0 0.0 0.0 0.0 0.0 0.0 0.0 0.0 0.0 0.0 0.0 0.0 0.0 0.0 0.1 0.0 0.0 0.0 0.0 0.0 0.0 0.0 0.0 0.0 2.8 0.3
nan nan nan nan nan nan 0.0 0.0 1.0 0.0 0.0 0.0 0.0 0.0 0.0 0.0 0.0 0.0 0.0 0.0 0.0 0.0 0.0 0.0 0.0 0.0 0.0 0.0 0.0 nan nan 0.0 0.0 0.1 0.0 0.0 0.0 0.0 0.0 0.0 0.5 0.1 0.1 0.0
nan nan nan nan nan nan 0.0 0.0 0.5 0.0 0.1 0.0 0.0 0.0 0.0 0.0 0.0 0.0 0.0 0.0 0.0 0.0 0.0 0.0 0.0 0.0 0.0 0.0 nan 0.0 0.0 0.0 0.0 0.0 0.0 0.0 0.0 0.0 0.0 0.0 0.0 0.2 0.0 0.0
nan nan nan nan nan nan 0.0 0.2 0.0 0.0 0.0 0.0 0.0 0.0 0.0 0.0 0.0 0.0 0.0 0.0 0.0 0.0 0.0 0.0 0.0 0.0 0.0 0.0 0.0 0.0 0.0 0.1 0.0 0.0 0.0 0.0 0.0 0.0 0.0 0.0 0.0 0.0 0.0 0.0
nan nan nan nan nan nan 0.0 0.0 0.0 0.0 nan 0.0 0.0 0.0 0.0 0.0 0.0 0.0 0.0 0.0 0.0 0.0 0.0 0.0 0.0 0.0 0.0 0.0 0.0 0.0 0.0 0.1 0.2 0.0 0.0 0.0 0.6 0.0 0.0 0.0 0.0 0.0 0.0 0.0
nan nan nan nan nan nan 0.0 0.0 0.0 0.0 0.1 0.0 0.0 0.0 0.0 0.0 0.0 0.0 0.0 0.0 0.0 0.0 0.0 0.0 0.0 0.0 0.0 0.0 0.0 0.0 0.0 0.0 0.1 1.0 0.6 2.1 0.0 0.0 0.0 0.0 0.0 0.0 0.0 0.0
nan nan nan nan nan nan 0.0 0.0 0.0 0.0 2.4 0.0 0.0 0.0 0.0 0.0 0.0 0.0 0.0 0.0 0.0 0.0 0.0 0.1 0.0 0.3 0.1 0.0 0.0 0.0 0.0 0.0 0.8 2.7 0.4 0.0 0.0 0.0 0.0 0.0 0.0 0.0 0.0 0.0
nan nan nan nan nan nan 0.0 0.0 0.0 0.0 0.2 0.0 0.0 0.0 0.0 0.0 0.0 0.0 0.0 0.0 0.0 0.0 0.1 0.3 0.1 0.8 0.0 0.1 0.0 0.0 0.0 0.0 0.4 0.9 0.7 3.5 0.0 0.0 0.0 0.0 0.2 0.0 0.0 0.0
nan nan nan nan nan nan 0.0 0.0 0.0 0.0 0.0 0.0 0.0 0.0 0.0 0.0 0.0 0.0 0.0 0.0 0.0 0.0 0.7 3.0 1.3 0.7 0.0 0.3 0.1 0.6 0.7 0.6 1.5 1.1 1.6 0.5 0.0 0.0 0.0 0.7 0.0 0.0 0.0 0.0
nan nan nan nan nan nan 0.0 0.0 0.0 0.0 0.0 0.0 0.0 0.0 0.0 0.0 0.0 0.2 0.0 0.1 0.1 0.3 0.5 0.8 0.6 2.4 0.3 0.2 0.0 0.0 0.1 1.0 3.2 1.0 1.7 2.6 0.0 0.0 0.1 0.1 0.0 0.0 0.0 0.0
nan nan nan nan nan nan nan 0.0 0.0 0.0 0.0 0.0 0.0 0.0 0.0 0.0 0.0 0.0 0.0 0.0 0.0 0.0 0.1 0.6 0.7 2.4 3.5 0.1 0.9 0.0 0.5 0.1 0.3 0.1 0.4 0.0 0.0 0.0 0.0 0.0 0.0 0.0 0.0 0.0
nan nan nan nan nan nan nan 0.0 0.0 0.0 0.0 0.0 0.0 0.0 0.0 0.0 0.0 0.0 0.0 0.0 0.0 0.0 0.0 0.0 0.3 0.5 0.2 2.2 0.3 0.1 0.0 0.0 0.2 0.0 0.0 0.0 0.0 0.0 0.0 0.0 0.0 0.0 0.0 0.0
nan nan nan nan nan nan nan 0.0 0.0 0.0 0.0 1.2 0.1 0.0 0.0 0.0 0.0 0.0 0.0 0.0 0.0 0.0 0.0 0.3 0.8 1.8 0.0 0.6 0.2 0.2 0.0 0.0 0.0 0.0 0.0 0.0 0.0 0.0 0.0 0.0 0.0 0.0 0.0 0.0
nan nan nan nan nan nan nan 0.0 0.0 0.0 0.0 0.6 0.2 0.0 0.0 0.0 0.0 0.0 0.0 0.0 0.0 0.0 0.3 2.2 0.8 0.1 0.3 0.3 0.2 0.3 0.0 0.0 0.3 0.2 0.0 0.0 0.0 0.0 0.0 0.0 0.0 0.0 0.0 0.0
nan nan nan nan nan nan 0.0 0.0 0.0 0.0 0.0 0.1 0.8 0.0 0.0 0.0 0.0 0.0 0.0 0.0 0.0 0.0 0.0 0.9 0.1 0.0 0.1 3.0 0.4 0.0 0.0 0.0 0.0 0.0 0.0 0.0 0.0 0.0 0.0 0.0 0.0 0.0 0.0 0.0
nan nan nan nan nan 0.0 0.0 0.0 0.0 nan 0.0 0.1 0.8 0.4 0.0 0.0 0.0 0.0 0.0 0.0 0.0 0.0 0.1 0.3 0.2 0.2 0.0 1.2 0.5 0.0 0.0 0.0 0.0 0.0 0.0 0.0 0.0 0.0 0.0 0.0 0.0 0.0 0.0 0.0
nan nan nan nan nan nan 0.0 0.0 nan nan 0.0 0.1 1.2 1.1 0.4 0.0 0.2 0.5 0.0 0.1 0.1 0.0 0.0 0.3 0.4 0.1 0.5 0.5 0.0 0.0 0.0 0.0 0.0 0.0 0.0 0.0 0.0 0.0 0.0 0.0 0.0 0.0 0.0 0.0
nan nan nan 0.0 0.0 0.3 0.0 nan nan 0.0 0.0 0.3 3.5 1.9 3.6 0.0 0.1 0.4 0.3 0.0 0.9 0.0 1.0 0.5 0.2 0.5 0.7 0.0 0.0 0.0 0.0 0.0 0.0 0.0 0.0 0.0 0.0 0.0 0.0 0.0 0.0 0.0 0.1 0.1
nan 0.0 0.0 0.4 0.2 nan nan 0.0 0.2 0.2 0.2 0.2 1.1 0.2 1.2 0.0 0.5 0.7 0.5 0.5 1.1 1.6 0.9 0.0 1.3 0.3 0.0 0.0 0.0 0.0 0.0 0.0 0.0 0.0 0.0 0.0 0.0 0.0 0.0 0.0 0.0 0.0 0.0 0.0
0.0 0.2 0.2 0.0 nan 0.0 0.1 0.8 1.0 0.2 0.8 0.1 0.3 0.2 0.3 0.1 1.0 1.3 0.6 2.0 1.7 3.3 0.6 1.5 1.3 0.8 0.0 0.0 0.0 0.0 0.0 0.0 0.0 0.0 0.0 0.0 0.0 0.0 0.0 0.0 0.0 0.0 0.0 0.0
0.0 0.0 0.0 0.0 0.0 0.4 3.3 4.3 2.4 0.7 0.5 0.5 0.9 0.5 0.1 0.5 0.0 0.4 1.2 1.8 2.6 3.8 0.2 4.3 2.9 0.3 0.0 0.0 0.0 0.0 0.0 0.0 0.0 0.0 0.0 0.0 0.0 0.0 0.0 0.0 0.0 0.0 0.1 2.2
0.0 0.1 0.2 0.3 4.2 31.9 8.9 6.0 3.9 6.8 1.4 2.2 1.8 5.5 0.5 0.5 0.1 1.7 1.9 7.1 6.3 0.4 6.5 1.5 1.2 0.0 0.0 0.0 0.0 0.0 0.0 0.0 0.0 0.0 0.0 0.2 0.5 0.5 0.6 1.4 2.0 3.1 2.9 2.8
0.4 1.9 32.3 9.6 11.0 5.6 4.5 2.0 2.1 2.4 2.1 1.5 0.9 1.9 1.3 2.1 2.2 3.5 8.7 2.5 1.5 7.5 5.6 3.2 0.7 0.2 0.0 0.0 0.0 0.0 0.0 0.3 0.2 1.3 1.5 1.5 1.8 3.0 3.9 5.1 5.5 4.2 1.9 1.5
4.0 3.9 24.6 8.2 4.2 4.0 4.1 2.7 2.1 1.2 0.8 0.9 1.5 1.4 0.3 4.3 7.1 3.8 3.4 7.8 7.8 3.8 4.2 2.2 1.0 0.1 0.0 0.0 0.0 0.1 0.3 1.5 1.5 1.7 2.1 3.5 2.7 1.9 1.9 1.9 1.4 0.9 2.9 2.8
3.0 2.9 6.2 4.5 7.9 13.1 10.8 6.9 5.9 0.8 1.0 0.9 0.9 3.5 6.5 6.9 5.1 4.1 4.9 3.2 3.5 4.9 2.6 1.1 0.4 0.3 0.4 0.5 0.6 1.1 1.5 1.9 2.0 1.7 1.2 1.4 1.8 1.5 0.5 0.3 0.5 4.0 3.8 7.0
2.2 11.2 5.0 7.0 7.0 9.6 7.5 4.9 2.7 0.7 2.8 9.6 3.3 5.1 4.0 2.1 5.3 3.0 2.2 8.8 4.1 2.6 1.2 0.9 0.6 0.7 1.1 1.5 1.9 2.9 2.3 1.9 1.2 0.8 0.7 0.4 0.2 0.3 0.2 0.5 0.1 0.2 0.2 5.9

GFSNW_prec_sndepth_063.txt.gz
Snowfall_Accumulation
nan nan nan nan nan nan nan 0.0 0.4 0.0 0.0 0.0 0.0 0.0 0.0 nan 0.0 0.0 0.0 0.0 0.0 0.0 0.0 0.0 0.0 0.0 0.0 0.0 0.0 0.0 0.0 0.0 0.1 0.0 0.0 0.0 0.0 0.0 0.0 0.2 0.0 0.1 0.3 0.3
nan nan nan nan nan nan 0.0 0.0 0.0 0.0 0.0 0.3 0.1 0.0 0.0 0.0 0.0 0.0 0.0 0.0 0.0 0.0 0.0 0.0 0.0 0.0 0.0 0.0 0.0 0.0 0.0 0.0 0.1 0.0 0.0 0.0 0.0 0.0 0.0 0.0 0.0 0.0 2.0 0.2
nan nan nan nan nan nan 0.0 0.0 1.6 0.0 0.0 0.0 0.0 0.0 0.0 0.0 0.0 0.0 0.0 0.0 0.0 0.0 0.0 0.0 0.0 0.0 0.0 0.0 0.0 nan nan 0.0 0.0 0.0 0.0 0.0 0.0 0.0 0.0 0.0 0.3 0.1 0.0 0.0
nan nan nan nan nan nan 0.0 0.0 0.7 0.1 0.1 0.0 0.0 0.0 0.0 0.0 0.0 0.0 0.0 0.0 0.0 0.0 0.0 0.0 0.0 0.0 0.0 0.0 nan 0.0 0.0 0.0 0.0 0.0 0.0 0.0 0.0 0.0 0.0 0.0 0.0 0.1 0.0 0.0
nan nan nan nan nan nan 0.0 0.4 0.0 0.0 0.0 0.0 0.0 0.0 0.0 0.0 0.0 0.0 0.0 0.0 0.0 0.0 0.0 0.0 0.0 0.0 0.0 0.0 0.0 0.0 0.0 0.0 0.0 0.0 0.0 0.0 0.0 0.0 0.0 0.0 0.0 0.0 0.0 0.0
nan nan nan nan nan nan 0.0 0.0 0.0 0.0 nan 0.0 0.0 0.0 0.0 0.0 0.0 0.0 0.0 0.0 0.0 0.0 0.0 0.0 0.0 0.0 0.0 0.0 0.0 0.0 0.0 0.1 0.1 0.0 0.0 0.0 0.4 0.0 0.0 0.0 0.0 0.0 0.0 0.0
nan nan nan nan nan nan 0.0 0.0 0.0 0.0 0.1 0.0 0.0 0.0 0.0 0.0 0.0 0.0 0.0 0.0 0.0 0.0 0.0 0.0 0.0 0.0 0.0 0.0 0.0 0.0 0.0 0.0 0.1 0.7 0.4 1.4 0.0 0.0 0.0 0.0 0.0 0.0 0.0 0.0
nan nan nan nan nan nan 0.0 0.0 0.0 0.0 1.7 0.0 0.0 0.0 0.0 0.0 0.0 0.0 0.0 0.0 0.0 0.0 0.0 0.1 0.0 0.3 0.0 0.0 0.0 0.0 0.0 0.0 0.6 1.8 0.3 0.0 0.0 0.0 0.0 0.0 0.0 0.0 0.0 0.0
nan nan nan nan nan nan 0.0 0.0 0.0 0.0 0.1 0.0 0.0 0.0 0.0 0.0 0.0 0.0 0.0 0.0 0.0 0.0 0.1 0.3 0.1 0.7 0.0 0.1 0.0 0.0 0.0 0.0 0.3 0.7 0.3 2.6 0.0 0.0 0.0 0.0 0.1 0.0 0.0 0.0
nan nan nan nan nan nan 0.0 0.0 0.0 0.0 0.0 0.0 0.0 0.0 0.0 0.0 0.0 0.0 0.0 0.0 0.0 0.0 0.5 2.3 1.0 0.6 0.0 0.2 0.0 0.3 0.5 0.4 1.0 0.8 1.1 0.4 0.0 0.0 0.0 0.5 0.0 0.0 0.0 0.0
nan nan nan nan nan nan 0.0 0.0 0.0 0.0 0.0 0.0 0.0 0.0 0.0 0.0 0.0 0.1 0.0 0.1 0.1 0.2 0.4 0.6 0.5 1.8 0.3 0.1 0.0 0.0 0.1 0.7 2.4 0.7 1.0 1.8 0.0 0.0 0.0 0.1 0.0 0.0 0.0 0.0
nan nan nan nan nan nan nan 0.0 0.0 0.0 0.0 0.0 0.0 0.0 0.0 0.0 0.0 0.0 0.0 0.0 0.0 0.0 0.1 0.4 0.5 1.7 2.9 0.0 0.7 0.0 0.4 0.1 0.3 0.1 0.3 0.0 0.0 0.0 0.0 0.0 0.0 0.0 0.0 0.0
nan nan nan nan nan nan nan 0.0 0.0 0.0 0.0 0.0 0.0 0.0 0.0 0.0 0.0 0.0 0.0 0.0 0.0 0.0 0.0 0.0 0.2 0.2 0.2 1.5 0.3 0.1 0.0 0.0 0.1 0.0 0.0 0.0 0.0 0.0 0.0 0.0 0.0 0.0 0.0 0.0
nan nan nan nan nan nan nan 0.0 0.0 0.0 0.0 0.9 0.1 0.0 0.0 0.0 0.0 0.0 0.0 0.0 0.0 0.0 0.0 0.3 0.5 1.2 0.0 0.4 0.2 0.2 0.0 0.0 0.0 0.0 0.0 0.0 0.0 0.0 0.0 0.0 0.0 0.0 0.0 0.0
nan nan nan nan nan nan nan 0.0 0.0 0.0 0.0 0.4 0.1 0.0 0.0 0.0 0.0 0.0 0.0 0.0 0.0 0.0 0.2 1.9 0.6 0.1 0.2 0.2 0.2 0.2 0.0 0.0 0.2 0.2 0.0 0.0 0.0 0.0 0.0 0.0 0.0 0.0 0.0 0.0
nan nan nan nan nan nan 0.0 0.0 0.0 0.0 0.0 0.1 0.6 0.0 0.0 0.0 0.0 0.0 0.0 0.0 0.0 0.0 0.0 0.6 0.1 0.0 0.1 2.2 0.3 0.0 0.0 0.0 0.0 0.0 0.0 0.0 0.0 0.0 0.0 0.0 0.0 0.0 0.0 0.0
nan nan nan nan nan 0.0 0.0 0.0 0.0 nan 0.0 0.1 0.6 0.3 0.0 0.0 0.0 0.0 0.0 0.0 0.0 0.0 0.1 0.3 0.1 0.1 0.0 0.8 0.4 0.0 0.0 0.0 0.0 0.0 0.0 0.0 0.0 0.0 0.0 0.0 0.0 0.0 0.0 0.0
nan nan nan nan nan nan 0.0 0.0 nan nan 0.0 0.0 1.0 0.9 0.4 0.0 0.2 0.4 0.0 0.1 0.1 0.0 0.0 0.2 0.3 0.1 0.4 0.4 0.0 0.0 0.0 0.0 0.0 0.0 0.0 0.0 0.0 0.0 0.0 0.0 0.0 0.0 0.0 0.0
nan nan nan 0.0 0.0 0.2 0.0 nan nan 0.0 0.0 0.2 3.1 1.6 3.1 0.0 0.1 0.3 0.2 0.0 0.7 0.0 0.8 0.4 0.1 0.4 0.5 0.0 0.0 0.0 0.0 0.0 0.0 0.0 0.0 0.0 0.0 0.0 0.0 0.0 0.0 0.0 0.0 0.0
nan 0.0 0.0 0.3 0.1 nan nan 0.0 0.2 0.2 0.2 0.1 1.0 0.1 1.3 0.0 0.4 0.7 0.5 0.4 0.9 1.4 0.8 0.0 1.0 0.2 0.0 0.0 0.0 0.0 0.0 0.0 0.0 0.0 0.0 0.0 0.0 0.0 0.0 0.0 0.0 0.0 0.0 0.0
0.0 0.2 0.2 0.0 nan 0.0 0.1 0.7 0.8 0.2 0.7 0.1 0.2 0.2 0.6 0.1 1.1 1.1 0.5 1.7 1.4 2.9 0.5 1.4 1.2 0.7 0.0 0.0 0.0 0.0 0.0 0.0 0.0 0.0 0.0 0.0 0.0 0.0 0.0 0.0 0.0 0.0 0.0 0.0
0.0 0.0 0.0 0.0 0.0 0.5 2.8 3.8 2.0 0.5 0.4 0.4 0.7 0.4 0.1 0.5 0.4 0.3 1.1 1.4 2.4 3.2 0.2 4.0 2.8 0.4 0.0 0.0 0.0 0.0 0.0 0.0 0.0 0.0 0.0 0.0 0.0 0.0 0.0 0.0 0.0 0.0 0.1 2.0
0.0 0.1 0.1 0.3 3.7 28.4 7.8 5.4 3.2 6.1 1.1 2.0 1.6 5.1 0.5 0.5 0.1 1.4 1.5 6.3 5.7 0.4 6.1 1.7 1.3 0.0 0.0 0.0 0.0 0.0 0.0 0.0 0.0 0.0 0.0 0.1 0.5 0.3 0.5 1.2 1.9 3.2 3.7 3.8
0.4 1.7 28.8 8.8 10.0 5.0 4.2 2.2 1.8 2.1 1.9 1.3 0.7 1.6 1.1 1.8 1.9 3.1 7.8 2.3 1.4 7.1 5.3 3.0 0.8 0.2 0.1 0.0 0.0 0.2 0.5 0.7 0.6 1.7 1.9 2.1 2.3 3.8 5.1 6.5 7.1 5.9 3.7 3.6
3.3 3.1 22.0 7.8 4.2 4.0 4.0 3.2 2.0 1.1 0.7 0.8 1.4 1.3 0.2 4.0 6.5 3.4 3.0 7.1 7.0 3.5 3.9 2.1 1.1 0.3 0.1 0.2 0.1 0.2 0.5 1.9 1.9 1.9 2.3 3.8 3.1 2.2 2.4 2.6 2.3 1.6 3.8 3.9
2.4 2.6 6.1 4.2 7.8 13.0 11.1 7.1 5.9 0.8 1.0 0.8 0.9 3.4 5.7 6.2 4.6 3.3 4.3 2.7 3.2 4.6 2.5 1.2 0.5 0.4 0.6 0.6 0.8 1.2 1.6 2.0 1.9 1.5 1.0 1.2 1.9 1.7 0.8 0.8 1.0 4.6 4.0 7.4
2.2 12.1 5.8 7.7 7.6 10.2 7.9 5.0 2.9 0.7 2.8 9.3 3.1 4.6 3.4 1.8 4.5 2.3 2.0 8.5 4.4 2.6 1.3 1.0 0.6 0.8 1.1 1.5 1.8 3.1 2.3 1.7 1.0 0.8 0.8 0.7 0.5 0.4 0.3 0.6 0.4 0.3 0.3 6.1

GFSNW_prec_sndepth_066.txt.gz
Snowfall_Accumulation
nan nan nan nan nan nan nan 0.0 0.5 0.0 0.0 0.1 0.0 0.0 0.0 nan 0.0 0.0 0.0 0.0 0.0 0.0 0.0 0.0 0.0 0.0 0.0 0.0 0.0 0.0 0.0 0.0 0.1 0.0 0.0 0.0 0.0 0.0 0.0 0.1 0.0 0.1 0.2 0.2
nan nan nan nan nan nan 0.0 0.0 0.0 0.0 0.0 0.5 0.0 0.0 0.0 0.0 0.0 0.0 0.0 0.0 0.0 0.0 0.0 0.0 0.0 0.0 0.0 0.0 0.0 0.0 0.0 0.0 0.0 0.0 0.0 0.0 0.0 0.0 0.0 0.0 0.0 0.0 1.6 0.2
nan nan nan nan nan nan 0.0 0.0 2.2 0.0 0.0 0.0 0.0 0.0 0.0 0.0 0.0 0.0 0.0 0.0 0.0 0.0 0.0 0.0 0.0 0.0 0.0 0.0 0.0 nan nan 0.0 0.0 0.0 0.0 0.0 0.0 0.0 0.0 0.0 0.3 0.0 0.0 0.0
nan nan nan nan nan nan 0.0 0.0 0.8 0.1 0.3 0.0 0.0 0.0 0.0 0.0 0.0 0.0 0.0 0.0 0.0 0.0 0.0 0.0 0.0 0.0 0.0 0.0 nan 0.0 0.0 0.0 0.0 0.0 0.0 0.0 0.0 0.0 0.0 0.0 0.0 0.1 0.0 0.0
nan nan nan nan nan nan 0.0 0.9 0.0 0.0 0.0 0.0 0.0 0.0 0.0 0.0 0.0 0.0 0.0 0.0 0.0 0.0 0.0 0.0 0.0 0.0 0.0 0.0 0.0 0.0 0.0 0.0 0.0 0.0 0.0 0.0 0.0 0.0 0.0 0.0 0.0 0.0 0.0 0.0
nan nan nan nan nan nan 0.0 0.0 0.0 0.0 nan 0.0 0.0 0.0 0.0 0.0 0.0 0.0 0.0 0.0 0.0 0.0 0.0 0.0 0.0 0.0 0.0 0.0 0.0 0.0 0.0 0.0 0.1 0.0 0.0 0.0 0.3 0.0 0.0 0.0 0.0 0.0 0.0 0.0
nan nan nan nan nan nan 0.0 0.0 0.0 0.0 0.1 0.0 0.0 0.0 0.0 0.0 0.0 0.0 0.0 0.0 0.0 0.0 0.0 0.0 0.0 0.0 0.0 0.0 0.0 0.0 0.0 0.0 0.1 0.6 0.3 1.0 0.0 0.0 0.0 0.0 0.0 0.0 0.0 0.0
nan nan nan nan nan nan 0.0 0.0 0.0 0.0 1.3 0.0 0.0 0.0 0.0 0.0 0.0 0.0 0.0 0.0 0.0 0.0 0.0 0.1 0.0 0.2 0.0 0.0 0.0 0.0 0.0 0.0 0.5 1.4 0.3 0.0 0.0 0.0 0.0 0.0 0.0 0.0 0.0 0.0
nan nan nan nan nan nan 0.0 0.0 0.0 0.0 0.1 0.0 0.0 0.0 0.0 0.0 0.0 0.0 0.0 0.0 0.0 0.0 0.1 0.2 0.0 0.6 0.0 0.0 0.0 0.0 0.0 0.0 0.2 0.5 0.2 2.2 0.0 0.0 0.0 0.0 0.1 0.0 0.0 0.0
nan nan nan nan nan nan 0.0 0.0 0.0 0.0 0.0 0.0 0.0 0.0 0.0 0.0 0.0 0.0 0.0 0.0 0.0 0.0 0.4 1.9 0.8 0.5 0.0 0.2 0.0 0.2 0.4 0.4 0.8 0.6 0.8 0.3 0.0 0.0 0.0 0.4 0.0 0.0 0.0 0.0
nan nan nan nan nan nan 0.0 0.0 0.0 0.0 0.0 0.0 0.0 0.0 0.0 0.0 0.0 0.1 0.0 0.1 0.1 0.2 0.3 0.5 0.4 1.4 0.2 0.1 0.0 0.0 0.1 0.6 1.9 0.6 0.8 1.4 0.0 0.0 0.0 0.0 0.0 0.0 0.0 0.0
nan nan nan nan nan nan nan 0.0 0.0 0.0 0.0 0.0 0.0 0.0 0.0 0.0 0.0 0.0 0.0 0.0 0.0 0.0 0.0 0.3 0.4 1.3 2.4 0.0 0.6 0.0 0.3 0.1 0.2 0.0 0.2 0.0 0.0 0.0 0.0 0.0 0.0 0.0 0.0 0.0
nan nan nan nan nan nan nan 0.0 0.0 0.0 0.0 0.0 0.0 0.0 0.0 0.0 0.0 0.0 0.0 0.0 0.0 0.0 0.0 0.0 0.2 0.2 0.1 1.2 0.2 0.1 0.0 0.0 0.1 0.0 0.0 0.0 0.0 0.0 0.0 0.0 0.0 0.0 0.0 0.0
nan nan nan nan nan nan nan 0.0 0.0 0.0 0.0 0.8 0.1 0.0 0.0 0.0 0.0 0.0 0.0 0.0 0.0 0.0 0.0 0.2 0.4 0.9 0.0 0.4 0.1 0.1 0.0 0.0 0.0 0.0 0.0 0.0 0.0 0.0 0.0 0.0 0.0 0.0 0.0 0.0
nan nan nan nan nan nan nan 0.0 0.0 0.0 0.0 0.4 0.1 0.0 0.0 0.0 0.0 0.0 0.0 0.0 0.0 0.0 0.1 1.4 0.5 0.0 0.2 0.2 0.1 0.2 0.0 0.0 0.2 0.1 0.0 0.0 0.0 0.0 0.0 0.0 0.0 0.0 0.0 0.0
nan nan nan nan nan nan 0.0 0.0 0.0 0.0 0.0 0.1 0.5 0.0 0.0 0.0 0.0 0.0 0.0 0.0 0.0 0.0 0.0 0.5 0.1 0.0 0.0 1.8 0.2 0.0 0.0 0.0 0.0 0.0 0.0 0.0 0.0 0.0 0.0 0.0 0.0 0.0 0.0 0.0
nan nan nan nan nan 0.0 0.0 0.0 0.0 nan 0.0 0.1 0.4 0.3 0.0 0.0 0.0 0.0 0.0 0.0 0.0 0.0 0.0 0.2 0.1 0.1 0.0 0.7 0.3 0.0 0.0 0.0 0.0 0.0 0.0 0.0 0.0 0.0 0.0 0.0 0.0 0.0 0.0 0.0
nan nan nan nan nan nan 0.0 0.0 nan nan 0.0 0.0 0.8 0.8 0.3 0.0 0.2 0.4 0.0 0.1 0.1 0.0 0.0 0.2 0.2 0.1 0.3 0.3 0.0 0.0 0.0 0.0 0.0 0.0 0.0 0.0 0.0 0.0 0.0 0.0 0.0 0.0 0.0 0.0
nan nan nan 0.0 0.0 0.2 0.0 nan nan 0.0 0.0 0.2 2.8 1.3 2.6 0.0 0.1 0.3 0.2 0.0 0.6 0.0 0.6 0.3 0.1 0.3 0.4 0.0 0.0 0.0 0.0 0.0 0.0 0.0 0.0 0.0 0.0 0.0 0.0 0.0 0.0 0.0 0.0 0.0
nan 0.0 0.0 0.3 0.1 nan nan 0.0 0.2 0.1 0.1 0.1 0.8 0.1 1.1 0.0 0.4 0.6 0.5 0.4 0.7 1.1 0.7 0.0 0.8 0.2 0.0 0.0 0.0 0.0 0.0 0.0 0.0 0.0 0.0 0.0 0.0 0.0 0.0 0.0 0.0 0.0 0.0 0.0
0.0 0.2 0.2 0.0 nan 0.0 0.1 0.6 0.6 0.2 0.6 0.1 0.2 0.1 0.5 0.1 1.1 1.1 0.5 2.3 1.3 2.6 0.5 1.1 1.1 0.6 0.0 0.0 0.0 0.0 0.0 0.0 0.0 0.0 0.0 0.0 0.0 0.0 0.0 0.0 0.0 0.0 0.0 0.0
0.0 0.0 0.0 0.0 0.0 0.4 2.3 3.3 1.6 0.4 0.3 0.3 0.6 0.3 0.1 0.5 0.3 0.3 0.9 1.5 2.1 3.1 0.2 3.7 2.6 0.5 0.0 0.0 0.0 0.0 0.0 0.0 0.0 0.0 0.0 0.0 0.0 0.0 0.0 0.0 0.0 0.0 0.0 2.0
0.0 0.1 0.1 0.3 3.5 25.8 7.0 4.9 2.8 5.4 0.9 1.7 1.3 4.8 0.4 0.4 0.1 1.5 1.4 6.6 5.2 0.4 5.8 2.2 1.8 0.2 0.0 0.0 0.0 0.0 0.0 0.0 0.0 0.0 0.0 0.1 0.3 0.2 0.5 1.3 2.0 3.4 4.0 4.0
0.3 1.4 26.1 10.2 9.2 4.8 4.4 2.0 2.0 2.0 1.8 1.2 0.6 1.4 1.0 1.6 2.3 3.0 7.8 2.5 1.5 6.7 5.5 3.4 0.9 0.4 0.2 0.2 0.3 0.3 0.7 1.0 1.1 2.1 2.4 2.5 2.7 4.2 5.4 6.5 7.1 6.2 4.1 4.5
2.7 2.4 19.9 7.6 3.9 3.6 3.7 3.1 2.0 1.1 0.7 0.8 1.2 1.2 0.2 3.8 7.2 3.7 3.0 6.8 6.6 3.6 4.2 2.1 1.2 0.4 0.4 0.6 0.5 0.5 0.8 2.2 2.4 2.5 3.1 4.4 3.3 2.2 2.6 2.8 2.5 1.8 4.2 4.4
1.9 2.1 5.4 3.9 7.3 12.9 11.0 7.3 6.0 0.8 1.1 0.8 0.8 3.3 5.3 6.9 4.4 3.1 4.6 2.5 3.5 5.2 2.7 1.4 0.7 0.7 0.8 0.8 0.9 1.3 1.6 1.9 1.9 1.6 1.2 1.5 2.0 1.7 1.0 0.8 1.1 4.8 4.2 7.6
1.6 11.9 5.4 7.8 7.5 10.4 8.3 5.2 3.1 0.9 2.9 8.7 2.7 4.6 3.4 1.6 4.1 2.0 1.9 8.8 4.7 3.2 1.8 1.4 1.0 1.1 1.4 1.6 1.9 3.3 2.4 1.8 1.3 1.0 0.9 0.9 0.5 0.4 0.3 0.6 0.7 0.4 0.5 6.2

GFSNW_prec_sndepth_069.txt.gz
Snowfall_Accumulation
nan nan nan nan nan nan nan 0.0 0.9 0.0 0.0 0.1 0.0 0.0 0.0 nan 0.0 0.0 0.0 0.0 0.0 0.0 0.0 0.0 0.0 0.0 0.0 0.0 0.0 0.0 0.0 0.0 0.0 0.0 0.0 0.0 0.0 0.0 0.0 0.1 0.0 0.1 0.2 0.2
nan nan nan nan nan nan 0.0 0.0 0.0 0.0 0.0 0.6 0.0 0.0 0.0 0.0 0.0 0.0 0.0 0.0 0.0 0.0 0.0 0.0 0.0 0.0 0.0 0.0 0.0 0.0 0.0 0.0 0.0 0.0 0.0 0.0 0.0 0.0 0.0 0.0 0.0 0.0 1.6 0.2
nan nan nan nan nan nan 0.0 0.0 2.7 0.0 0.0 0.0 0.0 0.0 0.0 0.0 0.0 0.0 0.0 0.0 0.0 0.0 0.0 0.0 0.0 0.0 0.0 0.0 0.0 nan nan 0.0 0.0 0.0 0.0 0.0 0.0 0.0 0.0 0.0 0.3 0.0 0.0 0.0
nan nan nan nan nan nan 0.0 0.0 1.1 0.1 0.5 0.0 0.0 0.0 0.0 0.0 0.0 0.0 0.0 0.0 0.0 0.0 0.0 0.0 0.0 0.0 0.0 0.0 nan 0.0 0.0 0.0 0.0 0.0 0.0 0.0 0.0 0.0 0.0 0.0 0.0 0.1 0.0 0.0
nan nan nan nan nan nan 0.0 2.1 0.0 0.0 0.0 0.0 0.0 0.0 0.0 0.0 0.0 0.0 0.0 0.0 0.0 0.0 0.0 0.0 0.0 0.0 0.0 0.0 0.0 0.0 0.0 0.0 0.0 0.0 0.0 0.0 0.0 0.0 0.0 0.0 0.0 0.0 0.0 0.0
nan nan nan nan nan nan 0.0 0.0 0.0 0.0 nan 0.0 0.0 0.0 0.0 0.0 0.0 0.0 0.0 0.0 0.0 0.0 0.0 0.0 0.0 0.0 0.0 0.0 0.0 0.0 0.0 0.0 0.1 0.0 0.0 0.0 0.3 0.0 0.0 0.0 0.0 0.0 0.0 0.0
nan nan nan nan nan nan 0.0 0.0 0.0 0.0 0.2 0.0 0.0 0.0 0.0 0.0 0.0 0.0 0.0 0.0 0.0 0.0 0.0 0.0 0.0 0.0 0.0 0.0 0.0 0.0 0.0 0.0 0.1 0.6 0.3 1.0 0.0 0.0 0.0 0.0 0.0 0.0 0.0 0.0
nan nan nan nan nan nan 0.0 0.0 0.0 0.0 1.4 0.0 0.0 0.0 0.0 0.0 0.0 0.0 0.0 0.0 0.0 0.0 0.0 0.1 0.0 0.2 0.0 0.0 0.0 0.0 0.0 0.0 0.5 1.3 0.3 0.0 0.0 0.0 0.0 0.0 0.0 0.0 0.0 0.0
nan nan nan nan nan nan 0.0 0.0 0.0 0.0 0.1 0.0 0.0 0.0 0.0 0.0 0.0 0.0 0.0 0.0 0.0 0.0 0.1 0.2 0.2 0.6 0.0 0.0 0.0 0.0 0.0 0.0 0.2 0.5 0.2 2.2 0.0 0.0 0.0 0.0 0.1 0.0 0.0 0.0
nan nan nan nan nan nan 0.0 0.0 0.0 0.0 0.0 0.0 0.0 0.0 0.0 0.0 0.0 0.0 0.0 0.0 0.0 0.0 0.4 1.8 0.9 0.6 0.0 0.2 0.0 0.2 0.4 0.3 0.7 0.6 0.8 0.3 0.0 0.0 0.0 0.3 0.0 0.0 0.0 0.0
nan nan nan nan nan nan 0.0 0.0 0.0 0.0 0.0 0.0 0.0 0.0 0.0 0.0 0.0 0.1 0.0 0.1 0.1 0.2 0.3 0.4 0.4 1.4 0.2 0.1 0.0 0.0 0.1 0.6 1.8 0.6 0.8 1.3 0.0 0.0 0.0 0.0 0.0 0.0 0.0 0.0
nan nan nan nan nan nan nan 0.0 0.0 0.0 0.0 0.0 0.0 0.0 0.0 0.0 0.0 0.0 0.0 0.0 0.0 0.0 0.0 0.3 0.3 1.3 2.3 0.0 0.5 0.0 0.3 0.1 0.2 0.0 0.2 0.0 0.0 0.0 0.0 0.0 0.0 0.0 0.0 0.0
nan nan nan nan nan nan nan 0.0 0.0 0.0 0.0 0.0 0.0 0.0 0.0 0.0 0.0 0.0 0.0 0.0 0.0 0.0 0.0 0.0 0.2 0.2 0.1 1.2 0.2 0.1 0.0 0.0 0.1 0.0 0.0 0.0 0.0 0.0 0.0 0.0 0.0 0.0 0.0 0.0
nan nan nan nan nan nan nan 0.0 0.0 0.0 0.0 0.9 0.1 0.0 0.0 0.0 0.0 0.0 0.0 0.0 0.0 0.0 0.0 0.2 0.4 0.9 0.0 0.3 0.1 0.1 0.0 0.0 0.0 0.0 0.0 0.0 0.0 0.0 0.0 0.0 0.0 0.0 0.0 0.0
nan nan nan nan nan nan nan 0.0 0.0 0.0 0.0 0.4 0.1 0.0 0.0 0.0 0.0 0.0 0.0 0.0 0.0 0.0 0.1 1.3 0.5 0.0 0.2 0.2 0.1 0.2 0.0 0.0 0.2 0.1 0.0 0.0 0.0 0.0 0.0 0.0 0.0 0.0 0.0 0.0
nan nan nan nan nan nan 0.0 0.0 0.0 0.0 0.0 0.1 0.5 0.0 0.0 0.0 0.0 0.0 0.0 0.0 0.0 0.0 0.0 0.4 0.1 0.0 0.0 1.7 0.2 0.0 0.0 0.0 0.0 0.0 0.0 0.0 0.0 0.0 0.0 0.0 0.0 0.0 0.0 0.0
nan nan nan nan nan 0.0 0.0 0.0 0.0 nan 0.0 0.1 0.5 0.3 0.0 0.0 0.0 0.0 0.0 0.0 0.0 0.0 0.0 0.2 0.1 0.1 0.0 0.6 0.3 0.0 0.0 0.0 0.0 0.0 0.0 0.0 0.0 0.0 0.0 0.0 0.0 0.0 0.0 0.0
nan nan nan nan nan nan 0.0 0.0 nan nan 0.0 0.0 0.8 0.8 0.3 0.0 0.2 0.3 0.0 0.1 0.1 0.0 0.0 0.2 0.2 0.1 0.3 0.3 0.0 0.0 0.0 0.0 0.0 0.0 0.0 0.0 0.0 0.0 0.0 0.0 0.0 0.0 0.0 0.0
nan nan nan 0.0 0.0 0.2 0.0 nan nan 0.0 0.0 0.2 2.7 1.2 2.6 0.0 0.1 0.3 0.2 0.0 0.6 0.0 0.6 0.3 0.1 0.3 0.5 0.0 0.0 0.0 0.0 0.0 0.0 0.0 0.0 0.0 0.0 0.0 0.0 0.0 0.0 0.0 0.0 0.0
nan 0.0 0.0 0.3 0.1 nan nan 0.0 0.2 0.1 0.1 0.1 0.8 0.1 1.0 0.0 0.4 0.6 0.4 0.4 0.7 1.1 0.6 0.0 0.8 0.3 0.0 0.0 0.0 0.0 0.0 0.0 0.0 0.0 0.0 0.0 0.0 0.0 0.0 0.0 0.0 0.0 0.0 0.0
0.0 0.2 0.2 0.0 nan 0.0 0.1 0.5 0.6 0.2 0.6 0.1 0.2 0.1 0.4 0.1 1.1 1.4 0.5 2.4 1.2 2.6 0.5 1.1 1.1 0.7 0.0 0.0 0.0 0.0 0.0 0.0 0.0 0.0 0.0 0.0 0.0 0.0 0.0 0.0 0.0 0.0 0.0 0.0
0.0 0.0 0.0 0.0 0.0 0.4 2.2 3.2 1.6 0.4 0.3 0.3 0.6 0.3 0.1 0.5 0.3 0.3 1.4 1.9 3.0 3.7 0.2 3.5 2.5 0.6 0.0 0.0 0.0 0.0 0.0 0.0 0.0 0.0 0.0 0.0 0.0 0.0 0.0 0.0 0.0 0.0 0.0 2.0
0.0 0.1 0.1 0.2 3.4 32.7 6.8 4.9 2.7 5.2 0.8 1.6 1.2 4.7 0.4 0.4 0.1 1.5 1.3 6.4 5.1 0.4 6.2 2.6 2.1 0.3 0.0 0.1 0.0 0.0 0.0 0.0 0.0 0.0 0.0 0.1 0.3 0.2 0.4 1.3 2.0 3.4 4.2 4.2
0.3 1.3 37.1 10.1 9.0 4.8 4.8 2.1 2.2 2.0 1.8 1.2 0.6 1.4 0.9 1.5 2.2 2.9 7.7 2.4 1.6 7.2 8.5 4.1 1.2 0.5 0.5 0.4 0.5 0.4 1.0 1.2 1.3 2.4 2.7 2.7 2.8 4.6 5.7 6.9 7.5 6.3 4.4 5.0
2.5 2.3 27.1 7.7 4.1 3.6 3.7 3.0 2.0 1.1 0.8 0.8 1.2 1.1 0.2 3.6 6.9 4.1 3.5 7.8 7.8 4.2 4.7 2.7 1.6 0.8 0.5 0.9 1.0 1.0 1.3 2.7 2.9 2.9 3.5 5.0 3.9 2.7 3.2 3.5 3.1 2.1 4.5 4.7
1.8 2.1 5.4 3.9 7.3 12.9 11.0 7.3 6.0 0.8 1.1 0.8 0.8 3.3 5.1 6.8 4.8 3.6 5.8 2.6 3.7 5.7 3.2 1.8 0.9 0.9 1.1 1.2 1.5 2.0 2.1 2.4 2.5 2.2 1.8 2.1 2.5 2.2 1.7 1.3 1.5 5.2 4.3 7.7
1.5 12.2 5.4 7.8 7.5 10.5 8.4 5.4 3.1 0.9 3.8 9.1 2.6 4.8 4.0 1.6 4.1 2.1 2.0 9.5 6.2 4.3 2.8 2.1 1.4 1.6 2.1 2.2 2.5 4.0 3.0 2.3 1.8 1.5 1.1 1.2 0.8 0.5 0.3 0.8 1.1 0.5 0.6 6.3

GFSNW_prec_sndepth_072.txt.gz
Snowfall_Accumulation
nan nan nan nan nan nan nan 0.0 1.3 0.0 0.0 0.4 0.0 0.0 0.0 nan 0.0 0.0 0.0 0.0 0.0 0.0 0.0 0.0 0.0 0.0 0.0 0.0 0.0 0.0 0.0 0.0 0.0 0.0 0.0 0.0 0.0 0.0 0.0 0.1 0.0 0.1 0.2 0.2
nan nan nan nan nan nan 0.0 0.0 0.0 0.0 0.0 0.9 0.1 0.0 0.0 0.0 0.0 0.0 0.0 0.0 0.0 0.0 0.0 0.0 0.0 0.0 0.0 0.0 0.0 0.0 0.0 0.0 0.0 0.0 0.0 0.0 0.0 0.0 0.0 0.0 0.0 0.0 1.6 0.2
nan nan nan nan nan nan 0.0 0.1 3.7 0.1 0.0 0.0 0.0 0.0 0.0 0.0 0.0 0.0 0.0 0.0 0.0 0.0 0.0 0.0 0.0 0.0 0.0 0.0 0.0 nan nan 0.0 0.0 0.0 0.0 0.0 0.0 0.0 0.0 0.0 0.3 0.0 0.0 0.0
nan nan nan nan nan nan 0.0 0.2 2.2 0.1 0.7 0.1 0.0 0.0 0.0 0.0 0.0 0.0 0.0 0.0 0.0 0.0 0.0 0.0 0.0 0.0 0.0 0.0 nan 0.0 0.0 0.0 0.0 0.0 0.0 0.0 0.0 0.0 0.0 0.0 0.0 0.1 0.0 0.0
nan nan nan nan nan nan 0.0 3.9 0.1 0.0 0.0 0.0 0.0 0.0 0.0 0.0 0.0 0.0 0.0 0.0 0.0 0.0 0.0 0.0 0.0 0.0 0.0 0.0 0.0 0.0 0.0 0.0 0.0 0.0 0.0 0.0 0.0 0.0 0.0 0.0 0.0 0.0 0.0 0.0
nan nan nan nan nan nan 0.0 0.0 0.0 0.0 nan 0.0 0.2 0.0 0.0 0.0 0.0 0.0 0.0 0.0 0.0 0.0 0.0 0.0 0.0 0.0 0.0 0.0 0.0 0.0 0.0 0.0 0.1 0.0 0.0 0.0 0.3 0.0 0.0 0.0 0.0 0.0 0.0 0.0
nan nan nan nan nan nan 0.0 0.0 0.0 0.0 0.5 0.0 0.0 0.0 0.0 0.0 0.0 0.0 0.0 0.0 0.0 0.0 0.0 0.0 0.0 0.0 0.0 0.0 0.0 0.0 0.0 0.0 0.1 0.5 0.3 1.7 0.0 0.0 0.0 0.0 0.0 0.0 0.0 0.0
nan nan nan nan nan nan 0.0 0.0 0.0 0.0 1.8 0.0 0.0 0.0 0.0 0.0 0.0 0.0 0.0 0.0 0.0 0.0 0.0 0.1 0.0 0.2 0.0 0.0 0.0 0.0 0.0 0.0 0.5 1.3 0.2 0.0 0.0 0.0 0.0 0.0 0.0 0.0 0.0 0.0
nan nan nan nan nan nan 0.0 0.0 0.0 0.0 0.1 0.0 0.0 0.0 0.0 0.0 0.0 0.0 0.0 0.0 0.0 0.0 0.0 0.2 0.6 0.6 0.0 0.0 0.0 0.0 0.0 0.0 0.2 0.6 0.2 2.2 0.0 0.0 0.0 0.0 0.0 0.0 0.0 0.0
nan nan nan nan nan nan 0.0 0.0 0.0 0.0 0.1 0.0 0.0 0.0 0.0 0.0 0.0 0.0 0.0 0.0 0.0 0.0 0.4 1.8 0.9 0.6 0.0 0.2 0.0 0.2 0.4 0.4 0.7 0.6 0.8 0.3 0.0 0.0 0.0 0.3 0.0 0.0 0.0 0.0
nan nan nan nan nan nan 0.0 0.0 0.0 0.0 0.1 0.0 0.0 0.0 0.0 0.0 0.0 0.1 0.0 0.1 0.1 0.2 0.3 0.4 0.4 1.4 0.2 0.1 0.0 0.0 0.1 0.6 1.9 0.6 0.8 1.4 0.0 0.0 0.0 0.0 0.0 0.0 0.0 0.0
nan nan nan nan nan nan nan 0.0 0.0 0.0 0.0 0.0 0.0 0.0 0.0 0.0 0.0 0.0 0.0 0.0 0.0 0.0 0.0 0.3 0.3 1.3 2.3 0.0 0.6 0.0 0.3 0.1 0.2 0.0 0.2 0.0 0.0 0.0 0.0 0.0 0.0 0.0 0.0 0.0
nan nan nan nan nan nan nan 0.0 0.0 0.0 0.0 0.0 0.0 0.0 0.0 0.0 0.0 0.0 0.0 0.0 0.0 0.0 0.0 0.0 0.2 0.2 0.1 1.2 0.2 0.1 0.0 0.0 0.1 0.0 0.0 0.0 0.0 0.0 0.0 0.0 0.0 0.0 0.0 0.0
nan nan nan nan nan nan nan 0.0 0.0 0.0 0.0 1.0 0.1 0.0 0.0 0.0 0.0 0.0 0.0 0.0 0.0 0.0 0.0 0.2 0.4 1.0 0.0 0.3 0.1 0.1 0.0 0.0 0.0 0.0 0.0 0.0 0.0 0.0 0.0 0.0 0.0 0.0 0.0 0.0
nan nan nan nan nan nan nan 0.0 0.0 0.0 0.1 0.5 0.1 0.0 0.0 0.0 0.0 0.0 0.0 0.0 0.0 0.0 0.1 1.3 0.5 0.0 0.2 0.2 0.1 0.2 0.0 0.0 0.2 0.1 0.0 0.0 0.0 0.0 0.0 0.0 0.0 0.0 0.0 0.0
nan nan nan nan nan nan 0.0 0.0 0.0 0.0 0.0 0.1 0.6 0.0 0.0 0.0 0.0 0.0 0.0 0.0 0.0 0.0 0.0 0.4 0.1 0.0 0.0 1.8 0.2 0.0 0.0 0.0 0.0 0.0 0.0 0.0 0.0 0.0 0.0 0.0 0.0 0.0 0.0 0.0
nan nan nan nan nan 0.0 0.0 0.0 0.0 nan 0.0 0.1 0.5 0.3 0.0 0.0 0.0 0.0 0.0 0.0 0.0 0.0 0.0 0.2 0.1 0.1 0.0 0.8 0.4 0.0 0.0 0.0 0.0 0.0 0.0 0.0 0.0 0.0 0.0 0.0 0.0 0.0 0.0 0.0
nan nan nan nan nan nan 0.0 0.0 nan nan 0.0 0.0 0.8 0.8 0.3 0.0 0.2 0.3 0.0 0.1 0.1 0.0 0.0 0.2 0.2 0.1 0.3 0.5 0.0 0.0 0.0 0.0 0.0 0.0 0.0 0.0 0.0 0.0 0.0 0.0 0.0 0.0 0.0 0.0
nan nan nan 0.0 0.0 0.2 0.0 nan nan 0.0 0.0 0.2 2.7 1.2 3.0 0.0 0.1 0.3 0.2 0.0 0.6 0.0 0.6 0.3 0.1 0.3 1.3 0.5 0.2 0.0 0.0 0.0 0.0 0.0 0.0 0.0 0.0 0.0 0.0 0.0 0.0 0.0 0.0 0.0
nan 0.0 0.0 0.3 0.1 nan nan 0.0 0.2 0.1 0.1 0.1 0.8 0.1 1.0 0.0 0.4 0.6 0.5 0.4 0.7 1.2 0.7 0.0 0.9 1.7 0.4 0.4 0.1 0.0 0.0 0.0 0.0 0.0 0.0 0.0 0.0 0.0 0.0 0.0 0.0 0.0 0.0 0.0
0.0 0.1 0.2 0.0 nan 0.0 0.1 0.5 0.6 0.2 0.6 0.1 0.2 0.1 0.4 0.1 1.0 1.3 0.5 2.3 1.2 2.6 0.5 1.1 1.1 0.9 0.9 0.8 0.5 0.2 0.0 0.0 0.0 0.0 0.0 0.0 0.0 0.0 0.0 0.0 0.0 0.0 0.0 0.0
0.0 0.0 0.0 0.0 0.0 0.4 2.2 3.2 1.6 0.4 0.3 0.3 0.6 0.3 0.1 0.5 0.3 0.3 1.4 2.0 3.1 3.7 0.2 3.5 2.6 0.8 0.0 0.0 0.0 0.1 0.2 0.0 0.0 0.0 0.0 0.0 0.0 0.0 0.0 0.0 0.0 0.0 0.0 2.0
0.0 0.1 0.1 0.2 3.4 32.5 6.9 4.9 2.7 5.3 1.0 1.6 1.2 4.7 0.4 0.4 0.1 1.5 1.3 6.4 5.1 0.4 7.6 3.3 2.6 0.4 0.1 0.1 0.0 0.1 0.0 0.0 0.0 0.0 0.0 0.1 0.4 0.2 0.4 1.3 2.2 3.7 4.7 4.7
0.3 1.3 36.8 10.1 9.0 4.8 4.9 2.3 2.3 2.1 1.8 1.3 0.6 1.4 0.9 1.5 2.2 2.9 7.8 2.4 1.6 7.5 9.1 4.9 1.5 0.7 0.8 0.6 0.6 0.4 1.1 1.3 1.5 2.6 3.0 3.1 3.2 5.3 6.4 7.6 8.4 7.0 5.1 6.3
2.5 2.3 27.0 7.9 4.3 3.7 3.7 3.0 2.1 1.2 0.8 0.9 1.1 1.1 0.2 3.6 6.9 4.2 3.7 8.0 8.0 4.4 5.0 3.8 2.2 1.2 0.8 1.2 1.2 1.2 1.5 3.0 3.2 3.4 4.1 5.8 4.8 3.4 4.1 4.4 3.9 2.6 5.2 5.4
1.8 2.1 5.4 3.9 7.3 12.9 11.0 7.3 6.1 0.8 1.1 0.8 1.4 3.8 5.4 7.0 4.8 3.6 6.1 2.6 3.8 6.0 3.5 2.2 1.4 1.7 1.6 1.6 1.8 2.6 2.8 3.1 3.3 3.1 2.8 3.1 3.5 3.0 2.8 2.2 2.3 6.1 4.9 8.4
1.5 12.3 5.4 7.8 7.5 10.6 8.5 5.5 3.2 1.0 3.9 9.2 2.9 4.8 4.2 1.8 4.3 2.3 2.2 9.8 6.7 5.1 3.7 3.0 1.7 1.9 2.6 2.7 2.9 4.6 3.7 3.2 2.6 2.4 1.8 1.9 1.6 1.2 0.7 1.3 1.9 0.9 0.9 6.6

GFSNW_prec_sndepth_075.txt.gz
Snowfall_Accumulation
nan nan nan nan nan nan nan 0.0 1.8 0.0 0.0 1.3 0.0 0.1 0.0 nan 0.0 0.0 0.0 0.0 0.0 0.0 0.0 0.0 0.0 0.0 0.0 0.0 0.0 0.0 0.0 0.0 0.0 0.0 0.0 0.0 0.0 0.0 0.0 0.1 0.0 0.1 0.2 0.2
nan nan nan nan nan nan 0.0 0.0 0.0 0.0 0.0 1.9 0.1 0.0 0.0 0.0 0.0 0.0 0.0 0.0 0.0 0.0 0.0 0.0 0.0 0.0 0.0 0.0 0.0 0.0 0.0 0.0 0.0 0.0 0.0 0.0 0.0 0.0 0.0 0.0 0.0 0.0 1.6 0.2
nan nan nan nan nan nan 0.0 0.3 4.9 0.1 0.0 0.0 0.0 0.1 0.0 0.0 0.0 0.0 0.0 0.0 0.0 0.0 0.0 0.0 0.0 0.0 0.0 0.0 0.0 nan nan 0.0 0.0 0.0 0.0 0.0 0.0 0.0 0.0 0.0 0.3 0.0 0.0 0.0
nan nan nan nan nan nan 0.0 0.3 3.4 0.1 1.4 0.1 0.0 0.0 0.0 0.0 0.0 0.0 0.0 0.0 0.0 0.0 0.0 0.0 0.0 0.0 0.0 0.0 nan 0.0 0.0 0.0 0.0 0.0 0.0 0.0 0.0 0.0 0.0 0.0 0.0 0.1 0.0 0.0
nan nan nan nan nan nan 0.0 6.1 0.3 0.0 0.0 0.0 0.0 0.0 0.0 0.0 0.0 0.0 0.0 0.0 0.0 0.0 0.0 0.0 0.0 0.0 0.0 0.0 0.0 0.0 0.0 0.0 0.0 0.0 0.0 0.0 0.0 0.0 0.0 0.0 0.0 0.0 0.0 0.0
nan nan nan nan nan nan 0.0 0.0 0.0 0.0 nan 0.1 0.3 0.0 0.0 0.0 0.0 0.0 0.0 0.0 0.0 0.0 0.0 0.0 0.0 0.0 0.0 0.0 0.0 0.0 0.0 0.0 0.1 0.0 0.0 0.0 0.4 0.0 0.0 0.0 0.0 0.0 0.0 0.0
nan nan nan nan nan nan 0.0 0.0 0.0 0.0 1.0 0.1 0.0 0.0 0.0 0.0 0.0 0.0 0.0 0.0 0.0 0.0 0.0 0.0 0.0 0.0 0.0 0.0 0.0 0.0 0.0 0.0 0.1 0.5 0.3 1.8 0.0 0.0 0.0 0.0 0.0 0.0 0.0 0.0
nan nan nan nan nan nan 0.0 0.0 0.0 0.0 2.0 0.0 0.0 0.0 0.0 0.0 0.0 0.0 0.0 0.0 0.0 0.0 0.0 0.1 0.0 0.2 0.0 0.0 0.0 0.0 0.0 0.0 0.5 1.3 0.2 0.0 0.0 0.0 0.0 0.0 0.0 0.0 0.0 0.0
nan nan nan nan nan nan 0.0 0.0 0.0 0.0 0.1 0.1 0.0 0.0 0.0 0.0 0.0 0.0 0.0 0.0 0.0 0.0 0.0 0.2 0.7 0.6 0.0 0.0 0.0 0.0 0.0 0.0 0.2 1.4 0.2 2.2 0.0 0.0 0.0 0.0 0.0 0.0 0.0 0.0
nan nan nan nan nan nan 0.0 0.0 0.0 0.0 0.6 0.0 0.0 0.0 0.0 0.0 0.0 0.0 0.0 0.0 0.0 0.0 0.4 1.8 0.9 0.7 0.0 0.2 0.0 0.2 0.5 0.6 0.9 0.7 1.1 0.3 0.0 0.0 0.0 0.4 0.0 0.0 0.0 0.0
nan nan nan nan nan nan 0.0 0.0 0.0 0.0 0.5 0.0 0.0 0.0 0.0 0.0 0.0 0.1 0.0 0.1 0.1 0.2 0.3 0.4 0.4 1.4 0.2 0.1 0.0 0.0 0.1 0.6 1.9 0.8 0.9 1.4 0.0 0.0 0.0 0.0 0.0 0.0 0.0 0.0
nan nan nan nan nan nan nan 0.0 0.0 0.0 0.0 0.0 0.0 0.0 0.0 0.0 0.0 0.0 0.0 0.0 0.0 0.0 0.0 0.3 0.3 1.3 2.3 0.0 0.6 0.0 0.4 0.1 0.2 0.0 0.3 0.0 0.0 0.0 0.0 0.0 0.0 0.0 0.0 0.0
nan nan nan nan nan nan nan 0.0 0.0 0.0 0.0 0.0 0.0 0.0 0.0 0.0 0.0 0.0 0.0 0.0 0.0 0.0 0.0 0.0 0.2 0.2 0.1 1.2 0.2 0.1 0.0 0.0 0.1 0.0 0.0 0.0 0.0 0.0 0.0 0.0 0.0 0.0 0.0 0.0
nan nan nan nan nan nan nan 0.0 0.0 0.0 0.0 1.8 0.1 0.0 0.0 0.0 0.0 0.0 0.0 0.0 0.0 0.0 0.0 0.2 0.4 1.0 0.0 0.3 0.1 0.1 0.0 0.0 0.0 0.0 0.0 0.0 0.0 0.0 0.0 0.0 0.0 0.0 0.0 0.0
nan nan nan nan nan nan nan 0.0 0.0 0.0 0.1 0.7 0.1 0.0 0.0 0.0 0.0 0.0 0.0 0.0 0.0 0.0 0.2 1.3 0.5 0.0 0.2 0.2 0.1 0.2 0.0 0.0 0.2 0.1 0.0 0.0 0.0 0.0 0.0 0.0 0.0 0.0 0.0 0.0
nan nan nan nan nan nan 0.0 0.0 0.0 0.0 0.0 0.3 0.7 0.0 0.0 0.0 0.0 0.0 0.0 0.0 0.0 0.0 0.0 0.5 0.1 0.0 0.0 1.8 0.2 0.0 0.0 0.0 0.0 0.0 0.0 0.0 0.0 0.0 0.0 0.0 0.0 0.0 0.0 0.0
nan nan nan nan nan 0.0 0.0 0.0 0.0 nan 0.0 0.4 0.6 0.3 0.0 0.0 0.0 0.0 0.0 0.0 0.0 0.0 0.0 0.2 0.1 0.1 0.0 0.8 0.8 0.0 0.0 0.0 0.0 0.0 0.0 0.0 0.0 0.0 0.0 0.0 0.0 0.0 0.0 0.0
nan nan nan nan nan nan 0.0 0.0 nan nan 0.0 0.0 0.8 1.0 0.3 0.0 0.2 0.3 0.0 0.1 0.1 0.0 0.0 0.2 0.2 0.1 0.3 0.5 0.0 0.0 0.0 0.0 0.0 0.0 0.0 0.0 0.0 0.0 0.0 0.0 0.0 0.0 0.0 0.0
nan nan nan 0.0 0.0 0.1 0.0 nan nan 0.0 0.0 0.2 2.7 1.2 3.2 0.0 0.1 0.3 0.2 0.0 0.6 0.0 0.6 0.3 0.1 0.3 1.6 0.6 0.1 0.1 0.0 0.0 0.0 0.0 0.0 0.0 0.0 0.0 0.0 0.0 0.0 0.0 0.0 0.0
nan 0.0 0.0 0.6 0.1 nan nan 0.0 0.2 0.1 0.1 0.1 0.8 0.1 1.0 0.0 0.4 0.6 0.5 0.4 0.7 1.2 0.7 0.0 0.9 1.9 0.5 0.4 0.2 0.1 0.3 0.1 0.0 0.0 0.0 0.0 0.0 0.0 0.0 0.0 0.0 0.0 0.0 0.0
0.0 0.1 0.3 0.0 nan 0.0 0.1 0.5 0.6 0.2 0.6 0.1 0.2 0.1 0.4 0.1 1.0 1.3 0.5 2.3 1.2 2.6 0.5 1.1 1.3 1.2 1.1 0.8 0.9 0.9 0.6 0.4 0.3 0.0 0.0 0.0 0.0 0.0 0.0 0.0 0.0 0.0 0.0 0.0
0.0 0.0 0.0 0.0 0.0 0.4 2.2 3.2 1.6 0.4 0.3 0.3 0.6 0.3 0.1 0.5 0.3 0.3 1.4 2.0 3.1 3.7 0.2 3.9 3.0 1.1 0.1 0.0 0.0 0.2 0.4 0.8 0.6 0.2 0.1 0.0 0.0 0.0 0.0 0.0 0.0 0.0 0.1 2.0
0.0 0.1 0.1 0.2 3.4 32.3 6.9 4.9 2.7 5.3 1.2 1.6 1.2 4.7 0.4 0.4 0.1 1.5 1.2 6.7 5.3 0.9 8.4 3.8 2.8 0.5 0.1 0.2 0.1 0.1 0.1 0.1 0.4 0.7 0.1 0.1 0.4 0.2 0.4 1.4 2.2 3.7 4.8 4.7
0.3 1.3 36.6 10.1 9.0 4.8 5.0 2.4 2.4 2.3 1.9 1.3 0.6 1.4 0.9 1.5 2.2 2.9 8.0 2.7 2.2 8.4 9.3 5.2 1.7 0.9 0.9 0.7 0.8 0.5 1.2 1.4 1.6 2.8 3.1 3.2 3.3 5.5 6.6 8.1 9.2 7.7 6.1 7.6
2.5 2.3 26.9 7.9 4.5 3.8 3.9 3.2 2.2 1.3 1.0 0.9 1.1 1.1 0.2 3.6 6.9 4.2 3.9 8.0 8.1 4.5 5.1 4.2 2.4 1.4 0.9 1.3 1.3 1.3 1.7 3.2 3.4 3.6 4.2 6.1 5.1 3.7 4.8 5.2 4.8 3.3 5.9 6.2
1.8 2.1 5.4 3.9 7.3 12.9 11.0 7.3 6.1 0.8 1.2 0.8 1.6 4.0 5.7 7.1 4.8 3.6 6.2 2.6 3.8 6.4 3.8 2.6 1.8 2.2 1.9 1.9 2.1 2.9 3.1 3.5 3.8 3.5 3.2 3.5 4.0 3.5 3.6 3.0 3.1 7.0 5.6 9.3
1.5 12.4 5.5 7.9 7.5 10.7 8.6 5.6 3.2 1.0 4.0 9.2 3.0 4.9 4.4 2.0 4.6 2.7 2.4 10.0 7.0 5.4 4.0 3.3 2.0 2.2 2.9 3.7 3.6 5.2 4.3 3.7 3.3 3.0 2.4 2.7 2.4 2.0 1.2 1.9 3.0 1.5 1.6 7.2

GFSNW_prec_sndepth_078.txt.gz
Snowfall_Accumulation
nan nan nan nan nan nan nan 0.0 2.1 0.0 0.0 1.9 0.3 0.3 0.0 nan 0.0 0.0 0.0 0.0 0.0 0.0 0.0 0.0 0.0 0.0 0.0 0.0 0.0 0.0 0.0 0.0 0.0 0.0 0.0 0.0 0.0 0.0 0.0 0.1 0.0 0.1 0.2 0.2
nan nan nan nan nan nan 0.0 0.1 0.0 0.0 0.0 3.1 0.4 0.0 0.0 0.0 0.0 0.0 0.0 0.0 0.0 0.0 0.0 0.0 0.0 0.0 0.0 0.0 0.0 0.0 0.0 0.0 0.0 0.0 0.0 0.0 0.0 0.0 0.0 0.0 0.0 0.0 1.6 0.2
nan nan nan nan nan nan 0.0 0.6 5.8 0.2 0.0 0.0 0.0 0.1 0.1 0.0 0.0 0.0 0.0 0.0 0.0 0.0 0.0 0.0 0.0 0.0 0.0 0.0 0.0 nan nan 0.0 0.0 0.0 0.0 0.0 0.0 0.0 0.0 0.0 0.3 0.0 0.0 0.0
nan nan nan nan nan nan 0.0 0.5 4.7 0.1 2.7 0.3 0.0 0.0 0.0 0.0 0.0 0.0 0.0 0.0 0.0 0.0 0.0 0.0 0.0 0.0 0.0 0.0 nan 0.0 0.0 0.0 0.0 0.0 0.0 0.0 0.0 0.0 0.0 0.0 0.0 0.1 0.0 0.0
nan nan nan nan nan nan 0.0 7.9 0.7 0.0 0.0 0.0 0.0 0.0 0.1 0.0 0.0 0.0 0.0 0.0 0.0 0.0 0.0 0.0 0.0 0.0 0.0 0.0 0.0 0.0 0.0 0.2 0.0 0.0 0.0 0.0 0.0 0.0 0.0 0.0 0.0 0.0 0.0 0.0
nan nan nan nan nan nan 0.0 0.0 0.0 0.0 nan 0.1 0.4 0.0 0.0 0.0 0.0 0.0 0.0 0.0 0.0 0.0 0.0 0.0 0.0 0.0 0.0 0.0 0.0 0.0 0.0 0.1 0.1 0.0 0.0 0.0 0.4 0.0 0.0 0.0 0.0 0.0 0.0 0.0
nan nan nan nan nan nan 0.0 0.0 0.0 0.1 1.2 0.1 0.0 0.0 0.0 0.0 0.0 0.0 0.0 0.0 0.0 0.0 0.0 0.0 0.0 0.0 0.0 0.0 0.0 0.0 0.0 0.3 0.2 0.5 0.3 1.9 0.0 0.0 0.0 0.0 0.0 0.0 0.0 0.0
nan nan nan nan nan nan 0.0 0.0 0.0 0.0 2.5 0.0 0.0 0.0 0.0 0.0 0.0 0.0 0.0 0.0 0.0 0.0 0.0 0.1 0.0 0.2 0.0 0.0 0.0 0.0 0.0 0.0 2.0 2.6 0.3 0.0 0.0 0.0 0.0 0.0 0.0 0.0 0.0 0.0
nan nan nan nan nan nan 0.0 0.0 0.0 0.0 0.2 0.3 0.0 0.0 0.0 0.0 0.0 0.0 0.0 0.0 0.0 0.0 0.0 0.2 0.8 0.6 0.0 0.1 0.0 0.0 0.0 0.0 0.2 1.6 0.7 2.4 0.0 0.0 0.0 0.0 0.0 0.0 0.0 0.0
nan nan nan nan nan nan 0.0 0.0 0.0 0.0 0.6 0.0 0.0 0.0 0.1 0.0 0.0 0.0 0.0 0.0 0.0 0.0 0.5 2.0 1.0 0.7 0.0 0.3 0.1 0.4 0.6 0.6 0.9 0.8 1.4 0.3 0.0 0.0 0.0 0.4 0.0 0.0 0.0 0.0
nan nan nan nan nan nan 0.0 0.0 0.0 0.0 0.5 0.0 0.0 0.0 0.0 0.0 0.0 0.1 0.0 0.1 0.1 0.2 0.3 0.5 0.4 1.4 0.2 0.1 0.0 0.0 0.2 1.1 2.1 0.9 0.9 1.5 0.0 0.0 0.0 0.0 0.0 0.0 0.0 0.0
nan nan nan nan nan nan nan 0.0 0.0 0.0 0.0 0.0 0.0 0.0 0.0 0.0 0.0 0.0 0.0 0.0 0.0 0.0 0.0 0.3 0.3 1.3 2.3 0.0 0.6 0.0 0.4 0.1 0.2 0.1 0.3 0.0 0.0 0.0 0.0 0.0 0.0 0.0 0.0 0.0
nan nan nan nan nan nan nan 0.0 0.0 0.0 0.0 0.0 0.0 0.0 0.0 0.0 0.0 0.0 0.0 0.0 0.0 0.0 0.0 0.0 0.2 0.2 0.1 1.2 0.2 0.1 0.0 0.0 0.1 0.0 0.0 0.0 0.0 0.0 0.0 0.0 0.0 0.0 0.0 0.0
nan nan nan nan nan nan nan 0.0 0.0 0.0 0.0 1.9 0.1 0.0 0.0 0.0 0.0 0.0 0.0 0.0 0.0 0.0 0.0 0.2 0.4 1.0 0.0 0.3 0.1 0.1 0.0 0.0 0.0 0.0 0.0 0.0 0.0 0.0 0.0 0.0 0.0 0.0 0.0 0.0
nan nan nan nan nan nan nan 0.0 0.0 0.0 0.1 0.7 0.1 0.0 0.0 0.0 0.0 0.0 0.0 0.0 0.0 0.0 0.1 1.3 0.5 0.0 0.2 0.2 0.1 0.2 0.0 0.0 0.2 0.1 0.0 0.0 0.0 0.0 0.0 0.0 0.0 0.0 0.0 0.0
nan nan nan nan nan nan 0.0 0.0 0.0 0.0 0.0 0.3 0.9 0.0 0.0 0.0 0.0 0.0 0.0 0.0 0.0 0.0 0.0 0.5 0.1 0.0 0.0 1.8 0.2 0.0 0.0 0.0 0.0 0.0 0.0 0.0 0.0 0.0 0.0 0.0 0.0 0.0 0.0 0.0
nan nan nan nan nan 0.0 0.0 0.0 0.0 nan 0.0 0.5 2.0 0.3 0.0 0.0 0.0 0.0 0.0 0.0 0.0 0.0 0.0 0.2 0.1 0.1 0.0 0.8 0.8 0.0 0.0 0.0 0.0 0.0 0.0 0.0 0.0 0.0 0.0 0.0 0.0 0.0 0.0 0.0
nan nan nan nan nan nan 0.0 0.0 nan nan 0.0 0.0 3.2 1.5 0.3 0.0 0.2 0.4 0.0 0.1 0.1 0.0 0.0 0.2 0.2 0.1 0.3 0.6 0.0 0.0 0.0 0.0 0.0 0.0 0.0 0.0 0.0 0.0 0.0 0.0 0.0 0.0 0.0 0.0
nan nan nan 0.0 0.0 0.1 0.0 nan nan 0.0 0.0 1.0 3.6 1.3 3.8 0.0 0.1 0.3 0.2 0.0 0.6 0.0 0.6 0.3 0.1 0.3 1.8 0.8 0.1 0.1 0.0 0.0 0.0 0.0 0.0 0.0 0.0 0.0 0.0 0.0 0.0 0.0 0.0 0.0
nan 0.0 0.0 0.7 0.1 nan nan 0.0 0.2 0.1 0.1 0.2 1.3 0.1 1.0 0.0 0.4 0.6 0.5 0.4 0.7 1.2 0.7 0.0 0.9 2.0 0.6 0.4 0.2 0.1 0.3 0.1 0.0 0.0 0.0 0.0 0.0 0.0 0.0 0.0 0.0 0.0 0.1 0.0
0.0 0.2 1.1 0.0 nan 0.0 0.1 0.9 0.9 0.2 0.8 0.1 0.2 0.1 0.4 0.1 1.0 1.3 0.5 2.3 1.2 2.6 0.5 1.1 1.5 1.3 1.2 0.8 0.9 0.8 0.5 0.3 0.4 0.2 0.1 0.0 0.0 0.0 0.0 0.0 0.0 0.0 0.0 0.0
0.0 0.0 0.0 0.0 0.0 0.4 2.2 3.2 1.6 0.4 0.3 0.4 0.6 0.3 0.1 0.5 0.3 0.3 1.4 2.0 3.1 3.7 0.3 4.2 3.2 1.2 0.1 0.0 0.1 0.2 0.5 0.8 0.8 0.9 1.1 0.7 0.4 0.1 0.0 0.0 0.0 0.1 0.1 2.0
0.0 0.1 0.1 0.2 3.4 32.2 6.9 4.9 2.7 5.4 1.3 1.6 1.2 4.7 0.4 0.4 0.1 1.4 1.2 6.9 6.0 1.4 8.9 4.0 3.0 0.5 0.2 0.2 0.1 0.1 0.1 0.1 0.4 0.8 0.6 1.2 1.1 0.5 0.5 1.4 2.3 3.7 4.9 4.9
0.3 1.3 36.4 10.1 9.0 4.9 5.2 2.6 2.5 2.5 2.0 1.3 0.6 1.4 0.9 1.5 2.2 2.9 8.0 2.8 2.2 8.9 9.6 5.5 2.3 1.5 1.2 0.7 0.8 0.5 1.4 1.5 1.7 3.0 3.3 3.5 3.8 6.1 7.0 8.3 9.4 7.8 6.3 8.3
2.5 2.3 26.7 8.0 4.8 4.0 4.1 3.4 2.4 1.5 1.1 1.0 1.1 1.1 0.2 3.6 6.9 4.2 3.9 8.0 8.2 4.6 5.2 4.8 3.1 1.9 1.2 1.5 1.5 1.5 1.8 3.3 3.6 3.9 4.5 6.3 5.4 3.9 5.2 5.7 5.5 3.7 6.5 6.9
1.8 2.1 5.5 3.9 7.3 13.0 11.1 7.5 6.3 1.1 1.4 0.8 1.7 4.0 5.7 7.1 4.8 3.6 6.3 2.6 3.9 6.5 4.0 2.9 1.9 2.3 2.1 2.1 2.4 3.2 3.4 3.8 4.0 3.8 3.5 3.9 4.4 3.8 4.1 3.5 3.6 7.7 6.2 9.9
1.5 12.5 5.5 7.9 7.6 10.9 8.8 5.7 3.2 1.0 4.0 9.3 3.0 4.9 4.6 2.0 4.6 2.7 2.5 10.0 7.2 5.6 4.1 3.6 2.2 2.4 3.2 4.0 3.9 5.5 4.7 4.2 3.7 3.5 2.9 3.2 3.0 2.5 1.4 2.2 3.8 2.0 2.2 7.7

GFSNW_prec_sndepth_084.txt.gz
Snowfall_Accumulation
nan nan nan nan nan nan nan 0.0 2.5 0.0 0.0 1.9 1.5 1.4 0.0 nan 0.0 0.0 0.0 0.0 0.0 0.0 0.0 0.0 0.0 0.0 0.0 0.0 0.0 0.0 0.0 0.0 0.0 0.0 0.0 0.0 0.0 0.0 0.0 0.1 0.0 0.0 0.1 0.2
nan nan nan nan nan nan 0.0 0.0 0.0 0.0 0.0 5.0 0.7 0.1 0.2 0.0 0.0 0.0 0.0 0.0 0.0 0.0 0.0 0.0 0.0 0.0 0.0 0.0 0.0 0.0 0.0 0.0 0.0 0.0 0.0 0.0 0.0 0.0 0.0 0.0 0.0 0.0 1.2 0.1
nan nan nan nan nan nan 0.0 0.7 6.4 0.2 0.0 0.0 0.0 0.1 0.4 0.4 0.0 0.0 0.0 0.0 0.0 0.0 0.0 0.0 0.0 0.0 0.0 0.0 0.0 nan nan 0.0 0.0 0.1 0.0 0.0 0.0 0.0 0.0 0.0 0.2 0.0 0.0 0.0
nan nan nan nan nan nan 0.0 0.4 6.7 0.1 3.8 0.9 0.1 0.0 0.0 0.0 0.1 0.0 0.0 0.0 0.0 0.0 0.0 0.0 0.0 0.0 0.0 0.0 nan 0.0 0.0 0.0 0.0 0.0 0.0 0.0 0.0 0.0 0.0 0.0 0.0 0.0 0.0 0.0
nan nan nan nan nan nan 0.0 9.0 1.8 0.0 0.0 0.0 0.2 0.0 0.1 0.0 0.0 0.0 0.0 0.0 0.0 0.0 0.0 0.0 0.0 0.0 0.0 0.0 0.0 0.0 0.0 0.2 0.0 0.0 0.0 0.0 0.0 0.0 0.0 0.0 0.0 0.0 0.0 0.0
nan nan nan nan nan nan 0.0 0.0 0.0 0.0 nan 0.2 0.8 0.6 0.0 0.0 0.0 0.0 0.0 0.0 0.0 0.0 0.0 0.0 0.0 0.0 0.0 0.0 0.0 0.0 0.0 0.5 0.9 0.4 0.0 0.0 0.3 0.0 0.0 0.0 0.0 0.0 0.0 0.0
nan nan nan nan nan nan 0.0 0.0 0.0 0.2 2.1 0.0 0.3 0.0 0.0 0.0 0.0 0.0 0.0 0.0 0.0 0.0 0.0 0.0 0.0 0.0 0.0 0.0 0.0 0.0 0.0 0.2 0.3 1.3 0.6 3.4 0.0 0.0 0.0 0.0 0.0 0.0 0.0 0.0
nan nan nan nan nan nan 0.0 0.0 0.0 0.0 2.9 0.1 0.0 0.0 0.0 0.0 0.0 0.0 0.0 0.0 0.0 0.0 0.0 0.1 0.0 0.2 0.0 0.0 0.0 0.0 0.0 0.0 2.4 3.3 1.9 0.4 0.0 0.0 0.0 0.0 0.0 0.0 0.0 0.0
nan nan nan nan nan nan 0.0 0.0 0.0 0.0 0.3 0.3 0.0 0.0 0.0 0.0 0.0 0.0 0.0 0.0 0.0 0.0 0.0 1.0 0.6 0.6 0.0 0.0 0.0 0.0 0.0 0.0 0.2 1.5 0.5 2.6 0.0 0.0 0.0 0.0 0.0 0.0 0.0 0.0
nan nan nan nan nan nan 0.0 0.0 0.0 0.0 1.2 0.0 0.0 0.0 0.1 0.0 0.0 0.1 0.0 0.0 0.0 0.0 1.2 2.1 1.1 0.6 0.0 0.2 0.1 0.4 0.5 0.4 1.0 0.7 1.4 0.3 0.0 0.0 0.0 0.6 0.1 0.0 0.0 0.0
nan nan nan nan nan nan 0.0 0.0 0.0 0.1 1.0 0.0 0.0 0.0 0.0 0.0 0.0 0.2 0.0 1.5 0.5 0.7 1.0 0.7 0.6 1.2 0.2 0.1 0.0 0.1 0.6 1.1 2.0 1.0 1.0 1.5 0.0 0.0 0.0 0.0 0.0 0.0 0.0 0.0
nan nan nan nan nan nan nan 0.0 0.0 0.0 0.0 0.1 0.0 0.0 0.0 0.0 0.0 0.0 0.0 0.0 0.0 0.0 0.0 0.3 0.3 1.1 2.0 0.0 0.5 0.0 0.3 0.1 0.9 0.1 0.3 0.0 0.0 0.0 0.0 0.0 0.0 0.0 0.0 0.0
nan nan nan nan nan nan nan 0.0 0.0 0.0 0.0 0.0 0.0 0.0 0.0 0.0 0.0 0.0 0.0 0.0 0.0 0.0 0.0 0.0 0.1 0.2 0.1 1.0 0.2 0.0 0.0 0.0 0.1 0.0 0.0 0.0 0.0 0.0 0.0 0.0 0.0 0.0 0.0 0.0
nan nan nan nan nan nan nan 0.0 0.0 0.0 0.0 2.2 0.1 0.0 0.0 0.0 0.0 0.0 0.0 0.0 0.0 0.0 0.0 0.2 0.3 0.8 0.0 0.3 0.1 0.1 0.0 0.0 0.0 0.0 0.0 0.0 0.0 0.0 0.0 0.0 0.0 0.0 0.0 0.0
nan nan nan nan nan nan nan 0.0 0.0 0.0 0.1 0.8 0.1 0.0 0.0 0.0 0.0 0.0 0.0 0.0 0.0 0.0 0.1 1.1 0.4 0.0 0.2 0.2 0.1 0.2 0.0 0.0 0.1 0.1 0.0 0.0 0.0 0.0 0.0 0.0 0.0 0.0 0.0 0.0
nan nan nan nan nan nan 0.0 0.4 0.0 0.0 0.0 0.3 0.9 0.0 0.0 0.0 0.0 0.0 0.0 0.0 0.0 0.0 0.0 0.4 0.0 0.0 0.0 1.5 0.2 0.0 0.0 0.0 0.0 0.0 0.0 0.0 0.0 0.0 0.0 0.0 0.0 0.0 0.0 0.0
nan nan nan nan nan 0.0 0.0 0.0 0.0 nan 0.0 0.4 1.8 0.2 0.0 0.0 0.0 0.0 0.0 0.0 0.0 0.0 0.0 0.2 0.1 0.0 0.0 0.7 0.8 0.0 0.0 0.0 0.0 0.0 0.0 0.0 0.0 0.0 0.0 0.0 0.0 0.0 0.0 0.0
nan nan nan nan nan nan 0.0 0.0 nan nan 0.0 0.0 3.9 1.6 0.3 0.0 0.4 0.4 0.0 0.1 0.1 0.0 0.0 0.2 0.2 0.1 0.3 1.0 0.1 0.0 0.0 0.0 0.0 0.0 0.0 0.0 0.0 0.0 0.0 0.0 0.0 0.0 0.0 0.0
nan nan nan 0.0 0.0 0.1 0.0 nan nan 0.0 0.0 1.0 3.8 4.3 5.3 0.0 0.2 0.3 0.2 0.0 1.4 0.0 0.5 0.3 0.1 0.6 3.6 1.3 0.2 0.1 0.0 0.0 0.0 0.0 0.0 0.0 0.0 0.0 0.0 0.0 0.0 0.0 0.0 0.0
nan 0.0 0.0 1.2 0.1 nan nan 0.0 0.2 0.1 0.1 0.2 1.6 0.1 2.5 0.1 0.8 1.2 1.0 0.7 1.8 1.5 1.6 0.0 1.3 2.7 0.7 0.3 0.2 0.1 0.2 0.1 0.0 0.0 0.0 0.0 0.0 0.0 0.0 0.0 0.0 0.0 0.1 0.0
0.0 0.2 1.8 0.0 nan 0.0 0.1 2.4 1.6 1.1 1.6 0.8 0.7 0.3 1.7 0.1 1.7 1.7 0.6 2.5 1.6 3.0 0.9 1.4 2.0 1.6 1.3 0.6 0.7 0.7 0.4 0.2 0.3 0.2 0.1 0.0 0.0 0.0 0.0 0.0 0.0 0.0 0.0 0.0
0.0 0.0 0.0 0.0 0.1 0.5 2.2 4.0 2.4 0.7 1.1 2.0 1.4 0.9 0.8 0.5 0.3 0.8 1.3 1.9 2.8 3.5 0.6 4.3 3.2 1.4 0.1 0.0 0.0 0.1 0.4 0.7 0.6 0.7 0.9 0.7 0.5 0.3 0.1 0.1 0.1 0.2 0.2 2.2
0.0 0.1 0.1 0.2 3.4 31.8 6.7 5.0 2.7 5.5 1.7 2.4 1.6 5.7 0.5 0.4 0.1 1.4 1.1 6.4 6.3 1.4 9.2 4.3 3.3 0.5 0.1 0.2 0.1 0.1 0.1 0.1 0.3 0.7 0.5 1.2 1.7 2.1 2.0 2.7 3.2 4.4 5.6 5.9
0.3 1.3 35.8 10.1 9.0 5.0 5.4 2.7 2.8 2.8 2.6 1.7 0.8 1.3 0.8 1.3 2.0 2.8 7.5 3.0 2.2 9.0 9.5 5.6 2.5 1.6 1.3 0.7 0.8 0.4 1.5 1.6 1.9 3.3 3.6 3.9 4.1 6.9 8.0 10.2 11.8 10.2 8.8 11.0
2.5 2.2 26.4 8.1 5.3 4.3 4.5 3.8 2.7 1.9 1.3 1.0 1.1 1.0 0.2 3.5 6.8 4.0 3.6 7.8 8.2 4.7 5.4 5.0 3.3 2.1 1.4 1.8 1.6 1.6 2.0 3.7 4.0 4.2 4.8 6.9 6.0 4.4 5.9 6.7 6.8 5.0 8.0 8.9
1.8 2.1 5.4 4.0 7.5 13.4 11.4 7.9 6.6 1.2 1.4 0.8 1.5 3.7 5.5 7.0 4.7 3.6 6.4 2.6 4.0 6.7 4.1 3.1 2.1 2.5 2.5 2.4 2.6 3.5 3.7 4.2 4.8 4.6 4.2 4.5 5.1 4.6 5.1 4.4 4.5 8.9 7.2 11.1
1.4 12.6 5.6 8.2 7.8 11.4 9.1 5.8 3.2 1.0 3.9 9.2 2.8 4.8 4.7 1.9 4.5 2.7 2.6 10.1 7.3 5.7 4.3 3.9 2.5 2.7 3.5 4.5 4.2 5.8 5.1 4.6 4.3 4.2 3.8 4.2 4.0 3.3 1.9 2.7 5.3 3.0 3.5 8.7

GFSNW_prec_sndepth_090.txt.gz
Snowfall_Accumulation
nan nan nan nan nan nan nan 0.0 2.1 0.0 0.0 1.4 0.9 1.2 0.0 nan 0.0 0.0 0.0 0.0 0.0 0.0 0.0 0.0 0.0 0.0 0.0 0.0 0.0 0.0 0.0 0.0 0.0 0.0 0.0 0.0 0.0 0.0 0.0 0.0 0.0 0.0 0.1 0.1
nan nan nan nan nan nan 0.0 0.0 0.0 0.0 0.0 3.7 0.4 0.0 0.0 0.0 0.0 0.0 0.0 0.0 0.0 0.0 0.0 0.0 0.0 0.0 0.0 0.0 0.0 0.0 0.0 0.0 0.0 0.0 0.0 0.0 0.0 0.0 0.0 0.0 0.0 0.0 0.7 0.1
nan nan nan nan nan nan 0.0 0.5 4.9 0.1 0.0 0.0 0.0 0.0 0.0 0.1 0.0 0.0 0.0 0.0 0.0 0.0 0.0 0.0 0.0 0.0 0.0 0.0 0.0 nan nan 0.0 0.0 0.0 0.1 0.0 0.0 0.0 0.0 0.0 0.1 0.0 0.0 0.0
nan nan nan nan nan nan 0.0 0.3 5.4 0.1 2.7 0.5 0.0 0.0 0.0 0.0 0.0 0.0 0.0 0.0 0.0 0.0 0.0 0.0 0.0 0.0 0.0 0.0 nan 0.0 0.0 0.0 0.0 0.0 0.0 0.0 0.0 0.0 0.0 0.0 0.0 0.0 0.0 0.0
nan nan nan nan nan nan 0.0 7.7 1.4 0.0 0.0 0.0 0.0 0.0 0.1 0.0 0.0 0.1 0.0 0.0 0.0 0.0 0.0 0.0 0.0 0.0 0.0 0.0 0.0 0.0 0.0 0.0 0.0 0.0 0.0 0.0 0.0 0.0 0.0 0.0 0.0 0.0 0.0 0.0
nan nan nan nan nan nan 0.0 0.0 0.0 0.0 nan 0.1 0.5 0.4 0.0 0.0 0.0 0.0 0.0 0.0 0.0 0.0 0.0 0.0 0.0 0.0 0.0 0.0 0.0 0.0 0.0 0.2 0.4 0.1 0.0 0.0 0.2 0.0 0.0 0.0 0.0 0.0 0.0 0.0
nan nan nan nan nan nan 0.0 0.0 0.0 0.2 1.5 0.0 0.2 0.0 0.0 0.0 0.0 0.0 0.0 0.0 0.0 0.0 0.0 0.0 0.0 0.0 0.0 0.0 0.0 0.0 0.0 0.0 0.2 0.8 0.2 2.2 0.0 0.0 0.0 0.0 0.0 0.0 0.0 0.0
nan nan nan nan nan nan 0.0 0.0 0.0 0.0 2.2 0.0 0.0 0.0 0.0 0.0 0.0 0.0 0.0 0.0 0.0 0.0 0.0 0.1 0.0 0.1 0.0 0.0 0.0 0.0 0.0 0.0 1.8 2.3 1.1 0.1 0.0 0.0 0.0 0.0 0.0 0.0 0.0 0.0
nan nan nan nan nan nan 0.0 0.0 0.0 0.0 0.3 0.1 0.0 0.0 0.0 0.0 0.0 0.0 0.0 0.0 0.0 0.0 0.0 0.8 0.2 0.4 0.0 0.0 0.0 0.0 0.0 0.0 0.1 0.9 0.2 1.8 0.0 0.0 0.0 0.0 0.0 0.0 0.0 0.0
nan nan nan nan nan nan 0.0 0.0 0.0 0.0 1.5 0.0 0.0 0.0 0.0 0.0 0.0 0.0 0.0 0.0 0.0 0.0 1.0 1.6 0.8 0.4 0.0 0.1 0.0 0.1 0.3 0.3 0.7 0.4 0.9 0.2 0.0 0.0 0.0 0.8 0.1 0.0 0.0 0.0
nan nan nan nan nan nan 0.0 0.0 0.0 0.1 1.1 0.0 0.0 0.0 0.0 0.0 0.0 0.1 0.0 1.6 0.6 1.0 1.1 0.5 0.4 0.8 0.1 0.1 0.0 0.0 0.3 0.7 1.4 0.6 0.7 1.0 0.0 0.0 0.0 0.0 0.0 0.0 0.0 0.0
nan nan nan nan nan nan nan 0.0 0.0 0.0 0.0 0.0 0.0 0.0 0.0 0.0 0.0 0.0 0.0 0.0 0.0 0.0 0.0 0.2 0.2 0.7 1.2 0.0 0.3 0.0 0.2 0.1 0.7 0.0 0.2 0.0 0.0 0.0 0.0 0.0 0.0 0.0 0.0 0.0
nan nan nan nan nan nan nan 0.0 0.0 0.0 0.1 0.0 0.0 0.0 0.0 0.0 0.0 0.0 0.0 0.0 0.0 0.0 0.0 0.0 0.1 0.1 0.0 0.7 0.1 0.0 0.0 0.0 0.1 0.0 0.0 0.0 0.0 0.0 0.0 0.0 0.0 0.0 0.0 0.0
nan nan nan nan nan nan nan 0.0 0.0 0.0 0.0 1.7 0.0 0.0 0.0 0.0 0.0 0.0 0.0 0.0 0.0 0.0 0.0 0.1 0.3 0.6 0.0 0.2 0.1 0.0 0.0 0.0 0.0 0.0 0.0 0.0 0.0 0.0 0.0 0.0 0.0 0.0 0.0 0.0
nan nan nan nan nan nan nan 0.0 0.0 0.0 0.0 0.6 0.0 0.0 0.0 0.0 0.0 0.0 0.0 0.0 0.0 0.0 0.1 0.8 0.3 0.0 0.1 0.1 0.1 0.1 0.0 0.0 0.1 0.1 0.0 0.0 0.0 0.0 0.0 0.0 0.0 0.0 0.0 0.0
nan nan nan nan nan nan 0.0 1.1 0.0 0.0 0.0 0.2 0.6 0.0 0.0 0.0 0.0 0.0 0.0 0.0 0.0 0.0 0.0 0.3 0.0 0.0 0.0 1.1 0.2 0.0 0.0 0.0 0.0 0.0 0.0 0.0 0.0 0.0 0.0 0.0 0.0 0.0 0.0 0.0
nan nan nan nan nan 0.0 0.2 0.0 0.0 nan 0.0 0.3 1.0 0.2 0.0 0.0 0.0 0.0 0.0 0.0 0.0 0.0 0.0 0.2 0.0 0.0 0.0 0.5 1.1 0.1 0.0 0.0 0.0 0.0 0.0 0.0 0.0 0.0 0.0 0.0 0.0 0.0 0.0 0.0
nan nan nan nan nan nan 0.0 0.0 nan nan 0.0 0.0 2.7 1.2 0.2 0.0 0.3 0.3 0.0 0.0 0.1 0.0 0.0 0.1 0.1 0.0 0.2 1.9 0.0 0.0 0.0 0.0 0.0 0.0 0.0 0.0 0.0 0.0 0.0 0.0 0.0 0.0 0.0 0.0
nan nan nan 0.0 0.0 0.1 0.0 nan nan 0.0 0.0 0.6 2.7 3.1 4.9 0.0 0.2 0.3 0.2 0.0 1.6 0.0 0.5 0.2 0.1 0.9 3.8 1.4 0.2 0.0 0.0 0.0 0.0 0.0 0.0 0.0 0.0 0.0 0.0 0.0 0.0 0.0 0.0 0.0
nan 0.0 0.0 3.1 0.1 nan nan 0.0 0.1 0.1 0.0 0.1 1.0 0.1 1.6 0.1 0.7 1.0 0.8 0.5 1.7 1.5 1.3 0.0 1.1 3.1 0.4 0.1 0.1 0.1 0.1 0.0 0.0 0.0 0.0 0.0 0.0 0.0 0.0 0.0 0.0 0.0 0.0 0.0
0.0 0.1 1.6 0.0 nan 0.0 0.1 2.2 1.2 0.7 1.1 0.5 0.4 0.2 1.2 0.1 1.3 1.4 0.4 2.3 1.3 2.3 0.7 1.2 1.8 1.5 0.9 0.2 0.3 0.2 0.2 0.1 0.1 0.1 0.0 0.0 0.0 0.0 0.0 0.0 0.0 0.0 0.0 0.1
0.0 0.0 0.0 0.0 0.1 0.4 1.2 2.9 1.9 0.4 0.6 1.5 1.1 0.7 0.6 0.6 0.3 0.6 1.1 2.6 2.3 2.5 0.8 3.5 3.0 1.3 0.0 0.0 0.0 0.0 0.2 0.3 0.3 0.3 0.5 0.4 0.2 0.2 0.1 0.0 0.1 0.1 0.2 2.3
0.0 0.0 0.1 0.2 2.8 25.7 5.1 4.1 2.1 5.0 1.3 2.0 1.4 5.4 0.8 0.4 0.2 1.4 0.9 5.8 7.7 1.0 8.3 3.7 3.5 0.4 0.1 0.1 0.0 0.1 0.0 0.1 0.2 0.4 0.3 0.7 1.3 1.9 1.9 2.7 3.3 4.4 5.7 6.1
0.2 0.8 31.4 9.0 7.7 4.5 5.1 2.6 2.6 2.6 2.5 1.8 1.5 2.0 1.8 1.5 2.7 3.2 6.3 2.5 1.7 7.7 8.7 5.3 2.6 1.5 0.9 0.4 0.4 0.2 1.2 1.5 1.7 3.2 3.6 3.9 4.2 7.0 8.1 10.4 11.9 10.3 9.0 11.6
1.9 1.6 21.5 8.1 4.4 3.9 4.4 3.5 2.8 2.7 1.8 1.8 1.9 1.1 0.5 3.3 6.9 3.3 2.6 6.9 7.5 4.1 5.6 5.3 3.3 1.7 1.0 1.5 1.2 1.3 1.9 3.7 4.1 4.2 4.8 7.0 6.1 4.6 6.2 7.2 7.4 5.4 8.7 9.8
1.2 1.5 4.6 3.4 6.9 13.8 11.6 8.6 7.7 1.5 2.1 1.6 1.6 3.1 5.3 6.3 4.1 2.6 5.2 1.9 3.7 7.1 4.4 3.4 1.9 2.4 2.4 2.5 2.5 3.4 3.7 4.2 4.8 4.6 4.2 4.5 5.3 5.0 5.6 4.9 5.1 9.7 8.0 12.1
0.7 12.7 5.5 7.8 7.4 11.7 9.5 6.3 3.3 0.8 3.4 8.3 2.0 3.9 3.6 1.4 3.9 2.1 2.5 10.3 7.8 5.7 4.3 3.9 2.3 2.6 3.5 4.4 4.2 5.9 5.1 4.6 4.3 4.2 3.9 4.5 4.4 3.8 2.2 3.0 6.2 3.7 4.3 9.5

GFSNW_prec_sndepth_093.txt.gz
Snowfall_Accumulation
nan nan nan nan nan nan nan 0.0 2.0 0.0 0.0 1.4 0.9 1.2 0.0 nan 0.0 0.0 0.0 0.0 0.0 0.0 0.1 0.1 0.0 0.2 0.0 0.0 0.0 0.0 0.0 0.0 0.0 0.0 0.0 0.0 0.0 0.0 0.0 0.0 0.0 0.0 0.0 0.1
nan nan nan nan nan nan 0.0 0.0 0.0 0.0 0.0 3.7 0.4 0.0 0.0 0.0 0.0 0.0 0.0 0.0 0.0 0.0 0.0 0.0 0.0 0.0 0.0 0.0 0.0 0.0 0.0 0.0 0.0 0.0 0.0 0.0 0.0 0.0 0.0 0.0 0.0 0.0 0.8 0.1
nan nan nan nan nan nan 0.0 0.5 4.8 0.1 0.0 0.0 0.0 0.0 0.1 0.1 0.0 0.0 0.0 0.0 0.0 0.0 0.0 0.0 0.0 0.0 0.0 0.0 0.0 nan nan 0.0 0.0 0.0 0.3 0.0 0.0 0.0 0.0 0.0 0.1 0.0 0.0 0.0
nan nan nan nan nan nan 0.0 0.3 5.4 0.1 2.7 0.5 0.0 0.0 0.0 0.0 0.0 0.0 0.0 0.0 0.0 0.0 0.0 0.0 0.0 0.0 0.0 0.0 nan 0.0 0.0 0.0 0.0 0.0 0.0 0.0 0.0 0.0 0.0 0.0 0.0 0.0 0.0 0.0
nan nan nan nan nan nan 0.0 7.4 1.3 0.0 0.0 0.0 0.3 0.0 0.0 0.0 0.0 0.0 0.0 0.0 0.0 0.0 0.0 0.0 0.0 0.0 0.0 0.0 0.0 0.0 0.0 0.0 0.0 0.0 0.0 0.0 0.0 0.0 0.0 0.0 0.0 0.0 0.0 0.0
nan nan nan nan nan nan 0.0 0.0 0.0 0.0 nan 0.0 0.4 0.3 0.0 0.0 0.0 0.0 0.0 0.0 0.0 0.1 0.0 0.0 0.0 0.0 0.0 0.0 0.0 0.0 0.0 0.2 0.4 0.1 0.0 0.0 0.2 0.0 0.0 0.0 0.0 0.0 0.0 0.0
nan nan nan nan nan nan 0.0 0.0 0.0 0.3 1.5 0.0 0.2 0.0 0.0 0.0 0.0 0.0 0.0 0.0 0.0 0.0 0.0 0.0 0.0 0.0 0.0 0.0 0.0 0.0 0.0 0.0 0.2 0.8 0.2 2.2 0.0 0.0 0.0 0.0 0.0 0.0 0.0 0.0
nan nan nan nan nan nan 0.0 0.0 0.0 0.0 2.2 0.0 0.0 0.0 0.0 0.0 0.0 0.0 0.0 0.0 0.0 0.0 0.0 0.1 0.0 0.1 0.0 0.0 0.0 0.0 0.0 0.0 1.7 2.3 1.1 0.1 0.0 0.0 0.0 0.0 0.0 0.0 0.0 0.0
nan nan nan nan nan nan 0.0 0.0 0.0 0.0 0.4 0.1 0.0 0.0 0.0 0.1 0.0 0.0 0.0 0.0 0.0 0.0 0.0 0.8 0.2 0.4 0.0 0.0 0.0 0.0 0.0 0.0 0.1 0.9 0.2 1.8 0.0 0.0 0.0 0.0 0.0 0.0 0.0 0.0
nan nan nan nan nan nan 0.0 0.0 0.0 0.0 2.0 0.0 0.0 0.0 0.0 0.0 0.0 0.0 0.0 0.0 0.0 0.0 1.0 1.7 0.8 0.4 0.0 0.2 0.0 0.1 0.2 0.3 0.7 0.4 1.0 0.2 0.0 0.0 0.0 1.1 0.1 0.0 0.0 0.0
nan nan nan nan nan nan 0.0 0.0 0.0 0.1 1.4 0.0 0.0 0.0 0.0 0.0 0.0 0.2 0.0 1.7 0.6 0.9 1.1 0.5 0.4 0.8 0.1 0.0 0.1 0.0 0.3 0.8 1.4 0.6 0.8 1.0 0.0 0.0 0.3 0.3 0.0 0.0 0.0 0.0
nan nan nan nan nan nan nan 0.0 0.0 0.0 0.0 0.0 0.0 0.0 0.0 0.0 0.0 0.0 0.0 0.0 0.0 0.0 0.0 0.2 0.2 0.7 1.2 0.1 0.3 0.0 0.3 0.1 0.7 0.0 0.2 0.0 0.0 0.0 0.0 0.0 0.0 0.0 0.0 0.0
nan nan nan nan nan nan nan 0.0 0.0 0.0 0.1 0.0 0.0 0.0 0.0 0.0 0.0 0.0 0.1 0.0 0.0 0.0 0.0 0.0 0.1 0.1 0.0 0.8 0.2 0.0 0.0 0.0 0.1 0.0 0.0 0.0 0.0 0.0 0.0 0.0 0.0 0.0 0.0 0.0
nan nan nan nan nan nan nan 0.0 0.0 0.0 0.0 1.7 0.0 0.0 0.0 0.0 0.0 0.0 0.0 0.0 0.0 0.0 0.0 0.1 0.3 0.6 0.0 0.2 0.1 0.0 0.0 0.0 0.0 0.0 0.0 0.0 0.0 0.0 0.0 0.0 0.0 0.0 0.0 0.0
nan nan nan nan nan nan nan 0.0 0.0 0.0 0.0 0.6 0.0 0.0 0.0 0.0 0.0 0.0 0.0 0.0 0.0 0.0 0.1 0.8 0.3 0.0 0.1 0.1 0.1 0.1 0.0 0.5 0.8 2.1 0.2 0.0 0.0 0.0 0.0 0.0 0.0 0.0 0.0 0.0
nan nan nan nan nan nan 0.0 1.9 0.0 0.0 0.0 0.2 0.6 0.0 0.0 0.0 0.0 0.0 0.0 0.0 0.0 0.0 0.0 0.3 0.0 0.0 0.0 1.1 0.2 0.0 0.0 0.0 0.0 0.0 0.0 0.0 0.0 0.0 0.0 0.0 0.0 0.0 0.0 0.0
nan nan nan nan nan 0.0 0.2 0.0 0.0 nan 0.0 0.3 1.0 0.3 0.0 0.0 0.0 0.0 0.0 0.0 0.0 0.0 0.0 0.2 0.0 0.0 0.0 0.5 1.5 0.3 0.4 0.0 0.0 0.0 0.0 0.0 0.0 0.0 0.0 0.0 0.0 0.0 0.0 0.0
nan nan nan nan nan nan 0.0 0.0 nan nan 0.0 0.0 2.6 1.2 0.2 0.0 0.3 0.3 0.0 0.0 0.1 0.0 0.0 0.1 0.1 0.0 0.2 2.8 0.1 0.0 0.1 0.0 0.0 0.0 0.0 0.0 0.0 0.0 0.0 0.0 0.0 0.0 0.0 0.0
nan nan nan 0.0 0.0 0.1 0.0 nan nan 0.0 0.0 0.6 2.6 3.3 5.6 0.0 0.2 0.3 0.2 0.0 2.5 0.1 0.5 0.2 0.1 1.2 5.2 1.7 0.6 0.3 0.0 0.0 0.0 0.0 0.0 0.0 0.0 0.0 0.0 0.0 0.0 0.0 0.0 0.0
nan 0.0 0.0 4.5 0.0 nan nan 0.0 0.2 0.1 0.0 0.1 1.0 0.1 1.6 0.1 0.7 0.9 0.8 0.5 1.6 1.6 1.3 0.0 1.1 3.3 0.4 0.1 0.1 0.0 0.1 0.0 0.0 0.0 0.0 0.0 0.0 0.0 0.0 0.0 0.0 0.0 0.0 0.0
0.0 0.1 1.4 0.0 nan 0.0 0.1 2.8 1.3 0.7 1.1 0.5 0.4 0.2 1.1 0.1 1.7 1.3 0.4 2.2 1.2 2.3 0.7 1.2 1.9 1.7 1.1 0.2 0.2 0.2 0.1 0.1 0.1 0.1 0.0 0.0 0.0 0.1 0.0 0.0 0.0 0.0 0.0 0.1
0.0 0.0 0.0 0.0 0.0 0.4 1.1 2.9 1.8 0.4 0.7 1.4 1.1 0.7 0.5 0.5 0.2 0.9 1.1 2.5 2.2 2.6 0.7 3.6 3.2 1.7 0.0 0.0 0.0 0.0 0.2 0.3 0.3 0.3 0.5 0.4 0.3 0.2 0.1 0.1 0.1 0.1 0.3 2.4
0.0 0.0 0.1 0.2 2.7 32.4 5.1 4.1 2.0 4.9 1.3 1.9 1.4 5.2 0.7 0.4 0.2 1.4 0.9 5.7 7.5 1.0 8.4 3.9 3.7 0.4 0.1 0.1 0.0 0.1 0.0 0.1 0.2 0.4 0.3 0.7 1.3 1.9 1.9 2.7 3.4 4.5 5.9 6.4
0.2 0.8 38.3 8.9 7.6 4.5 5.1 2.7 2.7 2.7 2.4 1.7 1.4 1.9 1.7 1.4 2.6 4.9 6.4 2.4 1.7 8.3 9.0 5.5 2.8 1.5 0.9 0.4 0.4 0.2 1.2 1.5 1.7 3.3 3.6 3.9 4.2 7.1 8.1 10.4 11.9 10.3 9.0 11.7
1.9 1.6 27.3 8.2 4.4 3.9 4.5 3.6 2.7 2.6 1.7 1.7 1.9 1.1 0.5 3.2 6.9 3.4 2.6 6.9 7.5 4.2 5.8 5.5 3.5 1.8 1.0 1.5 1.2 1.3 1.9 3.7 4.1 4.2 4.8 7.0 6.1 4.6 6.3 7.3 7.5 5.5 8.9 10.0
1.2 1.5 4.7 3.4 7.1 13.9 11.6 8.8 7.9 1.6 2.2 1.8 2.1 3.4 5.5 6.6 4.7 2.8 5.3 2.0 3.8 7.5 4.8 3.5 1.8 2.4 2.4 2.5 2.5 3.4 3.7 4.2 4.8 4.6 4.2 4.5 5.3 5.0 5.7 4.9 5.1 9.8 8.1 12.2
0.7 12.9 5.6 8.0 7.5 11.9 9.8 6.6 3.6 1.1 4.1 8.9 2.3 4.3 4.2 1.4 4.0 2.4 2.6 10.5 8.1 5.8 4.3 3.9 2.3 2.6 3.5 4.5 4.2 5.9 5.1 4.6 4.3 4.3 4.0 4.6 4.5 3.8 2.2 3.0 6.3 3.8 4.4 9.6

GFSNW_prec_sndepth_099.txt.gz
Snowfall_Accumulation
nan nan nan nan nan nan nan 0.0 2.1 0.0 0.0 1.5 0.9 1.2 0.0 nan 0.0 0.0 0.0 0.0 0.0 0.1 0.4 0.2 0.0 0.2 0.0 0.0 0.0 0.0 0.0 0.0 0.0 0.0 0.0 0.0 0.0 0.0 0.0 0.0 0.0 0.0 0.0 0.1
nan nan nan nan nan nan 0.0 0.0 0.0 0.0 0.0 4.1 0.4 0.0 0.0 0.0 0.0 0.0 0.0 0.0 0.0 0.0 0.3 0.6 0.3 0.0 0.0 0.0 0.0 0.0 0.0 0.0 0.1 0.0 0.0 0.0 0.0 0.0 0.0 0.0 0.0 0.0 0.8 0.1
nan nan nan nan nan nan 0.0 0.5 4.9 0.1 0.0 0.1 0.1 0.0 0.1 0.1 0.0 0.0 0.0 0.0 0.0 0.0 0.0 0.0 0.2 0.2 0.0 0.0 0.0 nan nan 0.0 0.1 0.1 0.3 0.0 0.1 0.0 0.0 0.0 0.1 0.0 0.0 0.0
nan nan nan nan nan nan 0.0 0.3 5.4 0.1 3.3 0.5 0.0 0.2 0.1 0.0 0.0 0.0 0.0 0.0 0.0 0.0 0.0 0.0 0.0 0.0 0.1 0.0 nan 0.0 0.0 0.4 0.0 0.0 0.0 0.0 0.0 0.0 0.0 0.0 0.0 0.0 0.0 0.0
nan nan nan nan nan nan 0.0 7.4 1.3 0.0 0.0 0.0 0.3 0.0 0.1 0.0 0.0 0.0 0.0 0.0 0.0 0.0 0.0 0.0 0.2 0.0 0.1 0.0 0.0 0.0 0.0 0.2 0.0 0.0 0.0 0.0 0.0 0.0 0.0 0.0 0.0 0.0 0.0 0.0
nan nan nan nan nan nan 0.0 0.0 0.0 0.0 nan 0.0 0.5 0.3 0.0 0.0 0.0 0.0 0.0 0.0 0.0 0.1 0.0 0.0 0.0 0.0 0.0 0.0 0.0 0.0 0.0 0.2 0.4 0.1 0.0 0.0 0.2 0.0 0.0 0.0 0.0 0.0 0.0 0.0
nan nan nan nan nan nan 0.0 0.0 0.0 0.3 1.5 0.0 0.1 0.0 0.0 0.0 0.0 0.0 0.0 0.0 0.0 0.0 0.0 0.0 0.0 0.0 0.0 0.0 0.0 0.0 0.0 0.0 0.2 0.8 0.2 2.2 0.0 0.0 0.0 0.0 0.0 0.0 0.0 0.0
nan nan nan nan nan nan 0.0 0.0 0.0 0.0 2.2 0.0 0.0 0.0 0.0 0.0 0.0 0.0 0.0 0.0 0.0 0.0 0.0 0.1 0.0 0.1 0.0 0.0 0.0 0.0 0.0 0.0 1.7 2.3 1.1 0.1 0.0 0.0 0.0 0.0 0.2 0.0 0.0 0.0
nan nan nan nan nan nan 0.0 0.0 0.0 0.0 0.5 0.1 0.0 0.0 0.0 0.1 0.0 0.0 0.0 0.0 0.0 0.0 0.0 1.9 0.3 0.4 0.1 0.1 0.0 0.0 0.0 0.0 0.1 0.9 0.2 1.8 0.0 0.0 0.0 0.0 0.2 0.0 0.0 0.0
nan nan nan nan nan nan 0.0 0.0 0.0 0.1 2.6 0.0 0.0 0.0 0.0 0.0 0.0 0.1 0.0 0.0 0.0 0.0 1.0 1.8 0.8 0.4 0.0 0.2 0.1 0.3 0.3 0.3 0.7 0.4 1.1 0.2 0.0 0.0 0.0 1.3 0.1 0.0 0.0 0.0
nan nan nan nan nan nan 0.0 0.0 0.0 0.1 1.4 0.0 0.0 0.0 0.0 0.0 0.0 0.3 0.0 1.9 0.6 0.8 1.1 0.5 0.4 0.8 0.1 0.1 0.1 1.1 0.4 0.9 1.5 0.8 0.9 1.1 0.0 0.0 0.3 0.5 0.0 0.0 0.0 0.0
nan nan nan nan nan nan nan 0.0 0.0 0.0 0.0 0.1 0.0 0.0 0.0 0.0 0.0 0.0 0.0 0.3 0.4 0.1 0.0 0.2 0.2 0.9 1.4 0.4 1.0 0.5 1.4 0.1 0.7 0.0 0.2 0.0 0.0 0.0 0.0 0.0 0.0 0.0 0.0 0.0
nan nan nan nan nan nan nan 0.0 0.0 0.0 0.1 0.0 0.0 0.0 0.0 0.0 0.0 0.0 0.1 0.0 0.0 0.0 0.0 0.0 0.1 0.2 0.1 1.1 0.4 1.3 0.4 0.0 0.1 0.0 0.0 0.0 0.0 0.0 0.0 0.0 0.0 0.0 0.0 0.0
nan nan nan nan nan nan nan 0.0 0.0 0.0 0.0 1.9 0.0 0.0 0.0 0.0 0.0 0.0 0.0 0.0 0.0 0.0 0.0 0.1 0.3 0.6 0.0 0.2 0.1 0.2 0.2 0.0 0.6 0.2 0.3 0.0 0.0 0.0 0.0 0.0 0.0 0.0 0.0 0.0
nan nan nan nan nan nan nan 0.0 0.0 0.0 0.0 0.6 0.0 0.0 0.0 0.0 0.0 0.0 0.0 0.0 0.0 0.0 0.8 1.7 0.4 0.0 0.3 0.1 0.1 0.5 0.3 0.5 2.1 4.9 1.0 0.1 0.1 0.0 0.0 0.0 0.0 0.0 0.0 0.0
nan nan nan nan nan nan 0.0 1.8 0.0 0.0 0.0 0.3 0.6 0.0 0.0 0.0 0.0 0.0 0.0 0.0 0.0 0.0 0.0 0.3 0.0 0.0 0.0 3.1 1.4 0.1 0.0 0.0 0.2 1.5 1.3 0.4 0.4 0.0 0.0 0.0 0.0 0.0 0.0 0.0
nan nan nan nan nan 0.0 0.2 0.0 0.0 nan 0.0 0.4 1.3 0.3 0.0 0.0 0.0 0.0 0.0 0.0 0.0 0.0 0.0 0.2 0.0 0.0 0.0 1.1 1.7 0.5 0.7 0.2 0.4 0.1 0.0 0.1 0.1 0.0 0.0 0.0 0.0 0.0 0.0 0.0
nan nan nan nan nan nan 0.0 0.0 nan nan 0.0 0.0 2.9 1.2 0.2 0.0 0.3 0.3 0.0 0.0 0.1 0.0 0.0 0.1 0.1 0.0 0.4 3.3 0.1 0.1 0.3 0.1 0.6 0.5 0.0 0.0 0.0 0.0 0.0 0.0 0.0 0.0 0.0 0.0
nan nan nan 0.0 0.0 0.1 0.0 nan nan 0.0 0.0 0.6 2.6 3.3 5.9 0.0 0.2 0.2 0.2 0.0 2.9 0.1 0.5 0.2 0.1 1.6 6.0 2.1 0.6 0.4 0.3 0.5 0.4 0.1 0.0 0.0 0.0 0.0 0.0 0.0 0.0 0.0 0.0 0.0
nan 0.0 0.1 6.8 0.1 nan nan 0.0 0.9 0.1 0.0 0.1 1.1 0.1 1.8 0.2 0.6 1.0 0.7 0.5 1.6 2.5 2.3 0.2 2.0 3.7 0.6 0.3 0.4 0.3 0.2 0.0 0.0 0.0 0.0 0.0 0.0 0.0 0.0 0.0 0.0 0.0 0.0 0.0
0.0 0.6 2.0 0.0 nan 0.0 0.6 5.2 2.6 0.9 1.3 0.5 0.4 0.2 1.3 0.1 3.8 2.7 0.4 2.3 1.2 2.4 0.9 1.7 2.8 1.9 1.4 0.3 0.2 0.2 0.1 0.1 0.1 0.1 0.1 0.0 0.1 0.1 0.1 0.0 0.0 0.0 0.0 0.2
0.0 0.0 0.0 0.0 0.2 1.6 1.6 3.1 1.8 0.4 0.7 1.4 1.1 0.7 0.5 0.5 0.5 1.4 1.4 2.5 2.2 2.6 0.7 4.0 3.4 2.2 0.3 0.0 0.0 0.0 0.2 0.3 0.3 0.3 0.5 0.4 0.3 0.3 0.1 0.1 0.1 0.2 0.3 2.4
0.0 0.0 0.3 0.7 4.8 32.9 5.2 4.1 2.2 5.1 1.5 1.8 1.3 5.1 0.7 0.4 0.2 2.4 3.1 5.7 7.5 0.9 8.8 4.2 3.8 0.6 0.1 0.1 0.0 0.1 0.0 0.1 0.2 0.4 0.3 0.7 1.3 1.9 1.9 2.8 3.4 4.5 5.9 6.5
0.2 0.8 37.8 9.1 7.6 4.6 5.2 2.7 2.7 2.8 2.5 1.8 1.3 1.8 1.7 1.4 2.6 5.2 7.0 2.8 1.8 9.0 9.2 5.6 3.2 1.7 1.0 0.4 0.4 0.2 1.2 1.5 1.7 3.3 3.6 3.9 4.2 7.2 8.2 10.5 11.9 10.3 9.1 12.0
1.9 1.6 27.0 8.2 4.5 4.0 4.7 3.7 2.8 2.7 1.7 1.8 1.9 1.1 0.5 3.2 6.9 3.7 3.2 7.2 7.7 4.3 6.0 5.7 3.7 1.8 1.0 1.5 1.3 1.4 1.9 3.8 4.1 4.2 4.8 7.0 6.2 4.6 6.4 7.4 7.6 5.6 8.9 10.0
1.2 1.5 4.8 3.4 7.1 13.9 11.7 8.8 8.0 1.7 2.2 1.9 2.3 3.4 5.6 6.7 4.8 2.8 5.4 2.1 3.8 7.7 5.0 3.7 1.9 2.4 2.4 2.5 2.6 3.4 3.8 4.3 4.8 4.6 4.2 4.6 5.3 5.0 5.9 5.0 5.2 9.9 8.1 12.2
0.7 13.1 5.9 8.3 7.7 12.2 9.9 6.8 3.8 1.4 4.6 9.4 2.3 4.3 4.4 1.4 4.0 2.5 2.8 10.6 8.2 5.9 4.5 3.9 2.3 2.7 3.5 4.5 4.2 5.9 5.1 4.6 4.3 4.3 4.0 4.7 4.5 3.8 2.2 3.0 6.5 3.8 4.5 9.7

GFSNW_prec_sndepth_102.txt.gz
Snowfall_Accumulation
nan nan nan nan nan nan nan 0.0 2.1 0.0 0.0 1.5 0.9 1.2 0.0 nan 0.0 0.0 0.0 0.0 0.0 0.1 0.4 0.2 0.0 0.2 0.0 0.0 0.0 0.0 0.0 0.0 0.0 0.0 0.0 0.0 0.0 0.0 0.0 0.0 0.0 0.0 0.0 0.1
nan nan nan nan nan nan 0.0 0.0 0.0 0.0 0.0 4.4 0.5 0.0 0.0 0.0 0.0 0.0 0.0 0.0 0.0 0.0 0.3 0.6 0.3 0.0 0.0 0.0 0.0 0.0 0.0 0.0 0.1 0.0 0.0 0.0 0.0 0.0 0.0 0.0 0.0 0.0 0.8 0.1
nan nan nan nan nan nan 0.0 0.5 4.9 0.1 0.0 0.1 0.3 0.1 0.2 0.1 0.0 0.0 0.0 0.0 0.0 0.0 0.0 0.0 0.2 0.2 0.0 0.0 0.0 nan nan 0.0 0.1 0.2 0.3 0.0 0.1 0.0 0.0 0.0 0.1 0.0 0.0 0.0
nan nan nan nan nan nan 0.0 0.3 5.4 0.1 3.4 0.7 0.0 0.2 0.1 0.0 0.0 0.0 0.0 0.0 0.0 0.0 0.0 0.0 0.0 0.0 0.0 0.0 nan 0.0 0.0 0.4 0.0 0.0 0.0 0.0 0.0 0.0 0.0 0.0 0.0 0.0 0.0 0.0
nan nan nan nan nan nan 0.0 7.4 1.3 0.0 0.0 0.0 0.3 0.0 0.1 0.0 0.0 0.0 0.0 0.0 0.0 0.0 0.1 0.0 0.2 0.0 0.1 0.0 0.0 0.0 0.0 0.9 0.1 0.2 0.0 0.0 0.0 0.0 0.0 0.0 0.0 0.0 0.0 0.0
nan nan nan nan nan nan 0.0 0.0 0.0 0.0 nan 0.0 0.5 0.3 0.0 0.1 0.0 0.0 0.0 0.0 0.0 0.1 0.0 0.0 0.0 0.0 0.0 0.0 0.0 0.0 0.0 0.2 0.4 0.1 0.0 0.0 0.2 0.0 0.0 0.0 0.0 0.0 0.0 0.0
nan nan nan nan nan nan 0.0 0.0 0.0 0.3 1.5 0.0 0.1 0.0 0.0 0.0 0.0 0.0 0.0 0.0 0.0 0.0 0.0 0.0 0.0 0.0 0.0 0.0 0.0 0.0 0.0 0.0 0.2 0.8 0.2 2.2 0.0 0.0 0.0 0.0 0.0 0.0 0.0 0.0
nan nan nan nan nan nan 0.0 0.0 0.0 0.0 2.2 0.0 0.0 0.0 0.0 0.0 0.0 0.0 0.0 0.0 0.0 0.0 0.0 0.2 0.0 0.1 0.0 0.0 0.0 0.0 0.0 0.0 1.7 2.3 1.1 0.1 0.0 0.0 0.0 0.0 0.4 0.0 0.0 0.0
nan nan nan nan nan nan 0.0 0.0 0.0 0.0 0.5 0.1 0.0 0.0 0.0 0.1 0.0 0.0 0.0 0.0 0.0 0.0 0.0 2.2 0.4 0.4 0.2 0.1 0.0 0.0 0.0 0.0 0.1 0.9 0.2 1.8 0.0 0.0 0.0 0.0 0.3 0.0 0.0 0.0
nan nan nan nan nan nan 0.0 0.0 0.0 0.1 2.9 0.0 0.0 0.0 0.0 0.0 0.0 0.1 0.0 0.0 0.0 0.0 1.0 1.9 0.9 0.4 0.0 0.2 0.1 0.3 0.3 0.3 0.7 0.4 1.1 0.2 0.0 0.0 0.0 1.3 0.1 0.0 0.0 0.0
nan nan nan nan nan nan 0.0 0.0 0.0 0.1 1.4 0.0 0.0 0.0 0.0 0.0 0.0 0.3 0.0 1.9 0.6 0.8 1.1 0.6 0.5 0.8 0.1 0.1 0.2 1.1 0.4 0.9 1.5 0.8 1.0 1.1 0.0 0.0 0.3 0.5 0.0 0.0 0.0 0.0
nan nan nan nan nan nan nan 0.0 0.0 0.0 0.0 0.1 0.0 0.0 0.0 0.0 0.0 0.0 0.0 0.2 0.4 0.1 1.0 0.5 0.3 1.0 1.4 0.4 1.0 0.4 1.9 0.3 0.7 0.0 0.2 0.0 0.0 0.0 0.0 0.0 0.0 0.0 0.0 0.0
nan nan nan nan nan nan nan 0.0 0.0 0.0 0.3 0.0 0.0 0.0 0.0 0.0 0.0 0.0 0.1 0.0 0.0 0.0 0.0 0.0 0.2 0.4 0.1 1.1 0.4 1.2 0.4 0.1 1.0 0.1 0.0 0.0 0.0 0.0 0.0 0.0 0.0 0.0 0.0 0.0
nan nan nan nan nan nan nan 0.0 0.0 0.0 0.0 2.0 0.0 0.0 0.0 0.0 0.0 0.0 0.0 0.0 0.0 0.0 0.0 0.1 0.6 0.6 0.0 0.3 0.1 0.2 0.2 0.7 2.6 0.4 0.5 0.1 0.0 0.0 0.0 0.0 0.0 0.0 0.0 0.0
nan nan nan nan nan nan nan 0.0 0.0 0.0 0.1 0.7 0.0 0.0 0.0 0.0 0.0 0.0 0.0 0.0 0.0 0.0 0.8 2.6 1.8 0.0 0.4 0.1 0.1 0.5 0.4 1.8 2.7 5.7 1.7 0.5 0.5 0.1 0.0 0.0 0.0 0.0 0.0 0.0
nan nan nan nan nan nan 0.0 2.0 0.0 0.0 0.0 0.5 0.6 0.0 0.0 0.0 0.0 0.0 0.0 0.0 0.0 0.0 0.1 1.9 0.3 0.0 0.0 3.1 1.5 0.3 0.1 0.1 0.3 1.9 1.3 0.6 0.6 0.2 0.1 0.0 0.0 0.0 0.0 0.0
nan nan nan nan nan 0.0 0.2 0.0 0.0 nan 0.0 0.4 1.3 0.3 0.0 0.0 0.0 0.0 0.0 0.0 0.0 0.0 0.0 0.2 0.0 0.0 0.0 1.3 1.8 0.7 0.7 0.3 0.4 0.3 0.1 0.6 0.4 0.4 0.1 0.0 0.0 0.0 0.0 0.0
nan nan nan nan nan nan 0.0 0.0 nan nan 0.0 0.0 2.9 1.2 0.2 0.0 0.3 0.3 0.0 0.0 0.1 0.0 0.0 0.1 0.1 0.0 0.4 3.3 0.2 0.2 0.3 0.1 0.6 0.6 0.0 0.1 0.0 0.0 0.0 0.0 0.0 0.0 0.0 0.0
nan nan nan 0.0 0.0 0.2 0.0 nan nan 0.0 0.0 0.6 2.6 3.3 6.0 0.0 0.2 0.3 0.2 0.0 3.0 0.1 0.5 0.2 0.1 1.7 6.1 2.2 0.6 0.5 0.3 0.5 0.4 0.1 0.0 0.0 0.0 0.0 0.0 0.0 0.0 0.0 0.0 0.0
nan 0.0 0.6 8.8 0.4 nan nan 0.0 1.1 0.1 0.0 0.1 1.1 0.1 1.8 0.2 0.6 1.0 0.7 0.4 1.6 2.5 2.3 0.2 2.1 3.8 0.7 0.4 0.5 0.3 0.2 0.0 0.0 0.0 0.0 0.0 0.0 0.1 0.0 0.0 0.0 0.0 0.1 0.0
0.2 2.1 2.9 0.0 nan 0.0 1.0 6.1 3.4 1.1 1.6 0.5 0.4 0.2 1.3 0.1 4.0 3.5 0.4 2.7 1.2 2.4 1.3 1.9 3.0 1.9 1.5 0.4 0.3 0.2 0.1 0.1 0.1 0.1 0.1 0.0 0.1 0.1 0.1 0.0 0.0 0.0 0.0 0.2
0.0 0.0 0.0 0.0 0.3 3.0 2.9 3.7 1.9 0.4 0.7 1.4 1.1 0.7 0.4 0.5 0.7 2.6 2.3 3.3 2.2 2.6 0.6 4.3 3.5 2.3 0.4 0.1 0.0 0.0 0.1 0.3 0.3 0.3 0.5 0.4 0.3 0.3 0.1 0.1 0.2 0.2 0.3 2.5
0.0 0.0 1.0 1.2 5.7 33.9 5.3 4.2 2.2 5.1 1.5 1.8 1.2 5.1 0.7 0.4 0.2 3.9 4.1 5.7 7.5 0.9 9.0 4.3 3.9 0.7 0.2 0.1 0.0 0.1 0.0 0.1 0.2 0.4 0.3 0.7 1.3 1.9 1.9 2.8 3.5 4.5 5.9 6.6
0.4 0.9 37.6 9.3 7.6 4.6 5.2 2.7 2.7 2.8 2.5 1.8 1.3 1.8 1.7 1.4 2.6 5.4 7.6 3.5 1.9 9.1 9.3 5.6 3.3 1.8 1.0 0.4 0.4 0.2 1.2 1.5 1.7 3.3 3.6 4.0 4.2 7.2 8.3 10.5 12.0 10.3 9.1 12.0
1.9 1.6 26.8 8.2 4.6 4.1 4.8 3.8 2.8 2.7 1.9 2.0 2.0 1.1 0.5 3.2 6.9 3.8 3.3 7.2 7.7 4.4 6.0 5.7 3.8 1.9 1.0 1.5 1.3 1.4 1.9 3.8 4.1 4.3 4.8 7.1 6.2 4.6 6.4 7.5 7.6 5.6 8.9 10.0
1.2 1.5 4.8 3.5 7.1 14.0 11.7 8.9 8.0 1.7 2.3 1.9 2.3 3.4 5.6 6.7 4.8 2.8 5.5 2.1 3.8 7.8 5.0 3.7 1.9 2.4 2.4 2.5 2.6 3.5 3.8 4.3 4.8 4.6 4.2 4.6 5.3 5.0 6.0 5.0 5.2 9.9 8.1 12.2
0.7 13.2 5.9 8.3 7.7 12.3 10.0 6.9 3.8 1.4 4.7 9.4 2.3 4.3 4.4 1.4 4.0 2.5 2.8 10.6 8.2 6.0 4.6 3.9 2.3 2.7 3.6 4.5 4.2 5.9 5.1 4.6 4.3 4.3 4.0 4.7 4.5 3.8 2.2 3.0 6.5 3.9 4.5 9.8

GFSNW_prec_sndepth_105.txt.gz
Snowfall_Accumulation
nan nan nan nan nan nan nan 0.0 2.1 0.0 0.0 1.6 0.9 1.2 0.0 nan 0.0 0.0 0.0 0.0 0.0 0.1 0.4 0.2 0.0 0.1 0.0 0.0 0.0 0.0 0.0 0.0 0.0 0.0 0.0 0.0 0.0 0.0 0.0 0.0 0.0 0.0 0.0 0.1
nan nan nan nan nan nan 0.0 0.0 0.0 0.0 0.0 4.4 0.5 0.0 0.0 0.0 0.0 0.0 0.0 0.0 0.0 0.0 0.3 0.6 0.3 0.0 0.0 0.0 0.0 0.0 0.0 0.0 0.1 0.0 0.0 0.0 0.0 0.0 0.0 0.0 0.0 0.0 0.8 0.1
nan nan nan nan nan nan 0.0 0.5 4.9 0.1 0.0 0.1 0.3 0.1 0.1 0.1 0.0 0.0 0.0 0.0 0.0 0.0 0.0 0.0 0.2 0.2 0.0 0.0 0.0 nan nan 0.0 0.1 0.1 0.3 0.0 0.1 0.0 0.0 0.0 0.1 0.0 0.0 0.0
nan nan nan nan nan nan 0.0 0.3 5.4 0.1 3.4 1.1 0.0 0.2 0.1 0.0 0.2 0.0 0.0 0.0 0.0 0.0 0.0 0.0 0.0 0.0 0.0 0.0 nan 0.0 0.0 0.4 0.0 0.0 0.0 0.0 0.0 0.0 0.0 0.0 0.0 0.0 0.0 0.0
nan nan nan nan nan nan 0.0 7.4 1.3 0.0 0.0 0.0 0.3 0.0 0.1 0.2 0.0 0.0 0.0 0.0 0.0 0.0 0.1 0.0 0.2 0.0 0.1 0.0 0.0 0.0 0.0 0.9 0.1 0.2 0.0 0.0 0.0 0.0 0.0 0.0 0.0 0.0 0.0 0.0
nan nan nan nan nan nan 0.0 0.0 0.0 0.0 nan 0.0 0.5 0.3 0.0 0.1 0.0 0.0 0.0 0.0 0.0 0.1 0.0 0.0 0.0 0.0 0.0 0.0 0.0 0.0 0.1 0.2 0.4 0.1 0.0 0.0 0.2 0.0 0.0 0.0 0.0 0.0 0.0 0.0
nan nan nan nan nan nan 0.0 0.0 0.0 0.4 1.5 0.0 0.1 0.0 0.0 0.0 0.0 0.0 0.0 0.0 0.0 0.0 0.0 0.0 0.0 0.0 0.0 0.0 0.0 0.0 0.0 0.0 0.2 0.8 0.2 2.2 0.0 0.0 0.0 0.0 0.0 0.0 0.0 0.0
nan nan nan nan nan nan 0.0 0.0 0.0 0.1 2.3 0.0 0.0 0.0 0.0 0.0 0.0 0.0 0.0 0.0 0.0 0.0 0.0 0.3 0.4 0.3 0.0 0.0 0.0 0.0 0.0 0.0 1.7 2.3 1.1 0.1 0.0 0.0 0.0 0.0 0.4 0.0 0.0 0.0
nan nan nan nan nan nan 0.0 0.0 0.0 0.0 0.6 0.1 0.0 0.0 0.0 0.1 0.0 0.0 0.0 0.0 0.0 0.0 0.0 2.5 0.9 0.5 0.2 0.1 0.0 0.0 0.0 0.0 0.1 0.9 0.2 1.8 0.1 0.0 0.0 0.0 0.3 0.0 0.0 0.0
nan nan nan nan nan nan 0.0 0.0 0.0 0.2 3.3 0.0 0.0 0.0 0.0 0.0 0.0 0.1 0.0 0.0 0.0 0.0 1.0 2.0 1.2 0.4 0.0 0.2 0.2 0.4 0.2 0.5 0.8 0.4 1.1 0.2 0.0 0.0 0.0 1.3 0.1 0.0 0.0 0.0
nan nan nan nan nan nan 0.0 0.0 0.0 0.1 1.4 0.0 0.0 0.0 0.0 0.0 0.0 0.3 0.0 1.9 0.6 0.8 1.1 0.6 0.6 0.8 0.1 0.1 0.2 1.1 0.4 0.9 1.6 0.8 1.0 1.1 0.0 0.0 0.2 0.5 0.0 0.0 0.0 0.0
nan nan nan nan nan nan nan 0.0 0.0 0.0 0.0 0.1 0.0 0.0 0.0 0.0 0.0 0.0 0.0 0.2 0.3 0.1 1.7 1.7 0.5 1.0 1.5 0.4 1.1 0.3 2.3 0.6 1.3 0.0 0.2 0.0 0.0 0.0 0.0 0.0 0.0 0.0 0.0 0.0
nan nan nan nan nan nan nan 0.0 0.0 0.0 0.3 0.0 0.0 0.0 0.0 0.0 0.0 0.0 0.1 0.0 0.0 0.0 0.0 0.1 0.2 0.8 0.2 1.2 0.4 1.1 0.3 0.1 1.7 0.3 0.0 0.0 0.0 0.0 0.0 0.0 0.0 0.0 0.0 0.0
nan nan nan nan nan nan nan 0.0 0.0 0.0 0.0 2.2 0.0 0.0 0.0 0.0 0.0 0.0 0.0 0.0 0.0 0.0 0.0 0.1 0.6 0.6 0.0 0.3 0.1 0.2 0.2 0.7 3.5 1.2 0.9 0.1 0.2 0.1 0.2 0.1 0.0 0.0 0.0 0.0
nan nan nan nan nan nan nan 0.0 0.0 0.0 0.1 0.8 0.0 0.0 0.0 0.0 0.0 0.0 0.0 0.0 0.0 0.0 0.8 2.5 1.8 0.0 0.5 0.1 0.1 0.5 0.5 2.7 3.7 8.0 2.8 1.4 1.1 0.7 0.5 0.5 0.0 0.0 0.0 0.0
nan nan nan nan nan nan 0.0 2.3 0.0 0.0 0.0 0.6 0.6 0.0 0.0 0.0 0.0 0.0 0.0 0.0 0.0 0.0 0.1 1.8 1.6 0.0 0.1 3.1 1.5 0.3 0.5 0.4 0.4 2.6 1.7 1.0 1.5 0.9 0.8 0.3 0.0 0.0 0.0 0.0
nan nan nan nan nan 0.0 0.2 0.1 0.0 nan 0.0 0.5 1.3 0.3 0.0 0.0 0.0 0.0 0.0 0.0 0.0 0.0 0.0 0.2 0.0 0.0 0.0 1.2 1.8 0.9 0.8 0.6 0.5 0.6 0.3 0.9 1.0 1.3 0.3 0.0 0.0 0.0 0.0 0.0
nan nan nan nan nan nan 0.0 0.0 nan nan 0.0 0.0 2.9 1.2 0.2 0.0 0.3 0.3 0.0 0.0 0.1 0.0 0.0 0.1 0.1 0.0 0.4 3.4 0.2 0.2 0.3 0.2 0.7 0.6 0.1 0.1 0.0 0.0 0.0 0.0 0.0 0.0 0.0 0.0
nan nan nan 0.0 0.0 0.2 0.0 nan nan 0.0 0.0 0.6 2.6 3.3 6.0 0.0 0.2 0.3 0.2 0.0 3.1 0.1 0.5 0.2 0.1 1.7 6.1 2.2 0.7 0.5 0.3 0.6 0.4 0.2 0.0 0.0 0.0 0.0 0.0 0.0 0.0 0.0 0.0 0.0
nan 0.0 0.6 10.4 0.5 nan nan 0.1 1.7 0.2 0.0 0.1 1.1 0.1 1.8 0.2 1.0 0.9 0.7 0.4 1.6 2.8 2.3 0.2 2.1 3.9 0.8 0.4 0.6 0.3 0.2 0.0 0.0 0.0 0.0 0.0 0.0 0.1 0.0 0.0 0.0 0.0 0.1 0.1
0.2 3.5 3.8 0.0 nan 0.0 1.1 7.1 4.1 1.2 1.7 0.5 0.4 0.2 1.3 0.1 4.0 4.2 0.5 2.9 1.2 2.5 1.5 1.9 3.1 2.0 1.6 0.5 0.3 0.2 0.1 0.1 0.1 0.1 0.1 0.0 0.1 0.2 0.1 0.0 0.0 0.0 0.1 0.2
0.0 0.0 0.0 0.0 0.3 3.9 4.0 3.8 2.0 0.4 0.7 1.4 1.1 0.6 0.4 0.5 0.7 2.8 3.5 3.7 2.4 2.7 0.7 4.9 3.8 2.5 0.6 0.2 0.1 0.1 0.1 0.3 0.3 0.3 0.5 0.4 0.3 0.3 0.1 0.1 0.2 0.2 0.3 2.5
0.0 0.0 1.4 1.6 7.0 34.6 5.4 4.3 2.2 5.1 1.5 1.8 1.2 5.2 0.7 0.4 0.2 4.8 6.0 6.2 8.1 1.0 9.2 4.5 4.0 0.8 0.3 0.2 0.1 0.1 0.0 0.1 0.2 0.4 0.3 0.7 1.3 1.9 1.9 2.8 3.5 4.6 5.9 6.6
1.5 1.9 38.6 10.4 7.6 4.6 5.2 2.7 2.7 2.8 2.5 1.8 1.3 1.8 1.6 1.4 2.7 5.8 8.5 4.0 2.0 9.2 9.5 5.6 3.5 1.9 1.1 0.4 0.4 0.2 1.2 1.5 1.7 3.3 3.6 4.0 4.3 7.3 8.3 10.5 12.0 10.3 9.1 12.0
2.0 1.6 26.7 8.3 4.6 4.2 4.9 3.8 2.8 2.7 1.9 2.0 2.0 1.1 0.5 3.2 6.9 3.8 3.3 7.2 7.8 4.5 6.0 5.7 3.9 2.0 1.1 1.5 1.3 1.4 1.9 3.8 4.1 4.3 4.8 7.1 6.2 4.6 6.5 7.5 7.6 5.6 8.9 10.1
1.2 1.5 4.8 3.5 7.1 14.1 11.8 9.0 8.1 1.8 2.4 2.1 2.3 3.5 5.6 6.7 4.8 2.8 5.5 2.1 3.9 7.8 5.1 3.8 2.0 2.5 2.5 2.5 2.5 3.5 3.8 4.3 4.8 4.6 4.2 4.6 5.3 5.1 6.0 5.1 5.3 9.9 8.1 12.2
0.6 13.3 5.9 8.3 7.8 12.4 10.0 7.0 3.8 1.4 4.7 9.4 2.3 4.3 4.5 1.4 4.0 2.5 2.8 10.6 8.2 6.0 4.7 4.0 2.3 2.7 3.6 4.5 4.3 5.9 5.1 4.6 4.3 4.3 4.0 4.7 4.5 3.8 2.1 3.0 6.6 3.9 4.5 9.8

GFSNW_prec_sndepth_108.txt.gz
Snowfall_Accumulation
nan nan nan nan nan nan nan 0.0 1.9 0.0 0.0 1.4 0.7 1.0 0.0 nan 0.0 0.0 0.0 0.0 0.0 0.0 0.2 0.1 0.0 0.1 0.0 0.0 0.0 0.0 0.0 0.0 0.0 0.0 0.0 0.0 0.0 0.0 0.0 0.0 0.0 0.0 0.0 0.1
nan nan nan nan nan nan 0.0 0.0 0.0 0.0 0.0 4.0 0.4 0.0 0.0 0.0 0.0 0.0 0.0 0.0 0.0 0.0 0.2 0.4 0.2 0.0 0.0 0.0 0.0 0.0 0.0 0.0 0.1 0.0 0.0 0.0 0.0 0.0 0.0 0.0 0.0 0.0 0.6 0.1
nan nan nan nan nan nan 0.0 0.5 4.5 0.1 0.0 0.1 0.2 0.1 0.1 0.1 0.0 0.0 0.0 0.0 0.0 0.0 0.0 0.0 0.1 0.1 0.0 0.0 0.0 nan nan 0.0 0.1 0.1 0.1 0.0 0.0 0.0 0.0 0.0 0.1 0.0 0.0 0.0
nan nan nan nan nan nan 0.0 0.3 4.9 0.1 3.0 1.0 0.0 0.1 0.1 0.0 0.1 0.0 0.0 0.0 0.0 0.0 0.0 0.0 0.0 0.0 0.0 0.0 nan 0.0 0.0 0.3 0.0 0.0 0.0 0.0 0.0 0.0 0.0 0.0 0.0 0.0 0.0 0.0
nan nan nan nan nan nan 0.0 6.8 1.2 0.0 0.0 0.0 0.2 0.0 0.0 0.1 0.0 0.0 0.0 0.0 0.0 0.0 0.1 0.0 0.1 0.0 0.0 0.0 0.0 0.0 0.0 0.6 0.1 0.1 0.0 0.0 0.0 0.0 0.0 0.0 0.0 0.0 0.0 0.0
nan nan nan nan nan nan 0.0 0.0 0.0 0.0 nan 0.0 0.4 0.3 0.0 0.1 0.0 0.0 0.0 0.0 0.0 0.1 0.0 0.0 0.0 0.0 0.0 0.0 0.0 0.0 0.1 0.2 0.3 0.1 0.0 0.0 0.2 0.0 0.0 0.0 0.0 0.0 0.0 0.0
nan nan nan nan nan nan 0.0 0.0 0.0 0.3 1.4 0.0 0.1 0.0 0.0 0.0 0.0 0.0 0.0 0.0 0.0 0.0 0.0 0.0 0.0 0.0 0.0 0.0 0.0 0.0 0.1 0.0 0.1 0.7 0.2 1.9 0.0 0.0 0.0 0.0 0.0 0.0 0.0 0.0
nan nan nan nan nan nan 0.0 0.0 0.0 0.1 2.2 0.0 0.0 0.0 0.0 0.0 0.0 0.0 0.0 0.0 0.0 0.0 0.0 0.3 0.2 0.2 0.0 0.0 0.0 0.0 0.0 0.0 1.5 2.0 0.9 0.0 0.0 0.0 0.0 0.0 0.3 0.0 0.0 0.0
nan nan nan nan nan nan 0.0 0.0 0.0 0.0 0.6 0.1 0.0 0.0 0.0 0.0 0.0 0.0 0.0 0.0 0.0 0.0 0.0 2.0 0.6 0.5 0.2 0.1 0.0 0.0 0.0 0.0 0.1 0.7 0.2 1.6 0.0 0.0 0.0 0.0 0.3 0.0 0.0 0.0
nan nan nan nan nan nan 0.0 0.0 0.0 0.2 3.2 0.0 0.0 0.0 0.0 0.0 0.0 0.0 0.0 0.0 0.0 0.0 0.9 1.7 1.2 0.4 0.0 0.2 0.1 0.3 0.2 0.6 0.8 0.4 0.9 0.2 0.0 0.0 0.0 1.0 0.1 0.0 0.0 0.0
nan nan nan nan nan nan 0.0 0.0 0.0 0.1 1.3 0.0 0.0 0.0 0.0 0.0 0.0 0.3 0.0 1.7 0.5 0.7 0.9 0.5 0.5 0.8 0.1 0.1 0.1 0.7 0.3 0.8 1.4 0.7 0.8 1.0 0.0 0.0 0.2 0.5 0.0 0.0 0.0 0.0
nan nan nan nan nan nan nan 0.0 0.0 0.0 0.0 0.1 0.0 0.0 0.0 0.0 0.0 0.0 0.0 0.2 0.2 0.1 1.4 1.5 0.4 0.9 1.3 0.3 1.0 0.2 2.2 0.5 1.5 0.1 0.2 0.0 0.0 0.0 0.0 0.0 0.0 0.0 0.0 0.0
nan nan nan nan nan nan nan 0.0 0.0 0.0 0.7 0.0 0.0 0.0 0.0 0.0 0.0 0.0 0.1 0.0 0.0 0.0 0.0 0.2 0.2 0.7 1.7 1.1 0.4 0.7 0.2 0.1 1.5 0.4 0.2 0.0 0.0 0.0 0.0 0.0 0.0 0.0 0.0 0.0
nan nan nan nan nan nan nan 0.0 0.0 0.0 0.0 2.1 0.0 0.0 0.0 0.0 0.0 0.0 0.0 0.0 0.0 0.0 0.0 0.1 0.5 0.5 0.0 0.3 0.1 0.2 0.2 0.5 3.0 1.1 1.1 0.4 0.3 0.2 0.3 0.1 0.0 0.0 0.0 0.0
nan nan nan nan nan nan nan 0.0 0.0 0.0 0.1 0.7 0.0 0.0 0.0 0.0 0.0 0.0 0.0 0.0 0.0 0.0 0.7 2.2 1.6 0.0 0.6 0.1 0.0 0.5 0.4 2.7 4.0 8.1 3.0 1.4 1.1 0.6 0.4 0.6 0.0 0.0 0.0 0.0
nan nan nan nan nan nan 0.0 2.3 0.0 0.0 0.0 0.6 0.6 0.0 0.0 0.0 0.0 0.0 0.0 0.0 0.0 0.0 0.1 1.6 1.4 0.0 0.2 3.1 1.3 0.3 0.7 0.9 0.6 3.0 2.0 1.2 1.9 1.3 0.9 0.6 0.6 0.0 0.0 0.0
nan nan nan nan nan 0.0 0.2 0.1 0.0 nan 0.0 0.5 1.2 0.3 0.0 0.0 0.0 0.0 0.0 0.0 0.0 0.0 0.0 0.1 0.0 0.0 0.0 1.1 1.7 0.7 0.6 0.9 0.8 0.9 0.6 1.2 1.3 1.8 0.6 0.4 0.1 0.0 0.0 0.0
nan nan nan nan nan nan 0.0 0.0 nan nan 0.0 0.0 2.7 1.1 0.2 0.0 0.3 0.3 0.0 0.0 0.1 0.0 0.0 0.1 0.1 0.0 0.3 3.0 0.2 0.2 0.3 0.2 0.6 0.5 0.2 0.5 0.3 0.2 0.1 0.0 0.0 0.0 0.0 0.0
nan nan nan 0.0 0.0 0.2 0.0 nan nan 0.0 0.0 0.6 2.6 3.0 5.6 0.0 0.2 0.2 0.2 0.0 3.0 0.1 0.5 0.2 0.1 1.5 5.4 2.1 0.5 0.4 0.3 0.4 0.3 0.1 0.0 0.1 0.2 0.0 0.0 0.0 0.0 0.0 0.0 0.0
nan 0.0 0.6 11.5 0.5 nan nan 0.1 2.1 0.5 0.0 0.1 1.0 0.0 1.6 0.2 1.9 0.9 0.7 0.4 1.5 2.7 2.2 0.2 1.8 3.9 0.7 0.4 0.5 0.3 0.2 0.0 0.0 0.0 0.0 0.0 0.0 0.0 0.0 0.0 0.0 0.0 0.0 0.0
0.2 4.2 4.2 0.0 nan 0.0 1.3 7.1 4.2 1.1 1.6 0.4 0.3 0.1 1.1 0.1 3.6 3.9 0.5 2.8 1.1 2.4 1.2 1.8 2.8 1.9 1.6 0.4 0.3 0.2 0.1 0.1 0.1 0.1 0.0 0.0 0.1 0.1 0.1 0.0 0.0 0.0 0.0 0.2
0.1 0.0 0.0 0.0 0.3 4.1 4.1 3.8 1.9 0.4 0.6 1.2 1.0 0.6 0.4 0.4 0.6 2.4 3.6 4.0 2.4 2.6 0.7 4.7 3.6 2.6 0.6 0.2 0.1 0.0 0.1 0.2 0.2 0.2 0.4 0.3 0.2 0.2 0.1 0.1 0.1 0.2 0.3 2.5
0.0 0.1 2.7 2.3 7.8 33.9 5.2 4.3 2.3 5.1 1.3 1.6 1.1 5.0 0.6 0.4 0.2 4.4 5.8 6.4 7.9 0.9 9.1 4.3 4.0 0.8 0.3 0.2 0.0 0.0 0.0 0.0 0.1 0.4 0.2 0.7 1.3 1.8 1.9 2.7 3.5 4.5 5.9 6.6
3.4 2.8 40.7 10.3 7.5 4.3 4.8 2.4 2.5 2.5 2.3 1.6 1.1 1.7 1.5 1.3 2.6 5.7 9.8 4.3 1.8 9.1 9.4 5.5 3.5 1.9 1.1 0.4 0.3 0.2 1.2 1.5 1.7 3.3 3.6 3.9 4.2 7.3 8.3 10.5 11.9 10.3 9.1 12.0
3.3 1.5 25.6 8.2 4.5 4.1 4.7 3.6 2.7 2.6 1.8 1.8 1.9 1.0 0.5 3.4 6.7 3.7 3.2 6.9 7.5 4.4 6.0 5.7 4.0 2.0 1.0 1.5 1.2 1.3 1.9 3.7 4.1 4.2 4.8 7.1 6.2 4.6 6.5 7.5 7.6 5.5 8.9 10.0
1.1 1.5 4.7 3.6 7.1 14.1 11.7 8.9 8.1 1.7 2.4 1.9 2.0 3.2 5.4 6.6 4.6 2.6 5.2 2.0 3.7 7.7 5.1 3.8 2.0 2.5 2.4 2.4 2.5 3.4 3.7 4.2 4.8 4.6 4.2 4.5 5.3 5.0 6.0 5.0 5.2 9.9 8.1 12.2
0.6 13.3 5.9 8.3 7.7 12.4 10.0 7.0 3.7 1.4 4.5 9.0 2.1 4.1 4.1 1.3 3.9 2.4 2.7 10.5 8.1 6.0 4.7 3.9 2.2 2.6 3.5 4.5 4.2 5.9 5.1 4.6 4.3 4.3 4.0 4.7 4.5 3.9 2.2 3.1 6.6 3.9 4.5 9.8

GFSNW_prec_sndepth_111.txt.gz
Snowfall_Accumulation
nan nan nan nan nan nan nan 0.0 1.4 0.0 0.0 1.1 0.5 0.8 0.0 nan 0.0 0.0 0.0 0.0 0.0 0.0 0.1 0.1 0.0 0.1 0.0 0.0 0.0 0.0 0.0 0.0 0.0 0.0 0.0 0.0 0.0 0.0 0.0 0.0 0.0 0.0 0.0 0.1
nan nan nan nan nan nan 0.0 0.0 0.0 0.0 0.0 3.0 0.3 0.0 0.0 0.0 0.0 0.0 0.0 0.0 0.0 0.0 0.1 0.2 0.1 0.0 0.0 0.0 0.0 0.3 0.0 0.0 0.3 0.0 0.0 0.0 0.0 0.0 0.0 0.0 0.0 0.0 0.5 0.1
nan nan nan nan nan nan 0.0 0.3 3.5 0.1 0.0 0.1 0.1 0.0 0.1 0.0 0.0 0.0 0.0 0.0 0.0 0.0 0.0 0.0 0.1 0.1 0.0 0.0 0.0 nan nan 0.0 0.1 0.7 0.1 0.0 0.0 0.0 0.0 0.0 0.0 0.0 0.0 0.0
nan nan nan nan nan nan 0.0 0.2 3.7 0.0 2.3 0.7 0.0 0.1 0.0 0.0 0.1 0.0 0.0 0.0 0.0 0.0 0.0 0.0 0.0 0.0 0.0 0.0 nan 0.0 0.0 0.1 0.0 0.0 0.0 0.0 0.0 0.0 0.0 0.0 0.0 0.0 0.0 0.0
nan nan nan nan nan nan 0.0 5.9 0.9 0.0 0.0 0.0 0.1 0.0 0.0 0.1 0.0 0.0 0.0 0.0 0.0 0.0 0.0 0.0 0.1 0.0 0.0 0.0 0.0 0.0 0.0 0.4 0.0 0.1 0.0 0.0 0.0 0.0 0.0 0.0 0.0 0.0 0.0 0.0
nan nan nan nan nan nan 0.0 0.0 0.0 0.0 nan 0.0 0.3 0.2 0.0 0.0 0.0 0.0 0.0 0.0 0.0 0.0 0.0 0.0 0.0 0.0 0.0 0.0 0.0 0.0 0.0 0.1 0.2 0.0 0.0 0.0 0.1 0.0 0.0 0.0 0.0 0.0 0.0 0.0
nan nan nan nan nan nan 0.0 0.0 0.0 0.3 1.2 0.0 0.1 0.0 0.0 0.0 0.0 0.0 0.0 0.0 0.0 0.0 0.0 0.0 0.0 0.0 0.0 0.0 0.0 0.0 0.1 0.0 0.1 0.5 0.1 1.4 0.0 0.0 0.0 0.0 0.0 0.0 0.0 0.0
nan nan nan nan nan nan 0.0 0.0 0.0 0.0 1.8 0.0 0.0 0.0 0.0 0.0 0.0 0.0 0.0 0.0 0.0 0.0 0.0 0.2 0.1 0.2 0.0 0.0 0.0 0.0 0.0 0.0 1.2 1.6 0.7 0.0 0.0 0.0 0.0 0.0 0.2 0.0 0.0 0.0
nan nan nan nan nan nan 0.0 0.0 0.0 0.0 0.5 0.1 0.0 0.0 0.0 0.0 0.0 0.0 0.0 0.0 0.0 0.0 0.0 1.5 0.3 0.4 0.1 0.0 0.0 0.0 0.0 0.0 0.1 0.6 0.1 1.2 0.3 0.0 0.0 0.0 0.3 0.0 0.0 0.0
nan nan nan nan nan nan 0.0 0.0 0.0 0.2 2.6 0.0 0.0 0.0 0.0 0.0 0.0 0.0 0.0 0.0 0.0 0.0 0.8 1.4 1.0 0.3 0.0 0.1 0.2 0.8 0.3 0.5 0.7 0.3 0.7 0.1 0.0 0.0 0.0 0.8 0.8 0.0 0.0 0.0
nan nan nan nan nan nan 0.0 0.0 0.0 0.1 1.1 0.0 0.0 0.0 0.0 0.0 0.0 0.2 0.0 1.3 0.5 0.6 0.6 0.4 0.4 0.6 0.1 0.0 0.0 0.3 0.2 0.7 1.1 0.5 0.6 0.6 0.0 0.0 0.2 1.3 0.0 0.0 0.0 0.0
nan nan nan nan nan nan nan 0.0 0.0 0.0 0.0 0.1 0.0 0.0 0.0 0.0 0.0 0.0 0.0 0.1 0.1 0.1 1.1 1.1 0.3 0.8 0.9 0.1 0.7 0.1 1.7 0.3 1.5 0.1 1.0 0.0 0.0 0.0 0.0 0.0 0.0 0.0 0.0 0.0
nan nan nan nan nan nan nan 0.0 0.0 0.0 0.8 0.0 0.0 0.0 0.0 0.0 0.0 0.0 0.1 0.0 0.0 0.0 0.0 0.1 0.1 0.4 1.4 1.1 0.3 0.3 0.0 0.0 1.2 0.3 0.3 0.1 0.0 0.0 0.0 0.0 0.0 0.0 0.0 0.0
nan nan nan nan nan nan nan 0.0 0.0 0.0 0.0 1.8 0.0 0.0 0.0 0.0 0.0 0.0 0.0 0.0 0.0 0.0 0.0 0.1 0.4 0.5 0.0 0.3 0.1 0.2 0.1 0.3 2.0 0.8 0.8 0.3 0.3 0.2 0.2 0.1 0.0 0.0 0.0 0.0
nan nan nan nan nan nan nan 0.0 0.0 0.0 0.2 0.6 0.0 0.0 0.0 0.0 0.0 0.0 0.0 0.0 0.0 0.0 0.6 1.8 1.4 0.0 0.5 0.1 0.0 0.5 0.3 2.0 3.5 7.3 2.4 1.0 0.8 0.5 0.3 0.4 0.0 0.0 0.0 0.0
nan nan nan nan nan nan 0.0 2.2 0.0 0.0 0.0 0.6 0.5 0.0 0.0 0.0 0.0 0.0 0.0 0.0 0.0 0.0 0.0 1.3 1.0 0.0 0.2 3.3 1.1 0.2 0.4 0.6 0.6 3.1 1.8 0.9 1.3 0.9 0.5 0.4 0.5 0.0 0.0 0.0
nan nan nan nan nan 0.0 0.2 0.1 0.0 nan 0.0 0.5 0.9 0.2 0.0 0.0 0.0 0.0 0.0 0.0 0.0 0.0 0.0 0.1 0.0 0.0 0.0 1.0 1.5 0.5 0.4 0.6 0.8 0.9 0.6 1.0 0.9 1.6 0.5 0.4 0.1 0.1 0.0 0.0
nan nan nan nan nan nan 0.0 0.0 nan nan 0.0 0.0 2.4 0.9 0.2 0.0 0.3 0.2 0.0 0.0 0.0 0.0 0.0 0.1 0.1 0.0 0.3 2.5 0.1 0.1 0.2 0.1 0.6 0.4 0.3 0.6 0.7 0.5 0.3 0.0 0.0 0.0 0.0 0.0
nan nan nan 0.0 0.0 0.2 0.0 nan nan 0.0 0.0 0.5 2.4 2.4 4.7 0.0 0.2 0.2 0.2 0.0 2.7 0.0 0.4 0.2 0.1 1.2 4.6 1.7 0.3 0.2 0.2 0.3 0.2 0.1 0.0 0.1 0.4 0.3 0.2 0.0 0.0 0.0 0.0 0.0
nan 0.0 0.6 11.4 0.5 nan nan 0.1 2.4 0.6 0.0 0.0 0.9 0.0 1.2 0.2 1.7 0.8 0.6 0.4 1.2 2.5 1.7 0.1 1.4 3.3 0.4 0.2 0.3 0.2 0.1 0.0 0.0 0.0 0.0 0.0 0.1 0.1 0.0 0.0 0.0 0.0 0.0 0.0
0.2 4.3 3.9 0.0 nan 0.0 1.2 6.6 3.8 1.0 1.2 0.4 0.3 0.1 0.8 0.0 3.1 3.5 0.5 2.9 0.9 2.2 1.0 1.6 2.3 1.7 1.4 0.3 0.2 0.1 0.1 0.0 0.1 0.0 0.0 0.0 0.0 0.1 0.0 0.0 0.0 0.0 0.0 0.1
0.0 0.0 0.0 0.0 0.2 3.9 3.8 3.5 1.6 0.4 0.5 1.0 0.9 0.5 0.3 0.4 0.5 1.8 3.1 3.5 2.0 1.9 0.5 4.1 3.0 2.4 0.4 0.1 0.0 0.0 0.1 0.1 0.1 0.1 0.3 0.2 0.2 0.1 0.0 0.0 0.1 0.1 0.2 2.5
0.0 0.6 4.2 2.4 7.5 30.7 4.5 3.9 2.0 4.8 1.1 1.4 1.0 4.5 0.5 0.3 0.1 3.6 5.1 6.1 7.0 0.7 8.3 3.7 3.9 0.7 0.2 0.1 0.0 0.0 0.0 0.0 0.1 0.2 0.2 0.5 1.2 1.8 1.8 2.7 3.5 4.5 5.9 6.6
4.1 3.4 37.5 9.5 6.7 3.5 3.8 1.9 1.9 1.9 1.7 1.2 0.9 1.4 1.2 1.0 2.2 4.8 9.3 3.6 1.7 8.2 8.5 5.1 3.5 1.7 0.9 0.3 0.2 0.1 1.0 1.4 1.6 3.2 3.6 3.9 4.2 7.2 8.2 10.5 11.9 10.2 9.0 11.9
4.3 1.7 22.6 7.4 4.0 3.5 4.1 3.2 2.3 2.3 1.5 1.4 1.6 0.8 0.4 3.0 6.2 3.4 2.8 6.8 6.8 3.8 5.7 5.7 3.9 1.8 0.8 1.3 1.0 1.2 1.8 3.7 4.1 4.2 4.8 7.0 6.2 4.6 6.4 7.5 7.5 5.5 8.9 10.0
1.5 1.1 4.1 3.3 6.7 13.6 11.0 8.2 7.4 1.6 2.1 1.5 1.5 2.5 4.7 5.9 4.1 2.1 4.3 1.5 3.1 7.7 5.0 3.8 1.8 2.4 2.4 2.4 2.4 3.4 3.7 4.2 4.7 4.5 4.1 4.5 5.3 5.0 5.9 5.0 5.2 9.8 8.1 12.2
0.7 12.8 5.6 7.8 6.8 11.6 9.5 6.2 3.3 1.2 4.0 8.1 1.6 3.4 3.0 1.1 3.2 1.6 2.2 9.6 8.0 5.9 4.7 3.7 2.0 2.4 3.4 4.4 4.2 5.9 5.0 4.5 4.2 4.3 3.9 4.6 4.4 3.8 2.1 3.0 6.5 3.8 4.5 9.7

GFSNW_prec_sndepth_114.txt.gz
Snowfall_Accumulation
nan nan nan nan nan nan nan 0.0 1.2 0.0 0.0 0.9 0.4 0.6 0.0 nan 0.0 0.0 0.0 0.0 0.0 0.0 0.1 0.0 0.0 0.1 0.0 0.0 0.0 0.0 0.0 0.0 0.0 0.0 0.0 0.0 0.0 0.0 0.0 0.0 0.0 0.0 0.0 0.1
nan nan nan nan nan nan 0.0 0.0 0.0 0.0 0.0 2.4 0.3 0.0 0.0 0.0 0.0 0.0 0.0 0.0 0.0 0.0 0.0 0.1 0.0 0.0 0.0 0.0 0.0 0.2 0.0 0.0 1.9 0.3 0.0 0.0 0.0 0.0 0.0 0.0 0.0 0.0 0.5 0.1
nan nan nan nan nan nan 0.0 0.2 2.7 0.1 0.0 0.0 0.1 0.0 0.0 0.0 0.0 0.0 0.0 0.0 0.0 0.0 0.0 0.0 0.1 0.0 0.0 0.0 0.0 nan nan 0.0 0.4 2.6 0.8 0.0 0.0 0.0 0.0 0.0 0.0 0.0 0.0 0.0
nan nan nan nan nan nan 0.0 0.1 2.7 0.0 1.7 0.6 0.0 0.0 0.0 0.0 0.0 0.0 0.0 0.0 0.0 0.0 0.0 0.0 0.0 0.0 0.0 0.0 nan 0.0 0.0 0.1 0.2 0.1 0.0 0.1 0.0 0.0 0.0 0.0 0.0 0.0 0.0 0.0
nan nan nan nan nan nan 0.0 5.1 0.7 0.0 0.0 0.0 0.0 0.0 0.0 0.0 0.0 0.0 0.0 0.0 0.0 0.0 0.0 0.0 0.0 0.0 0.0 0.0 0.0 0.0 0.0 0.3 0.0 0.0 0.0 0.0 0.0 0.0 0.0 0.0 0.0 0.0 0.0 0.0
nan nan nan nan nan nan 0.0 0.0 0.0 0.0 nan 0.0 0.3 0.2 0.0 0.0 0.0 0.0 0.0 0.0 0.0 0.0 0.0 0.0 0.0 0.0 0.0 0.0 0.0 0.0 0.0 0.1 0.2 0.0 0.0 0.0 0.1 0.0 0.0 0.0 0.0 0.0 0.0 0.0
nan nan nan nan nan nan 0.0 0.0 0.0 0.2 1.0 0.0 0.1 0.0 0.0 0.0 0.0 0.0 0.0 0.0 0.0 0.0 0.0 0.0 0.0 0.0 0.0 0.0 0.0 0.0 0.0 0.0 0.1 0.5 0.1 1.2 0.0 0.0 0.0 0.0 0.0 0.0 0.0 0.0
nan nan nan nan nan nan 0.0 0.0 0.0 0.0 1.5 0.0 0.0 0.0 0.0 0.0 0.0 0.0 0.0 0.0 0.0 0.0 0.0 0.1 0.0 0.1 0.0 0.0 0.0 0.0 0.0 0.0 1.0 1.4 0.6 0.0 0.0 0.0 0.0 0.0 0.1 0.0 0.0 0.0
nan nan nan nan nan nan 0.0 0.0 0.0 0.0 0.4 0.0 0.0 0.0 0.0 0.0 0.0 0.0 0.0 0.0 0.0 0.0 0.0 1.2 0.2 0.3 0.0 0.0 0.1 0.0 0.0 0.0 0.1 0.5 0.1 1.1 0.4 0.0 0.0 0.0 1.6 0.1 0.0 0.0
nan nan nan nan nan nan 0.0 0.0 0.0 0.2 1.9 0.0 0.0 0.0 0.0 0.0 0.0 0.0 0.0 0.0 0.0 0.0 0.6 1.1 0.8 0.3 0.0 0.1 0.2 0.9 0.2 0.4 0.5 0.3 0.6 0.1 0.0 0.0 0.0 0.7 1.4 0.0 0.0 0.0
nan nan nan nan nan nan 0.0 0.0 0.0 0.1 1.0 0.0 0.0 0.0 0.0 0.0 0.0 0.2 0.0 1.1 0.5 0.4 0.5 0.4 0.4 0.5 0.0 0.0 0.0 0.2 0.9 1.2 2.0 0.7 0.5 1.3 0.0 0.0 0.2 1.7 0.0 0.0 0.0 0.0
nan nan nan nan nan nan nan 0.0 0.0 0.0 0.0 0.1 0.0 0.0 0.0 0.0 0.0 0.0 0.0 0.1 0.1 0.0 0.9 0.9 0.3 0.7 0.8 0.1 0.7 0.0 1.5 0.3 1.3 0.2 1.8 0.0 0.0 0.0 0.0 0.0 0.0 0.0 0.0 0.0
nan nan nan nan nan nan nan 0.0 0.0 0.0 0.7 0.0 0.0 0.0 0.0 0.0 0.0 0.0 0.0 0.0 0.0 0.0 0.0 0.1 0.1 0.3 1.1 0.9 0.3 0.2 0.0 0.0 1.0 0.2 0.2 0.1 0.0 0.0 0.0 0.0 0.0 0.0 0.0 0.0
nan nan nan nan nan nan nan 0.0 0.0 0.0 0.0 1.5 0.0 0.0 0.0 0.0 0.0 0.0 0.0 0.0 0.0 0.0 0.0 0.1 0.4 0.4 0.0 0.2 0.1 0.1 0.1 0.2 1.4 0.7 0.6 0.2 0.2 0.2 0.2 0.1 0.0 0.0 0.0 0.0
nan nan nan nan nan nan nan 0.0 0.0 0.0 0.2 0.6 0.0 0.0 0.0 0.0 0.0 0.0 0.0 0.0 0.0 0.0 0.5 1.5 1.2 0.0 0.4 0.0 0.0 0.7 0.2 1.6 3.2 6.8 2.0 0.8 0.6 0.6 0.3 0.4 0.0 0.0 0.0 0.0
nan nan nan nan nan nan 0.0 2.1 0.0 0.0 0.0 0.7 0.4 0.0 0.0 0.0 0.0 0.0 0.0 0.0 0.0 0.0 0.0 1.1 0.8 0.0 0.1 2.8 1.0 0.1 0.3 0.4 0.4 2.8 1.4 0.6 1.0 0.7 0.5 0.4 0.5 0.0 0.0 0.0
nan nan nan nan nan 0.0 0.2 0.1 0.0 nan 0.0 0.5 0.8 0.2 0.0 0.0 0.0 0.0 0.0 0.0 0.0 0.0 0.0 0.1 0.0 0.0 0.0 0.8 1.3 0.3 0.3 0.4 0.5 0.7 0.5 0.8 0.7 1.6 0.5 0.3 0.1 0.1 0.0 0.0
nan nan nan nan nan nan 0.0 0.0 nan nan 0.0 0.0 2.1 0.7 0.1 0.0 0.2 0.2 0.0 0.0 0.0 0.0 0.0 0.1 0.1 0.0 0.2 2.2 0.1 0.1 0.1 0.1 0.4 0.4 0.2 0.5 0.6 0.5 0.3 0.1 0.0 0.0 0.0 0.0
nan nan nan 0.0 0.0 0.2 0.0 nan nan 0.0 0.1 0.8 2.1 2.0 3.9 0.0 0.1 0.2 0.2 0.0 2.4 0.0 0.3 0.1 0.0 1.0 4.0 1.5 0.2 0.2 0.1 0.2 0.1 0.1 0.0 0.1 0.4 0.5 0.5 0.3 0.1 0.0 0.0 0.0
nan 0.0 0.5 10.7 0.5 nan nan 0.1 2.8 1.1 0.1 0.0 0.8 0.0 1.0 0.1 1.3 0.7 0.6 0.3 1.0 2.2 1.5 0.1 1.1 3.0 0.3 0.2 0.2 0.1 0.1 0.0 0.0 0.0 0.1 0.0 0.1 0.2 0.1 0.0 0.0 0.0 0.0 0.0
0.2 3.9 3.5 0.0 nan 0.0 1.2 6.4 4.0 0.9 1.1 0.3 0.2 0.1 0.7 0.0 2.5 3.2 0.4 3.1 0.7 1.9 0.8 1.4 1.9 1.8 1.3 0.2 0.2 0.1 0.0 0.0 0.0 0.0 0.0 0.0 0.0 0.0 0.0 0.0 0.0 0.0 0.0 0.1
0.0 0.0 0.0 0.0 0.2 3.5 3.9 3.4 1.4 0.3 0.4 0.8 0.7 0.5 0.2 0.3 0.4 1.5 2.7 2.9 1.8 1.6 0.4 3.6 2.7 2.5 0.3 0.1 0.0 0.0 0.1 0.1 0.1 0.1 0.2 0.2 0.1 0.1 0.0 0.0 0.1 0.1 0.2 2.5
0.0 0.6 5.0 3.9 7.2 28.4 4.0 3.8 1.8 4.3 0.9 1.2 0.8 4.1 0.4 0.3 0.1 3.0 4.3 5.7 6.4 0.6 7.6 3.4 4.0 0.6 0.1 0.1 0.0 0.0 0.0 0.0 0.1 0.2 0.1 0.4 1.2 1.7 1.8 2.7 3.5 4.5 5.9 6.6
4.2 3.9 36.3 10.1 6.2 2.8 3.1 1.5 1.6 1.5 1.3 0.9 0.8 1.1 1.0 0.9 1.9 4.2 8.5 2.9 1.6 8.0 8.0 5.0 3.5 1.6 0.7 0.2 0.2 0.1 0.9 1.3 1.6 3.2 3.5 3.9 4.2 7.2 8.2 10.5 11.9 10.2 9.0 11.9
4.7 2.1 22.8 6.8 3.4 3.0 3.6 2.8 2.0 1.9 1.2 1.1 1.4 0.7 0.4 2.7 5.6 2.9 2.3 6.3 6.6 3.5 5.6 5.7 3.9 1.6 0.7 1.2 1.0 1.2 1.8 3.7 4.1 4.1 4.7 7.0 6.1 4.5 6.4 7.5 7.5 5.4 8.8 9.9
1.7 0.9 3.9 3.0 6.1 12.7 10.2 7.5 6.9 1.3 1.7 1.2 1.3 1.9 4.1 5.2 3.8 2.1 3.8 1.3 3.5 7.7 5.0 3.8 1.7 2.3 2.3 2.3 2.4 3.3 3.6 4.1 4.7 4.5 4.1 4.4 5.2 5.0 5.9 4.9 5.1 9.8 8.0 12.1
0.6 11.9 5.0 7.2 6.1 10.3 8.8 5.6 3.0 1.0 3.5 7.3 1.3 3.0 2.3 0.9 2.9 1.3 1.9 9.5 8.0 5.8 4.7 3.6 1.7 2.4 3.4 4.4 4.1 5.8 5.0 4.5 4.2 4.2 3.9 4.6 4.4 3.8 2.1 3.0 6.4 3.8 4.4 9.7

GFSNW_prec_sndepth_117.txt.gz
Snowfall_Accumulation
nan nan nan nan nan nan nan 0.0 1.1 0.0 0.0 0.8 0.4 0.5 0.0 nan 0.0 0.0 0.0 0.0 0.0 0.0 0.0 0.0 0.0 0.1 0.0 0.0 0.0 0.0 0.0 0.0 0.2 0.0 0.0 0.0 0.0 0.0 0.0 0.0 0.0 0.0 0.0 0.2
nan nan nan nan nan nan 0.0 0.0 0.0 0.0 0.0 2.2 0.2 0.0 0.0 0.0 0.0 0.0 0.0 0.0 0.0 0.0 0.0 0.1 0.0 0.0 0.0 0.0 0.0 0.1 0.0 0.0 2.0 0.4 0.0 0.0 0.0 0.0 0.0 0.0 0.0 0.0 0.5 0.1
nan nan nan nan nan nan 0.0 0.2 2.5 0.1 0.0 0.0 0.1 0.0 0.0 0.0 0.0 0.0 0.0 0.0 0.0 0.0 0.0 0.0 0.1 0.0 0.0 0.0 0.0 nan nan 0.0 1.5 4.4 2.4 0.5 0.0 0.0 0.0 0.0 0.0 0.0 0.0 0.0
nan nan nan nan nan nan 0.0 0.1 2.5 0.0 1.6 0.5 0.0 0.0 0.0 0.0 0.0 0.0 0.0 0.0 0.0 0.0 0.0 0.0 0.0 0.0 0.0 0.0 nan 0.0 0.0 0.1 0.1 0.1 0.0 0.4 0.0 0.0 0.0 0.0 0.0 0.0 0.0 0.0
nan nan nan nan nan nan 0.0 4.9 0.6 0.0 0.0 0.0 0.0 0.0 0.0 0.0 0.0 0.0 0.0 0.0 0.0 0.0 0.0 0.0 0.0 0.0 0.0 0.0 0.0 0.0 0.0 0.3 0.0 0.0 0.0 0.0 0.0 0.0 0.0 0.0 0.0 0.0 0.0 0.0
nan nan nan nan nan nan 0.0 0.0 0.0 0.0 nan 0.0 0.2 0.2 0.0 0.0 0.0 0.0 0.0 0.0 0.0 0.0 0.0 0.0 0.0 0.0 0.0 0.0 0.0 0.0 0.0 0.1 0.2 0.0 0.0 0.0 0.7 0.1 0.0 0.0 0.0 0.0 0.1 0.0
nan nan nan nan nan nan 0.0 0.0 0.0 0.2 0.9 0.0 0.1 0.0 0.0 0.0 0.0 0.0 0.0 0.0 0.0 0.0 0.0 0.0 0.0 0.0 0.0 0.0 0.0 0.0 0.0 0.0 0.1 0.5 0.1 1.3 0.4 0.0 0.0 0.0 0.0 0.0 0.0 0.0
nan nan nan nan nan nan 0.0 0.0 0.0 0.0 1.5 0.0 0.0 0.0 0.0 0.0 0.0 0.0 0.0 0.0 0.0 0.0 0.0 0.1 0.0 0.1 0.0 0.0 0.0 0.0 0.0 0.0 1.1 1.5 0.6 0.0 0.0 0.0 0.0 0.0 0.2 0.0 0.0 0.0
nan nan nan nan nan nan 0.0 0.0 0.0 0.0 0.4 0.0 0.0 0.0 0.0 0.0 0.0 0.0 0.0 0.0 0.0 0.0 0.0 1.2 0.2 0.3 0.1 0.0 0.1 0.0 0.0 0.0 0.1 0.5 0.1 1.3 0.4 0.0 0.0 0.0 1.9 0.2 0.0 0.0
nan nan nan nan nan nan 0.0 0.0 0.0 0.1 1.7 0.0 0.0 0.0 0.0 0.0 0.0 0.0 0.0 0.0 0.0 0.0 0.6 1.1 0.8 0.3 0.0 0.1 0.3 0.9 0.2 0.4 0.6 0.3 0.7 0.4 0.0 0.0 0.0 0.7 1.7 0.0 0.0 0.1
nan nan nan nan nan nan 0.0 0.0 0.0 0.1 0.9 0.0 0.0 0.0 0.0 0.0 0.0 0.2 0.0 1.0 0.4 0.4 0.4 0.4 0.4 0.5 0.0 0.0 0.1 0.4 1.0 1.3 2.0 0.8 0.7 2.2 0.0 0.0 0.3 1.9 0.0 0.0 0.0 0.0
nan nan nan nan nan nan nan 0.0 0.0 0.0 0.0 0.1 0.0 0.0 0.0 0.0 0.0 0.0 0.0 0.1 0.1 0.0 0.8 0.9 0.3 0.7 0.8 0.1 1.3 0.1 2.7 0.2 1.4 0.3 2.1 0.1 0.0 0.1 0.0 0.0 0.0 0.0 0.0 0.0
nan nan nan nan nan nan nan 0.0 0.0 0.0 0.7 0.0 0.0 0.0 0.0 0.0 0.0 0.0 0.0 0.0 0.0 0.0 0.0 0.1 0.1 0.3 1.0 1.1 0.3 0.2 0.0 0.0 1.0 0.3 0.2 0.1 0.0 0.0 0.0 0.0 0.0 0.0 0.0 0.0
nan nan nan nan nan nan nan 0.0 0.0 0.0 0.0 1.5 0.0 0.0 0.0 0.0 0.0 0.0 0.0 0.0 0.0 0.0 0.0 0.1 0.4 0.4 0.0 0.2 0.1 0.1 0.1 0.2 1.4 0.6 0.5 0.3 0.2 0.2 0.3 0.1 0.0 0.0 0.0 0.0
nan nan nan nan nan nan nan 0.0 0.0 0.0 0.2 0.7 0.0 0.0 0.0 0.0 0.0 0.0 0.0 0.0 0.0 0.0 0.5 1.4 1.1 0.0 0.4 0.0 0.0 0.9 0.2 1.5 3.1 6.8 2.0 0.8 0.6 0.5 0.3 0.4 0.1 0.0 0.0 0.0
nan nan nan nan nan nan 0.0 2.0 0.0 0.0 0.0 0.6 0.4 0.0 0.0 0.0 0.0 0.0 0.0 0.0 0.0 0.0 0.0 1.0 0.8 0.0 0.1 2.7 1.0 0.1 0.2 0.3 0.4 2.7 1.2 0.5 0.8 0.6 0.4 0.5 0.5 0.0 0.0 0.0
nan nan nan nan nan 0.0 0.2 0.1 0.0 nan 0.0 0.4 0.7 0.2 0.0 0.0 0.0 0.0 0.0 0.0 0.0 0.0 0.0 0.1 0.0 0.0 0.0 0.9 1.3 0.3 0.2 0.3 0.4 0.6 0.6 0.8 0.7 1.7 0.4 0.3 0.1 0.1 0.0 0.0
nan nan nan nan nan nan 0.0 0.0 nan nan 0.0 0.0 2.0 0.7 0.1 0.0 0.2 0.2 0.0 0.0 0.0 0.0 0.0 0.1 0.1 0.0 0.2 2.5 0.1 0.1 0.1 0.1 0.4 0.3 0.2 0.5 0.6 0.5 0.4 0.1 0.0 0.1 0.1 0.0
nan nan nan 0.0 0.0 0.2 0.0 nan nan 0.0 0.3 1.2 2.0 2.0 3.9 0.0 0.1 0.2 0.2 0.0 2.4 0.0 0.3 0.1 0.0 0.9 4.2 1.8 0.2 0.1 0.1 0.2 0.1 0.1 0.0 0.1 0.4 0.5 0.7 0.6 0.4 0.1 0.0 0.0
nan 0.0 0.5 10.4 0.4 nan nan 0.1 2.7 1.0 0.1 0.0 0.8 0.0 1.0 0.1 1.2 0.6 0.5 0.3 1.0 2.2 1.4 0.1 1.1 3.3 0.4 0.2 0.2 0.1 0.1 0.0 0.0 0.1 0.2 0.0 0.1 0.2 0.1 0.0 0.0 0.0 0.0 0.0
0.2 3.6 3.4 0.0 nan 0.0 1.1 6.3 4.0 0.9 1.2 0.3 0.2 0.1 0.6 0.0 2.4 3.1 0.4 3.3 0.8 2.0 0.8 1.4 2.0 1.9 1.5 0.2 0.1 0.1 0.0 0.0 0.0 0.0 0.0 0.0 0.0 0.0 0.0 0.0 0.0 0.0 0.0 0.1
0.0 0.0 0.0 0.0 0.2 3.3 3.9 3.6 1.4 0.3 0.4 0.7 0.7 0.4 0.2 0.3 0.4 1.5 2.6 2.8 1.7 1.6 0.5 3.6 2.7 2.8 0.3 0.1 0.0 0.0 0.1 0.1 0.1 0.1 0.2 0.2 0.1 0.1 0.0 0.0 0.1 0.1 0.2 2.5
0.0 0.6 4.7 5.5 7.3 34.4 4.0 4.0 1.8 4.3 0.8 1.1 0.7 4.0 0.4 0.3 0.1 2.9 4.1 5.6 6.4 0.6 7.8 3.6 4.0 0.6 0.1 0.1 0.0 0.0 0.0 0.0 0.1 0.2 0.1 0.4 1.2 1.7 1.8 2.7 3.5 4.5 5.9 6.6
4.0 3.8 38.5 11.2 6.2 2.7 2.9 1.4 1.5 1.4 1.2 0.8 0.7 1.1 1.0 0.8 1.8 4.0 8.5 2.8 1.5 8.0 8.6 5.1 3.5 1.6 0.7 0.2 0.2 0.1 0.9 1.3 1.6 3.2 3.5 3.9 4.2 7.3 8.3 10.5 11.9 10.2 9.0 11.9
4.8 2.2 28.2 7.3 4.2 2.8 3.4 2.6 1.9 1.7 1.1 1.0 1.3 0.7 0.3 2.6 5.5 2.8 2.2 6.2 6.6 3.7 5.6 5.8 4.0 1.6 0.7 1.2 0.9 1.1 1.8 3.7 4.1 4.1 4.7 7.0 6.1 4.5 6.4 7.5 7.5 5.4 8.8 9.9
1.9 1.1 4.8 3.1 6.6 12.6 9.9 7.2 6.6 1.2 1.6 1.1 1.2 1.8 4.0 5.1 3.7 2.1 3.7 1.4 4.0 8.4 5.1 3.9 1.7 2.3 2.3 2.3 2.4 3.3 3.6 4.1 4.7 4.5 4.1 4.4 5.2 5.0 5.9 4.9 5.1 9.8 8.0 12.1
0.6 11.9 4.8 7.5 6.0 10.1 8.6 5.2 2.7 0.9 3.2 7.0 1.3 3.0 2.2 0.9 2.9 1.4 1.9 9.5 8.0 5.8 4.7 3.6 1.7 2.4 3.4 4.4 4.1 5.8 5.0 4.5 4.2 4.2 3.9 4.6 4.4 3.9 2.2 3.1 6.5 3.8 4.4 9.7

GFSNW_prec_sndepth_123.txt.gz
Snowfall_Accumulation
nan nan nan nan nan nan nan 0.0 1.1 0.0 0.0 0.8 0.4 0.5 0.0 nan 0.0 0.0 0.0 0.0 0.0 0.0 0.0 0.0 0.0 0.1 0.0 0.0 0.0 0.0 0.0 0.1 0.2 0.0 0.0 0.0 0.0 0.0 0.0 0.4 0.7 1.8 1.1 3.1
nan nan nan nan nan nan 0.0 0.0 0.0 0.0 0.0 2.2 0.2 0.0 0.0 0.0 0.0 0.0 0.0 0.0 0.0 0.0 0.0 0.1 0.0 0.0 0.0 0.0 0.0 0.1 0.0 0.1 2.2 0.4 0.0 0.0 0.1 0.0 0.0 0.0 0.0 0.4 2.0 3.9
nan nan nan nan nan nan 0.0 0.2 2.5 0.1 0.0 0.0 0.0 0.0 0.0 0.0 0.0 0.0 0.0 0.0 0.0 0.0 0.0 0.0 0.1 0.0 0.0 0.0 0.0 nan nan 0.0 1.7 4.6 2.5 0.5 0.2 0.0 0.0 0.1 0.6 0.0 0.6 3.7
nan nan nan nan nan nan 0.0 0.1 2.5 0.0 1.6 0.5 0.0 0.0 0.0 0.0 0.0 0.0 0.0 0.0 0.0 0.0 0.0 0.0 0.0 0.0 0.0 0.0 nan 0.0 0.0 0.1 0.1 0.1 0.0 0.4 0.5 0.0 0.0 0.0 0.0 0.0 0.2 1.1
nan nan nan nan nan nan 0.0 4.9 0.6 0.0 0.0 0.0 0.0 0.0 0.0 0.0 0.0 0.0 0.0 0.0 0.0 0.0 0.0 0.0 0.0 0.0 0.0 0.0 0.0 0.0 0.0 0.3 0.0 0.0 0.0 0.2 0.5 0.0 0.0 0.0 0.0 0.0 0.0 0.1
nan nan nan nan nan nan 0.0 0.0 0.0 0.0 nan 0.0 0.2 0.2 0.0 0.0 0.0 0.0 0.0 0.0 0.0 0.0 0.0 0.0 0.0 0.0 0.0 0.0 0.0 0.0 0.0 0.1 0.2 0.0 0.0 0.2 2.2 2.1 1.6 0.2 0.1 0.1 0.2 0.3
nan nan nan nan nan nan 0.0 0.0 0.0 0.2 0.9 0.0 0.1 0.0 0.0 0.0 0.0 0.0 0.0 0.0 0.0 0.0 0.0 0.0 0.0 0.0 0.0 0.0 0.0 0.0 0.0 0.0 0.1 0.5 0.1 2.3 3.5 0.5 0.7 2.2 0.7 1.8 0.8 1.2
nan nan nan nan nan nan 0.0 0.0 0.0 0.0 1.5 0.0 0.0 0.0 0.0 0.0 0.0 0.0 0.0 0.0 0.0 0.0 0.0 0.1 0.0 0.1 0.0 0.0 0.0 0.0 0.0 0.0 1.1 1.5 0.6 1.6 0.3 0.0 0.3 0.6 0.5 0.4 0.4 0.2
nan nan nan nan nan nan 0.0 0.0 0.0 0.0 0.4 0.0 0.0 0.0 0.0 0.0 0.0 0.0 0.0 0.0 0.0 0.0 0.0 1.2 0.2 0.3 0.1 0.1 0.1 0.0 0.0 0.0 0.1 0.5 0.2 1.6 0.4 0.0 0.0 0.0 2.2 0.1 0.0 0.1
nan nan nan nan nan nan 0.0 0.0 0.0 0.1 1.7 0.0 0.0 0.0 0.0 0.0 0.0 0.0 0.0 0.0 0.0 0.0 0.6 1.1 0.8 0.3 0.0 0.1 0.3 1.1 0.2 0.4 0.6 0.3 0.8 0.7 0.0 0.0 0.0 0.8 2.5 0.0 0.0 0.1
nan nan nan nan nan nan 0.0 0.0 0.0 0.1 0.9 0.0 0.0 0.0 0.0 0.0 0.0 0.2 0.0 1.0 0.4 0.4 0.4 0.4 0.4 0.5 0.0 0.0 0.3 0.8 1.0 1.4 2.0 0.8 0.7 2.3 0.0 0.0 0.5 2.8 0.0 0.0 0.0 0.0
nan nan nan nan nan nan nan 0.0 0.0 0.0 0.0 0.1 0.0 0.0 0.0 0.0 0.0 0.0 0.0 0.1 0.1 0.0 0.9 0.9 0.3 0.7 0.8 0.1 1.5 0.1 3.8 0.3 1.4 0.4 2.2 0.2 0.0 0.3 0.1 0.0 0.0 0.1 0.0 0.0
nan nan nan nan nan nan nan 0.0 0.0 0.0 0.6 0.0 0.0 0.0 0.0 0.0 0.0 0.0 0.0 0.0 0.0 0.0 0.0 0.1 0.1 0.3 1.0 1.1 0.3 0.2 0.0 0.0 1.0 0.4 0.2 0.1 0.0 0.0 0.0 0.0 0.0 0.0 0.0 0.0
nan nan nan nan nan nan nan 0.0 0.0 0.0 0.0 1.5 0.0 0.0 0.0 0.0 0.0 0.0 0.0 0.0 0.0 0.0 0.0 0.1 0.4 0.4 0.0 0.2 0.1 0.2 0.1 0.2 1.4 0.6 0.6 0.3 0.2 0.2 0.2 0.1 0.0 0.0 0.0 0.0
nan nan nan nan nan nan nan 0.0 0.0 0.0 0.2 0.7 0.0 0.0 0.0 0.0 0.0 0.0 0.0 0.0 0.0 0.0 0.5 1.4 1.1 0.0 0.4 0.0 0.0 1.1 0.2 1.5 3.1 6.9 2.0 0.8 0.6 0.4 0.2 0.4 0.1 0.0 0.0 0.0
nan nan nan nan nan nan 0.0 1.9 0.0 0.0 0.0 0.6 0.4 0.0 0.0 0.0 0.0 0.0 0.0 0.0 0.0 0.0 0.0 1.0 0.8 0.0 0.1 2.8 1.0 0.1 0.2 0.2 0.3 2.7 1.0 0.5 0.8 0.5 0.3 0.6 0.6 0.0 0.1 0.1
nan nan nan nan nan 0.0 0.2 0.1 0.0 nan 0.0 0.4 0.7 0.2 0.0 0.0 0.0 0.0 0.0 0.0 0.0 0.0 0.0 0.1 0.0 0.0 0.0 0.9 1.3 0.3 0.2 0.3 0.3 0.4 0.5 0.9 0.8 1.9 0.4 0.4 0.5 0.2 0.2 0.3
nan nan nan nan nan nan 0.0 0.0 nan nan 0.0 0.0 2.0 0.7 0.1 0.0 0.2 0.2 0.0 0.0 0.0 0.0 0.0 0.1 0.1 0.0 0.2 2.8 0.1 0.0 0.1 0.1 0.3 0.2 0.2 0.5 0.6 0.5 0.5 0.3 0.3 0.4 0.5 0.6
nan nan nan 0.0 0.0 0.2 0.0 nan nan 0.0 0.3 1.4 2.1 2.0 3.9 0.0 0.1 0.2 0.2 0.0 2.4 0.0 0.4 0.1 0.0 0.9 4.3 2.4 0.3 0.1 0.1 0.1 0.1 0.1 0.0 0.1 0.4 0.5 0.6 0.6 0.5 0.3 0.3 0.4
nan 0.0 0.5 10.4 0.4 nan nan 0.1 2.5 0.9 0.1 0.0 0.9 0.0 1.0 0.1 1.2 0.6 0.5 0.3 1.1 2.3 1.4 0.1 1.1 3.4 0.6 0.3 0.2 0.1 0.1 0.0 0.1 0.2 0.2 0.0 0.1 0.2 0.1 0.0 0.0 0.0 0.0 0.0
0.2 3.6 3.4 0.0 nan 0.0 1.0 6.2 4.0 1.5 1.4 0.3 0.2 0.1 0.6 0.0 2.4 3.1 0.4 3.3 0.9 2.2 0.8 1.4 2.6 2.0 1.7 0.3 0.2 0.1 0.0 0.0 0.0 0.0 0.0 0.0 0.0 0.1 0.0 0.0 0.0 0.0 0.0 0.1
0.0 0.0 0.0 0.1 0.2 3.3 3.9 3.7 1.4 0.4 0.4 0.7 0.7 0.4 0.2 0.4 0.4 1.5 2.5 2.8 1.8 1.6 0.6 4.4 2.8 3.0 0.3 0.1 0.0 0.0 0.1 0.1 0.1 0.1 0.2 0.2 0.1 0.1 0.0 0.0 0.1 0.2 0.3 2.5
0.0 0.5 4.9 6.7 7.3 34.2 4.1 4.1 2.0 4.4 0.8 1.1 0.7 4.0 0.4 0.3 0.1 2.9 4.1 5.6 6.3 0.6 8.1 3.7 4.1 0.7 0.1 0.1 0.0 0.0 0.0 0.0 0.1 0.2 0.1 0.4 1.1 1.7 1.8 2.7 3.5 4.5 5.9 6.7
4.0 3.8 38.1 12.1 6.2 2.7 2.9 1.4 1.5 1.4 1.3 0.8 0.7 1.1 1.0 0.9 1.8 4.0 8.5 2.8 1.6 8.0 8.9 5.2 3.6 1.6 0.7 0.2 0.2 0.1 0.9 1.3 1.6 3.2 3.5 3.9 4.2 7.3 8.3 10.5 11.9 10.2 9.0 11.9
4.8 2.2 27.9 7.3 5.5 3.2 3.4 2.5 1.8 1.6 1.1 1.0 1.3 0.7 0.3 2.6 5.5 2.8 2.2 6.3 6.7 3.7 5.7 5.8 4.0 1.6 0.7 1.2 0.9 1.1 1.8 3.7 4.1 4.2 4.7 7.0 6.2 4.5 6.4 7.5 7.5 5.4 8.8 9.9
1.9 1.1 4.8 3.1 8.1 13.4 9.9 6.7 6.1 1.2 2.1 1.3 1.4 1.8 4.0 5.1 3.7 2.1 3.7 1.5 4.0 8.5 5.1 3.9 1.7 2.4 2.3 2.3 2.4 3.3 3.7 4.1 4.7 4.5 4.1 4.4 5.3 5.0 5.9 4.9 5.1 9.8 8.0 12.1
0.6 11.9 4.8 7.7 7.2 11.3 9.4 5.2 3.0 0.8 3.3 7.1 1.3 3.0 2.2 0.9 2.9 1.4 1.9 9.5 8.0 5.9 4.8 3.7 1.7 2.4 3.4 4.4 4.1 5.8 5.0 4.5 4.2 4.3 3.9 4.6 4.4 3.9 2.3 3.1 6.5 3.8 4.4 9.7

GFSNW_prec_sndepth_126.txt.gz
Snowfall_Accumulation
nan nan nan nan nan nan nan 0.0 1.1 0.0 0.0 0.8 0.4 0.5 0.0 nan 0.0 0.0 0.0 0.0 0.0 0.0 0.0 0.0 0.0 0.1 0.0 0.0 0.0 0.0 0.0 0.1 0.2 0.0 0.0 0.0 0.0 0.0 0.0 1.0 0.7 1.9 1.6 6.4
nan nan nan nan nan nan 0.0 0.0 0.0 0.0 0.0 2.2 0.2 0.0 0.0 0.0 0.0 0.0 0.0 0.0 0.0 0.0 0.0 0.1 0.0 0.0 0.0 0.0 0.0 0.1 0.0 0.1 2.2 0.4 0.0 0.0 0.1 0.0 0.0 0.0 0.0 1.1 3.6 6.2
nan nan nan nan nan nan 0.0 0.2 2.5 0.1 0.0 0.0 0.0 0.0 0.0 0.0 0.0 0.0 0.0 0.0 0.0 0.0 0.0 0.0 0.1 0.0 0.0 0.0 0.0 nan nan 0.0 1.7 4.6 2.5 1.0 0.5 0.1 0.0 0.1 0.8 0.3 2.3 6.0
nan nan nan nan nan nan 0.0 0.1 2.5 0.0 1.6 0.5 0.0 0.0 0.0 0.0 0.0 0.0 0.0 0.0 0.0 0.0 0.0 0.0 0.0 0.0 0.0 0.0 nan 0.0 0.0 0.1 0.1 0.1 0.0 0.5 0.8 0.2 0.3 0.1 0.0 0.4 1.4 2.0
nan nan nan nan nan nan 0.0 4.9 0.6 0.0 0.0 0.0 0.0 0.0 0.0 0.0 0.0 0.0 0.0 0.0 0.0 0.0 0.0 0.0 0.0 0.0 0.0 0.0 0.0 0.0 0.0 0.3 0.0 0.0 0.0 0.3 0.7 0.1 0.1 0.0 0.1 0.2 0.9 0.3
nan nan nan nan nan nan 0.0 0.0 0.0 0.0 nan 0.0 0.2 0.2 0.0 0.0 0.0 0.0 0.0 0.0 0.0 0.0 0.0 0.0 0.0 0.0 0.0 0.0 0.0 0.0 0.0 0.1 0.2 0.0 0.0 0.6 2.4 2.7 2.3 1.0 0.3 0.2 0.6 1.1
nan nan nan nan nan nan 0.0 0.0 0.0 0.2 0.9 0.0 0.1 0.0 0.0 0.0 0.0 0.0 0.0 0.0 0.0 0.0 0.0 0.0 0.0 0.0 0.0 0.0 0.0 0.0 0.0 0.0 0.1 0.5 0.4 2.5 3.7 0.4 0.7 3.1 1.2 2.7 1.4 2.2
nan nan nan nan nan nan 0.0 0.0 0.0 0.0 1.5 0.0 0.0 0.0 0.0 0.0 0.0 0.0 0.0 0.0 0.0 0.0 0.0 0.1 0.0 0.1 0.0 0.0 0.0 0.0 0.0 0.0 1.1 1.5 0.7 1.6 0.2 0.0 0.5 1.0 0.7 0.4 0.4 0.2
nan nan nan nan nan nan 0.0 0.0 0.0 0.0 0.4 0.0 0.0 0.0 0.0 0.0 0.0 0.0 0.0 0.0 0.0 0.0 0.0 1.2 0.2 0.3 0.1 0.1 0.1 0.0 0.0 0.0 0.1 0.5 0.2 1.6 0.4 0.0 0.0 0.1 2.4 0.1 0.0 0.1
nan nan nan nan nan nan 0.0 0.0 0.0 0.1 1.7 0.0 0.0 0.0 0.0 0.0 0.0 0.0 0.0 0.0 0.0 0.0 0.6 1.1 0.8 0.3 0.0 0.1 0.3 1.1 0.2 0.4 0.6 0.3 0.9 0.7 0.0 0.0 0.0 0.8 2.6 0.1 0.0 0.1
nan nan nan nan nan nan 0.0 0.0 0.0 0.1 0.9 0.0 0.0 0.0 0.0 0.0 0.0 0.2 0.0 1.0 0.4 0.4 0.4 0.4 0.4 0.5 0.0 0.0 0.3 0.9 1.0 1.4 2.0 0.8 0.7 2.3 0.0 0.0 0.6 3.2 0.1 0.0 0.0 0.0
nan nan nan nan nan nan nan 0.0 0.0 0.0 0.0 0.1 0.0 0.0 0.0 0.0 0.0 0.0 0.0 0.1 0.1 0.0 0.9 0.9 0.3 0.7 0.8 0.1 1.6 0.1 3.8 0.2 1.4 0.4 2.2 0.2 0.0 0.3 0.1 0.1 0.1 0.1 0.0 0.0
nan nan nan nan nan nan nan 0.0 0.0 0.0 0.6 0.0 0.0 0.0 0.0 0.0 0.0 0.0 0.0 0.0 0.0 0.0 0.0 0.1 0.1 0.3 1.0 1.1 0.3 0.2 0.0 0.0 1.0 0.4 0.2 0.1 0.0 0.0 0.0 0.0 0.1 0.0 0.1 0.0
nan nan nan nan nan nan nan 0.0 0.0 0.0 0.0 1.5 0.0 0.0 0.0 0.0 0.0 0.0 0.0 0.0 0.0 0.0 0.0 0.1 0.4 0.4 0.0 0.2 0.1 0.2 0.1 0.2 1.4 0.6 0.6 0.3 0.2 0.2 0.2 0.1 0.0 0.0 0.0 0.0
nan nan nan nan nan nan nan 0.0 0.0 0.0 0.2 0.7 0.0 0.0 0.0 0.0 0.0 0.0 0.0 0.0 0.0 0.0 0.5 1.4 1.2 0.0 0.4 0.0 0.0 1.1 0.2 1.5 3.1 6.9 2.0 0.8 0.7 0.4 0.2 0.5 0.1 0.0 0.1 0.0
nan nan nan nan nan nan 0.0 1.9 0.0 0.0 0.0 0.6 0.4 0.0 0.0 0.0 0.0 0.0 0.0 0.0 0.0 0.0 0.0 1.0 0.8 0.0 0.1 2.8 1.0 0.1 0.2 0.2 0.3 2.7 1.0 0.5 0.8 0.5 0.3 0.5 0.6 0.0 0.1 0.1
nan nan nan nan nan 0.0 0.2 0.1 0.0 nan 0.0 0.4 0.7 0.2 0.0 0.0 0.0 0.0 0.0 0.0 0.0 0.0 0.0 0.1 0.0 0.0 0.0 0.9 1.4 0.3 0.2 0.2 0.3 0.4 0.4 0.9 0.8 1.9 0.5 0.4 0.5 0.2 0.2 0.3
nan nan nan nan nan nan 0.0 0.0 nan nan 0.0 0.0 2.1 0.7 0.1 0.0 0.2 0.2 0.0 0.0 0.0 0.0 0.0 0.1 0.1 0.0 0.2 2.8 0.1 0.0 0.1 0.1 0.3 0.2 0.2 0.5 0.6 0.5 0.5 0.3 0.3 0.4 0.5 0.6
nan nan nan 0.0 0.0 0.2 0.0 nan nan 0.0 0.3 1.4 2.1 2.0 3.9 0.0 0.1 0.2 0.2 0.0 2.4 0.0 0.4 0.1 0.0 0.9 4.3 2.4 0.3 0.1 0.1 0.1 0.1 0.1 0.0 0.1 0.4 0.5 0.6 0.6 0.5 0.3 0.3 0.4
nan 0.0 0.5 10.4 0.4 nan nan 0.1 2.4 0.9 0.1 0.0 0.9 0.0 1.0 0.1 1.2 0.6 0.5 0.3 1.1 2.3 1.4 0.1 1.1 3.4 0.6 0.3 0.2 0.1 0.1 0.0 0.1 0.2 0.3 0.0 0.1 0.1 0.1 0.0 0.0 0.0 0.0 0.0
0.2 3.6 3.4 0.0 nan 0.0 0.9 6.2 4.0 1.5 1.4 0.3 0.2 0.1 0.6 0.0 2.5 3.1 0.4 3.3 0.9 2.2 0.8 1.5 2.6 2.0 1.7 0.3 0.2 0.1 0.0 0.0 0.0 0.0 0.1 0.0 0.0 0.1 0.0 0.0 0.0 0.0 0.0 0.1
0.0 0.0 0.0 0.1 0.2 3.3 3.9 3.7 1.4 0.4 0.4 0.7 0.7 0.4 0.2 0.4 0.4 1.5 2.5 2.8 1.8 1.7 0.6 4.7 2.9 3.0 0.3 0.1 0.0 0.0 0.1 0.1 0.1 0.1 0.2 0.2 0.1 0.1 0.0 0.0 0.1 0.2 0.3 2.5
0.0 0.5 4.9 6.7 7.3 34.0 4.1 4.1 2.0 4.4 0.8 1.1 0.7 4.0 0.4 0.4 0.1 2.9 4.1 5.7 6.4 0.6 8.1 3.7 4.1 0.7 0.1 0.1 0.0 0.0 0.0 0.0 0.1 0.2 0.1 0.4 1.1 1.7 1.7 2.7 3.5 4.5 5.9 6.7
4.0 3.8 38.0 12.1 6.2 2.7 2.9 1.4 1.5 1.4 1.3 0.9 0.7 1.1 1.1 0.9 1.8 4.0 8.5 2.8 1.6 8.1 9.0 5.2 3.7 1.6 0.7 0.2 0.2 0.1 0.9 1.3 1.6 3.2 3.5 3.9 4.2 7.3 8.3 10.5 11.9 10.2 9.0 11.9
4.8 2.2 27.7 7.3 5.5 3.3 3.4 2.5 1.8 1.6 1.1 1.0 1.4 0.7 0.3 2.6 5.5 2.8 2.2 6.3 6.7 3.7 5.7 5.8 4.1 1.6 0.7 1.2 0.9 1.1 1.8 3.7 4.1 4.2 4.8 7.0 6.2 4.6 6.4 7.5 7.5 5.4 8.8 9.9
1.9 1.1 4.8 3.1 8.1 13.4 9.9 6.7 6.1 1.1 2.1 1.4 1.7 1.9 4.0 5.1 3.7 2.1 3.7 1.5 4.0 8.5 5.1 3.9 1.7 2.4 2.3 2.3 2.4 3.3 3.7 4.1 4.7 4.5 4.1 4.4 5.3 5.0 5.9 4.9 5.1 9.8 8.0 12.1
0.6 11.9 4.8 7.7 7.2 11.4 9.6 5.3 3.0 0.8 3.4 7.3 1.3 3.0 2.2 0.9 2.9 1.5 1.8 9.5 8.0 5.9 4.8 3.7 1.7 2.4 3.4 4.4 4.1 5.9 5.0 4.5 4.2 4.3 3.9 4.6 4.4 3.9 2.3 3.1 6.5 3.8 4.4 9.7

GFSNW_prec_sndepth_132.txt.gz
Snowfall_Accumulation
nan nan nan nan nan nan nan 0.0 1.6 0.0 0.0 0.7 0.3 0.5 0.0 nan 0.0 0.0 0.0 0.0 0.0 0.0 0.0 0.0 0.0 0.0 0.0 0.0 0.0 0.0 0.0 0.0 0.2 0.0 0.0 0.0 0.0 0.0 0.0 1.5 0.5 1.4 1.9 11.0
nan nan nan nan nan nan 0.0 0.0 0.1 0.0 0.0 2.2 0.2 0.0 0.0 0.0 0.0 0.0 0.0 0.0 0.0 0.0 0.0 0.1 0.0 0.0 0.0 0.0 0.0 0.1 0.0 0.0 1.5 0.3 0.0 0.0 0.0 0.0 0.0 0.1 0.1 1.2 6.0 6.7
nan nan nan nan nan nan 0.0 0.2 3.0 0.1 0.0 0.0 0.0 0.1 0.0 0.0 0.0 0.0 0.0 0.0 0.0 0.0 0.0 0.0 0.1 0.0 0.0 0.0 0.0 nan nan 0.0 1.1 3.8 1.8 0.7 0.4 0.0 0.0 0.1 0.9 1.1 3.3 7.1
nan nan nan nan nan nan 0.0 0.1 2.2 0.0 1.6 0.5 0.0 0.0 0.0 0.0 0.0 0.0 0.0 0.0 0.0 0.0 0.0 0.0 0.0 0.0 0.0 0.0 nan 0.0 0.0 0.1 0.1 0.0 0.0 0.3 1.1 0.2 0.3 0.9 0.2 0.3 2.3 2.1
nan nan nan nan nan nan 0.0 4.4 0.5 0.0 0.0 0.0 0.0 0.0 0.0 0.0 0.0 0.0 0.0 0.0 0.0 0.0 0.0 0.0 0.0 0.0 0.0 0.0 0.0 0.0 0.0 0.2 0.0 0.0 0.0 0.2 0.8 0.2 0.0 0.5 0.3 0.4 1.7 0.4
nan nan nan nan nan nan 0.0 0.0 0.0 0.0 nan 0.0 0.2 0.1 0.0 0.0 0.0 0.0 0.0 0.0 0.0 0.0 0.0 0.0 0.0 0.0 0.0 0.0 0.0 0.0 0.0 0.1 0.1 0.0 0.0 1.0 3.8 2.7 2.1 0.8 0.4 0.6 1.0 1.1
nan nan nan nan nan nan 0.0 0.0 0.0 0.2 0.8 0.0 0.1 0.0 0.0 0.0 0.0 0.0 0.0 0.0 0.0 0.0 0.0 0.0 0.0 0.0 0.0 0.0 0.0 0.0 0.0 0.0 0.1 0.4 0.3 3.1 3.9 0.2 0.7 3.3 1.1 2.4 1.1 1.6
nan nan nan nan nan nan 0.0 0.0 0.0 0.0 1.3 0.0 0.0 0.0 0.0 0.0 0.0 0.0 0.0 0.0 0.0 0.0 0.0 0.1 0.0 0.1 0.0 0.0 0.0 0.0 0.0 0.0 1.0 1.4 0.6 1.2 0.2 0.0 0.4 0.8 0.7 0.3 0.4 0.2
nan nan nan nan nan nan 0.0 0.0 0.0 0.0 0.3 0.0 0.0 0.0 0.0 0.0 0.0 0.0 0.0 0.0 0.0 0.0 0.0 1.0 0.1 0.3 0.0 0.0 0.1 0.0 0.0 0.0 0.1 0.4 0.2 1.4 0.3 0.0 0.0 0.1 2.5 0.1 0.0 0.1
nan nan nan nan nan nan 0.0 0.0 0.0 0.1 1.4 0.0 0.0 0.0 0.0 0.0 0.0 0.0 0.0 0.0 0.0 0.0 0.5 0.9 0.7 0.2 0.0 0.1 0.2 0.7 0.2 0.3 0.5 0.3 0.7 0.7 0.0 0.0 0.0 1.0 2.8 0.1 0.1 0.1
nan nan nan nan nan nan 0.0 0.0 0.0 0.1 0.7 0.0 0.0 0.0 0.0 0.0 0.0 0.2 0.0 0.9 0.4 0.4 0.4 0.4 0.3 0.4 0.0 0.0 0.2 0.5 0.7 1.2 1.7 0.7 0.6 1.9 0.0 0.0 0.4 3.0 0.2 0.0 0.0 0.1
nan nan nan nan nan nan nan 0.0 0.0 0.0 0.0 0.0 0.0 0.0 0.0 0.0 0.0 0.0 0.0 0.1 0.0 0.0 0.7 0.7 0.2 0.6 0.6 0.1 1.4 0.1 3.5 0.2 1.2 0.3 2.0 0.1 0.0 0.2 0.1 0.1 0.1 0.1 0.0 0.0
nan nan nan nan nan nan nan 0.0 0.0 0.0 0.5 0.0 0.0 0.0 0.0 0.0 0.0 0.0 0.0 0.0 0.0 0.0 0.0 0.1 0.1 0.2 0.8 0.9 0.3 0.1 0.0 0.0 0.9 0.3 0.2 0.1 0.0 0.0 0.0 0.0 0.1 0.0 0.0 0.0
nan nan nan nan nan nan nan 0.0 0.0 0.0 0.0 1.2 0.0 0.0 0.0 0.0 0.0 0.0 0.0 0.0 0.0 0.0 0.0 0.1 0.3 0.4 0.0 0.2 0.0 0.1 0.1 0.1 1.1 0.5 0.5 0.2 0.1 0.1 0.1 0.1 0.0 0.0 0.0 0.0
nan nan nan nan nan nan nan 0.0 0.0 0.0 0.2 0.6 0.0 0.0 0.0 0.0 0.0 0.0 0.0 0.0 0.0 0.0 0.4 1.2 1.0 0.0 0.3 0.0 0.0 0.9 0.2 1.0 2.8 6.1 1.4 0.5 0.5 0.3 0.1 0.3 0.1 0.0 0.0 0.0
nan nan nan nan nan nan 0.0 1.7 0.0 0.0 0.0 0.5 0.4 0.0 0.0 0.0 0.0 0.0 0.0 0.0 0.0 0.0 0.0 0.9 0.6 0.0 0.1 2.3 0.8 0.1 0.1 0.1 0.2 2.2 0.6 0.4 0.6 0.3 0.2 0.4 0.5 0.1 0.0 0.1
nan nan nan nan nan 0.0 0.1 0.1 0.0 nan 0.0 0.3 0.6 0.1 0.0 0.0 0.0 0.0 0.0 0.0 0.0 0.0 0.0 0.1 0.0 0.0 0.0 0.8 1.2 0.2 0.1 0.1 0.2 0.2 0.3 0.7 0.6 1.8 0.3 0.3 0.4 0.2 0.2 0.2
nan nan nan nan nan nan 0.0 0.0 nan nan 0.0 0.0 1.9 0.7 0.1 0.0 0.2 0.2 0.0 0.0 0.0 0.0 0.0 0.1 0.1 0.0 0.2 2.4 0.1 0.0 0.0 0.0 0.2 0.2 0.1 0.3 0.4 0.4 0.4 0.2 0.2 0.2 0.3 0.4
nan nan nan 0.0 0.0 0.2 0.0 nan nan 0.0 0.3 1.2 1.9 1.8 3.8 0.0 0.1 0.2 0.2 0.0 2.1 0.0 0.3 0.1 0.0 0.8 3.8 1.8 0.2 0.1 0.0 0.1 0.1 0.1 0.0 0.0 0.2 0.3 0.4 0.4 0.3 0.2 0.2 0.2
nan 0.0 0.5 9.9 0.4 nan nan 0.1 2.1 0.8 0.1 0.0 0.8 0.0 1.0 0.1 1.0 0.6 0.5 0.3 1.0 2.2 1.3 0.1 1.0 2.8 0.4 0.2 0.1 0.0 0.0 0.0 0.1 0.2 0.2 0.0 0.1 0.1 0.1 0.0 0.0 0.0 0.0 0.0
0.1 3.3 3.1 0.0 nan 0.0 0.8 5.8 3.7 1.3 1.2 0.3 0.2 0.1 0.6 0.0 2.1 2.9 0.4 3.2 0.9 2.2 0.8 1.4 2.3 1.8 1.4 0.2 0.1 0.1 0.0 0.0 0.0 0.0 0.0 0.0 0.0 0.0 0.0 0.0 0.0 0.0 0.0 0.1
0.0 0.0 0.0 0.0 0.2 3.0 3.7 3.5 1.3 0.4 0.3 0.7 0.6 0.4 0.2 0.4 0.4 1.3 2.3 2.6 1.6 1.4 0.6 4.6 2.6 2.4 0.2 0.0 0.0 0.0 0.0 0.1 0.1 0.1 0.1 0.1 0.1 0.1 0.0 0.0 0.1 0.1 0.2 2.5
0.0 0.5 4.5 6.2 7.2 33.0 3.9 4.1 1.9 4.3 0.8 1.1 0.7 3.9 0.4 0.4 0.1 2.5 3.8 5.4 5.9 0.5 7.8 3.3 3.3 0.5 0.1 0.1 0.0 0.0 0.0 0.0 0.0 0.2 0.1 0.3 1.0 1.6 1.7 2.7 3.5 4.5 5.9 6.7
3.7 3.6 37.4 12.0 6.1 2.7 2.8 1.3 1.4 1.3 1.1 0.8 0.7 1.0 1.0 0.8 1.6 3.7 7.8 2.4 1.3 7.6 8.6 4.7 2.9 1.3 0.5 0.1 0.1 0.1 0.8 1.2 1.6 3.2 3.5 3.9 4.2 7.3 8.3 10.4 11.8 10.1 8.9 11.8
4.6 2.0 26.9 7.3 5.3 3.1 3.3 2.4 1.7 1.5 1.0 0.9 1.3 0.7 0.3 2.4 5.1 2.4 1.9 6.0 6.4 3.5 5.2 4.8 3.3 1.3 0.6 1.1 0.8 1.0 1.7 3.7 4.1 4.1 4.7 7.0 6.2 4.5 6.4 7.5 7.5 5.4 8.8 9.9
1.8 1.0 4.7 3.0 7.9 13.0 9.6 6.4 5.8 1.0 1.9 1.2 1.6 1.7 3.7 4.7 3.4 1.9 3.4 1.4 3.8 7.5 4.3 3.2 1.5 2.2 2.2 2.3 2.3 3.3 3.6 4.1 4.7 4.4 4.0 4.4 5.2 4.9 5.8 4.9 5.1 9.7 8.0 12.0
0.5 11.8 4.6 7.5 7.0 11.0 9.2 5.2 3.0 0.7 3.1 7.3 1.5 2.8 1.9 0.8 2.7 1.2 1.6 8.9 6.8 4.8 4.0 3.1 1.3 2.2 3.2 4.3 4.1 5.8 5.0 4.5 4.2 4.2 3.8 4.5 4.3 3.8 2.2 3.0 6.4 3.7 4.3 9.6

GFSNW_prec_sndepth_135.txt.gz
Snowfall_Accumulation
nan nan nan nan nan nan nan 0.0 2.1 0.0 0.0 1.1 0.3 0.4 0.0 nan 0.0 0.0 0.0 0.0 0.0 0.0 0.0 0.0 0.0 0.0 0.0 0.0 0.0 0.0 0.0 0.0 0.1 0.0 0.0 0.0 0.0 0.0 0.0 1.2 0.2 1.1 1.4 13.3
nan nan nan nan nan nan 0.0 0.1 0.3 0.0 0.0 2.6 0.2 0.0 0.0 0.0 0.0 0.0 0.0 0.0 0.0 0.0 0.0 0.0 0.0 0.0 0.0 0.0 0.0 0.0 0.0 0.0 0.9 0.2 0.0 0.0 0.0 0.0 0.0 0.1 0.0 0.5 5.0 6.2
nan nan nan nan nan nan 0.0 0.2 4.3 0.3 0.0 0.0 0.0 0.0 0.0 0.0 0.0 0.0 0.0 0.0 0.0 0.0 0.0 0.0 0.0 0.0 0.0 0.0 0.0 nan nan 0.0 0.5 2.8 0.9 0.4 0.2 0.0 0.0 0.0 0.8 1.5 2.5 6.0
nan nan nan nan nan nan 0.0 0.1 2.1 0.1 1.9 0.5 0.0 0.0 0.0 0.0 0.0 0.0 0.0 0.0 0.0 0.0 0.0 0.0 0.0 0.0 0.0 0.0 nan 0.0 0.0 0.0 0.0 0.0 0.0 0.1 0.4 0.1 0.1 0.4 0.2 0.4 1.4 1.2
nan nan nan nan nan nan 0.0 3.7 0.4 0.0 0.0 0.0 0.0 0.0 0.0 0.0 0.0 0.0 0.0 0.0 0.0 0.0 0.0 0.0 0.0 0.0 0.0 0.0 0.0 0.0 0.0 0.1 0.0 0.0 0.0 0.1 0.3 0.1 0.0 0.2 0.2 0.2 1.0 0.3
nan nan nan nan nan nan 0.0 0.0 0.0 0.0 nan 0.0 0.2 0.1 0.0 0.0 0.0 0.0 0.0 0.0 0.0 0.0 0.0 0.0 0.0 0.0 0.0 0.0 0.0 0.0 0.0 0.1 0.1 0.0 0.0 0.6 2.9 1.8 1.2 0.4 0.2 0.3 0.8 0.6
nan nan nan nan nan nan 0.0 0.0 0.0 0.1 0.6 0.0 0.0 0.0 0.0 0.0 0.0 0.0 0.0 0.0 0.0 0.0 0.0 0.0 0.0 0.0 0.0 0.0 0.0 0.0 0.0 0.0 0.1 0.3 0.2 2.3 3.0 0.1 0.3 2.5 0.6 1.7 0.6 1.0
nan nan nan nan nan nan 0.0 0.0 0.0 0.0 0.9 0.0 0.0 0.0 0.0 0.0 0.0 0.0 0.0 0.0 0.0 0.0 0.0 0.1 0.0 0.1 0.0 0.0 0.0 0.0 0.0 0.0 0.8 1.1 0.5 0.8 0.1 0.0 0.2 0.5 0.6 0.2 0.2 0.1
nan nan nan nan nan nan 0.0 0.0 0.0 0.0 0.2 0.0 0.0 0.0 0.0 0.0 0.0 0.0 0.0 0.0 0.0 0.0 0.0 0.7 0.1 0.3 0.0 0.0 0.0 0.0 0.0 0.0 0.1 0.3 0.1 1.0 0.2 0.0 0.0 0.1 2.4 0.1 0.0 0.1
nan nan nan nan nan nan 0.0 0.0 0.0 0.1 1.0 0.0 0.0 0.0 0.0 0.0 0.0 0.0 0.0 0.0 0.0 0.0 0.4 0.7 0.6 0.2 0.0 0.1 0.1 0.4 0.2 0.3 0.4 0.2 0.5 0.5 0.0 0.0 0.0 0.8 2.4 0.1 0.0 0.1
nan nan nan nan nan nan 0.0 0.0 0.0 0.0 0.5 0.0 0.0 0.0 0.0 0.0 0.0 0.1 0.0 0.7 0.3 0.3 0.3 0.3 0.3 0.4 0.0 0.0 0.1 0.2 0.3 0.9 1.3 0.5 0.4 1.2 0.0 0.0 0.2 2.5 0.1 0.0 0.0 0.1
nan nan nan nan nan nan nan 0.0 0.0 0.0 0.0 0.0 0.0 0.0 0.0 0.0 0.0 0.0 0.0 0.0 0.0 0.0 0.5 0.6 0.2 0.5 0.5 0.0 1.1 0.0 2.7 0.1 0.9 0.2 1.7 0.1 0.0 0.1 0.0 0.0 0.0 0.1 0.0 0.0
nan nan nan nan nan nan nan 0.0 0.0 0.0 0.3 0.0 0.0 0.0 0.0 0.0 0.0 0.0 0.0 0.0 0.0 0.0 0.0 0.1 0.0 0.1 0.6 0.7 0.2 0.1 0.0 0.0 0.7 0.2 0.1 0.0 0.0 0.0 0.0 0.0 0.0 0.0 0.0 0.0
nan nan nan nan nan nan nan 0.0 0.0 0.0 0.0 0.9 0.0 0.0 0.0 0.0 0.0 0.0 0.0 0.0 0.0 0.0 0.0 0.0 0.3 0.3 0.0 0.1 0.0 0.1 0.1 0.1 0.6 0.3 0.3 0.1 0.1 0.1 0.1 0.0 0.0 0.0 0.0 0.0
nan nan nan nan nan nan nan 0.0 0.0 0.0 0.1 0.4 0.0 0.0 0.0 0.0 0.0 0.0 0.0 0.0 0.0 0.0 0.3 0.9 0.7 0.0 0.3 0.0 0.0 0.7 0.1 0.5 2.3 5.2 0.7 0.2 0.3 0.1 0.1 0.2 0.0 0.0 0.0 0.0
nan nan nan nan nan nan 0.0 1.2 0.0 0.0 0.0 0.4 0.3 0.0 0.0 0.0 0.0 0.0 0.0 0.0 0.0 0.0 0.0 0.6 0.5 0.0 0.1 1.8 0.6 0.0 0.1 0.1 0.1 1.6 0.3 0.2 0.3 0.1 0.1 0.2 0.2 0.0 0.0 0.0
nan nan nan nan nan 0.0 0.1 0.0 0.0 nan 0.0 0.3 0.5 0.1 0.0 0.0 0.0 0.0 0.0 0.0 0.0 0.0 0.0 0.1 0.0 0.0 0.0 0.6 0.9 0.1 0.1 0.1 0.1 0.1 0.1 0.4 0.3 1.4 0.2 0.1 0.2 0.1 0.1 0.1
nan nan nan nan nan nan 0.0 0.0 nan nan 0.0 0.0 1.5 0.6 0.1 0.0 0.2 0.2 0.0 0.0 0.0 0.0 0.0 0.1 0.1 0.0 0.2 1.8 0.0 0.0 0.0 0.0 0.1 0.1 0.1 0.2 0.2 0.2 0.2 0.1 0.1 0.1 0.2 0.2
nan nan nan 0.0 0.0 0.1 0.0 nan nan 0.0 0.2 1.0 1.5 1.5 3.4 0.0 0.1 0.1 0.1 0.0 1.8 0.0 0.3 0.1 0.0 0.6 2.9 1.1 0.1 0.0 0.0 0.0 0.0 0.0 0.0 0.0 0.1 0.2 0.2 0.2 0.2 0.1 0.1 0.1
nan 0.0 0.4 8.7 0.3 nan nan 0.1 1.6 0.6 0.0 0.0 0.6 0.0 0.9 0.1 0.8 0.5 0.4 0.2 0.9 1.9 1.1 0.1 0.8 2.1 0.2 0.1 0.1 0.0 0.0 0.0 0.0 0.1 0.1 0.0 0.0 0.1 0.0 0.0 0.0 0.0 0.0 0.0
0.1 2.7 2.9 0.0 nan 0.0 0.7 4.6 2.8 1.1 0.9 0.2 0.1 0.0 0.5 0.0 1.7 2.4 0.3 2.9 0.8 1.9 0.7 1.3 2.0 1.4 0.9 0.1 0.1 0.0 0.0 0.0 0.0 0.0 0.0 0.0 0.0 0.0 0.0 0.0 0.0 0.0 0.0 0.0
0.0 0.0 0.0 0.0 0.1 2.4 2.7 3.0 1.1 0.3 0.3 0.6 0.6 0.3 0.2 0.4 0.3 1.0 1.9 2.2 1.4 1.0 0.5 4.1 2.1 1.7 0.1 0.0 0.0 0.0 0.0 0.0 0.0 0.0 0.1 0.1 0.0 0.0 0.0 0.0 0.0 0.1 0.1 2.4
0.0 0.4 3.5 5.0 6.4 29.5 3.3 3.7 1.6 4.0 0.7 1.0 0.6 3.6 0.3 0.3 0.1 2.1 3.1 4.7 5.1 0.4 7.3 2.6 2.4 0.3 0.1 0.0 0.0 0.0 0.0 0.0 0.0 0.1 0.1 0.2 0.6 1.2 1.3 2.5 3.3 4.4 5.8 6.6
3.0 2.9 33.7 10.8 5.5 2.2 2.3 1.1 1.1 1.1 1.0 0.7 0.6 0.9 0.9 0.6 1.4 3.1 6.8 1.9 1.1 6.7 7.7 3.5 2.0 0.6 0.3 0.1 0.1 0.0 0.5 1.0 1.2 2.9 3.4 3.8 4.1 7.2 8.2 10.4 11.7 10.1 8.9 11.7
3.7 1.6 23.5 6.6 4.5 2.8 3.0 2.1 1.5 1.3 0.9 0.8 1.1 0.6 0.3 1.9 4.4 2.0 1.4 5.2 5.6 2.9 4.1 3.4 2.3 0.6 0.3 0.6 0.4 0.6 1.5 3.6 4.0 4.0 4.6 7.0 6.1 4.5 6.3 7.4 7.4 5.2 8.7 9.8
1.3 0.7 4.0 2.5 7.1 11.9 8.7 5.8 5.3 0.9 1.6 1.0 1.2 1.2 3.0 3.9 2.8 1.3 2.7 0.9 3.1 5.8 3.0 2.2 1.1 1.3 1.6 1.6 1.8 2.9 3.4 4.0 4.6 4.3 3.9 4.3 5.2 4.8 5.6 4.8 5.0 9.7 7.9 12.0
0.3 10.8 4.1 6.6 6.0 10.2 8.4 4.5 2.6 0.6 2.6 6.4 1.2 2.2 1.2 0.7 2.2 0.8 1.2 7.4 5.1 3.4 2.7 2.2 0.5 1.2 2.2 3.8 3.8 5.8 4.9 4.4 4.1 4.1 3.7 4.4 4.2 3.7 2.1 2.9 6.2 3.6 4.2 9.5

GFSNW_prec_sndepth_138.txt.gz
Snowfall_Accumulation
nan nan nan nan nan nan nan 0.0 2.1 0.0 0.0 1.6 0.3 0.4 0.0 nan 0.0 0.0 0.0 0.0 0.0 0.0 0.0 0.0 0.0 0.0 0.0 0.0 0.0 0.0 0.0 0.0 0.1 0.0 0.0 0.0 0.0 0.0 0.0 1.0 0.1 1.1 2.1 13.4
nan nan nan nan nan nan 0.0 0.2 0.3 0.0 0.0 3.1 0.5 0.0 0.0 0.0 0.0 0.0 0.0 0.0 0.0 0.0 0.0 0.0 0.0 0.0 0.0 0.0 0.0 0.0 0.0 0.0 0.7 0.1 0.0 0.0 0.0 0.0 0.0 0.0 0.0 0.3 4.8 6.1
nan nan nan nan nan nan 0.0 0.2 5.4 0.5 0.0 0.0 0.0 0.0 0.0 0.0 0.0 0.0 0.0 0.0 0.0 0.0 0.0 0.0 0.0 0.0 0.0 0.0 0.0 nan nan 0.0 0.3 2.3 0.5 0.3 0.1 0.0 0.0 0.0 0.7 1.3 3.1 6.2
nan nan nan nan nan nan 0.0 0.1 1.7 0.1 2.5 0.6 0.0 0.0 0.0 0.0 0.0 0.0 0.0 0.0 0.0 0.0 0.0 0.0 0.0 0.0 0.0 0.0 nan 0.0 0.0 0.0 0.0 0.0 0.0 0.1 0.2 0.1 0.1 0.2 0.1 0.3 1.1 0.8
nan nan nan nan nan nan 0.0 3.3 0.4 0.0 0.0 0.0 0.0 0.0 0.0 0.0 0.0 0.0 0.0 0.0 0.0 0.0 0.0 0.0 0.0 0.0 0.0 0.0 0.0 0.0 0.0 0.1 0.0 0.0 0.0 0.0 0.2 0.1 0.0 0.1 0.1 0.2 0.7 0.3
nan nan nan nan nan nan 0.0 0.0 0.0 0.0 nan 0.0 0.2 0.1 0.0 0.0 0.0 0.0 0.0 0.0 0.0 0.0 0.0 0.0 0.0 0.0 0.0 0.0 0.0 0.0 0.0 0.1 0.1 0.0 0.0 0.3 2.3 1.2 0.7 0.2 0.1 0.2 0.7 0.4
nan nan nan nan nan nan 0.0 0.0 0.0 0.1 0.7 0.0 0.0 0.0 0.0 0.0 0.0 0.0 0.0 0.0 0.0 0.0 0.0 0.0 0.0 0.0 0.0 0.0 0.0 0.0 0.0 0.0 0.1 0.3 0.1 2.0 2.5 0.0 0.2 2.1 0.4 1.4 0.3 0.6
nan nan nan nan nan nan 0.0 0.0 0.0 0.0 0.9 0.0 0.0 0.0 0.0 0.0 0.0 0.0 0.0 0.0 0.0 0.0 0.0 0.1 0.0 0.1 0.0 0.0 0.0 0.0 0.0 0.0 0.7 0.9 0.4 0.6 0.1 0.0 0.1 0.3 0.5 0.1 0.2 0.1
nan nan nan nan nan nan 0.0 0.0 0.0 0.0 0.1 0.0 0.0 0.0 0.0 0.0 0.0 0.0 0.0 0.0 0.0 0.0 0.0 0.6 0.0 0.2 0.0 0.0 0.0 0.0 0.0 0.0 0.1 0.3 0.1 0.9 0.2 0.0 0.0 0.0 2.3 0.1 0.0 0.0
nan nan nan nan nan nan 0.0 0.0 0.0 0.1 0.7 0.0 0.0 0.0 0.0 0.0 0.0 0.0 0.0 0.0 0.0 0.0 0.3 0.6 0.5 0.2 0.0 0.1 0.1 0.3 0.1 0.2 0.4 0.2 0.4 0.5 0.0 0.0 0.0 0.8 2.2 0.0 0.0 0.1
nan nan nan nan nan nan 0.0 0.0 0.0 0.0 0.4 0.0 0.0 0.0 0.0 0.0 0.0 0.1 0.0 0.6 0.2 0.2 0.2 0.2 0.2 0.3 0.0 0.0 0.0 0.1 0.2 0.8 1.1 0.4 0.3 1.0 0.0 0.0 0.1 2.2 0.1 0.0 0.0 0.0
nan nan nan nan nan nan nan 0.0 0.0 0.0 0.0 0.0 0.0 0.0 0.0 0.0 0.0 0.0 0.0 0.0 0.0 0.0 0.4 0.5 0.2 0.4 0.4 0.0 0.9 0.0 2.2 0.1 0.8 0.1 1.5 0.0 0.0 0.1 0.0 0.0 0.0 0.1 0.0 0.0
nan nan nan nan nan nan nan 0.0 0.0 0.0 0.2 0.0 0.0 0.0 0.0 0.0 0.0 0.0 0.0 0.0 0.0 0.0 0.0 0.0 0.0 0.1 0.5 0.6 0.2 0.1 0.0 0.0 0.6 0.1 0.1 0.0 0.0 0.0 0.0 0.0 0.0 0.0 0.0 0.0
nan nan nan nan nan nan nan 0.0 0.0 0.0 0.0 0.7 0.0 0.0 0.0 0.0 0.0 0.0 0.0 0.0 0.0 0.0 0.0 0.0 0.2 0.3 0.0 0.1 0.0 0.1 0.0 0.1 0.3 0.2 0.2 0.1 0.0 0.0 0.1 0.0 0.0 0.0 0.0 0.0
nan nan nan nan nan nan nan 0.0 0.0 0.0 0.1 0.4 0.0 0.0 0.0 0.0 0.0 0.0 0.0 0.0 0.0 0.0 0.2 0.7 0.6 0.0 0.2 0.0 0.0 0.6 0.1 0.3 1.9 4.4 0.4 0.1 0.2 0.1 0.1 0.1 0.0 0.0 0.0 0.0
nan nan nan nan nan nan 0.0 0.9 0.0 0.0 0.0 0.3 0.3 0.0 0.0 0.0 0.0 0.0 0.0 0.0 0.0 0.0 0.0 0.5 0.4 0.0 0.1 1.4 0.5 0.0 0.0 0.0 0.0 1.3 0.2 0.1 0.2 0.1 0.1 0.1 0.1 0.0 0.0 0.0
nan nan nan nan nan 0.0 0.1 0.0 0.0 nan 0.0 0.2 0.4 0.1 0.0 0.0 0.0 0.0 0.0 0.0 0.0 0.0 0.0 0.1 0.0 0.0 0.0 0.5 0.7 0.0 0.0 0.0 0.1 0.1 0.1 0.3 0.2 1.2 0.1 0.1 0.1 0.1 0.0 0.1
nan nan nan nan nan nan 0.0 0.0 nan nan 0.0 0.0 1.2 0.6 0.1 0.0 0.2 0.2 0.0 0.0 0.0 0.0 0.0 0.1 0.0 0.0 0.1 1.4 0.0 0.0 0.0 0.0 0.1 0.1 0.0 0.1 0.1 0.1 0.2 0.1 0.1 0.1 0.1 0.1
nan nan nan 0.0 0.0 0.1 0.0 nan nan 0.0 0.2 0.8 1.2 1.2 3.0 0.0 0.1 0.1 0.1 0.0 1.5 0.0 0.3 0.1 0.0 0.5 2.3 0.8 0.0 0.0 0.0 0.0 0.0 0.0 0.0 0.0 0.1 0.1 0.1 0.1 0.1 0.1 0.1 0.1
nan 0.0 0.3 7.7 0.3 nan nan 0.0 1.2 0.5 0.0 0.0 0.5 0.0 0.7 0.1 0.6 0.4 0.4 0.2 0.8 1.8 1.0 0.0 0.7 1.7 0.1 0.1 0.0 0.0 0.0 0.0 0.0 0.0 0.1 0.0 0.0 0.0 0.0 0.0 0.0 0.0 0.0 0.0
0.1 2.2 2.5 0.0 nan 0.0 0.5 3.8 2.2 0.8 0.7 0.2 0.1 0.0 0.4 0.0 1.4 2.1 0.3 2.6 0.7 1.7 0.6 1.2 1.7 1.1 0.6 0.1 0.0 0.0 0.0 0.0 0.0 0.0 0.0 0.0 0.0 0.0 0.0 0.0 0.0 0.0 0.0 0.0
0.0 0.0 0.0 0.0 0.1 2.0 2.0 2.6 0.9 0.3 0.2 0.5 0.5 0.3 0.1 0.3 0.2 0.9 1.6 1.8 1.2 0.7 0.4 3.8 1.8 1.3 0.1 0.0 0.0 0.0 0.0 0.0 0.0 0.0 0.1 0.0 0.0 0.0 0.0 0.0 0.0 0.0 0.1 2.4
0.0 0.3 2.7 4.0 5.7 26.7 2.8 3.4 1.4 3.6 0.6 0.9 0.5 3.3 0.3 0.3 0.0 1.7 2.7 4.3 4.6 0.3 6.8 2.1 1.8 0.2 0.0 0.0 0.0 0.0 0.0 0.0 0.0 0.1 0.0 0.1 0.4 0.9 1.0 2.4 3.3 4.4 5.8 6.6
2.5 2.3 30.9 9.8 4.9 1.8 1.9 0.9 1.0 0.9 0.8 0.6 0.5 0.8 0.7 0.6 1.2 2.6 6.2 1.6 0.9 6.5 7.1 2.9 1.4 0.3 0.1 0.0 0.0 0.0 0.3 0.8 0.9 2.5 3.2 3.8 4.1 7.2 8.2 10.3 11.7 10.0 8.8 11.6
3.1 1.4 20.9 6.0 3.9 2.4 2.6 1.8 1.3 1.1 0.8 0.7 0.9 0.5 0.2 1.7 4.0 1.7 1.2 4.8 5.1 2.5 3.4 2.5 1.7 0.3 0.2 0.3 0.2 0.3 1.2 3.6 4.0 3.9 4.6 6.9 6.1 4.4 6.3 7.4 7.3 5.2 8.7 9.7
1.1 0.5 3.5 2.2 6.3 10.9 7.9 5.2 4.9 0.8 1.3 0.8 1.0 0.9 2.5 3.4 2.4 1.0 2.3 0.7 2.7 4.7 2.2 1.7 0.9 0.7 1.0 1.0 1.2 2.5 3.1 3.9 4.5 4.2 3.8 4.2 5.1 4.8 5.5 4.7 4.9 9.6 7.9 11.9
0.2 10.0 3.4 5.7 5.1 9.1 7.4 3.9 2.3 0.5 2.2 5.7 1.0 1.8 0.8 0.6 2.0 0.6 1.0 6.5 4.0 2.6 2.0 1.6 0.3 0.7 1.4 3.1 3.5 5.7 4.8 4.3 4.0 4.0 3.7 4.3 4.1 3.7 2.0 2.8 6.1 3.5 4.1 9.5

GFSNW_prec_sndepth_141.txt.gz
Snowfall_Accumulation
nan nan nan nan nan nan nan 0.0 2.1 0.0 0.0 1.9 0.3 0.6 0.0 nan 0.0 0.0 0.0 0.0 0.0 0.0 0.0 0.0 0.0 0.0 0.0 0.0 0.0 0.0 0.0 0.0 0.1 0.0 0.0 0.0 0.0 0.0 0.0 1.0 0.1 1.0 2.1 13.5
nan nan nan nan nan nan 0.0 0.2 0.3 0.0 0.0 3.4 0.7 0.0 0.0 0.0 0.0 0.0 0.0 0.0 0.0 0.0 0.0 0.0 0.0 0.0 0.0 0.0 0.0 0.0 0.0 0.0 0.6 0.1 0.0 0.0 0.0 0.0 0.0 0.0 0.0 0.3 5.1 6.4
nan nan nan nan nan nan 0.0 0.2 6.8 0.8 0.0 0.0 0.0 0.0 0.0 0.0 0.0 0.0 0.0 0.0 0.0 0.0 0.0 0.0 0.0 0.0 0.0 0.0 0.0 nan nan 0.0 0.3 2.2 0.5 0.2 0.1 0.0 0.0 0.0 0.6 1.3 3.1 6.2
nan nan nan nan nan nan 0.0 0.1 2.0 0.3 3.7 1.3 0.0 0.0 0.0 0.0 0.0 0.0 0.0 0.0 0.0 0.0 0.0 0.0 0.0 0.0 0.0 0.0 nan 0.0 0.0 0.0 0.0 0.0 0.0 0.0 0.2 0.0 0.1 0.2 0.1 0.3 1.1 0.8
nan nan nan nan nan nan 0.0 3.2 0.4 0.0 0.0 0.0 0.0 0.0 0.0 0.0 0.0 0.0 0.0 0.0 0.0 0.0 0.0 0.0 0.0 0.0 0.0 0.0 0.0 0.0 0.0 0.1 0.0 0.0 0.0 0.0 0.1 0.1 0.0 0.1 0.1 0.1 0.7 0.3
nan nan nan nan nan nan 0.0 0.0 0.0 0.0 nan 0.0 0.2 0.1 0.0 0.0 0.0 0.0 0.0 0.0 0.0 0.0 0.0 0.0 0.0 0.0 0.0 0.0 0.0 0.0 0.0 0.1 0.1 0.0 0.0 0.3 2.3 1.2 0.7 0.2 0.1 0.2 0.6 0.3
nan nan nan nan nan nan 0.0 0.0 0.0 0.1 0.7 0.0 0.0 0.0 0.0 0.0 0.0 0.0 0.0 0.0 0.0 0.0 0.0 0.0 0.0 0.0 0.0 0.0 0.0 0.0 0.0 0.0 0.0 0.5 0.1 2.0 2.4 0.0 0.1 2.1 0.3 1.3 0.3 0.6
nan nan nan nan nan nan 0.0 0.0 0.0 0.0 1.0 0.0 0.0 0.0 0.0 0.0 0.0 0.0 0.0 0.0 0.0 0.0 0.0 0.1 0.0 0.1 0.0 0.0 0.0 0.0 0.0 0.0 0.7 1.1 0.4 0.5 0.0 0.0 0.1 0.3 0.5 0.1 0.1 0.1
nan nan nan nan nan nan 0.0 0.0 0.0 0.0 0.1 0.1 0.0 0.0 0.0 0.0 0.0 0.0 0.0 0.0 0.0 0.0 0.0 0.6 0.0 0.2 0.0 0.0 0.0 0.0 0.0 0.0 0.1 0.3 0.1 1.0 0.2 0.0 0.0 0.0 2.3 0.0 0.0 0.0
nan nan nan nan nan nan 0.0 0.0 0.0 0.1 0.7 0.0 0.0 0.0 0.0 0.0 0.0 0.0 0.0 0.0 0.0 0.0 0.3 0.6 0.5 0.2 0.0 0.1 0.1 0.2 0.1 0.2 0.4 0.2 0.5 0.5 0.0 0.0 0.0 0.8 2.2 0.0 0.0 0.1
nan nan nan nan nan nan 0.0 0.0 0.0 0.0 0.3 0.0 0.0 0.0 0.0 0.0 0.0 0.1 0.0 0.6 0.2 0.2 0.2 0.2 0.2 0.3 0.0 0.0 0.0 0.1 0.2 0.7 1.1 0.4 0.3 1.0 0.0 0.0 0.1 2.2 0.1 0.0 0.0 0.0
nan nan nan nan nan nan nan 0.0 0.0 0.0 0.0 0.0 0.0 0.0 0.0 0.0 0.0 0.0 0.0 0.0 0.0 0.0 0.4 0.5 0.1 0.4 0.4 0.0 0.9 0.0 2.2 0.1 0.8 0.1 1.5 0.0 0.0 0.1 0.0 0.0 0.0 0.0 0.0 0.0
nan nan nan nan nan nan nan 0.0 0.0 0.0 0.2 0.0 0.0 0.0 0.0 0.0 0.0 0.0 0.0 0.0 0.0 0.0 0.0 0.0 0.0 0.1 0.5 0.6 0.2 0.1 0.0 0.0 0.6 0.1 0.1 0.0 0.0 0.0 0.0 0.0 0.0 0.0 0.0 0.0
nan nan nan nan nan nan nan 0.0 0.0 0.0 0.0 0.7 0.0 0.0 0.0 0.0 0.0 0.0 0.0 0.0 0.0 0.0 0.0 0.0 0.2 0.3 0.0 0.1 0.0 0.0 0.0 0.1 0.3 0.2 0.2 0.0 0.0 0.0 0.0 0.0 0.0 0.0 0.0 0.0
nan nan nan nan nan nan nan 0.0 0.0 0.0 0.1 0.4 0.0 0.0 0.0 0.0 0.0 0.0 0.0 0.0 0.0 0.0 0.2 0.7 0.6 0.0 0.2 0.0 0.0 0.5 0.1 0.2 1.9 4.3 0.3 0.1 0.2 0.1 0.0 0.1 0.0 0.0 0.0 0.0
nan nan nan nan nan nan 0.0 0.8 0.0 0.0 0.0 0.2 0.3 0.0 0.0 0.0 0.0 0.0 0.0 0.0 0.0 0.0 0.0 0.5 0.4 0.0 0.1 1.4 0.5 0.0 0.0 0.0 0.0 1.2 0.1 0.1 0.1 0.1 0.1 0.1 0.1 0.0 0.0 0.0
nan nan nan nan nan 0.0 0.1 0.0 0.0 nan 0.0 0.2 0.4 0.1 0.0 0.0 0.0 0.0 0.0 0.0 0.0 0.0 0.0 0.1 0.0 0.0 0.0 0.5 0.7 0.0 0.0 0.0 0.0 0.0 0.1 0.2 0.1 1.1 0.1 0.1 0.1 0.0 0.0 0.1
nan nan nan nan nan nan 0.0 0.0 nan nan 0.0 0.0 1.2 0.6 0.1 0.0 0.2 0.2 0.0 0.0 0.0 0.0 0.0 0.1 0.0 0.0 0.1 1.4 0.0 0.0 0.0 0.0 0.1 0.1 0.0 0.1 0.1 0.1 0.1 0.1 0.1 0.1 0.1 0.1
nan nan nan 0.0 0.0 0.1 0.0 nan nan 0.0 0.1 0.7 1.2 1.2 3.0 0.0 0.1 0.1 0.1 0.0 1.4 0.0 0.3 0.1 0.0 0.5 2.3 0.7 0.0 0.0 0.0 0.0 0.0 0.0 0.0 0.0 0.1 0.1 0.1 0.1 0.1 0.1 0.1 0.1
nan 0.0 0.3 7.2 0.3 nan nan 0.0 1.1 0.4 0.0 0.0 0.5 0.0 0.7 0.1 0.6 0.4 0.4 0.2 0.8 1.8 1.0 0.0 0.7 1.6 0.1 0.1 0.0 0.0 0.0 0.0 0.0 0.0 0.1 0.0 0.0 0.0 0.0 0.0 0.0 0.0 0.0 0.0
0.1 2.0 2.3 0.0 nan 0.0 0.5 3.5 2.1 0.8 0.7 0.2 0.1 0.0 0.4 0.0 1.4 2.0 0.3 2.5 0.7 1.7 0.6 1.2 1.7 1.1 0.6 0.0 0.0 0.0 0.0 0.0 0.0 0.0 0.0 0.0 0.0 0.0 0.0 0.0 0.0 0.0 0.0 0.0
0.0 0.0 0.0 0.0 0.1 1.9 1.9 2.5 0.9 0.2 0.2 0.4 0.5 0.3 0.1 0.3 0.2 0.8 1.6 1.8 1.2 0.8 0.4 3.7 1.7 1.2 0.1 0.0 0.0 0.0 0.0 0.0 0.0 0.0 0.0 0.0 0.0 0.0 0.0 0.0 0.0 0.0 0.1 2.4
0.0 0.3 2.4 3.7 5.5 33.6 2.8 3.4 1.3 3.6 0.6 0.8 0.5 3.2 0.3 0.3 0.0 1.6 2.6 4.2 4.6 0.3 6.8 2.1 1.8 0.2 0.0 0.0 0.0 0.0 0.0 0.0 0.0 0.1 0.0 0.1 0.4 0.9 1.0 2.4 3.3 4.4 5.8 6.6
2.3 2.1 38.3 9.7 4.8 1.8 1.9 0.9 0.9 0.9 0.8 0.5 0.5 0.8 0.7 0.6 1.1 2.5 6.1 1.5 0.9 6.5 7.2 2.8 1.4 0.3 0.1 0.0 0.0 0.0 0.3 0.7 0.9 2.5 3.2 3.8 4.1 7.2 8.2 10.3 11.7 10.0 8.8 11.6
2.9 1.3 27.1 6.0 3.7 2.3 2.5 1.7 1.2 1.1 0.7 0.6 0.8 0.5 0.2 1.6 3.9 1.7 1.1 4.8 5.1 2.5 3.3 2.4 1.6 0.3 0.1 0.3 0.2 0.3 1.2 3.6 4.0 3.9 4.6 6.9 6.1 4.5 6.3 7.4 7.3 5.2 8.7 9.7
1.0 0.4 3.4 2.1 6.2 10.8 7.8 5.1 4.8 0.8 1.2 0.8 0.9 0.9 2.5 3.3 2.4 1.0 2.3 0.7 2.7 4.6 2.1 1.5 0.8 0.7 0.9 1.0 1.2 2.5 3.1 3.9 4.5 4.2 3.8 4.2 5.1 4.8 5.6 4.7 4.9 9.6 7.9 11.9
0.2 10.1 3.3 5.4 4.9 8.9 7.1 3.6 2.2 0.5 2.1 5.6 1.0 1.8 0.8 0.6 1.9 0.5 1.0 6.3 3.8 2.4 1.8 1.5 0.2 0.7 1.3 3.1 3.5 5.7 4.8 4.3 4.0 4.0 3.7 4.3 4.1 3.7 2.0 2.9 6.1 3.5 4.1 9.5